<?xml version="1.0" encoding="UTF-8" standalone="no" ?>
<gpx xmlns="http://www.topografix.com/GPX/1/1" xmlns:xsi="http://www.w3.org/2001/XMLSchema-instance" xsi:schemaLocation="http://www.topografix.com/GPX/1/1 http://www.topografix.com/GPX/1/1/gpx.xsd" version="1.1" creator="VisuGPX - https://www.visugpx.com">
  <metadata>
    <name>Tentative</name>
  </metadata>
  <trk>
    <name><![CDATA[2023 10 04 tentative]]></name>
    <trkseg>
      <trkpt lat="45.83331" lon="4.70874">
        <ele>358.02838</ele>
        <time>2023-10-04T07:57:35.000Z</time>
      </trkpt>
      <trkpt lat="45.8333" lon="4.70877">
        <ele>332.39392</ele>
        <time>2023-10-04T07:57:37.066Z</time>
      </trkpt>
      <trkpt lat="45.83331" lon="4.70881">
        <ele>323.90424</ele>
        <time>2023-10-04T07:57:39.000Z</time>
      </trkpt>
      <trkpt lat="45.83331" lon="4.70884">
        <ele>320.39594</ele>
        <time>2023-10-04T07:57:41.000Z</time>
      </trkpt>
      <trkpt lat="45.83334" lon="4.70884">
        <ele>317.86823</ele>
        <time>2023-10-04T07:58:19.000Z</time>
      </trkpt>
      <trkpt lat="45.83332" lon="4.70882">
        <ele>316.16208</ele>
        <time>2023-10-04T07:58:26.000Z</time>
      </trkpt>
      <trkpt lat="45.83333" lon="4.70884">
        <ele>314.80795</ele>
        <time>2023-10-04T07:58:31.000Z</time>
      </trkpt>
      <trkpt lat="45.83335" lon="4.70886">
        <ele>313.47699</ele>
        <time>2023-10-04T07:58:38.000Z</time>
      </trkpt>
      <trkpt lat="45.83336" lon="4.70888">
        <ele>312.2782</ele>
        <time>2023-10-04T07:58:40.000Z</time>
      </trkpt>
      <trkpt lat="45.83335" lon="4.70888">
        <ele>311.41974</ele>
        <time>2023-10-04T07:58:46.000Z</time>
      </trkpt>
      <trkpt lat="45.83336" lon="4.70886">
        <ele>310.78058</ele>
        <time>2023-10-04T07:58:52.000Z</time>
      </trkpt>
      <trkpt lat="45.83335" lon="4.70884">
        <ele>310.36276</ele>
        <time>2023-10-04T07:59:04.000Z</time>
      </trkpt>
      <trkpt lat="45.83334" lon="4.7088">
        <ele>310.02368</ele>
        <time>2023-10-04T07:59:09.000Z</time>
      </trkpt>
      <trkpt lat="45.83334" lon="4.70877">
        <ele>309.72955</ele>
        <time>2023-10-04T07:59:10.000Z</time>
      </trkpt>
      <trkpt lat="45.83335" lon="4.70872">
        <ele>309.52454</ele>
        <time>2023-10-04T07:59:11.000Z</time>
      </trkpt>
      <trkpt lat="45.83335" lon="4.70865">
        <ele>309.36908</ele>
        <time>2023-10-04T07:59:12.000Z</time>
      </trkpt>
      <trkpt lat="45.83335" lon="4.70856">
        <ele>309.25085</ele>
        <time>2023-10-04T07:59:13.000Z</time>
      </trkpt>
      <trkpt lat="45.83337" lon="4.70852">
        <ele>309.155</ele>
        <time>2023-10-04T07:59:14.000Z</time>
      </trkpt>
      <trkpt lat="45.83338" lon="4.70846">
        <ele>309.0968</ele>
        <time>2023-10-04T07:59:15.000Z</time>
      </trkpt>
      <trkpt lat="45.83338" lon="4.70842">
        <ele>309.05423</ele>
        <time>2023-10-04T07:59:16.000Z</time>
      </trkpt>
      <trkpt lat="45.83339" lon="4.70838">
        <ele>306.58344</ele>
        <time>2023-10-04T07:59:17.000Z</time>
      </trkpt>
      <trkpt lat="45.83339" lon="4.70832">
        <ele>306.66913</ele>
        <time>2023-10-04T07:59:18.000Z</time>
      </trkpt>
      <trkpt lat="45.83341" lon="4.70825">
        <ele>306.75156</ele>
        <time>2023-10-04T07:59:19.000Z</time>
      </trkpt>
      <trkpt lat="45.8334" lon="4.70819">
        <ele>306.70987</ele>
        <time>2023-10-04T07:59:20.000Z</time>
      </trkpt>
      <trkpt lat="45.83341" lon="4.70814">
        <ele>306.5235</ele>
        <time>2023-10-04T07:59:21.000Z</time>
      </trkpt>
      <trkpt lat="45.83342" lon="4.70809">
        <ele>306.33075</ele>
        <time>2023-10-04T07:59:22.000Z</time>
      </trkpt>
      <trkpt lat="45.83342" lon="4.70804">
        <ele>306.1756</ele>
        <time>2023-10-04T07:59:23.000Z</time>
      </trkpt>
      <trkpt lat="45.83343" lon="4.70799">
        <ele>306.02972</ele>
        <time>2023-10-04T07:59:24.000Z</time>
      </trkpt>
      <trkpt lat="45.83343" lon="4.70793">
        <ele>305.94934</ele>
        <time>2023-10-04T07:59:25.000Z</time>
      </trkpt>
      <trkpt lat="45.83343" lon="4.70788">
        <ele>306.15082</ele>
        <time>2023-10-04T07:59:26.000Z</time>
      </trkpt>
      <trkpt lat="45.83342" lon="4.70782">
        <ele>306.26181</ele>
        <time>2023-10-04T07:59:27.000Z</time>
      </trkpt>
      <trkpt lat="45.83342" lon="4.70776">
        <ele>306.47287</ele>
        <time>2023-10-04T07:59:28.000Z</time>
      </trkpt>
      <trkpt lat="45.83342" lon="4.7077">
        <ele>306.69208</ele>
        <time>2023-10-04T07:59:29.000Z</time>
      </trkpt>
      <trkpt lat="45.83343" lon="4.70764">
        <ele>306.91058</ele>
        <time>2023-10-04T07:59:30.000Z</time>
      </trkpt>
      <trkpt lat="45.83343" lon="4.70759">
        <ele>307.0899</ele>
        <time>2023-10-04T07:59:31.000Z</time>
      </trkpt>
      <trkpt lat="45.83344" lon="4.70753">
        <ele>307.25433</ele>
        <time>2023-10-04T07:59:32.000Z</time>
      </trkpt>
      <trkpt lat="45.83344" lon="4.70748">
        <ele>307.57111</ele>
        <time>2023-10-04T07:59:33.000Z</time>
      </trkpt>
      <trkpt lat="45.83345" lon="4.70742">
        <ele>307.90933</ele>
        <time>2023-10-04T07:59:34.000Z</time>
      </trkpt>
      <trkpt lat="45.83346" lon="4.70738">
        <ele>308.20743</ele>
        <time>2023-10-04T07:59:35.000Z</time>
      </trkpt>
      <trkpt lat="45.83346" lon="4.70734">
        <ele>308.44965</ele>
        <time>2023-10-04T07:59:36.000Z</time>
      </trkpt>
      <trkpt lat="45.83346" lon="4.70729">
        <ele>308.69501</ele>
        <time>2023-10-04T07:59:37.000Z</time>
      </trkpt>
      <trkpt lat="45.83347" lon="4.70724">
        <ele>308.90985</ele>
        <time>2023-10-04T07:59:38.000Z</time>
      </trkpt>
      <trkpt lat="45.83347" lon="4.70719">
        <ele>309.14194</ele>
        <time>2023-10-04T07:59:39.000Z</time>
      </trkpt>
      <trkpt lat="45.83348" lon="4.70713">
        <ele>309.37976</ele>
        <time>2023-10-04T07:59:40.000Z</time>
      </trkpt>
      <trkpt lat="45.83348" lon="4.70708">
        <ele>309.8316</ele>
        <time>2023-10-04T07:59:41.000Z</time>
      </trkpt>
      <trkpt lat="45.83348" lon="4.707">
        <ele>310.32819</ele>
        <time>2023-10-04T07:59:42.000Z</time>
      </trkpt>
      <trkpt lat="45.83349" lon="4.70694">
        <ele>310.83011</ele>
        <time>2023-10-04T07:59:43.000Z</time>
      </trkpt>
      <trkpt lat="45.83351" lon="4.70685">
        <ele>311.40912</ele>
        <time>2023-10-04T07:59:44.000Z</time>
      </trkpt>
      <trkpt lat="45.83351" lon="4.70679">
        <ele>312.0206</ele>
        <time>2023-10-04T07:59:45.000Z</time>
      </trkpt>
      <trkpt lat="45.83352" lon="4.70673">
        <ele>312.31876</ele>
        <time>2023-10-04T07:59:46.000Z</time>
      </trkpt>
      <trkpt lat="45.83353" lon="4.70666">
        <ele>312.70511</ele>
        <time>2023-10-04T07:59:47.000Z</time>
      </trkpt>
      <trkpt lat="45.83352" lon="4.70661">
        <ele>312.96063</ele>
        <time>2023-10-04T07:59:48.000Z</time>
      </trkpt>
      <trkpt lat="45.83352" lon="4.70655">
        <ele>313.16348</ele>
        <time>2023-10-04T07:59:49.000Z</time>
      </trkpt>
      <trkpt lat="45.83353" lon="4.7065">
        <ele>312.98257</ele>
        <time>2023-10-04T07:59:50.000Z</time>
      </trkpt>
      <trkpt lat="45.83353" lon="4.70642">
        <ele>312.83649</ele>
        <time>2023-10-04T07:59:51.000Z</time>
      </trkpt>
      <trkpt lat="45.83355" lon="4.70633">
        <ele>312.68402</ele>
        <time>2023-10-04T07:59:52.000Z</time>
      </trkpt>
      <trkpt lat="45.83354" lon="4.70625">
        <ele>312.36395</ele>
        <time>2023-10-04T07:59:53.000Z</time>
      </trkpt>
      <trkpt lat="45.83355" lon="4.70619">
        <ele>311.97849</ele>
        <time>2023-10-04T07:59:54.000Z</time>
      </trkpt>
      <trkpt lat="45.83355" lon="4.70612">
        <ele>311.55722</ele>
        <time>2023-10-04T07:59:55.000Z</time>
      </trkpt>
      <trkpt lat="45.83353" lon="4.70605">
        <ele>311.19403</ele>
        <time>2023-10-04T07:59:56.000Z</time>
      </trkpt>
      <trkpt lat="45.83354" lon="4.70596">
        <ele>310.88129</ele>
        <time>2023-10-04T07:59:57.000Z</time>
      </trkpt>
      <trkpt lat="45.83353" lon="4.70587">
        <ele>310.67676</ele>
        <time>2023-10-04T07:59:58.000Z</time>
      </trkpt>
      <trkpt lat="45.83352" lon="4.70581">
        <ele>310.44919</ele>
        <time>2023-10-04T07:59:59.000Z</time>
      </trkpt>
      <trkpt lat="45.83352" lon="4.70574">
        <ele>310.20346</ele>
        <time>2023-10-04T08:00:00.000Z</time>
      </trkpt>
      <trkpt lat="45.83351" lon="4.70568">
        <ele>309.94592</ele>
        <time>2023-10-04T08:00:01.000Z</time>
      </trkpt>
      <trkpt lat="45.83349" lon="4.70562">
        <ele>309.65259</ele>
        <time>2023-10-04T08:00:02.000Z</time>
      </trkpt>
      <trkpt lat="45.8335" lon="4.70554">
        <ele>309.34271</ele>
        <time>2023-10-04T08:00:03.000Z</time>
      </trkpt>
      <trkpt lat="45.8335" lon="4.70545">
        <ele>309.07681</ele>
        <time>2023-10-04T08:00:04.000Z</time>
      </trkpt>
      <trkpt lat="45.83347" lon="4.70535">
        <ele>308.8248</ele>
        <time>2023-10-04T08:00:05.000Z</time>
      </trkpt>
      <trkpt lat="45.83345" lon="4.70528">
        <ele>308.55682</ele>
        <time>2023-10-04T08:00:06.000Z</time>
      </trkpt>
      <trkpt lat="45.83346" lon="4.7052">
        <ele>308.11493</ele>
        <time>2023-10-04T08:00:07.000Z</time>
      </trkpt>
      <trkpt lat="45.83347" lon="4.70513">
        <ele>307.63998</ele>
        <time>2023-10-04T08:00:08.000Z</time>
      </trkpt>
      <trkpt lat="45.83346" lon="4.70504">
        <ele>307.21704</ele>
        <time>2023-10-04T08:00:09.000Z</time>
      </trkpt>
      <trkpt lat="45.83345" lon="4.70496">
        <ele>307.20233</ele>
        <time>2023-10-04T08:00:10.000Z</time>
      </trkpt>
      <trkpt lat="45.83342" lon="4.70488">
        <ele>307.07947</ele>
        <time>2023-10-04T08:00:11.000Z</time>
      </trkpt>
      <trkpt lat="45.83341" lon="4.70479">
        <ele>306.96994</ele>
        <time>2023-10-04T08:00:12.000Z</time>
      </trkpt>
      <trkpt lat="45.8334" lon="4.70471">
        <ele>306.84695</ele>
        <time>2023-10-04T08:00:13.000Z</time>
      </trkpt>
      <trkpt lat="45.8334" lon="4.70464">
        <ele>306.65985</ele>
        <time>2023-10-04T08:00:14.000Z</time>
      </trkpt>
      <trkpt lat="45.83339" lon="4.70457">
        <ele>306.52838</ele>
        <time>2023-10-04T08:00:15.000Z</time>
      </trkpt>
      <trkpt lat="45.8334" lon="4.7045">
        <ele>306.47308</ele>
        <time>2023-10-04T08:00:16.000Z</time>
      </trkpt>
      <trkpt lat="45.83338" lon="4.70441">
        <ele>306.3454</ele>
        <time>2023-10-04T08:00:17.000Z</time>
      </trkpt>
      <trkpt lat="45.83339" lon="4.70436">
        <ele>306.06256</ele>
        <time>2023-10-04T08:00:18.000Z</time>
      </trkpt>
      <trkpt lat="45.83336" lon="4.70428">
        <ele>305.84912</ele>
        <time>2023-10-04T08:00:19.000Z</time>
      </trkpt>
      <trkpt lat="45.83334" lon="4.7042">
        <ele>305.75848</ele>
        <time>2023-10-04T08:00:20.000Z</time>
      </trkpt>
      <trkpt lat="45.83334" lon="4.70412">
        <ele>305.71365</ele>
        <time>2023-10-04T08:00:21.000Z</time>
      </trkpt>
      <trkpt lat="45.83334" lon="4.70405">
        <ele>305.61731</ele>
        <time>2023-10-04T08:00:22.000Z</time>
      </trkpt>
      <trkpt lat="45.83334" lon="4.70398">
        <ele>305.55341</ele>
        <time>2023-10-04T08:00:23.000Z</time>
      </trkpt>
      <trkpt lat="45.83334" lon="4.70391">
        <ele>305.54422</ele>
        <time>2023-10-04T08:00:24.000Z</time>
      </trkpt>
      <trkpt lat="45.83334" lon="4.7038">
        <ele>305.49881</ele>
        <time>2023-10-04T08:00:25.000Z</time>
      </trkpt>
      <trkpt lat="45.83331" lon="4.70374">
        <ele>305.37738</ele>
        <time>2023-10-04T08:00:26.000Z</time>
      </trkpt>
      <trkpt lat="45.83329" lon="4.70367">
        <ele>305.80994</ele>
        <time>2023-10-04T08:00:27.000Z</time>
      </trkpt>
      <trkpt lat="45.83328" lon="4.70359">
        <ele>306.27698</ele>
        <time>2023-10-04T08:00:28.000Z</time>
      </trkpt>
      <trkpt lat="45.83332" lon="4.70349">
        <ele>306.60367</ele>
        <time>2023-10-04T08:00:29.000Z</time>
      </trkpt>
      <trkpt lat="45.83331" lon="4.70343">
        <ele>306.93839</ele>
        <time>2023-10-04T08:00:30.000Z</time>
      </trkpt>
      <trkpt lat="45.8333" lon="4.70336">
        <ele>307.34164</ele>
        <time>2023-10-04T08:00:31.000Z</time>
      </trkpt>
      <trkpt lat="45.83329" lon="4.70327">
        <ele>307.66925</ele>
        <time>2023-10-04T08:00:32.000Z</time>
      </trkpt>
      <trkpt lat="45.83329" lon="4.70321">
        <ele>308.02591</ele>
        <time>2023-10-04T08:00:33.000Z</time>
      </trkpt>
      <trkpt lat="45.83332" lon="4.70312">
        <ele>308.4361</ele>
        <time>2023-10-04T08:00:34.000Z</time>
      </trkpt>
      <trkpt lat="45.83332" lon="4.70305">
        <ele>308.81332</ele>
        <time>2023-10-04T08:00:35.000Z</time>
      </trkpt>
      <trkpt lat="45.8334" lon="4.70295">
        <ele>309.01511</ele>
        <time>2023-10-04T08:00:36.000Z</time>
      </trkpt>
      <trkpt lat="45.83341" lon="4.70286">
        <ele>309.23837</ele>
        <time>2023-10-04T08:00:37.000Z</time>
      </trkpt>
      <trkpt lat="45.83342" lon="4.70279">
        <ele>309.55185</ele>
        <time>2023-10-04T08:00:38.000Z</time>
      </trkpt>
      <trkpt lat="45.83347" lon="4.70271">
        <ele>309.82938</ele>
        <time>2023-10-04T08:00:39.000Z</time>
      </trkpt>
      <trkpt lat="45.83348" lon="4.70262">
        <ele>310.02777</ele>
        <time>2023-10-04T08:00:40.000Z</time>
      </trkpt>
      <trkpt lat="45.8335" lon="4.70255">
        <ele>310.21155</ele>
        <time>2023-10-04T08:00:41.000Z</time>
      </trkpt>
      <trkpt lat="45.83352" lon="4.70248">
        <ele>310.47067</ele>
        <time>2023-10-04T08:00:42.000Z</time>
      </trkpt>
      <trkpt lat="45.83353" lon="4.70244">
        <ele>310.74274</ele>
        <time>2023-10-04T08:00:43.000Z</time>
      </trkpt>
      <trkpt lat="45.83356" lon="4.70234">
        <ele>311.03229</ele>
        <time>2023-10-04T08:00:44.000Z</time>
      </trkpt>
      <trkpt lat="45.83358" lon="4.70225">
        <ele>311.2905</ele>
        <time>2023-10-04T08:00:45.000Z</time>
      </trkpt>
      <trkpt lat="45.83361" lon="4.70216">
        <ele>311.595</ele>
        <time>2023-10-04T08:00:46.000Z</time>
      </trkpt>
      <trkpt lat="45.83363" lon="4.70209">
        <ele>311.48483</ele>
        <time>2023-10-04T08:00:47.000Z</time>
      </trkpt>
      <trkpt lat="45.83366" lon="4.70201">
        <ele>311.33029</ele>
        <time>2023-10-04T08:00:48.000Z</time>
      </trkpt>
      <trkpt lat="45.83369" lon="4.70191">
        <ele>311.32458</ele>
        <time>2023-10-04T08:00:49.000Z</time>
      </trkpt>
      <trkpt lat="45.83371" lon="4.70182">
        <ele>311.42093</ele>
        <time>2023-10-04T08:00:50.000Z</time>
      </trkpt>
      <trkpt lat="45.83374" lon="4.70174">
        <ele>311.49692</ele>
        <time>2023-10-04T08:00:51.000Z</time>
      </trkpt>
      <trkpt lat="45.83376" lon="4.70167">
        <ele>311.6225</ele>
        <time>2023-10-04T08:00:52.000Z</time>
      </trkpt>
      <trkpt lat="45.83377" lon="4.70159">
        <ele>311.73785</ele>
        <time>2023-10-04T08:00:53.000Z</time>
      </trkpt>
      <trkpt lat="45.83379" lon="4.70153">
        <ele>311.89456</ele>
        <time>2023-10-04T08:00:54.000Z</time>
      </trkpt>
      <trkpt lat="45.83383" lon="4.70147">
        <ele>312.06125</ele>
        <time>2023-10-04T08:00:55.000Z</time>
      </trkpt>
      <trkpt lat="45.83385" lon="4.70137">
        <ele>312.32639</ele>
        <time>2023-10-04T08:00:56.000Z</time>
      </trkpt>
      <trkpt lat="45.83389" lon="4.70126">
        <ele>312.52646</ele>
        <time>2023-10-04T08:00:57.000Z</time>
      </trkpt>
      <trkpt lat="45.8339" lon="4.7012">
        <ele>312.733</ele>
        <time>2023-10-04T08:00:58.000Z</time>
      </trkpt>
      <trkpt lat="45.83391" lon="4.7011">
        <ele>312.87512</ele>
        <time>2023-10-04T08:00:59.000Z</time>
      </trkpt>
      <trkpt lat="45.83391" lon="4.70101">
        <ele>312.992</ele>
        <time>2023-10-04T08:01:00.000Z</time>
      </trkpt>
      <trkpt lat="45.8339" lon="4.70096">
        <ele>313.1593</ele>
        <time>2023-10-04T08:01:01.000Z</time>
      </trkpt>
      <trkpt lat="45.83392" lon="4.70088">
        <ele>313.13403</ele>
        <time>2023-10-04T08:01:02.000Z</time>
      </trkpt>
      <trkpt lat="45.83392" lon="4.70079">
        <ele>313.0589</ele>
        <time>2023-10-04T08:01:03.000Z</time>
      </trkpt>
      <trkpt lat="45.83391" lon="4.70066">
        <ele>313.13538</ele>
        <time>2023-10-04T08:01:04.000Z</time>
      </trkpt>
      <trkpt lat="45.83394" lon="4.70058">
        <ele>313.19708</ele>
        <time>2023-10-04T08:01:05.000Z</time>
      </trkpt>
      <trkpt lat="45.83396" lon="4.70047">
        <ele>313.29718</ele>
        <time>2023-10-04T08:01:06.000Z</time>
      </trkpt>
      <trkpt lat="45.83397" lon="4.70035">
        <ele>313.32867</ele>
        <time>2023-10-04T08:01:07.000Z</time>
      </trkpt>
      <trkpt lat="45.83401" lon="4.70026">
        <ele>313.37421</ele>
        <time>2023-10-04T08:01:08.000Z</time>
      </trkpt>
      <trkpt lat="45.834" lon="4.70015">
        <ele>313.39139</ele>
        <time>2023-10-04T08:01:09.000Z</time>
      </trkpt>
      <trkpt lat="45.83401" lon="4.70005">
        <ele>313.26239</ele>
        <time>2023-10-04T08:01:10.000Z</time>
      </trkpt>
      <trkpt lat="45.83401" lon="4.69995">
        <ele>313.18329</ele>
        <time>2023-10-04T08:01:11.000Z</time>
      </trkpt>
      <trkpt lat="45.83401" lon="4.69985">
        <ele>313.12262</ele>
        <time>2023-10-04T08:01:12.000Z</time>
      </trkpt>
      <trkpt lat="45.83402" lon="4.69981">
        <ele>313.02155</ele>
        <time>2023-10-04T08:01:13.000Z</time>
      </trkpt>
      <trkpt lat="45.83405" lon="4.6997">
        <ele>312.96783</ele>
        <time>2023-10-04T08:01:14.000Z</time>
      </trkpt>
      <trkpt lat="45.83407" lon="4.69962">
        <ele>312.97116</ele>
        <time>2023-10-04T08:01:15.000Z</time>
      </trkpt>
      <trkpt lat="45.83408" lon="4.6995">
        <ele>312.95612</ele>
        <time>2023-10-04T08:01:16.000Z</time>
      </trkpt>
      <trkpt lat="45.83406" lon="4.6994">
        <ele>312.94208</ele>
        <time>2023-10-04T08:01:17.000Z</time>
      </trkpt>
      <trkpt lat="45.83409" lon="4.69933">
        <ele>312.87607</ele>
        <time>2023-10-04T08:01:18.000Z</time>
      </trkpt>
      <trkpt lat="45.83408" lon="4.69926">
        <ele>312.84512</ele>
        <time>2023-10-04T08:01:19.000Z</time>
      </trkpt>
      <trkpt lat="45.83406" lon="4.69918">
        <ele>312.59433</ele>
        <time>2023-10-04T08:01:20.000Z</time>
      </trkpt>
      <trkpt lat="45.83402" lon="4.69909">
        <ele>312.26544</ele>
        <time>2023-10-04T08:01:21.000Z</time>
      </trkpt>
      <trkpt lat="45.83398" lon="4.69902">
        <ele>312.06165</ele>
        <time>2023-10-04T08:01:22.000Z</time>
      </trkpt>
      <trkpt lat="45.83395" lon="4.69897">
        <ele>311.87262</ele>
        <time>2023-10-04T08:01:23.000Z</time>
      </trkpt>
      <trkpt lat="45.83392" lon="4.69889">
        <ele>311.40421</ele>
        <time>2023-10-04T08:01:24.000Z</time>
      </trkpt>
      <trkpt lat="45.83392" lon="4.69886">
        <ele>310.99796</ele>
        <time>2023-10-04T08:01:25.000Z</time>
      </trkpt>
      <trkpt lat="45.83391" lon="4.69882">
        <ele>310.75333</ele>
        <time>2023-10-04T08:01:26.000Z</time>
      </trkpt>
      <trkpt lat="45.83389" lon="4.69877">
        <ele>310.66107</ele>
        <time>2023-10-04T08:01:27.000Z</time>
      </trkpt>
      <trkpt lat="45.8339" lon="4.69874">
        <ele>310.28583</ele>
        <time>2023-10-04T08:01:28.000Z</time>
      </trkpt>
      <trkpt lat="45.83391" lon="4.69869">
        <ele>309.91949</ele>
        <time>2023-10-04T08:01:29.000Z</time>
      </trkpt>
      <trkpt lat="45.83392" lon="4.69865">
        <ele>309.52499</ele>
        <time>2023-10-04T08:01:31.000Z</time>
      </trkpt>
      <trkpt lat="45.83394" lon="4.69862">
        <ele>309.11084</ele>
        <time>2023-10-04T08:01:32.000Z</time>
      </trkpt>
      <trkpt lat="45.83396" lon="4.69857">
        <ele>308.67737</ele>
        <time>2023-10-04T08:01:33.000Z</time>
      </trkpt>
      <trkpt lat="45.83397" lon="4.69853">
        <ele>308.2532</ele>
        <time>2023-10-04T08:01:34.000Z</time>
      </trkpt>
      <trkpt lat="45.83397" lon="4.69847">
        <ele>307.77496</ele>
        <time>2023-10-04T08:01:35.000Z</time>
      </trkpt>
      <trkpt lat="45.83396" lon="4.69842">
        <ele>307.24139</ele>
        <time>2023-10-04T08:01:36.000Z</time>
      </trkpt>
      <trkpt lat="45.83395" lon="4.69835">
        <ele>306.89227</ele>
        <time>2023-10-04T08:01:37.000Z</time>
      </trkpt>
      <trkpt lat="45.83394" lon="4.69826">
        <ele>306.53467</ele>
        <time>2023-10-04T08:01:38.000Z</time>
      </trkpt>
      <trkpt lat="45.83392" lon="4.69823">
        <ele>306.18039</ele>
        <time>2023-10-04T08:01:39.000Z</time>
      </trkpt>
      <trkpt lat="45.8339" lon="4.69815">
        <ele>305.8335</ele>
        <time>2023-10-04T08:01:40.000Z</time>
      </trkpt>
      <trkpt lat="45.83391" lon="4.69806">
        <ele>305.68402</ele>
        <time>2023-10-04T08:01:41.000Z</time>
      </trkpt>
      <trkpt lat="45.83389" lon="4.698">
        <ele>305.68536</ele>
        <time>2023-10-04T08:01:42.000Z</time>
      </trkpt>
      <trkpt lat="45.83388" lon="4.69793">
        <ele>305.75189</ele>
        <time>2023-10-04T08:01:43.000Z</time>
      </trkpt>
      <trkpt lat="45.83387" lon="4.69785">
        <ele>305.80081</ele>
        <time>2023-10-04T08:01:44.000Z</time>
      </trkpt>
      <trkpt lat="45.83384" lon="4.69778">
        <ele>305.85703</ele>
        <time>2023-10-04T08:01:45.000Z</time>
      </trkpt>
      <trkpt lat="45.83383" lon="4.69771">
        <ele>305.84744</ele>
        <time>2023-10-04T08:01:46.000Z</time>
      </trkpt>
      <trkpt lat="45.83382" lon="4.69764">
        <ele>305.68143</ele>
        <time>2023-10-04T08:01:47.000Z</time>
      </trkpt>
      <trkpt lat="45.83379" lon="4.69756">
        <ele>305.42593</ele>
        <time>2023-10-04T08:01:48.000Z</time>
      </trkpt>
      <trkpt lat="45.83379" lon="4.69748">
        <ele>305.44495</ele>
        <time>2023-10-04T08:01:49.000Z</time>
      </trkpt>
      <trkpt lat="45.83376" lon="4.69742">
        <ele>305.42746</ele>
        <time>2023-10-04T08:01:50.000Z</time>
      </trkpt>
      <trkpt lat="45.83376" lon="4.69732">
        <ele>305.42767</ele>
        <time>2023-10-04T08:01:51.000Z</time>
      </trkpt>
      <trkpt lat="45.83374" lon="4.69723">
        <ele>305.38763</ele>
        <time>2023-10-04T08:01:52.000Z</time>
      </trkpt>
      <trkpt lat="45.83371" lon="4.69715">
        <ele>305.38452</ele>
        <time>2023-10-04T08:01:53.000Z</time>
      </trkpt>
      <trkpt lat="45.83369" lon="4.69708">
        <ele>305.63626</ele>
        <time>2023-10-04T08:01:54.000Z</time>
      </trkpt>
      <trkpt lat="45.83367" lon="4.69704">
        <ele>305.83948</ele>
        <time>2023-10-04T08:01:55.000Z</time>
      </trkpt>
      <trkpt lat="45.83365" lon="4.69695">
        <ele>306.05386</ele>
        <time>2023-10-04T08:01:56.000Z</time>
      </trkpt>
      <trkpt lat="45.83363" lon="4.69688">
        <ele>306.08453</ele>
        <time>2023-10-04T08:01:57.000Z</time>
      </trkpt>
      <trkpt lat="45.83363" lon="4.6968">
        <ele>306.21136</ele>
        <time>2023-10-04T08:01:58.000Z</time>
      </trkpt>
      <trkpt lat="45.83361" lon="4.69673">
        <ele>306.41641</ele>
        <time>2023-10-04T08:01:59.000Z</time>
      </trkpt>
      <trkpt lat="45.83362" lon="4.69665">
        <ele>306.58392</ele>
        <time>2023-10-04T08:02:00.000Z</time>
      </trkpt>
      <trkpt lat="45.8336" lon="4.69658">
        <ele>306.6116</ele>
        <time>2023-10-04T08:02:01.000Z</time>
      </trkpt>
      <trkpt lat="45.83358" lon="4.6965">
        <ele>306.56198</ele>
        <time>2023-10-04T08:02:02.000Z</time>
      </trkpt>
      <trkpt lat="45.83359" lon="4.69644">
        <ele>306.5029</ele>
        <time>2023-10-04T08:02:03.000Z</time>
      </trkpt>
      <trkpt lat="45.83361" lon="4.69634">
        <ele>306.49582</ele>
        <time>2023-10-04T08:02:04.000Z</time>
      </trkpt>
      <trkpt lat="45.83358" lon="4.69627">
        <ele>306.53741</ele>
        <time>2023-10-04T08:02:05.000Z</time>
      </trkpt>
      <trkpt lat="45.83356" lon="4.69619">
        <ele>306.65765</ele>
        <time>2023-10-04T08:02:06.000Z</time>
      </trkpt>
      <trkpt lat="45.83353" lon="4.69616">
        <ele>306.77246</ele>
        <time>2023-10-04T08:02:07.000Z</time>
      </trkpt>
      <trkpt lat="45.83351" lon="4.69609">
        <ele>306.92279</ele>
        <time>2023-10-04T08:02:08.000Z</time>
      </trkpt>
      <trkpt lat="45.83348" lon="4.69602">
        <ele>307.04501</ele>
        <time>2023-10-04T08:02:09.000Z</time>
      </trkpt>
      <trkpt lat="45.83347" lon="4.69597">
        <ele>307.18326</ele>
        <time>2023-10-04T08:02:10.000Z</time>
      </trkpt>
      <trkpt lat="45.83343" lon="4.69591">
        <ele>307.33942</ele>
        <time>2023-10-04T08:02:11.000Z</time>
      </trkpt>
      <trkpt lat="45.83345" lon="4.69584">
        <ele>307.38809</ele>
        <time>2023-10-04T08:02:12.000Z</time>
      </trkpt>
      <trkpt lat="45.83345" lon="4.69578">
        <ele>307.37985</ele>
        <time>2023-10-04T08:02:13.000Z</time>
      </trkpt>
      <trkpt lat="45.83345" lon="4.69572">
        <ele>307.10138</ele>
        <time>2023-10-04T08:02:14.000Z</time>
      </trkpt>
      <trkpt lat="45.83343" lon="4.69564">
        <ele>306.87436</ele>
        <time>2023-10-04T08:02:15.000Z</time>
      </trkpt>
      <trkpt lat="45.83342" lon="4.69559">
        <ele>306.66022</ele>
        <time>2023-10-04T08:02:16.000Z</time>
      </trkpt>
      <trkpt lat="45.83341" lon="4.69551">
        <ele>306.50061</ele>
        <time>2023-10-04T08:02:17.000Z</time>
      </trkpt>
      <trkpt lat="45.83342" lon="4.69543">
        <ele>306.31665</ele>
        <time>2023-10-04T08:02:18.000Z</time>
      </trkpt>
      <trkpt lat="45.83341" lon="4.69538">
        <ele>306.0665</ele>
        <time>2023-10-04T08:02:19.000Z</time>
      </trkpt>
      <trkpt lat="45.8334" lon="4.69533">
        <ele>305.86566</ele>
        <time>2023-10-04T08:02:20.000Z</time>
      </trkpt>
      <trkpt lat="45.83339" lon="4.69527">
        <ele>305.72653</ele>
        <time>2023-10-04T08:02:21.000Z</time>
      </trkpt>
      <trkpt lat="45.83339" lon="4.69521">
        <ele>305.58917</ele>
        <time>2023-10-04T08:02:22.000Z</time>
      </trkpt>
      <trkpt lat="45.83338" lon="4.69514">
        <ele>305.47818</ele>
        <time>2023-10-04T08:02:23.000Z</time>
      </trkpt>
      <trkpt lat="45.83338" lon="4.69508">
        <ele>305.33649</ele>
        <time>2023-10-04T08:02:24.000Z</time>
      </trkpt>
      <trkpt lat="45.83339" lon="4.69505">
        <ele>305.19583</ele>
        <time>2023-10-04T08:02:25.000Z</time>
      </trkpt>
      <trkpt lat="45.83337" lon="4.69497">
        <ele>305.05524</ele>
        <time>2023-10-04T08:02:26.000Z</time>
      </trkpt>
      <trkpt lat="45.83336" lon="4.69492">
        <ele>305.07645</ele>
        <time>2023-10-04T08:02:27.000Z</time>
      </trkpt>
      <trkpt lat="45.83336" lon="4.69485">
        <ele>305.09476</ele>
        <time>2023-10-04T08:02:28.000Z</time>
      </trkpt>
      <trkpt lat="45.83334" lon="4.69478">
        <ele>305.1131</ele>
        <time>2023-10-04T08:02:29.000Z</time>
      </trkpt>
      <trkpt lat="45.83335" lon="4.6947">
        <ele>305.11603</ele>
        <time>2023-10-04T08:02:30.000Z</time>
      </trkpt>
      <trkpt lat="45.83337" lon="4.69464">
        <ele>305.14612</ele>
        <time>2023-10-04T08:02:31.000Z</time>
      </trkpt>
      <trkpt lat="45.83338" lon="4.69457">
        <ele>305.3627</ele>
        <time>2023-10-04T08:02:32.000Z</time>
      </trkpt>
      <trkpt lat="45.83336" lon="4.6945">
        <ele>305.64523</ele>
        <time>2023-10-04T08:02:33.000Z</time>
      </trkpt>
      <trkpt lat="45.83336" lon="4.69445">
        <ele>305.95242</ele>
        <time>2023-10-04T08:02:34.000Z</time>
      </trkpt>
      <trkpt lat="45.83336" lon="4.6944">
        <ele>306.2605</ele>
        <time>2023-10-04T08:02:35.000Z</time>
      </trkpt>
      <trkpt lat="45.83337" lon="4.69434">
        <ele>306.62338</ele>
        <time>2023-10-04T08:02:36.000Z</time>
      </trkpt>
      <trkpt lat="45.83339" lon="4.69428">
        <ele>306.84784</ele>
        <time>2023-10-04T08:02:37.000Z</time>
      </trkpt>
      <trkpt lat="45.8334" lon="4.69423">
        <ele>307.04071</ele>
        <time>2023-10-04T08:02:38.000Z</time>
      </trkpt>
      <trkpt lat="45.83341" lon="4.69416">
        <ele>307.26129</ele>
        <time>2023-10-04T08:02:39.000Z</time>
      </trkpt>
      <trkpt lat="45.83343" lon="4.69408">
        <ele>307.4639</ele>
        <time>2023-10-04T08:02:40.000Z</time>
      </trkpt>
      <trkpt lat="45.83344" lon="4.69401">
        <ele>307.73456</ele>
        <time>2023-10-04T08:02:41.000Z</time>
      </trkpt>
      <trkpt lat="45.83345" lon="4.69395">
        <ele>307.75134</ele>
        <time>2023-10-04T08:02:42.000Z</time>
      </trkpt>
      <trkpt lat="45.83347" lon="4.69387">
        <ele>307.71057</ele>
        <time>2023-10-04T08:02:43.000Z</time>
      </trkpt>
      <trkpt lat="45.83347" lon="4.6938">
        <ele>307.73041</ele>
        <time>2023-10-04T08:02:44.000Z</time>
      </trkpt>
      <trkpt lat="45.83349" lon="4.69372">
        <ele>307.78864</ele>
        <time>2023-10-04T08:02:45.000Z</time>
      </trkpt>
      <trkpt lat="45.83348" lon="4.69367">
        <ele>307.82416</ele>
        <time>2023-10-04T08:02:46.000Z</time>
      </trkpt>
      <trkpt lat="45.8335" lon="4.69362">
        <ele>307.71063</ele>
        <time>2023-10-04T08:02:47.000Z</time>
      </trkpt>
      <trkpt lat="45.83348" lon="4.69353">
        <ele>307.73157</ele>
        <time>2023-10-04T08:02:48.000Z</time>
      </trkpt>
      <trkpt lat="45.83349" lon="4.69348">
        <ele>307.78995</ele>
        <time>2023-10-04T08:02:49.000Z</time>
      </trkpt>
      <trkpt lat="45.83352" lon="4.6934">
        <ele>307.85083</ele>
        <time>2023-10-04T08:02:50.000Z</time>
      </trkpt>
      <trkpt lat="45.83352" lon="4.69333">
        <ele>307.94098</ele>
        <time>2023-10-04T08:02:51.000Z</time>
      </trkpt>
      <trkpt lat="45.83353" lon="4.69327">
        <ele>307.9064</ele>
        <time>2023-10-04T08:02:52.000Z</time>
      </trkpt>
      <trkpt lat="45.83354" lon="4.6932">
        <ele>307.85971</ele>
        <time>2023-10-04T08:02:53.000Z</time>
      </trkpt>
      <trkpt lat="45.83355" lon="4.69314">
        <ele>307.82257</ele>
        <time>2023-10-04T08:02:54.000Z</time>
      </trkpt>
      <trkpt lat="45.83355" lon="4.69307">
        <ele>307.83035</ele>
        <time>2023-10-04T08:02:55.000Z</time>
      </trkpt>
      <trkpt lat="45.83353" lon="4.693">
        <ele>307.80151</ele>
        <time>2023-10-04T08:02:56.000Z</time>
      </trkpt>
      <trkpt lat="45.83349" lon="4.69291">
        <ele>307.84894</ele>
        <time>2023-10-04T08:02:57.000Z</time>
      </trkpt>
      <trkpt lat="45.83351" lon="4.69288">
        <ele>307.82236</ele>
        <time>2023-10-04T08:02:58.000Z</time>
      </trkpt>
      <trkpt lat="45.83352" lon="4.69281">
        <ele>307.78351</ele>
        <time>2023-10-04T08:02:59.000Z</time>
      </trkpt>
      <trkpt lat="45.83354" lon="4.69274">
        <ele>307.7319</ele>
        <time>2023-10-04T08:03:00.000Z</time>
      </trkpt>
      <trkpt lat="45.83352" lon="4.69264">
        <ele>307.69928</ele>
        <time>2023-10-04T08:03:01.000Z</time>
      </trkpt>
      <trkpt lat="45.83355" lon="4.69257">
        <ele>307.91858</ele>
        <time>2023-10-04T08:03:02.000Z</time>
      </trkpt>
      <trkpt lat="45.83354" lon="4.69253">
        <ele>308.16772</ele>
        <time>2023-10-04T08:03:03.000Z</time>
      </trkpt>
      <trkpt lat="45.83357" lon="4.69249">
        <ele>308.3613</ele>
        <time>2023-10-04T08:03:04.000Z</time>
      </trkpt>
      <trkpt lat="45.83359" lon="4.69241">
        <ele>308.47015</ele>
        <time>2023-10-04T08:03:05.000Z</time>
      </trkpt>
      <trkpt lat="45.8336" lon="4.69235">
        <ele>308.55841</ele>
        <time>2023-10-04T08:03:06.000Z</time>
      </trkpt>
      <trkpt lat="45.83361" lon="4.69232">
        <ele>308.6582</ele>
        <time>2023-10-04T08:03:07.000Z</time>
      </trkpt>
      <trkpt lat="45.83362" lon="4.69222">
        <ele>308.67529</ele>
        <time>2023-10-04T08:03:08.000Z</time>
      </trkpt>
      <trkpt lat="45.83362" lon="4.69214">
        <ele>308.72684</ele>
        <time>2023-10-04T08:03:09.000Z</time>
      </trkpt>
      <trkpt lat="45.83362" lon="4.69208">
        <ele>308.771</ele>
        <time>2023-10-04T08:03:10.000Z</time>
      </trkpt>
      <trkpt lat="45.83362" lon="4.692">
        <ele>308.62418</ele>
        <time>2023-10-04T08:03:11.000Z</time>
      </trkpt>
      <trkpt lat="45.83363" lon="4.69192">
        <ele>308.68259</ele>
        <time>2023-10-04T08:03:12.000Z</time>
      </trkpt>
      <trkpt lat="45.83364" lon="4.69186">
        <ele>308.70636</ele>
        <time>2023-10-04T08:03:13.000Z</time>
      </trkpt>
      <trkpt lat="45.83365" lon="4.6918">
        <ele>308.67038</ele>
        <time>2023-10-04T08:03:14.000Z</time>
      </trkpt>
      <trkpt lat="45.83365" lon="4.69173">
        <ele>308.56622</ele>
        <time>2023-10-04T08:03:15.000Z</time>
      </trkpt>
      <trkpt lat="45.83365" lon="4.69167">
        <ele>308.22989</ele>
        <time>2023-10-04T08:03:16.000Z</time>
      </trkpt>
      <trkpt lat="45.83365" lon="4.69161">
        <ele>308.19257</ele>
        <time>2023-10-04T08:03:17.000Z</time>
      </trkpt>
      <trkpt lat="45.83364" lon="4.69153">
        <ele>308.15155</ele>
        <time>2023-10-04T08:03:18.000Z</time>
      </trkpt>
      <trkpt lat="45.83365" lon="4.69144">
        <ele>308.10208</ele>
        <time>2023-10-04T08:03:19.000Z</time>
      </trkpt>
      <trkpt lat="45.83365" lon="4.69136">
        <ele>308.03647</ele>
        <time>2023-10-04T08:03:20.000Z</time>
      </trkpt>
      <trkpt lat="45.83365" lon="4.69127">
        <ele>307.88806</ele>
        <time>2023-10-04T08:03:21.000Z</time>
      </trkpt>
      <trkpt lat="45.83367" lon="4.69119">
        <ele>307.72891</ele>
        <time>2023-10-04T08:03:22.000Z</time>
      </trkpt>
      <trkpt lat="45.83368" lon="4.69114">
        <ele>307.58212</ele>
        <time>2023-10-04T08:03:23.000Z</time>
      </trkpt>
      <trkpt lat="45.83368" lon="4.69105">
        <ele>307.46188</ele>
        <time>2023-10-04T08:03:24.000Z</time>
      </trkpt>
      <trkpt lat="45.83372" lon="4.69097">
        <ele>307.33307</ele>
        <time>2023-10-04T08:03:25.000Z</time>
      </trkpt>
      <trkpt lat="45.83373" lon="4.6909">
        <ele>307.22192</ele>
        <time>2023-10-04T08:03:26.000Z</time>
      </trkpt>
      <trkpt lat="45.83374" lon="4.69081">
        <ele>307.02582</ele>
        <time>2023-10-04T08:03:27.000Z</time>
      </trkpt>
      <trkpt lat="45.83375" lon="4.69074">
        <ele>306.82156</ele>
        <time>2023-10-04T08:03:28.000Z</time>
      </trkpt>
      <trkpt lat="45.83377" lon="4.69068">
        <ele>306.55334</ele>
        <time>2023-10-04T08:03:29.000Z</time>
      </trkpt>
      <trkpt lat="45.83375" lon="4.69062">
        <ele>306.40826</ele>
        <time>2023-10-04T08:03:30.000Z</time>
      </trkpt>
      <trkpt lat="45.83375" lon="4.69059">
        <ele>306.41742</ele>
        <time>2023-10-04T08:03:31.000Z</time>
      </trkpt>
      <trkpt lat="45.83379" lon="4.69053">
        <ele>306.29358</ele>
        <time>2023-10-04T08:03:32.000Z</time>
      </trkpt>
      <trkpt lat="45.8338" lon="4.69046">
        <ele>306.23578</ele>
        <time>2023-10-04T08:03:33.000Z</time>
      </trkpt>
      <trkpt lat="45.83383" lon="4.69043">
        <ele>306.29141</ele>
        <time>2023-10-04T08:03:34.000Z</time>
      </trkpt>
      <trkpt lat="45.83388" lon="4.69039">
        <ele>306.31836</ele>
        <time>2023-10-04T08:03:35.000Z</time>
      </trkpt>
      <trkpt lat="45.83394" lon="4.69034">
        <ele>306.27368</ele>
        <time>2023-10-04T08:03:36.000Z</time>
      </trkpt>
      <trkpt lat="45.83396" lon="4.69028">
        <ele>305.92096</ele>
        <time>2023-10-04T08:03:37.000Z</time>
      </trkpt>
      <trkpt lat="45.83398" lon="4.6902">
        <ele>305.5936</ele>
        <time>2023-10-04T08:03:38.000Z</time>
      </trkpt>
      <trkpt lat="45.83399" lon="4.69012">
        <ele>305.2652</ele>
        <time>2023-10-04T08:03:39.000Z</time>
      </trkpt>
      <trkpt lat="45.83402" lon="4.69003">
        <ele>305.00507</ele>
        <time>2023-10-04T08:03:40.000Z</time>
      </trkpt>
      <trkpt lat="45.83406" lon="4.68994">
        <ele>304.94131</ele>
        <time>2023-10-04T08:03:41.000Z</time>
      </trkpt>
      <trkpt lat="45.83409" lon="4.68989">
        <ele>304.86151</ele>
        <time>2023-10-04T08:03:42.000Z</time>
      </trkpt>
      <trkpt lat="45.83412" lon="4.68983">
        <ele>304.72348</ele>
        <time>2023-10-04T08:03:43.000Z</time>
      </trkpt>
      <trkpt lat="45.83414" lon="4.68975">
        <ele>304.49326</ele>
        <time>2023-10-04T08:03:44.000Z</time>
      </trkpt>
      <trkpt lat="45.83415" lon="4.68967">
        <ele>304.25198</ele>
        <time>2023-10-04T08:03:45.000Z</time>
      </trkpt>
      <trkpt lat="45.83417" lon="4.68961">
        <ele>303.98929</ele>
        <time>2023-10-04T08:03:46.000Z</time>
      </trkpt>
      <trkpt lat="45.83419" lon="4.68951">
        <ele>303.74527</ele>
        <time>2023-10-04T08:03:47.000Z</time>
      </trkpt>
      <trkpt lat="45.83421" lon="4.68942">
        <ele>303.53995</ele>
        <time>2023-10-04T08:03:48.000Z</time>
      </trkpt>
      <trkpt lat="45.83423" lon="4.68938">
        <ele>303.11032</ele>
        <time>2023-10-04T08:03:49.000Z</time>
      </trkpt>
      <trkpt lat="45.83425" lon="4.68934">
        <ele>302.61038</ele>
        <time>2023-10-04T08:03:50.000Z</time>
      </trkpt>
      <trkpt lat="45.83429" lon="4.68924">
        <ele>302.09311</ele>
        <time>2023-10-04T08:03:51.000Z</time>
      </trkpt>
      <trkpt lat="45.83427" lon="4.68919">
        <ele>301.53259</ele>
        <time>2023-10-04T08:03:52.000Z</time>
      </trkpt>
      <trkpt lat="45.83427" lon="4.68912">
        <ele>300.87909</ele>
        <time>2023-10-04T08:03:53.000Z</time>
      </trkpt>
      <trkpt lat="45.83426" lon="4.68908">
        <ele>300.21005</ele>
        <time>2023-10-04T08:03:54.000Z</time>
      </trkpt>
      <trkpt lat="45.83425" lon="4.68902">
        <ele>299.83408</ele>
        <time>2023-10-04T08:03:55.000Z</time>
      </trkpt>
      <trkpt lat="45.83422" lon="4.68897">
        <ele>299.7243</ele>
        <time>2023-10-04T08:03:56.000Z</time>
      </trkpt>
      <trkpt lat="45.83421" lon="4.68892">
        <ele>299.64996</ele>
        <time>2023-10-04T08:03:57.000Z</time>
      </trkpt>
      <trkpt lat="45.83419" lon="4.68883">
        <ele>299.5676</ele>
        <time>2023-10-04T08:03:58.000Z</time>
      </trkpt>
      <trkpt lat="45.83418" lon="4.68875">
        <ele>299.6109</ele>
        <time>2023-10-04T08:03:59.000Z</time>
      </trkpt>
      <trkpt lat="45.83417" lon="4.68867">
        <ele>299.49643</ele>
        <time>2023-10-04T08:04:00.000Z</time>
      </trkpt>
      <trkpt lat="45.83415" lon="4.68857">
        <ele>299.15338</ele>
        <time>2023-10-04T08:04:01.000Z</time>
      </trkpt>
      <trkpt lat="45.83414" lon="4.6885">
        <ele>299.01331</ele>
        <time>2023-10-04T08:04:02.000Z</time>
      </trkpt>
      <trkpt lat="45.83413" lon="4.68848">
        <ele>298.92133</ele>
        <time>2023-10-04T08:04:03.000Z</time>
      </trkpt>
      <trkpt lat="45.83408" lon="4.68844">
        <ele>298.6282</ele>
        <time>2023-10-04T08:04:04.000Z</time>
      </trkpt>
      <trkpt lat="45.83406" lon="4.68838">
        <ele>298.40079</ele>
        <time>2023-10-04T08:04:05.000Z</time>
      </trkpt>
      <trkpt lat="45.83406" lon="4.68832">
        <ele>298.08411</ele>
        <time>2023-10-04T08:04:06.000Z</time>
      </trkpt>
      <trkpt lat="45.83405" lon="4.68825">
        <ele>297.73758</ele>
        <time>2023-10-04T08:04:07.000Z</time>
      </trkpt>
      <trkpt lat="45.83403" lon="4.68818">
        <ele>297.25226</ele>
        <time>2023-10-04T08:04:08.000Z</time>
      </trkpt>
      <trkpt lat="45.83402" lon="4.68812">
        <ele>297.04599</ele>
        <time>2023-10-04T08:04:09.000Z</time>
      </trkpt>
      <trkpt lat="45.834" lon="4.68809">
        <ele>296.72513</ele>
        <time>2023-10-04T08:04:10.000Z</time>
      </trkpt>
      <trkpt lat="45.83397" lon="4.68801">
        <ele>296.42508</ele>
        <time>2023-10-04T08:04:11.000Z</time>
      </trkpt>
      <trkpt lat="45.83397" lon="4.68797">
        <ele>296.19473</ele>
        <time>2023-10-04T08:04:12.000Z</time>
      </trkpt>
      <trkpt lat="45.83396" lon="4.68792">
        <ele>296.01871</ele>
        <time>2023-10-04T08:04:13.000Z</time>
      </trkpt>
      <trkpt lat="45.83392" lon="4.68784">
        <ele>295.79382</ele>
        <time>2023-10-04T08:04:14.000Z</time>
      </trkpt>
      <trkpt lat="45.83391" lon="4.68779">
        <ele>295.35019</ele>
        <time>2023-10-04T08:04:15.000Z</time>
      </trkpt>
      <trkpt lat="45.83389" lon="4.68773">
        <ele>294.90366</ele>
        <time>2023-10-04T08:04:16.000Z</time>
      </trkpt>
      <trkpt lat="45.83388" lon="4.68768">
        <ele>294.4491</ele>
        <time>2023-10-04T08:04:17.000Z</time>
      </trkpt>
      <trkpt lat="45.83386" lon="4.68761">
        <ele>294.07889</ele>
        <time>2023-10-04T08:04:18.000Z</time>
      </trkpt>
      <trkpt lat="45.83383" lon="4.68755">
        <ele>293.59091</ele>
        <time>2023-10-04T08:04:19.000Z</time>
      </trkpt>
      <trkpt lat="45.8338" lon="4.68752">
        <ele>293.26157</ele>
        <time>2023-10-04T08:04:20.000Z</time>
      </trkpt>
      <trkpt lat="45.83377" lon="4.68746">
        <ele>293.01917</ele>
        <time>2023-10-04T08:04:21.000Z</time>
      </trkpt>
      <trkpt lat="45.83374" lon="4.68739">
        <ele>292.65219</ele>
        <time>2023-10-04T08:04:22.000Z</time>
      </trkpt>
      <trkpt lat="45.83374" lon="4.68733">
        <ele>292.35211</ele>
        <time>2023-10-04T08:04:23.000Z</time>
      </trkpt>
      <trkpt lat="45.83371" lon="4.68727">
        <ele>292.31525</ele>
        <time>2023-10-04T08:04:24.000Z</time>
      </trkpt>
      <trkpt lat="45.83368" lon="4.68723">
        <ele>292.26511</ele>
        <time>2023-10-04T08:04:25.000Z</time>
      </trkpt>
      <trkpt lat="45.83364" lon="4.68719">
        <ele>292.38358</ele>
        <time>2023-10-04T08:04:26.000Z</time>
      </trkpt>
      <trkpt lat="45.83361" lon="4.68713">
        <ele>292.44556</ele>
        <time>2023-10-04T08:04:27.000Z</time>
      </trkpt>
      <trkpt lat="45.83359" lon="4.6871">
        <ele>292.62241</ele>
        <time>2023-10-04T08:04:28.000Z</time>
      </trkpt>
      <trkpt lat="45.83357" lon="4.68707">
        <ele>292.75076</ele>
        <time>2023-10-04T08:04:29.000Z</time>
      </trkpt>
      <trkpt lat="45.83354" lon="4.68702">
        <ele>292.92841</ele>
        <time>2023-10-04T08:04:30.000Z</time>
      </trkpt>
      <trkpt lat="45.83351" lon="4.68698">
        <ele>293.13385</ele>
        <time>2023-10-04T08:04:31.000Z</time>
      </trkpt>
      <trkpt lat="45.83348" lon="4.68693">
        <ele>292.96658</ele>
        <time>2023-10-04T08:04:32.000Z</time>
      </trkpt>
      <trkpt lat="45.83346" lon="4.68687">
        <ele>292.85883</ele>
        <time>2023-10-04T08:04:33.000Z</time>
      </trkpt>
      <trkpt lat="45.83344" lon="4.6868">
        <ele>292.77277</ele>
        <time>2023-10-04T08:04:34.000Z</time>
      </trkpt>
      <trkpt lat="45.83343" lon="4.68673">
        <ele>292.65631</ele>
        <time>2023-10-04T08:04:35.000Z</time>
      </trkpt>
      <trkpt lat="45.8334" lon="4.68666">
        <ele>292.51117</ele>
        <time>2023-10-04T08:04:36.000Z</time>
      </trkpt>
      <trkpt lat="45.83339" lon="4.68661">
        <ele>292.45468</ele>
        <time>2023-10-04T08:04:37.000Z</time>
      </trkpt>
      <trkpt lat="45.83336" lon="4.68655">
        <ele>292.33441</ele>
        <time>2023-10-04T08:04:38.000Z</time>
      </trkpt>
      <trkpt lat="45.83334" lon="4.68651">
        <ele>292.29034</ele>
        <time>2023-10-04T08:04:39.000Z</time>
      </trkpt>
      <trkpt lat="45.83332" lon="4.68646">
        <ele>292.41858</ele>
        <time>2023-10-04T08:04:40.000Z</time>
      </trkpt>
      <trkpt lat="45.8333" lon="4.6864">
        <ele>292.54575</ele>
        <time>2023-10-04T08:04:41.000Z</time>
      </trkpt>
      <trkpt lat="45.83328" lon="4.68634">
        <ele>292.64471</ele>
        <time>2023-10-04T08:04:42.000Z</time>
      </trkpt>
      <trkpt lat="45.83327" lon="4.68626">
        <ele>292.6503</ele>
        <time>2023-10-04T08:04:43.000Z</time>
      </trkpt>
      <trkpt lat="45.83325" lon="4.68619">
        <ele>292.7536</ele>
        <time>2023-10-04T08:04:44.000Z</time>
      </trkpt>
      <trkpt lat="45.83327" lon="4.68611">
        <ele>292.82639</ele>
        <time>2023-10-04T08:04:45.000Z</time>
      </trkpt>
      <trkpt lat="45.83325" lon="4.68605">
        <ele>293.05765</ele>
        <time>2023-10-04T08:04:46.000Z</time>
      </trkpt>
      <trkpt lat="45.83326" lon="4.68598">
        <ele>293.46136</ele>
        <time>2023-10-04T08:04:47.000Z</time>
      </trkpt>
      <trkpt lat="45.83325" lon="4.68591">
        <ele>293.8364</ele>
        <time>2023-10-04T08:04:48.000Z</time>
      </trkpt>
      <trkpt lat="45.83324" lon="4.68585">
        <ele>294.21133</ele>
        <time>2023-10-04T08:04:49.000Z</time>
      </trkpt>
      <trkpt lat="45.83323" lon="4.68576">
        <ele>294.60715</ele>
        <time>2023-10-04T08:04:50.000Z</time>
      </trkpt>
      <trkpt lat="45.83322" lon="4.68574">
        <ele>294.85001</ele>
        <time>2023-10-04T08:04:51.000Z</time>
      </trkpt>
      <trkpt lat="45.83321" lon="4.6857">
        <ele>295.40924</ele>
        <time>2023-10-04T08:04:52.000Z</time>
      </trkpt>
      <trkpt lat="45.83318" lon="4.68564">
        <ele>295.75122</ele>
        <time>2023-10-04T08:04:53.000Z</time>
      </trkpt>
      <trkpt lat="45.83316" lon="4.68559">
        <ele>296.10123</ele>
        <time>2023-10-04T08:04:54.000Z</time>
      </trkpt>
      <trkpt lat="45.83313" lon="4.68553">
        <ele>296.52261</ele>
        <time>2023-10-04T08:04:55.000Z</time>
      </trkpt>
      <trkpt lat="45.83311" lon="4.68549">
        <ele>296.9888</ele>
        <time>2023-10-04T08:04:56.000Z</time>
      </trkpt>
      <trkpt lat="45.8331" lon="4.68544">
        <ele>297.35193</ele>
        <time>2023-10-04T08:04:57.000Z</time>
      </trkpt>
      <trkpt lat="45.83308" lon="4.68544">
        <ele>297.18036</ele>
        <time>2023-10-04T08:04:57.693Z</time>
      </trkpt>
      <trkpt lat="45.83305" lon="4.68541">
        <ele>296.76178</ele>
        <time>2023-10-04T08:04:59.693Z</time>
      </trkpt>
      <trkpt lat="45.83304" lon="4.68537">
        <ele>296.13611</ele>
        <time>2023-10-04T08:05:00.693Z</time>
      </trkpt>
      <trkpt lat="45.83303" lon="4.68533">
        <ele>295.53848</ele>
        <time>2023-10-04T08:05:01.693Z</time>
      </trkpt>
      <trkpt lat="45.83328" lon="4.68537">
        <ele>296.03085</ele>
        <time>2023-10-04T08:05:04.583Z</time>
      </trkpt>
      <trkpt lat="45.8333" lon="4.68532">
        <ele>295.58795</ele>
        <time>2023-10-04T08:05:05.696Z</time>
      </trkpt>
      <trkpt lat="45.83335" lon="4.68533">
        <ele>294.92853</ele>
        <time>2023-10-04T08:05:06.692Z</time>
      </trkpt>
      <trkpt lat="45.83339" lon="4.68536">
        <ele>294.53995</ele>
        <time>2023-10-04T08:05:07.689Z</time>
      </trkpt>
      <trkpt lat="45.83344" lon="4.68538">
        <ele>293.79279</ele>
        <time>2023-10-04T08:05:08.689Z</time>
      </trkpt>
      <trkpt lat="45.83347" lon="4.68544">
        <ele>293.53</ele>
        <time>2023-10-04T08:05:09.000Z</time>
      </trkpt>
      <trkpt lat="45.83356" lon="4.68547">
        <ele>293.14911</ele>
        <time>2023-10-04T08:05:11.000Z</time>
      </trkpt>
      <trkpt lat="45.83359" lon="4.68546">
        <ele>292.76926</ele>
        <time>2023-10-04T08:05:12.000Z</time>
      </trkpt>
      <trkpt lat="45.83364" lon="4.68545">
        <ele>292.39465</ele>
        <time>2023-10-04T08:05:13.000Z</time>
      </trkpt>
      <trkpt lat="45.83368" lon="4.68543">
        <ele>292.12494</ele>
        <time>2023-10-04T08:05:14.000Z</time>
      </trkpt>
      <trkpt lat="45.83373" lon="4.68541">
        <ele>291.89227</ele>
        <time>2023-10-04T08:05:15.000Z</time>
      </trkpt>
      <trkpt lat="45.83378" lon="4.68539">
        <ele>291.80435</ele>
        <time>2023-10-04T08:05:16.000Z</time>
      </trkpt>
      <trkpt lat="45.83383" lon="4.68536">
        <ele>291.70364</ele>
        <time>2023-10-04T08:05:17.000Z</time>
      </trkpt>
      <trkpt lat="45.83388" lon="4.68533">
        <ele>291.56387</ele>
        <time>2023-10-04T08:05:18.000Z</time>
      </trkpt>
      <trkpt lat="45.83393" lon="4.6853">
        <ele>291.41983</ele>
        <time>2023-10-04T08:05:19.000Z</time>
      </trkpt>
      <trkpt lat="45.83399" lon="4.68527">
        <ele>291.25916</ele>
        <time>2023-10-04T08:05:20.000Z</time>
      </trkpt>
      <trkpt lat="45.83405" lon="4.68523">
        <ele>291.67319</ele>
        <time>2023-10-04T08:05:21.000Z</time>
      </trkpt>
      <trkpt lat="45.83411" lon="4.6852">
        <ele>292.25824</ele>
        <time>2023-10-04T08:05:22.000Z</time>
      </trkpt>
      <trkpt lat="45.83416" lon="4.68517">
        <ele>292.70038</ele>
        <time>2023-10-04T08:05:23.000Z</time>
      </trkpt>
      <trkpt lat="45.83421" lon="4.68514">
        <ele>293.16278</ele>
        <time>2023-10-04T08:05:24.000Z</time>
      </trkpt>
      <trkpt lat="45.83427" lon="4.68509">
        <ele>292.49753</ele>
        <time>2023-10-04T08:05:25.000Z</time>
      </trkpt>
      <trkpt lat="45.83433" lon="4.68506">
        <ele>292.77316</ele>
        <time>2023-10-04T08:05:26.000Z</time>
      </trkpt>
      <trkpt lat="45.83439" lon="4.68503">
        <ele>293.15326</ele>
        <time>2023-10-04T08:05:27.000Z</time>
      </trkpt>
      <trkpt lat="45.83445" lon="4.685">
        <ele>293.28522</ele>
        <time>2023-10-04T08:05:28.000Z</time>
      </trkpt>
      <trkpt lat="45.8345" lon="4.68497">
        <ele>293.55536</ele>
        <time>2023-10-04T08:05:29.000Z</time>
      </trkpt>
      <trkpt lat="45.83457" lon="4.68494">
        <ele>293.26938</ele>
        <time>2023-10-04T08:05:30.000Z</time>
      </trkpt>
      <trkpt lat="45.83462" lon="4.6849">
        <ele>293.026</ele>
        <time>2023-10-04T08:05:31.000Z</time>
      </trkpt>
      <trkpt lat="45.83468" lon="4.68486">
        <ele>292.7818</ele>
        <time>2023-10-04T08:05:32.000Z</time>
      </trkpt>
      <trkpt lat="45.83473" lon="4.68483">
        <ele>292.57001</ele>
        <time>2023-10-04T08:05:33.000Z</time>
      </trkpt>
      <trkpt lat="45.83478" lon="4.68479">
        <ele>292.34824</ele>
        <time>2023-10-04T08:05:34.000Z</time>
      </trkpt>
      <trkpt lat="45.83484" lon="4.68475">
        <ele>292.10916</ele>
        <time>2023-10-04T08:05:35.000Z</time>
      </trkpt>
      <trkpt lat="45.8349" lon="4.68471">
        <ele>291.87067</ele>
        <time>2023-10-04T08:05:36.000Z</time>
      </trkpt>
      <trkpt lat="45.83495" lon="4.68467">
        <ele>291.63763</ele>
        <time>2023-10-04T08:05:37.000Z</time>
      </trkpt>
      <trkpt lat="45.83501" lon="4.68463">
        <ele>291.39667</ele>
        <time>2023-10-04T08:05:38.000Z</time>
      </trkpt>
      <trkpt lat="45.83506" lon="4.68459">
        <ele>291.16803</ele>
        <time>2023-10-04T08:05:39.000Z</time>
      </trkpt>
      <trkpt lat="45.83512" lon="4.68455">
        <ele>290.9566</ele>
        <time>2023-10-04T08:05:40.000Z</time>
      </trkpt>
      <trkpt lat="45.83518" lon="4.68452">
        <ele>290.72803</ele>
        <time>2023-10-04T08:05:41.000Z</time>
      </trkpt>
      <trkpt lat="45.83523" lon="4.68448">
        <ele>290.51581</ele>
        <time>2023-10-04T08:05:42.000Z</time>
      </trkpt>
      <trkpt lat="45.83528" lon="4.68444">
        <ele>290.41232</ele>
        <time>2023-10-04T08:05:43.000Z</time>
      </trkpt>
      <trkpt lat="45.83533" lon="4.6844">
        <ele>290.27386</ele>
        <time>2023-10-04T08:05:44.000Z</time>
      </trkpt>
      <trkpt lat="45.83538" lon="4.68437">
        <ele>290.15924</ele>
        <time>2023-10-04T08:05:45.000Z</time>
      </trkpt>
      <trkpt lat="45.83543" lon="4.68433">
        <ele>290.04895</ele>
        <time>2023-10-04T08:05:46.000Z</time>
      </trkpt>
      <trkpt lat="45.83549" lon="4.68428">
        <ele>289.94586</ele>
        <time>2023-10-04T08:05:47.000Z</time>
      </trkpt>
      <trkpt lat="45.83553" lon="4.68423">
        <ele>289.8577</ele>
        <time>2023-10-04T08:05:48.000Z</time>
      </trkpt>
      <trkpt lat="45.83558" lon="4.68419">
        <ele>289.76556</ele>
        <time>2023-10-04T08:05:49.000Z</time>
      </trkpt>
      <trkpt lat="45.83562" lon="4.68413">
        <ele>289.66187</ele>
        <time>2023-10-04T08:05:50.000Z</time>
      </trkpt>
      <trkpt lat="45.83567" lon="4.68407">
        <ele>289.60852</ele>
        <time>2023-10-04T08:05:51.000Z</time>
      </trkpt>
      <trkpt lat="45.83571" lon="4.68401">
        <ele>289.58591</ele>
        <time>2023-10-04T08:05:52.000Z</time>
      </trkpt>
      <trkpt lat="45.83575" lon="4.68394">
        <ele>289.54037</ele>
        <time>2023-10-04T08:05:53.000Z</time>
      </trkpt>
      <trkpt lat="45.83579" lon="4.68388">
        <ele>289.49399</ele>
        <time>2023-10-04T08:05:54.000Z</time>
      </trkpt>
      <trkpt lat="45.83582" lon="4.68382">
        <ele>289.45355</ele>
        <time>2023-10-04T08:05:55.000Z</time>
      </trkpt>
      <trkpt lat="45.83584" lon="4.68374">
        <ele>289.37872</ele>
        <time>2023-10-04T08:05:56.000Z</time>
      </trkpt>
      <trkpt lat="45.83585" lon="4.68366">
        <ele>289.31271</ele>
        <time>2023-10-04T08:05:57.000Z</time>
      </trkpt>
      <trkpt lat="45.83585" lon="4.68358">
        <ele>289.39337</ele>
        <time>2023-10-04T08:05:58.000Z</time>
      </trkpt>
      <trkpt lat="45.83585" lon="4.6835">
        <ele>289.47733</ele>
        <time>2023-10-04T08:05:59.000Z</time>
      </trkpt>
      <trkpt lat="45.83583" lon="4.68343">
        <ele>289.73602</ele>
        <time>2023-10-04T08:06:00.000Z</time>
      </trkpt>
      <trkpt lat="45.83582" lon="4.68336">
        <ele>290.15552</ele>
        <time>2023-10-04T08:06:01.000Z</time>
      </trkpt>
      <trkpt lat="45.83582" lon="4.68329">
        <ele>290.57172</ele>
        <time>2023-10-04T08:06:02.000Z</time>
      </trkpt>
      <trkpt lat="45.83582" lon="4.68323">
        <ele>290.75568</ele>
        <time>2023-10-04T08:06:03.000Z</time>
      </trkpt>
      <trkpt lat="45.83583" lon="4.68316">
        <ele>290.9921</ele>
        <time>2023-10-04T08:06:04.000Z</time>
      </trkpt>
      <trkpt lat="45.83585" lon="4.6831">
        <ele>291.17731</ele>
        <time>2023-10-04T08:06:05.000Z</time>
      </trkpt>
      <trkpt lat="45.83586" lon="4.68305">
        <ele>291.40247</ele>
        <time>2023-10-04T08:06:06.000Z</time>
      </trkpt>
      <trkpt lat="45.83588" lon="4.68301">
        <ele>291.62097</ele>
        <time>2023-10-04T08:06:07.000Z</time>
      </trkpt>
      <trkpt lat="45.8359" lon="4.68298">
        <ele>291.81281</ele>
        <time>2023-10-04T08:06:08.000Z</time>
      </trkpt>
      <trkpt lat="45.83592" lon="4.68294">
        <ele>292.01767</ele>
        <time>2023-10-04T08:06:09.000Z</time>
      </trkpt>
      <trkpt lat="45.83593" lon="4.68291">
        <ele>292.23853</ele>
        <time>2023-10-04T08:06:10.000Z</time>
      </trkpt>
      <trkpt lat="45.83594" lon="4.68286">
        <ele>292.4158</ele>
        <time>2023-10-04T08:06:11.000Z</time>
      </trkpt>
      <trkpt lat="45.83595" lon="4.68282">
        <ele>292.57071</ele>
        <time>2023-10-04T08:06:12.000Z</time>
      </trkpt>
      <trkpt lat="45.83596" lon="4.68277">
        <ele>292.76627</ele>
        <time>2023-10-04T08:06:13.000Z</time>
      </trkpt>
      <trkpt lat="45.83596" lon="4.68271">
        <ele>292.97592</ele>
        <time>2023-10-04T08:06:14.000Z</time>
      </trkpt>
      <trkpt lat="45.83597" lon="4.68264">
        <ele>293.17438</ele>
        <time>2023-10-04T08:06:15.000Z</time>
      </trkpt>
      <trkpt lat="45.83598" lon="4.68257">
        <ele>293.36893</ele>
        <time>2023-10-04T08:06:16.000Z</time>
      </trkpt>
      <trkpt lat="45.83599" lon="4.6825">
        <ele>293.53864</ele>
        <time>2023-10-04T08:06:17.000Z</time>
      </trkpt>
      <trkpt lat="45.83601" lon="4.68242">
        <ele>293.54181</ele>
        <time>2023-10-04T08:06:18.000Z</time>
      </trkpt>
      <trkpt lat="45.83603" lon="4.68234">
        <ele>293.51666</ele>
        <time>2023-10-04T08:06:19.000Z</time>
      </trkpt>
      <trkpt lat="45.83606" lon="4.68226">
        <ele>293.30667</ele>
        <time>2023-10-04T08:06:20.000Z</time>
      </trkpt>
      <trkpt lat="45.83609" lon="4.68218">
        <ele>293.14905</ele>
        <time>2023-10-04T08:06:21.000Z</time>
      </trkpt>
      <trkpt lat="45.83612" lon="4.68209">
        <ele>292.99445</ele>
        <time>2023-10-04T08:06:22.000Z</time>
      </trkpt>
      <trkpt lat="45.83616" lon="4.68201">
        <ele>293.1358</ele>
        <time>2023-10-04T08:06:23.000Z</time>
      </trkpt>
      <trkpt lat="45.8362" lon="4.68193">
        <ele>292.88138</ele>
        <time>2023-10-04T08:06:24.000Z</time>
      </trkpt>
      <trkpt lat="45.83623" lon="4.68186">
        <ele>292.64279</ele>
        <time>2023-10-04T08:06:25.000Z</time>
      </trkpt>
      <trkpt lat="45.83626" lon="4.68178">
        <ele>292.39752</ele>
        <time>2023-10-04T08:06:26.000Z</time>
      </trkpt>
      <trkpt lat="45.83629" lon="4.68171">
        <ele>292.15872</ele>
        <time>2023-10-04T08:06:27.000Z</time>
      </trkpt>
      <trkpt lat="45.83632" lon="4.68163">
        <ele>291.95578</ele>
        <time>2023-10-04T08:06:28.000Z</time>
      </trkpt>
      <trkpt lat="45.83635" lon="4.68156">
        <ele>291.73224</ele>
        <time>2023-10-04T08:06:29.000Z</time>
      </trkpt>
      <trkpt lat="45.83639" lon="4.68148">
        <ele>291.50629</ele>
        <time>2023-10-04T08:06:30.000Z</time>
      </trkpt>
      <trkpt lat="45.83642" lon="4.68141">
        <ele>291.28464</ele>
        <time>2023-10-04T08:06:31.000Z</time>
      </trkpt>
      <trkpt lat="45.83645" lon="4.68135">
        <ele>291.06766</ele>
        <time>2023-10-04T08:06:32.000Z</time>
      </trkpt>
      <trkpt lat="45.83649" lon="4.68128">
        <ele>290.81589</ele>
        <time>2023-10-04T08:06:33.000Z</time>
      </trkpt>
      <trkpt lat="45.83654" lon="4.68123">
        <ele>290.55362</ele>
        <time>2023-10-04T08:06:34.000Z</time>
      </trkpt>
      <trkpt lat="45.83658" lon="4.68118">
        <ele>290.18448</ele>
        <time>2023-10-04T08:06:35.000Z</time>
      </trkpt>
      <trkpt lat="45.83663" lon="4.68112">
        <ele>289.83511</ele>
        <time>2023-10-04T08:06:36.000Z</time>
      </trkpt>
      <trkpt lat="45.83667" lon="4.68107">
        <ele>289.47504</ele>
        <time>2023-10-04T08:06:37.000Z</time>
      </trkpt>
      <trkpt lat="45.83672" lon="4.68101">
        <ele>289.12131</ele>
        <time>2023-10-04T08:06:38.000Z</time>
      </trkpt>
      <trkpt lat="45.83676" lon="4.68096">
        <ele>288.75543</ele>
        <time>2023-10-04T08:06:39.000Z</time>
      </trkpt>
      <trkpt lat="45.83681" lon="4.6809">
        <ele>288.3974</ele>
        <time>2023-10-04T08:06:40.000Z</time>
      </trkpt>
      <trkpt lat="45.83684" lon="4.68086">
        <ele>287.83435</ele>
        <time>2023-10-04T08:06:41.000Z</time>
      </trkpt>
      <trkpt lat="45.83688" lon="4.6808">
        <ele>287.25214</ele>
        <time>2023-10-04T08:06:42.000Z</time>
      </trkpt>
      <trkpt lat="45.83692" lon="4.68075">
        <ele>286.60406</ele>
        <time>2023-10-04T08:06:43.000Z</time>
      </trkpt>
      <trkpt lat="45.83696" lon="4.6807">
        <ele>286.27164</ele>
        <time>2023-10-04T08:06:44.000Z</time>
      </trkpt>
      <trkpt lat="45.83697" lon="4.68064">
        <ele>285.91034</ele>
        <time>2023-10-04T08:06:45.000Z</time>
      </trkpt>
      <trkpt lat="45.83697" lon="4.68057">
        <ele>285.49454</ele>
        <time>2023-10-04T08:06:46.000Z</time>
      </trkpt>
      <trkpt lat="45.83695" lon="4.68051">
        <ele>285.08902</ele>
        <time>2023-10-04T08:06:47.000Z</time>
      </trkpt>
      <trkpt lat="45.83694" lon="4.68045">
        <ele>284.63318</ele>
        <time>2023-10-04T08:06:48.000Z</time>
      </trkpt>
      <trkpt lat="45.83692" lon="4.68041">
        <ele>284.19965</ele>
        <time>2023-10-04T08:06:49.000Z</time>
      </trkpt>
      <trkpt lat="45.83688" lon="4.68037">
        <ele>283.80798</ele>
        <time>2023-10-04T08:06:50.000Z</time>
      </trkpt>
      <trkpt lat="45.83685" lon="4.68034">
        <ele>283.44904</ele>
        <time>2023-10-04T08:06:51.000Z</time>
      </trkpt>
      <trkpt lat="45.83681" lon="4.68029">
        <ele>283.07089</ele>
        <time>2023-10-04T08:06:52.000Z</time>
      </trkpt>
      <trkpt lat="45.83677" lon="4.68024">
        <ele>282.71271</ele>
        <time>2023-10-04T08:06:53.000Z</time>
      </trkpt>
      <trkpt lat="45.83674" lon="4.68019">
        <ele>282.38489</ele>
        <time>2023-10-04T08:06:54.000Z</time>
      </trkpt>
      <trkpt lat="45.8367" lon="4.68016">
        <ele>282.22656</ele>
        <time>2023-10-04T08:06:55.000Z</time>
      </trkpt>
      <trkpt lat="45.83667" lon="4.68011">
        <ele>282.09515</ele>
        <time>2023-10-04T08:06:56.000Z</time>
      </trkpt>
      <trkpt lat="45.83664" lon="4.68007">
        <ele>282.11777</ele>
        <time>2023-10-04T08:06:57.000Z</time>
      </trkpt>
      <trkpt lat="45.83661" lon="4.68002">
        <ele>282.1344</ele>
        <time>2023-10-04T08:06:58.000Z</time>
      </trkpt>
      <trkpt lat="45.83658" lon="4.67998">
        <ele>282.16885</ele>
        <time>2023-10-04T08:06:59.000Z</time>
      </trkpt>
      <trkpt lat="45.83655" lon="4.67994">
        <ele>282.24158</ele>
        <time>2023-10-04T08:07:00.000Z</time>
      </trkpt>
      <trkpt lat="45.83653" lon="4.6799">
        <ele>282.34552</ele>
        <time>2023-10-04T08:07:01.000Z</time>
      </trkpt>
      <trkpt lat="45.83649" lon="4.67985">
        <ele>282.4949</ele>
        <time>2023-10-04T08:07:02.000Z</time>
      </trkpt>
      <trkpt lat="45.83645" lon="4.67982">
        <ele>282.74213</ele>
        <time>2023-10-04T08:07:03.000Z</time>
      </trkpt>
      <trkpt lat="45.83641" lon="4.67978">
        <ele>283.03604</ele>
        <time>2023-10-04T08:07:04.000Z</time>
      </trkpt>
      <trkpt lat="45.83636" lon="4.67972">
        <ele>283.07648</ele>
        <time>2023-10-04T08:07:05.000Z</time>
      </trkpt>
      <trkpt lat="45.83632" lon="4.67968">
        <ele>283.20956</ele>
        <time>2023-10-04T08:07:06.000Z</time>
      </trkpt>
      <trkpt lat="45.83628" lon="4.67965">
        <ele>283.3595</ele>
        <time>2023-10-04T08:07:07.000Z</time>
      </trkpt>
      <trkpt lat="45.83623" lon="4.67959">
        <ele>283.51587</ele>
        <time>2023-10-04T08:07:08.000Z</time>
      </trkpt>
      <trkpt lat="45.83619" lon="4.67953">
        <ele>283.66122</ele>
        <time>2023-10-04T08:07:09.000Z</time>
      </trkpt>
      <trkpt lat="45.83615" lon="4.67949">
        <ele>283.78769</ele>
        <time>2023-10-04T08:07:10.000Z</time>
      </trkpt>
      <trkpt lat="45.83612" lon="4.67946">
        <ele>283.88034</ele>
        <time>2023-10-04T08:07:11.000Z</time>
      </trkpt>
      <trkpt lat="45.83607" lon="4.67943">
        <ele>283.98846</ele>
        <time>2023-10-04T08:07:12.000Z</time>
      </trkpt>
      <trkpt lat="45.83602" lon="4.67939">
        <ele>284.06552</ele>
        <time>2023-10-04T08:07:13.000Z</time>
      </trkpt>
      <trkpt lat="45.83597" lon="4.67936">
        <ele>284.1507</ele>
        <time>2023-10-04T08:07:14.000Z</time>
      </trkpt>
      <trkpt lat="45.83592" lon="4.67932">
        <ele>284.19464</ele>
        <time>2023-10-04T08:07:15.000Z</time>
      </trkpt>
      <trkpt lat="45.83589" lon="4.67929">
        <ele>284.22525</ele>
        <time>2023-10-04T08:07:16.000Z</time>
      </trkpt>
      <trkpt lat="45.83583" lon="4.67927">
        <ele>284.15244</ele>
        <time>2023-10-04T08:07:17.000Z</time>
      </trkpt>
      <trkpt lat="45.83579" lon="4.67924">
        <ele>284.0957</ele>
        <time>2023-10-04T08:07:18.000Z</time>
      </trkpt>
      <trkpt lat="45.83574" lon="4.6792">
        <ele>284.155</ele>
        <time>2023-10-04T08:07:19.000Z</time>
      </trkpt>
      <trkpt lat="45.83571" lon="4.67915">
        <ele>284.27533</ele>
        <time>2023-10-04T08:07:20.000Z</time>
      </trkpt>
      <trkpt lat="45.83565" lon="4.67912">
        <ele>284.1571</ele>
        <time>2023-10-04T08:07:21.000Z</time>
      </trkpt>
      <trkpt lat="45.83561" lon="4.67907">
        <ele>284.03723</ele>
        <time>2023-10-04T08:07:22.000Z</time>
      </trkpt>
      <trkpt lat="45.83556" lon="4.67904">
        <ele>283.84482</ele>
        <time>2023-10-04T08:07:23.000Z</time>
      </trkpt>
      <trkpt lat="45.83552" lon="4.67899">
        <ele>283.6264</ele>
        <time>2023-10-04T08:07:24.000Z</time>
      </trkpt>
      <trkpt lat="45.83548" lon="4.67894">
        <ele>283.67542</ele>
        <time>2023-10-04T08:07:25.000Z</time>
      </trkpt>
      <trkpt lat="45.83544" lon="4.67889">
        <ele>283.68808</ele>
        <time>2023-10-04T08:07:26.000Z</time>
      </trkpt>
      <trkpt lat="45.8354" lon="4.67883">
        <ele>283.70587</ele>
        <time>2023-10-04T08:07:27.000Z</time>
      </trkpt>
      <trkpt lat="45.83536" lon="4.67878">
        <ele>283.76657</ele>
        <time>2023-10-04T08:07:28.000Z</time>
      </trkpt>
      <trkpt lat="45.83533" lon="4.67872">
        <ele>283.80457</ele>
        <time>2023-10-04T08:07:29.000Z</time>
      </trkpt>
      <trkpt lat="45.8353" lon="4.67865">
        <ele>283.83038</ele>
        <time>2023-10-04T08:07:30.000Z</time>
      </trkpt>
      <trkpt lat="45.83527" lon="4.67859">
        <ele>283.88992</ele>
        <time>2023-10-04T08:07:31.000Z</time>
      </trkpt>
      <trkpt lat="45.83524" lon="4.67854">
        <ele>283.96808</ele>
        <time>2023-10-04T08:07:32.000Z</time>
      </trkpt>
      <trkpt lat="45.8352" lon="4.6785">
        <ele>284.06467</ele>
        <time>2023-10-04T08:07:33.000Z</time>
      </trkpt>
      <trkpt lat="45.83517" lon="4.67845">
        <ele>284.14053</ele>
        <time>2023-10-04T08:07:34.000Z</time>
      </trkpt>
      <trkpt lat="45.83513" lon="4.67841">
        <ele>284.23862</ele>
        <time>2023-10-04T08:07:35.000Z</time>
      </trkpt>
      <trkpt lat="45.83508" lon="4.67837">
        <ele>284.36044</ele>
        <time>2023-10-04T08:07:36.000Z</time>
      </trkpt>
      <trkpt lat="45.83505" lon="4.67834">
        <ele>284.43582</ele>
        <time>2023-10-04T08:07:37.000Z</time>
      </trkpt>
      <trkpt lat="45.83501" lon="4.6783">
        <ele>284.51517</ele>
        <time>2023-10-04T08:07:38.000Z</time>
      </trkpt>
      <trkpt lat="45.83497" lon="4.67827">
        <ele>284.479</ele>
        <time>2023-10-04T08:07:39.000Z</time>
      </trkpt>
      <trkpt lat="45.83492" lon="4.67823">
        <ele>284.33139</ele>
        <time>2023-10-04T08:07:40.000Z</time>
      </trkpt>
      <trkpt lat="45.83488" lon="4.6782">
        <ele>284.44095</ele>
        <time>2023-10-04T08:07:41.000Z</time>
      </trkpt>
      <trkpt lat="45.83484" lon="4.67817">
        <ele>284.49652</ele>
        <time>2023-10-04T08:07:42.000Z</time>
      </trkpt>
      <trkpt lat="45.83479" lon="4.67814">
        <ele>284.53986</ele>
        <time>2023-10-04T08:07:43.000Z</time>
      </trkpt>
      <trkpt lat="45.83475" lon="4.67813">
        <ele>284.67508</ele>
        <time>2023-10-04T08:07:44.000Z</time>
      </trkpt>
      <trkpt lat="45.8347" lon="4.67811">
        <ele>284.81314</ele>
        <time>2023-10-04T08:07:45.000Z</time>
      </trkpt>
      <trkpt lat="45.83465" lon="4.67809">
        <ele>284.89117</ele>
        <time>2023-10-04T08:07:46.000Z</time>
      </trkpt>
      <trkpt lat="45.83459" lon="4.67806">
        <ele>285.03699</ele>
        <time>2023-10-04T08:07:47.000Z</time>
      </trkpt>
      <trkpt lat="45.83455" lon="4.67803">
        <ele>285.15433</ele>
        <time>2023-10-04T08:07:48.000Z</time>
      </trkpt>
      <trkpt lat="45.83451" lon="4.678">
        <ele>285.05304</ele>
        <time>2023-10-04T08:07:49.000Z</time>
      </trkpt>
      <trkpt lat="45.83448" lon="4.67793">
        <ele>284.92053</ele>
        <time>2023-10-04T08:07:50.000Z</time>
      </trkpt>
      <trkpt lat="45.83445" lon="4.67786">
        <ele>284.77283</ele>
        <time>2023-10-04T08:07:51.000Z</time>
      </trkpt>
      <trkpt lat="45.83444" lon="4.67779">
        <ele>284.65027</ele>
        <time>2023-10-04T08:07:52.000Z</time>
      </trkpt>
      <trkpt lat="45.83443" lon="4.67771">
        <ele>284.5246</ele>
        <time>2023-10-04T08:07:53.000Z</time>
      </trkpt>
      <trkpt lat="45.83442" lon="4.67764">
        <ele>284.51727</ele>
        <time>2023-10-04T08:07:54.000Z</time>
      </trkpt>
      <trkpt lat="45.83441" lon="4.67757">
        <ele>284.5993</ele>
        <time>2023-10-04T08:07:55.000Z</time>
      </trkpt>
      <trkpt lat="45.8344" lon="4.67749">
        <ele>284.66315</ele>
        <time>2023-10-04T08:07:56.000Z</time>
      </trkpt>
      <trkpt lat="45.83438" lon="4.67742">
        <ele>284.76617</ele>
        <time>2023-10-04T08:07:57.000Z</time>
      </trkpt>
      <trkpt lat="45.83436" lon="4.67736">
        <ele>284.65787</ele>
        <time>2023-10-04T08:07:58.000Z</time>
      </trkpt>
      <trkpt lat="45.83435" lon="4.67729">
        <ele>284.59576</ele>
        <time>2023-10-04T08:07:59.000Z</time>
      </trkpt>
      <trkpt lat="45.83432" lon="4.67724">
        <ele>284.56757</ele>
        <time>2023-10-04T08:08:00.000Z</time>
      </trkpt>
      <trkpt lat="45.83429" lon="4.67719">
        <ele>284.91956</ele>
        <time>2023-10-04T08:08:01.000Z</time>
      </trkpt>
      <trkpt lat="45.83424" lon="4.67715">
        <ele>285.08099</ele>
        <time>2023-10-04T08:08:02.000Z</time>
      </trkpt>
      <trkpt lat="45.83421" lon="4.67711">
        <ele>285.2464</ele>
        <time>2023-10-04T08:08:03.000Z</time>
      </trkpt>
      <trkpt lat="45.83417" lon="4.67707">
        <ele>285.31326</ele>
        <time>2023-10-04T08:08:04.000Z</time>
      </trkpt>
      <trkpt lat="45.83413" lon="4.67704">
        <ele>285.58917</ele>
        <time>2023-10-04T08:08:05.000Z</time>
      </trkpt>
      <trkpt lat="45.83409" lon="4.67701">
        <ele>285.91086</ele>
        <time>2023-10-04T08:08:06.000Z</time>
      </trkpt>
      <trkpt lat="45.83404" lon="4.67698">
        <ele>286.13849</ele>
        <time>2023-10-04T08:08:07.000Z</time>
      </trkpt>
      <trkpt lat="45.834" lon="4.67694">
        <ele>286.38837</ele>
        <time>2023-10-04T08:08:08.000Z</time>
      </trkpt>
      <trkpt lat="45.83395" lon="4.67691">
        <ele>286.87946</ele>
        <time>2023-10-04T08:08:09.000Z</time>
      </trkpt>
      <trkpt lat="45.83391" lon="4.67688">
        <ele>287.43427</ele>
        <time>2023-10-04T08:08:10.000Z</time>
      </trkpt>
      <trkpt lat="45.83387" lon="4.67685">
        <ele>288.09885</ele>
        <time>2023-10-04T08:08:11.000Z</time>
      </trkpt>
      <trkpt lat="45.83382" lon="4.67682">
        <ele>288.75043</ele>
        <time>2023-10-04T08:08:12.000Z</time>
      </trkpt>
      <trkpt lat="45.83378" lon="4.67679">
        <ele>289.05573</ele>
        <time>2023-10-04T08:08:13.000Z</time>
      </trkpt>
      <trkpt lat="45.83373" lon="4.67675">
        <ele>289.31711</ele>
        <time>2023-10-04T08:08:14.000Z</time>
      </trkpt>
      <trkpt lat="45.83369" lon="4.67674">
        <ele>289.61176</ele>
        <time>2023-10-04T08:08:15.000Z</time>
      </trkpt>
      <trkpt lat="45.83364" lon="4.6767">
        <ele>289.86914</ele>
        <time>2023-10-04T08:08:16.000Z</time>
      </trkpt>
      <trkpt lat="45.83359" lon="4.67668">
        <ele>290.1091</ele>
        <time>2023-10-04T08:08:17.000Z</time>
      </trkpt>
      <trkpt lat="45.83354" lon="4.67666">
        <ele>290.68228</ele>
        <time>2023-10-04T08:08:18.000Z</time>
      </trkpt>
      <trkpt lat="45.8335" lon="4.67663">
        <ele>291.01819</ele>
        <time>2023-10-04T08:08:19.000Z</time>
      </trkpt>
      <trkpt lat="45.83345" lon="4.67661">
        <ele>291.38132</ele>
        <time>2023-10-04T08:08:20.000Z</time>
      </trkpt>
      <trkpt lat="45.83341" lon="4.67658">
        <ele>291.30493</ele>
        <time>2023-10-04T08:08:21.000Z</time>
      </trkpt>
      <trkpt lat="45.83336" lon="4.67656">
        <ele>291.47882</ele>
        <time>2023-10-04T08:08:22.000Z</time>
      </trkpt>
      <trkpt lat="45.83331" lon="4.67653">
        <ele>291.64566</ele>
        <time>2023-10-04T08:08:23.000Z</time>
      </trkpt>
      <trkpt lat="45.83326" lon="4.67651">
        <ele>291.82172</ele>
        <time>2023-10-04T08:08:24.000Z</time>
      </trkpt>
      <trkpt lat="45.83321" lon="4.67648">
        <ele>291.92682</ele>
        <time>2023-10-04T08:08:25.000Z</time>
      </trkpt>
      <trkpt lat="45.83317" lon="4.67644">
        <ele>292.11978</ele>
        <time>2023-10-04T08:08:26.000Z</time>
      </trkpt>
      <trkpt lat="45.83312" lon="4.67641">
        <ele>292.31842</ele>
        <time>2023-10-04T08:08:27.000Z</time>
      </trkpt>
      <trkpt lat="45.83309" lon="4.67638">
        <ele>292.51767</ele>
        <time>2023-10-04T08:08:28.000Z</time>
      </trkpt>
      <trkpt lat="45.83305" lon="4.67636">
        <ele>292.79199</ele>
        <time>2023-10-04T08:08:29.000Z</time>
      </trkpt>
      <trkpt lat="45.833" lon="4.67634">
        <ele>292.77252</ele>
        <time>2023-10-04T08:08:30.000Z</time>
      </trkpt>
      <trkpt lat="45.83294" lon="4.67634">
        <ele>292.56247</ele>
        <time>2023-10-04T08:08:31.000Z</time>
      </trkpt>
      <trkpt lat="45.83289" lon="4.67634">
        <ele>292.34894</ele>
        <time>2023-10-04T08:08:32.000Z</time>
      </trkpt>
      <trkpt lat="45.83284" lon="4.67632">
        <ele>292.42596</ele>
        <time>2023-10-04T08:08:33.000Z</time>
      </trkpt>
      <trkpt lat="45.83278" lon="4.67631">
        <ele>292.3606</ele>
        <time>2023-10-04T08:08:34.000Z</time>
      </trkpt>
      <trkpt lat="45.83273" lon="4.6763">
        <ele>292.12613</ele>
        <time>2023-10-04T08:08:35.000Z</time>
      </trkpt>
      <trkpt lat="45.83267" lon="4.67628">
        <ele>291.88202</ele>
        <time>2023-10-04T08:08:36.000Z</time>
      </trkpt>
      <trkpt lat="45.83261" lon="4.67627">
        <ele>291.62308</ele>
        <time>2023-10-04T08:08:37.000Z</time>
      </trkpt>
      <trkpt lat="45.83255" lon="4.67626">
        <ele>291.22949</ele>
        <time>2023-10-04T08:08:38.000Z</time>
      </trkpt>
      <trkpt lat="45.8325" lon="4.67623">
        <ele>291.02557</ele>
        <time>2023-10-04T08:08:39.000Z</time>
      </trkpt>
      <trkpt lat="45.83245" lon="4.67619">
        <ele>290.8027</ele>
        <time>2023-10-04T08:08:40.000Z</time>
      </trkpt>
      <trkpt lat="45.83241" lon="4.67614">
        <ele>290.60297</ele>
        <time>2023-10-04T08:08:41.000Z</time>
      </trkpt>
      <trkpt lat="45.83239" lon="4.67607">
        <ele>290.36591</ele>
        <time>2023-10-04T08:08:42.000Z</time>
      </trkpt>
      <trkpt lat="45.83238" lon="4.67599">
        <ele>290.16452</ele>
        <time>2023-10-04T08:08:43.000Z</time>
      </trkpt>
      <trkpt lat="45.83238" lon="4.67592">
        <ele>289.98541</ele>
        <time>2023-10-04T08:08:44.000Z</time>
      </trkpt>
      <trkpt lat="45.8324" lon="4.67585">
        <ele>289.68484</ele>
        <time>2023-10-04T08:08:45.000Z</time>
      </trkpt>
      <trkpt lat="45.83241" lon="4.67578">
        <ele>289.31036</ele>
        <time>2023-10-04T08:08:46.000Z</time>
      </trkpt>
      <trkpt lat="45.83242" lon="4.67571">
        <ele>288.95044</ele>
        <time>2023-10-04T08:08:47.000Z</time>
      </trkpt>
      <trkpt lat="45.83243" lon="4.67564">
        <ele>288.57571</ele>
        <time>2023-10-04T08:08:48.000Z</time>
      </trkpt>
      <trkpt lat="45.83244" lon="4.67559">
        <ele>288.15649</ele>
        <time>2023-10-04T08:08:49.000Z</time>
      </trkpt>
      <trkpt lat="45.83244" lon="4.67553">
        <ele>288.08298</ele>
        <time>2023-10-04T08:08:50.000Z</time>
      </trkpt>
      <trkpt lat="45.83244" lon="4.67547">
        <ele>288.10504</ele>
        <time>2023-10-04T08:08:51.000Z</time>
      </trkpt>
      <trkpt lat="45.83242" lon="4.6754">
        <ele>288.24759</ele>
        <time>2023-10-04T08:08:52.000Z</time>
      </trkpt>
      <trkpt lat="45.83239" lon="4.67535">
        <ele>288.46198</ele>
        <time>2023-10-04T08:08:53.000Z</time>
      </trkpt>
      <trkpt lat="45.83236" lon="4.67531">
        <ele>288.85049</ele>
        <time>2023-10-04T08:08:54.000Z</time>
      </trkpt>
      <trkpt lat="45.8323" lon="4.67527">
        <ele>289.28125</ele>
        <time>2023-10-04T08:08:55.000Z</time>
      </trkpt>
      <trkpt lat="45.83226" lon="4.67522">
        <ele>289.51944</ele>
        <time>2023-10-04T08:08:56.000Z</time>
      </trkpt>
      <trkpt lat="45.83223" lon="4.67518">
        <ele>289.80484</ele>
        <time>2023-10-04T08:08:57.000Z</time>
      </trkpt>
      <trkpt lat="45.83219" lon="4.67515">
        <ele>290.10358</ele>
        <time>2023-10-04T08:08:58.000Z</time>
      </trkpt>
      <trkpt lat="45.83213" lon="4.67513">
        <ele>290.41092</ele>
        <time>2023-10-04T08:08:59.000Z</time>
      </trkpt>
      <trkpt lat="45.83209" lon="4.67509">
        <ele>290.53226</ele>
        <time>2023-10-04T08:09:00.000Z</time>
      </trkpt>
      <trkpt lat="45.83205" lon="4.67505">
        <ele>290.67462</ele>
        <time>2023-10-04T08:09:01.000Z</time>
      </trkpt>
      <trkpt lat="45.83201" lon="4.67501">
        <ele>290.85223</ele>
        <time>2023-10-04T08:09:02.000Z</time>
      </trkpt>
      <trkpt lat="45.83198" lon="4.67496">
        <ele>291.04153</ele>
        <time>2023-10-04T08:09:03.000Z</time>
      </trkpt>
      <trkpt lat="45.83194" lon="4.67492">
        <ele>291.23212</ele>
        <time>2023-10-04T08:09:04.000Z</time>
      </trkpt>
      <trkpt lat="45.8319" lon="4.67487">
        <ele>291.43787</ele>
        <time>2023-10-04T08:09:05.000Z</time>
      </trkpt>
      <trkpt lat="45.83186" lon="4.67482">
        <ele>291.60236</ele>
        <time>2023-10-04T08:09:06.000Z</time>
      </trkpt>
      <trkpt lat="45.83182" lon="4.67478">
        <ele>291.79129</ele>
        <time>2023-10-04T08:09:07.000Z</time>
      </trkpt>
      <trkpt lat="45.83178" lon="4.67474">
        <ele>291.99347</ele>
        <time>2023-10-04T08:09:08.000Z</time>
      </trkpt>
      <trkpt lat="45.83173" lon="4.67472">
        <ele>292.16144</ele>
        <time>2023-10-04T08:09:09.000Z</time>
      </trkpt>
      <trkpt lat="45.83168" lon="4.6747">
        <ele>292.56622</ele>
        <time>2023-10-04T08:09:10.000Z</time>
      </trkpt>
      <trkpt lat="45.83164" lon="4.6747">
        <ele>292.7175</ele>
        <time>2023-10-04T08:09:11.000Z</time>
      </trkpt>
      <trkpt lat="45.83157" lon="4.6747">
        <ele>292.71863</ele>
        <time>2023-10-04T08:09:12.000Z</time>
      </trkpt>
      <trkpt lat="45.83152" lon="4.67469">
        <ele>292.68515</ele>
        <time>2023-10-04T08:09:13.000Z</time>
      </trkpt>
      <trkpt lat="45.83147" lon="4.67468">
        <ele>292.55637</ele>
        <time>2023-10-04T08:09:14.000Z</time>
      </trkpt>
      <trkpt lat="45.83143" lon="4.67464">
        <ele>292.43256</ele>
        <time>2023-10-04T08:09:15.000Z</time>
      </trkpt>
      <trkpt lat="45.8314" lon="4.6746">
        <ele>292.58459</ele>
        <time>2023-10-04T08:09:16.000Z</time>
      </trkpt>
      <trkpt lat="45.83136" lon="4.67454">
        <ele>292.70453</ele>
        <time>2023-10-04T08:09:17.000Z</time>
      </trkpt>
      <trkpt lat="45.83132" lon="4.6745">
        <ele>292.79254</ele>
        <time>2023-10-04T08:09:18.000Z</time>
      </trkpt>
      <trkpt lat="45.83128" lon="4.67445">
        <ele>292.89264</ele>
        <time>2023-10-04T08:09:19.000Z</time>
      </trkpt>
      <trkpt lat="45.83123" lon="4.67439">
        <ele>293.27145</ele>
        <time>2023-10-04T08:09:20.000Z</time>
      </trkpt>
      <trkpt lat="45.83119" lon="4.67434">
        <ele>293.73413</ele>
        <time>2023-10-04T08:09:21.000Z</time>
      </trkpt>
      <trkpt lat="45.83115" lon="4.6743">
        <ele>294.17291</ele>
        <time>2023-10-04T08:09:22.000Z</time>
      </trkpt>
      <trkpt lat="45.83111" lon="4.67426">
        <ele>294.32581</ele>
        <time>2023-10-04T08:09:23.000Z</time>
      </trkpt>
      <trkpt lat="45.83107" lon="4.67421">
        <ele>294.51517</ele>
        <time>2023-10-04T08:09:24.000Z</time>
      </trkpt>
      <trkpt lat="45.83103" lon="4.67417">
        <ele>294.65903</ele>
        <time>2023-10-04T08:09:25.000Z</time>
      </trkpt>
      <trkpt lat="45.831" lon="4.67412">
        <ele>294.79703</ele>
        <time>2023-10-04T08:09:26.000Z</time>
      </trkpt>
      <trkpt lat="45.83097" lon="4.67409">
        <ele>294.88889</ele>
        <time>2023-10-04T08:09:27.000Z</time>
      </trkpt>
      <trkpt lat="45.83093" lon="4.67405">
        <ele>295.01239</ele>
        <time>2023-10-04T08:09:28.000Z</time>
      </trkpt>
      <trkpt lat="45.8309" lon="4.67401">
        <ele>295.14124</ele>
        <time>2023-10-04T08:09:29.000Z</time>
      </trkpt>
      <trkpt lat="45.83087" lon="4.67398">
        <ele>294.99762</ele>
        <time>2023-10-04T08:09:30.000Z</time>
      </trkpt>
      <trkpt lat="45.83083" lon="4.67394">
        <ele>295.13446</ele>
        <time>2023-10-04T08:09:31.000Z</time>
      </trkpt>
      <trkpt lat="45.8308" lon="4.67389">
        <ele>295.28952</ele>
        <time>2023-10-04T08:09:32.000Z</time>
      </trkpt>
      <trkpt lat="45.83077" lon="4.67384">
        <ele>295.5051</ele>
        <time>2023-10-04T08:09:33.000Z</time>
      </trkpt>
      <trkpt lat="45.83073" lon="4.67381">
        <ele>295.72418</ele>
        <time>2023-10-04T08:09:34.000Z</time>
      </trkpt>
      <trkpt lat="45.8307" lon="4.67375">
        <ele>295.86523</ele>
        <time>2023-10-04T08:09:35.000Z</time>
      </trkpt>
      <trkpt lat="45.83066" lon="4.67373">
        <ele>295.95703</ele>
        <time>2023-10-04T08:09:36.000Z</time>
      </trkpt>
      <trkpt lat="45.83063" lon="4.6737">
        <ele>296.05359</ele>
        <time>2023-10-04T08:09:37.000Z</time>
      </trkpt>
      <trkpt lat="45.83059" lon="4.67365">
        <ele>296.16299</ele>
        <time>2023-10-04T08:09:38.000Z</time>
      </trkpt>
      <trkpt lat="45.83055" lon="4.67362">
        <ele>296.29007</ele>
        <time>2023-10-04T08:09:39.000Z</time>
      </trkpt>
      <trkpt lat="45.83052" lon="4.67358">
        <ele>296.35989</ele>
        <time>2023-10-04T08:09:40.000Z</time>
      </trkpt>
      <trkpt lat="45.83048" lon="4.67355">
        <ele>296.38846</ele>
        <time>2023-10-04T08:09:41.000Z</time>
      </trkpt>
      <trkpt lat="45.83044" lon="4.67352">
        <ele>296.41394</ele>
        <time>2023-10-04T08:09:42.000Z</time>
      </trkpt>
      <trkpt lat="45.8304" lon="4.67348">
        <ele>296.67297</ele>
        <time>2023-10-04T08:09:43.000Z</time>
      </trkpt>
      <trkpt lat="45.83035" lon="4.67344">
        <ele>296.86801</ele>
        <time>2023-10-04T08:09:44.000Z</time>
      </trkpt>
      <trkpt lat="45.83031" lon="4.6734">
        <ele>297.0719</ele>
        <time>2023-10-04T08:09:45.000Z</time>
      </trkpt>
      <trkpt lat="45.83027" lon="4.67337">
        <ele>297.3107</ele>
        <time>2023-10-04T08:09:46.000Z</time>
      </trkpt>
      <trkpt lat="45.83023" lon="4.67334">
        <ele>297.61407</ele>
        <time>2023-10-04T08:09:47.000Z</time>
      </trkpt>
      <trkpt lat="45.8302" lon="4.67331">
        <ele>297.93176</ele>
        <time>2023-10-04T08:09:48.000Z</time>
      </trkpt>
      <trkpt lat="45.83016" lon="4.67327">
        <ele>298.26062</ele>
        <time>2023-10-04T08:09:49.000Z</time>
      </trkpt>
      <trkpt lat="45.83012" lon="4.67324">
        <ele>298.56332</ele>
        <time>2023-10-04T08:09:50.000Z</time>
      </trkpt>
      <trkpt lat="45.83009" lon="4.67321">
        <ele>298.91901</ele>
        <time>2023-10-04T08:09:51.000Z</time>
      </trkpt>
      <trkpt lat="45.83005" lon="4.67319">
        <ele>299.02994</ele>
        <time>2023-10-04T08:09:52.000Z</time>
      </trkpt>
      <trkpt lat="45.83002" lon="4.67318">
        <ele>299.17227</ele>
        <time>2023-10-04T08:09:53.000Z</time>
      </trkpt>
      <trkpt lat="45.82999" lon="4.67319">
        <ele>299.33649</ele>
        <time>2023-10-04T08:09:54.000Z</time>
      </trkpt>
      <trkpt lat="45.82995" lon="4.67322">
        <ele>299.57208</ele>
        <time>2023-10-04T08:09:55.000Z</time>
      </trkpt>
      <trkpt lat="45.82991" lon="4.67324">
        <ele>299.81485</ele>
        <time>2023-10-04T08:09:56.000Z</time>
      </trkpt>
      <trkpt lat="45.82989" lon="4.67329">
        <ele>300.02045</ele>
        <time>2023-10-04T08:09:57.000Z</time>
      </trkpt>
      <trkpt lat="45.82988" lon="4.67334">
        <ele>300.25589</ele>
        <time>2023-10-04T08:09:58.000Z</time>
      </trkpt>
      <trkpt lat="45.82986" lon="4.67338">
        <ele>300.41855</ele>
        <time>2023-10-04T08:09:59.000Z</time>
      </trkpt>
      <trkpt lat="45.82984" lon="4.67342">
        <ele>300.54669</ele>
        <time>2023-10-04T08:10:00.000Z</time>
      </trkpt>
      <trkpt lat="45.82982" lon="4.67347">
        <ele>300.63376</ele>
        <time>2023-10-04T08:10:01.000Z</time>
      </trkpt>
      <trkpt lat="45.82978" lon="4.67351">
        <ele>300.74283</ele>
        <time>2023-10-04T08:10:02.000Z</time>
      </trkpt>
      <trkpt lat="45.82975" lon="4.67356">
        <ele>300.88385</ele>
        <time>2023-10-04T08:10:03.000Z</time>
      </trkpt>
      <trkpt lat="45.82972" lon="4.67361">
        <ele>301.02139</ele>
        <time>2023-10-04T08:10:04.000Z</time>
      </trkpt>
      <trkpt lat="45.8297" lon="4.67366">
        <ele>301.15973</ele>
        <time>2023-10-04T08:10:05.000Z</time>
      </trkpt>
      <trkpt lat="45.82967" lon="4.67371">
        <ele>301.2872</ele>
        <time>2023-10-04T08:10:06.000Z</time>
      </trkpt>
      <trkpt lat="45.82965" lon="4.67377">
        <ele>301.35953</ele>
        <time>2023-10-04T08:10:07.000Z</time>
      </trkpt>
      <trkpt lat="45.82963" lon="4.67382">
        <ele>301.38727</ele>
        <time>2023-10-04T08:10:08.000Z</time>
      </trkpt>
      <trkpt lat="45.82961" lon="4.67387">
        <ele>301.41986</ele>
        <time>2023-10-04T08:10:09.000Z</time>
      </trkpt>
      <trkpt lat="45.82958" lon="4.67393">
        <ele>301.44125</ele>
        <time>2023-10-04T08:10:10.000Z</time>
      </trkpt>
      <trkpt lat="45.82955" lon="4.67397">
        <ele>301.34488</ele>
        <time>2023-10-04T08:10:11.000Z</time>
      </trkpt>
      <trkpt lat="45.82952" lon="4.67403">
        <ele>301.47208</ele>
        <time>2023-10-04T08:10:12.000Z</time>
      </trkpt>
      <trkpt lat="45.82949" lon="4.67407">
        <ele>301.52515</ele>
        <time>2023-10-04T08:10:13.000Z</time>
      </trkpt>
      <trkpt lat="45.82946" lon="4.67413">
        <ele>301.53766</ele>
        <time>2023-10-04T08:10:14.000Z</time>
      </trkpt>
      <trkpt lat="45.82944" lon="4.67417">
        <ele>301.54227</ele>
        <time>2023-10-04T08:10:15.000Z</time>
      </trkpt>
      <trkpt lat="45.82941" lon="4.67423">
        <ele>301.56317</ele>
        <time>2023-10-04T08:10:16.000Z</time>
      </trkpt>
      <trkpt lat="45.82938" lon="4.67428">
        <ele>301.61221</ele>
        <time>2023-10-04T08:10:17.000Z</time>
      </trkpt>
      <trkpt lat="45.82935" lon="4.67433">
        <ele>301.7081</ele>
        <time>2023-10-04T08:10:18.000Z</time>
      </trkpt>
      <trkpt lat="45.82933" lon="4.67439">
        <ele>301.85526</ele>
        <time>2023-10-04T08:10:19.000Z</time>
      </trkpt>
      <trkpt lat="45.82931" lon="4.67445">
        <ele>302.04843</ele>
        <time>2023-10-04T08:10:20.000Z</time>
      </trkpt>
      <trkpt lat="45.82928" lon="4.6745">
        <ele>302.07419</ele>
        <time>2023-10-04T08:10:21.000Z</time>
      </trkpt>
      <trkpt lat="45.82926" lon="4.67455">
        <ele>302.07977</ele>
        <time>2023-10-04T08:10:22.000Z</time>
      </trkpt>
      <trkpt lat="45.82923" lon="4.6746">
        <ele>302.06915</ele>
        <time>2023-10-04T08:10:23.000Z</time>
      </trkpt>
      <trkpt lat="45.8292" lon="4.67465">
        <ele>302.05557</ele>
        <time>2023-10-04T08:10:24.000Z</time>
      </trkpt>
      <trkpt lat="45.82918" lon="4.6747">
        <ele>302.05948</ele>
        <time>2023-10-04T08:10:25.000Z</time>
      </trkpt>
      <trkpt lat="45.82914" lon="4.67475">
        <ele>302.06943</ele>
        <time>2023-10-04T08:10:26.000Z</time>
      </trkpt>
      <trkpt lat="45.82912" lon="4.67481">
        <ele>302.08255</ele>
        <time>2023-10-04T08:10:27.000Z</time>
      </trkpt>
      <trkpt lat="45.82908" lon="4.67486">
        <ele>302.1048</ele>
        <time>2023-10-04T08:10:28.000Z</time>
      </trkpt>
      <trkpt lat="45.82906" lon="4.67491">
        <ele>302.133</ele>
        <time>2023-10-04T08:10:29.000Z</time>
      </trkpt>
      <trkpt lat="45.82904" lon="4.67497">
        <ele>302.16034</ele>
        <time>2023-10-04T08:10:30.000Z</time>
      </trkpt>
      <trkpt lat="45.82901" lon="4.67502">
        <ele>302.19934</ele>
        <time>2023-10-04T08:10:31.000Z</time>
      </trkpt>
      <trkpt lat="45.82897" lon="4.67506">
        <ele>302.24908</ele>
        <time>2023-10-04T08:10:32.000Z</time>
      </trkpt>
      <trkpt lat="45.82895" lon="4.67509">
        <ele>302.27887</ele>
        <time>2023-10-04T08:10:33.000Z</time>
      </trkpt>
      <trkpt lat="45.82891" lon="4.67511">
        <ele>302.31531</ele>
        <time>2023-10-04T08:10:34.000Z</time>
      </trkpt>
      <trkpt lat="45.82888" lon="4.67509">
        <ele>302.37369</ele>
        <time>2023-10-04T08:10:35.000Z</time>
      </trkpt>
      <trkpt lat="45.82885" lon="4.67506">
        <ele>302.45984</ele>
        <time>2023-10-04T08:10:36.000Z</time>
      </trkpt>
      <trkpt lat="45.82882" lon="4.67502">
        <ele>302.54822</ele>
        <time>2023-10-04T08:10:37.000Z</time>
      </trkpt>
      <trkpt lat="45.82878" lon="4.67498">
        <ele>302.66266</ele>
        <time>2023-10-04T08:10:38.000Z</time>
      </trkpt>
      <trkpt lat="45.82875" lon="4.67494">
        <ele>302.76999</ele>
        <time>2023-10-04T08:10:39.000Z</time>
      </trkpt>
      <trkpt lat="45.82872" lon="4.67489">
        <ele>302.85516</ele>
        <time>2023-10-04T08:10:40.000Z</time>
      </trkpt>
      <trkpt lat="45.82869" lon="4.67485">
        <ele>303.11725</ele>
        <time>2023-10-04T08:10:41.000Z</time>
      </trkpt>
      <trkpt lat="45.82866" lon="4.67481">
        <ele>303.21552</ele>
        <time>2023-10-04T08:10:42.000Z</time>
      </trkpt>
      <trkpt lat="45.82862" lon="4.67477">
        <ele>303.341</ele>
        <time>2023-10-04T08:10:43.000Z</time>
      </trkpt>
      <trkpt lat="45.82859" lon="4.67472">
        <ele>303.50507</ele>
        <time>2023-10-04T08:10:44.000Z</time>
      </trkpt>
      <trkpt lat="45.82856" lon="4.67468">
        <ele>303.67203</ele>
        <time>2023-10-04T08:10:45.000Z</time>
      </trkpt>
      <trkpt lat="45.82853" lon="4.67464">
        <ele>303.8421</ele>
        <time>2023-10-04T08:10:46.000Z</time>
      </trkpt>
      <trkpt lat="45.8285" lon="4.6746">
        <ele>304.02203</ele>
        <time>2023-10-04T08:10:47.000Z</time>
      </trkpt>
      <trkpt lat="45.82846" lon="4.67455">
        <ele>304.19724</ele>
        <time>2023-10-04T08:10:48.000Z</time>
      </trkpt>
      <trkpt lat="45.82843" lon="4.67451">
        <ele>304.36069</ele>
        <time>2023-10-04T08:10:49.000Z</time>
      </trkpt>
      <trkpt lat="45.82839" lon="4.67446">
        <ele>304.51016</ele>
        <time>2023-10-04T08:10:50.000Z</time>
      </trkpt>
      <trkpt lat="45.82836" lon="4.67442">
        <ele>304.66449</ele>
        <time>2023-10-04T08:10:51.000Z</time>
      </trkpt>
      <trkpt lat="45.82832" lon="4.67439">
        <ele>304.83362</ele>
        <time>2023-10-04T08:10:52.000Z</time>
      </trkpt>
      <trkpt lat="45.82829" lon="4.67433">
        <ele>304.99741</ele>
        <time>2023-10-04T08:10:53.000Z</time>
      </trkpt>
      <trkpt lat="45.82826" lon="4.67429">
        <ele>305.1597</ele>
        <time>2023-10-04T08:10:54.000Z</time>
      </trkpt>
      <trkpt lat="45.82822" lon="4.67425">
        <ele>305.29709</ele>
        <time>2023-10-04T08:10:55.000Z</time>
      </trkpt>
      <trkpt lat="45.82819" lon="4.67421">
        <ele>305.41934</ele>
        <time>2023-10-04T08:10:56.000Z</time>
      </trkpt>
      <trkpt lat="45.82815" lon="4.67416">
        <ele>305.60019</ele>
        <time>2023-10-04T08:10:57.000Z</time>
      </trkpt>
      <trkpt lat="45.82811" lon="4.67412">
        <ele>305.7019</ele>
        <time>2023-10-04T08:10:58.000Z</time>
      </trkpt>
      <trkpt lat="45.82808" lon="4.67406">
        <ele>305.8252</ele>
        <time>2023-10-04T08:10:59.000Z</time>
      </trkpt>
      <trkpt lat="45.82804" lon="4.67402">
        <ele>305.78253</ele>
        <time>2023-10-04T08:11:00.000Z</time>
      </trkpt>
      <trkpt lat="45.82801" lon="4.67397">
        <ele>305.72607</ele>
        <time>2023-10-04T08:11:01.000Z</time>
      </trkpt>
      <trkpt lat="45.82798" lon="4.67393">
        <ele>305.8399</ele>
        <time>2023-10-04T08:11:02.000Z</time>
      </trkpt>
      <trkpt lat="45.82795" lon="4.67389">
        <ele>305.92615</ele>
        <time>2023-10-04T08:11:03.000Z</time>
      </trkpt>
      <trkpt lat="45.82792" lon="4.67384">
        <ele>305.98431</ele>
        <time>2023-10-04T08:11:04.000Z</time>
      </trkpt>
      <trkpt lat="45.8279" lon="4.6738">
        <ele>306.05289</ele>
        <time>2023-10-04T08:11:05.000Z</time>
      </trkpt>
      <trkpt lat="45.82786" lon="4.67375">
        <ele>306.1059</ele>
        <time>2023-10-04T08:11:06.000Z</time>
      </trkpt>
      <trkpt lat="45.82782" lon="4.67371">
        <ele>306.1524</ele>
        <time>2023-10-04T08:11:07.000Z</time>
      </trkpt>
      <trkpt lat="45.82779" lon="4.67367">
        <ele>306.22073</ele>
        <time>2023-10-04T08:11:08.000Z</time>
      </trkpt>
      <trkpt lat="45.82775" lon="4.67362">
        <ele>306.28738</ele>
        <time>2023-10-04T08:11:09.000Z</time>
      </trkpt>
      <trkpt lat="45.82772" lon="4.67357">
        <ele>306.36096</ele>
        <time>2023-10-04T08:11:10.000Z</time>
      </trkpt>
      <trkpt lat="45.82768" lon="4.67352">
        <ele>306.44363</ele>
        <time>2023-10-04T08:11:11.000Z</time>
      </trkpt>
      <trkpt lat="45.82764" lon="4.67348">
        <ele>306.51657</ele>
        <time>2023-10-04T08:11:12.000Z</time>
      </trkpt>
      <trkpt lat="45.8276" lon="4.67343">
        <ele>306.60913</ele>
        <time>2023-10-04T08:11:13.000Z</time>
      </trkpt>
      <trkpt lat="45.82755" lon="4.67338">
        <ele>306.68875</ele>
        <time>2023-10-04T08:11:14.000Z</time>
      </trkpt>
      <trkpt lat="45.82752" lon="4.67333">
        <ele>306.75519</ele>
        <time>2023-10-04T08:11:15.000Z</time>
      </trkpt>
      <trkpt lat="45.82748" lon="4.67329">
        <ele>306.80005</ele>
        <time>2023-10-04T08:11:16.000Z</time>
      </trkpt>
      <trkpt lat="45.82745" lon="4.67324">
        <ele>306.79694</ele>
        <time>2023-10-04T08:11:17.000Z</time>
      </trkpt>
      <trkpt lat="45.82741" lon="4.67319">
        <ele>306.78159</ele>
        <time>2023-10-04T08:11:18.000Z</time>
      </trkpt>
      <trkpt lat="45.82737" lon="4.67314">
        <ele>306.73169</ele>
        <time>2023-10-04T08:11:19.000Z</time>
      </trkpt>
      <trkpt lat="45.82733" lon="4.67309">
        <ele>306.81625</ele>
        <time>2023-10-04T08:11:20.000Z</time>
      </trkpt>
      <trkpt lat="45.82729" lon="4.67303">
        <ele>306.86096</ele>
        <time>2023-10-04T08:11:21.000Z</time>
      </trkpt>
      <trkpt lat="45.82726" lon="4.67299">
        <ele>306.89258</ele>
        <time>2023-10-04T08:11:22.000Z</time>
      </trkpt>
      <trkpt lat="45.82722" lon="4.67293">
        <ele>306.91727</ele>
        <time>2023-10-04T08:11:23.000Z</time>
      </trkpt>
      <trkpt lat="45.82718" lon="4.67289">
        <ele>306.94025</ele>
        <time>2023-10-04T08:11:24.000Z</time>
      </trkpt>
      <trkpt lat="45.82713" lon="4.67284">
        <ele>306.94888</ele>
        <time>2023-10-04T08:11:25.000Z</time>
      </trkpt>
      <trkpt lat="45.82709" lon="4.67279">
        <ele>306.96753</ele>
        <time>2023-10-04T08:11:26.000Z</time>
      </trkpt>
      <trkpt lat="45.82705" lon="4.67274">
        <ele>306.99515</ele>
        <time>2023-10-04T08:11:27.000Z</time>
      </trkpt>
      <trkpt lat="45.82701" lon="4.67269">
        <ele>306.99252</ele>
        <time>2023-10-04T08:11:28.000Z</time>
      </trkpt>
      <trkpt lat="45.82697" lon="4.67263">
        <ele>306.96378</ele>
        <time>2023-10-04T08:11:29.000Z</time>
      </trkpt>
      <trkpt lat="45.82693" lon="4.67258">
        <ele>306.92511</ele>
        <time>2023-10-04T08:11:30.000Z</time>
      </trkpt>
      <trkpt lat="45.82689" lon="4.67254">
        <ele>306.95654</ele>
        <time>2023-10-04T08:11:31.000Z</time>
      </trkpt>
      <trkpt lat="45.82685" lon="4.67249">
        <ele>307.00424</ele>
        <time>2023-10-04T08:11:32.000Z</time>
      </trkpt>
      <trkpt lat="45.82681" lon="4.67244">
        <ele>306.97849</ele>
        <time>2023-10-04T08:11:33.000Z</time>
      </trkpt>
      <trkpt lat="45.82677" lon="4.67239">
        <ele>306.99542</ele>
        <time>2023-10-04T08:11:34.000Z</time>
      </trkpt>
      <trkpt lat="45.82674" lon="4.67234">
        <ele>307.02908</ele>
        <time>2023-10-04T08:11:35.000Z</time>
      </trkpt>
      <trkpt lat="45.8267" lon="4.67229">
        <ele>307.06555</ele>
        <time>2023-10-04T08:11:36.000Z</time>
      </trkpt>
      <trkpt lat="45.82666" lon="4.67224">
        <ele>307.08282</ele>
        <time>2023-10-04T08:11:37.000Z</time>
      </trkpt>
      <trkpt lat="45.82662" lon="4.6722">
        <ele>307.1066</ele>
        <time>2023-10-04T08:11:38.000Z</time>
      </trkpt>
      <trkpt lat="45.82659" lon="4.67215">
        <ele>307.15909</ele>
        <time>2023-10-04T08:11:39.000Z</time>
      </trkpt>
      <trkpt lat="45.82655" lon="4.6721">
        <ele>307.22324</ele>
        <time>2023-10-04T08:11:40.000Z</time>
      </trkpt>
      <trkpt lat="45.82651" lon="4.67206">
        <ele>307.30301</ele>
        <time>2023-10-04T08:11:41.000Z</time>
      </trkpt>
      <trkpt lat="45.82647" lon="4.67201">
        <ele>307.38733</ele>
        <time>2023-10-04T08:11:42.000Z</time>
      </trkpt>
      <trkpt lat="45.82643" lon="4.67197">
        <ele>307.49188</ele>
        <time>2023-10-04T08:11:43.000Z</time>
      </trkpt>
      <trkpt lat="45.8264" lon="4.67191">
        <ele>307.58627</ele>
        <time>2023-10-04T08:11:44.000Z</time>
      </trkpt>
      <trkpt lat="45.82637" lon="4.67186">
        <ele>307.70981</ele>
        <time>2023-10-04T08:11:45.000Z</time>
      </trkpt>
      <trkpt lat="45.82635" lon="4.67181">
        <ele>307.8262</ele>
        <time>2023-10-04T08:11:46.000Z</time>
      </trkpt>
      <trkpt lat="45.82631" lon="4.67177">
        <ele>307.95499</ele>
        <time>2023-10-04T08:11:47.000Z</time>
      </trkpt>
      <trkpt lat="45.82627" lon="4.67173">
        <ele>308.09406</ele>
        <time>2023-10-04T08:11:48.000Z</time>
      </trkpt>
      <trkpt lat="45.82623" lon="4.6717">
        <ele>308.25104</ele>
        <time>2023-10-04T08:11:49.000Z</time>
      </trkpt>
      <trkpt lat="45.82618" lon="4.67167">
        <ele>308.43158</ele>
        <time>2023-10-04T08:11:50.000Z</time>
      </trkpt>
      <trkpt lat="45.82613" lon="4.67165">
        <ele>308.54828</ele>
        <time>2023-10-04T08:11:51.000Z</time>
      </trkpt>
      <trkpt lat="45.82609" lon="4.67163">
        <ele>308.66278</ele>
        <time>2023-10-04T08:11:52.000Z</time>
      </trkpt>
      <trkpt lat="45.82604" lon="4.67161">
        <ele>308.86169</ele>
        <time>2023-10-04T08:11:53.000Z</time>
      </trkpt>
      <trkpt lat="45.82599" lon="4.67158">
        <ele>309.065</ele>
        <time>2023-10-04T08:11:54.000Z</time>
      </trkpt>
      <trkpt lat="45.82595" lon="4.67156">
        <ele>309.2666</ele>
        <time>2023-10-04T08:11:55.000Z</time>
      </trkpt>
      <trkpt lat="45.82589" lon="4.67153">
        <ele>309.41098</ele>
        <time>2023-10-04T08:11:56.000Z</time>
      </trkpt>
      <trkpt lat="45.82584" lon="4.6715">
        <ele>309.59467</ele>
        <time>2023-10-04T08:11:57.000Z</time>
      </trkpt>
      <trkpt lat="45.82579" lon="4.67148">
        <ele>309.76849</ele>
        <time>2023-10-04T08:11:58.000Z</time>
      </trkpt>
      <trkpt lat="45.82574" lon="4.67146">
        <ele>309.95526</ele>
        <time>2023-10-04T08:11:59.000Z</time>
      </trkpt>
      <trkpt lat="45.82569" lon="4.67144">
        <ele>310.11588</ele>
        <time>2023-10-04T08:12:00.000Z</time>
      </trkpt>
      <trkpt lat="45.82564" lon="4.67143">
        <ele>310.32178</ele>
        <time>2023-10-04T08:12:01.000Z</time>
      </trkpt>
      <trkpt lat="45.8256" lon="4.67142">
        <ele>310.55676</ele>
        <time>2023-10-04T08:12:02.000Z</time>
      </trkpt>
      <trkpt lat="45.82556" lon="4.6714">
        <ele>310.79169</ele>
        <time>2023-10-04T08:12:03.000Z</time>
      </trkpt>
      <trkpt lat="45.82551" lon="4.67139">
        <ele>311.05844</ele>
        <time>2023-10-04T08:12:04.000Z</time>
      </trkpt>
      <trkpt lat="45.82547" lon="4.67136">
        <ele>311.25369</ele>
        <time>2023-10-04T08:12:05.000Z</time>
      </trkpt>
      <trkpt lat="45.82542" lon="4.67134">
        <ele>311.46848</ele>
        <time>2023-10-04T08:12:06.000Z</time>
      </trkpt>
      <trkpt lat="45.82537" lon="4.67132">
        <ele>311.67468</ele>
        <time>2023-10-04T08:12:07.000Z</time>
      </trkpt>
      <trkpt lat="45.82532" lon="4.6713">
        <ele>311.85889</ele>
        <time>2023-10-04T08:12:08.000Z</time>
      </trkpt>
      <trkpt lat="45.82527" lon="4.67128">
        <ele>312.03885</ele>
        <time>2023-10-04T08:12:09.000Z</time>
      </trkpt>
      <trkpt lat="45.82523" lon="4.67126">
        <ele>312.20441</ele>
        <time>2023-10-04T08:12:10.000Z</time>
      </trkpt>
      <trkpt lat="45.82519" lon="4.67124">
        <ele>312.30756</ele>
        <time>2023-10-04T08:12:11.000Z</time>
      </trkpt>
      <trkpt lat="45.82514" lon="4.67122">
        <ele>312.40637</ele>
        <time>2023-10-04T08:12:12.000Z</time>
      </trkpt>
      <trkpt lat="45.8251" lon="4.6712">
        <ele>312.52594</ele>
        <time>2023-10-04T08:12:13.000Z</time>
      </trkpt>
      <trkpt lat="45.82506" lon="4.67118">
        <ele>312.62146</ele>
        <time>2023-10-04T08:12:14.000Z</time>
      </trkpt>
      <trkpt lat="45.82502" lon="4.67117">
        <ele>312.68442</ele>
        <time>2023-10-04T08:12:15.000Z</time>
      </trkpt>
      <trkpt lat="45.82498" lon="4.67114">
        <ele>312.76968</ele>
        <time>2023-10-04T08:12:16.000Z</time>
      </trkpt>
      <trkpt lat="45.82493" lon="4.67112">
        <ele>312.83688</ele>
        <time>2023-10-04T08:12:17.000Z</time>
      </trkpt>
      <trkpt lat="45.82489" lon="4.67112">
        <ele>312.92914</ele>
        <time>2023-10-04T08:12:18.000Z</time>
      </trkpt>
      <trkpt lat="45.82485" lon="4.67109">
        <ele>312.97418</ele>
        <time>2023-10-04T08:12:19.000Z</time>
      </trkpt>
      <trkpt lat="45.82482" lon="4.67108">
        <ele>313.03378</ele>
        <time>2023-10-04T08:12:20.000Z</time>
      </trkpt>
      <trkpt lat="45.82478" lon="4.67106">
        <ele>313.05182</ele>
        <time>2023-10-04T08:12:21.000Z</time>
      </trkpt>
      <trkpt lat="45.82475" lon="4.67104">
        <ele>313.05072</ele>
        <time>2023-10-04T08:12:22.000Z</time>
      </trkpt>
      <trkpt lat="45.82472" lon="4.67103">
        <ele>313.06476</ele>
        <time>2023-10-04T08:12:23.000Z</time>
      </trkpt>
      <trkpt lat="45.82469" lon="4.67102">
        <ele>313.08566</ele>
        <time>2023-10-04T08:12:24.000Z</time>
      </trkpt>
      <trkpt lat="45.82467" lon="4.67101">
        <ele>313.17282</ele>
        <time>2023-10-04T08:12:25.000Z</time>
      </trkpt>
      <trkpt lat="45.82465" lon="4.67101">
        <ele>313.25128</ele>
        <time>2023-10-04T08:12:26.000Z</time>
      </trkpt>
      <trkpt lat="45.82462" lon="4.67101">
        <ele>313.28888</ele>
        <time>2023-10-04T08:12:28.000Z</time>
      </trkpt>
      <trkpt lat="45.82459" lon="4.671">
        <ele>313.33252</ele>
        <time>2023-10-04T08:12:30.000Z</time>
      </trkpt>
      <trkpt lat="45.82458" lon="4.671">
        <ele>313.37524</ele>
        <time>2023-10-04T08:12:31.000Z</time>
      </trkpt>
      <trkpt lat="45.82455" lon="4.671">
        <ele>313.40863</ele>
        <time>2023-10-04T08:12:32.000Z</time>
      </trkpt>
      <trkpt lat="45.82453" lon="4.671">
        <ele>313.51776</ele>
        <time>2023-10-04T08:12:33.000Z</time>
      </trkpt>
      <trkpt lat="45.82451" lon="4.671">
        <ele>313.62833</ele>
        <time>2023-10-04T08:12:34.000Z</time>
      </trkpt>
      <trkpt lat="45.82449" lon="4.671">
        <ele>313.71347</ele>
        <time>2023-10-04T08:12:36.000Z</time>
      </trkpt>
      <trkpt lat="45.82447" lon="4.67099">
        <ele>313.79144</ele>
        <time>2023-10-04T08:12:38.000Z</time>
      </trkpt>
      <trkpt lat="45.82445" lon="4.67099">
        <ele>313.89038</ele>
        <time>2023-10-04T08:12:43.000Z</time>
      </trkpt>
      <trkpt lat="45.82441" lon="4.67098">
        <ele>314.0293</ele>
        <time>2023-10-04T08:12:45.000Z</time>
      </trkpt>
      <trkpt lat="45.82439" lon="4.67097">
        <ele>314.15656</ele>
        <time>2023-10-04T08:12:46.000Z</time>
      </trkpt>
      <trkpt lat="45.82437" lon="4.67096">
        <ele>314.25742</ele>
        <time>2023-10-04T08:12:47.000Z</time>
      </trkpt>
      <trkpt lat="45.82434" lon="4.67094">
        <ele>314.37082</ele>
        <time>2023-10-04T08:12:48.000Z</time>
      </trkpt>
      <trkpt lat="45.82432" lon="4.67093">
        <ele>314.47046</ele>
        <time>2023-10-04T08:12:49.000Z</time>
      </trkpt>
      <trkpt lat="45.8243" lon="4.67092">
        <ele>314.56146</ele>
        <time>2023-10-04T08:12:50.000Z</time>
      </trkpt>
      <trkpt lat="45.82428" lon="4.67089">
        <ele>314.64758</ele>
        <time>2023-10-04T08:12:51.000Z</time>
      </trkpt>
      <trkpt lat="45.82426" lon="4.67085">
        <ele>314.72076</ele>
        <time>2023-10-04T08:12:52.000Z</time>
      </trkpt>
      <trkpt lat="45.82425" lon="4.67081">
        <ele>314.811</ele>
        <time>2023-10-04T08:12:53.000Z</time>
      </trkpt>
      <trkpt lat="45.82425" lon="4.67076">
        <ele>314.90195</ele>
        <time>2023-10-04T08:12:54.000Z</time>
      </trkpt>
      <trkpt lat="45.82426" lon="4.67071">
        <ele>314.96198</ele>
        <time>2023-10-04T08:12:55.000Z</time>
      </trkpt>
      <trkpt lat="45.82426" lon="4.67067">
        <ele>315.01422</ele>
        <time>2023-10-04T08:12:56.000Z</time>
      </trkpt>
      <trkpt lat="45.82426" lon="4.67063">
        <ele>315.05234</ele>
        <time>2023-10-04T08:12:57.000Z</time>
      </trkpt>
      <trkpt lat="45.82427" lon="4.6706">
        <ele>315.10864</ele>
        <time>2023-10-04T08:12:58.000Z</time>
      </trkpt>
      <trkpt lat="45.82427" lon="4.67057">
        <ele>315.18811</ele>
        <time>2023-10-04T08:12:59.000Z</time>
      </trkpt>
      <trkpt lat="45.82427" lon="4.67054">
        <ele>315.26328</ele>
        <time>2023-10-04T08:13:00.000Z</time>
      </trkpt>
      <trkpt lat="45.82428" lon="4.67051">
        <ele>315.12204</ele>
        <time>2023-10-04T08:13:01.000Z</time>
      </trkpt>
      <trkpt lat="45.82429" lon="4.67048">
        <ele>314.99097</ele>
        <time>2023-10-04T08:13:02.000Z</time>
      </trkpt>
      <trkpt lat="45.8243" lon="4.67045">
        <ele>314.85013</ele>
        <time>2023-10-04T08:13:03.000Z</time>
      </trkpt>
      <trkpt lat="45.82432" lon="4.67042">
        <ele>314.74158</ele>
        <time>2023-10-04T08:13:04.000Z</time>
      </trkpt>
      <trkpt lat="45.82434" lon="4.67039">
        <ele>314.58878</ele>
        <time>2023-10-04T08:13:05.000Z</time>
      </trkpt>
      <trkpt lat="45.82436" lon="4.67035">
        <ele>314.42343</ele>
        <time>2023-10-04T08:13:06.000Z</time>
      </trkpt>
      <trkpt lat="45.82437" lon="4.67031">
        <ele>314.24634</ele>
        <time>2023-10-04T08:13:07.000Z</time>
      </trkpt>
      <trkpt lat="45.82437" lon="4.67026">
        <ele>314.06625</ele>
        <time>2023-10-04T08:13:08.000Z</time>
      </trkpt>
      <trkpt lat="45.82434" lon="4.67021">
        <ele>313.87878</ele>
        <time>2023-10-04T08:13:09.000Z</time>
      </trkpt>
      <trkpt lat="45.82432" lon="4.67016">
        <ele>313.70074</ele>
        <time>2023-10-04T08:13:10.000Z</time>
      </trkpt>
      <trkpt lat="45.82429" lon="4.67012">
        <ele>313.5163</ele>
        <time>2023-10-04T08:13:11.000Z</time>
      </trkpt>
      <trkpt lat="45.82426" lon="4.67007">
        <ele>313.32993</ele>
        <time>2023-10-04T08:13:12.000Z</time>
      </trkpt>
      <trkpt lat="45.82423" lon="4.67002">
        <ele>313.09885</ele>
        <time>2023-10-04T08:13:13.000Z</time>
      </trkpt>
      <trkpt lat="45.8242" lon="4.66998">
        <ele>312.85724</ele>
        <time>2023-10-04T08:13:14.000Z</time>
      </trkpt>
      <trkpt lat="45.82416" lon="4.66993">
        <ele>312.6095</ele>
        <time>2023-10-04T08:13:15.000Z</time>
      </trkpt>
      <trkpt lat="45.82413" lon="4.66987">
        <ele>312.466</ele>
        <time>2023-10-04T08:13:16.000Z</time>
      </trkpt>
      <trkpt lat="45.8241" lon="4.66982">
        <ele>312.33911</ele>
        <time>2023-10-04T08:13:17.000Z</time>
      </trkpt>
      <trkpt lat="45.82406" lon="4.66977">
        <ele>312.20645</ele>
        <time>2023-10-04T08:13:18.000Z</time>
      </trkpt>
      <trkpt lat="45.82403" lon="4.66971">
        <ele>312.07755</ele>
        <time>2023-10-04T08:13:19.000Z</time>
      </trkpt>
      <trkpt lat="45.824" lon="4.66965">
        <ele>311.90842</ele>
        <time>2023-10-04T08:13:20.000Z</time>
      </trkpt>
      <trkpt lat="45.82397" lon="4.66957">
        <ele>311.93204</ele>
        <time>2023-10-04T08:13:21.000Z</time>
      </trkpt>
      <trkpt lat="45.82394" lon="4.6695">
        <ele>311.93808</ele>
        <time>2023-10-04T08:13:22.000Z</time>
      </trkpt>
      <trkpt lat="45.8239" lon="4.66944">
        <ele>311.9317</ele>
        <time>2023-10-04T08:13:23.000Z</time>
      </trkpt>
      <trkpt lat="45.82387" lon="4.66938">
        <ele>311.88089</ele>
        <time>2023-10-04T08:13:24.000Z</time>
      </trkpt>
      <trkpt lat="45.82383" lon="4.66932">
        <ele>311.87167</ele>
        <time>2023-10-04T08:13:25.000Z</time>
      </trkpt>
      <trkpt lat="45.8238" lon="4.66926">
        <ele>311.86102</ele>
        <time>2023-10-04T08:13:26.000Z</time>
      </trkpt>
      <trkpt lat="45.82377" lon="4.66919">
        <ele>311.83856</ele>
        <time>2023-10-04T08:13:27.000Z</time>
      </trkpt>
      <trkpt lat="45.82373" lon="4.66913">
        <ele>311.79025</ele>
        <time>2023-10-04T08:13:28.000Z</time>
      </trkpt>
      <trkpt lat="45.82369" lon="4.66907">
        <ele>311.75116</ele>
        <time>2023-10-04T08:13:29.000Z</time>
      </trkpt>
      <trkpt lat="45.82365" lon="4.66903">
        <ele>311.60272</ele>
        <time>2023-10-04T08:13:30.000Z</time>
      </trkpt>
      <trkpt lat="45.82361" lon="4.66898">
        <ele>311.44629</ele>
        <time>2023-10-04T08:13:31.000Z</time>
      </trkpt>
      <trkpt lat="45.82356" lon="4.66893">
        <ele>311.24982</ele>
        <time>2023-10-04T08:13:32.000Z</time>
      </trkpt>
      <trkpt lat="45.82351" lon="4.66889">
        <ele>311.0658</ele>
        <time>2023-10-04T08:13:33.000Z</time>
      </trkpt>
      <trkpt lat="45.82346" lon="4.66885">
        <ele>310.85062</ele>
        <time>2023-10-04T08:13:34.000Z</time>
      </trkpt>
      <trkpt lat="45.82342" lon="4.66881">
        <ele>310.66321</ele>
        <time>2023-10-04T08:13:35.000Z</time>
      </trkpt>
      <trkpt lat="45.82338" lon="4.66877">
        <ele>310.37552</ele>
        <time>2023-10-04T08:13:36.000Z</time>
      </trkpt>
      <trkpt lat="45.82335" lon="4.66872">
        <ele>310.06662</ele>
        <time>2023-10-04T08:13:37.000Z</time>
      </trkpt>
      <trkpt lat="45.82332" lon="4.66868">
        <ele>309.7226</ele>
        <time>2023-10-04T08:13:38.000Z</time>
      </trkpt>
      <trkpt lat="45.82327" lon="4.66866">
        <ele>309.32437</ele>
        <time>2023-10-04T08:13:39.000Z</time>
      </trkpt>
      <trkpt lat="45.82322" lon="4.66867">
        <ele>308.93683</ele>
        <time>2023-10-04T08:13:40.000Z</time>
      </trkpt>
      <trkpt lat="45.82317" lon="4.66868">
        <ele>308.67096</ele>
        <time>2023-10-04T08:13:41.000Z</time>
      </trkpt>
      <trkpt lat="45.82313" lon="4.66869">
        <ele>308.42236</ele>
        <time>2023-10-04T08:13:42.000Z</time>
      </trkpt>
      <trkpt lat="45.82309" lon="4.66868">
        <ele>308.1629</ele>
        <time>2023-10-04T08:13:43.000Z</time>
      </trkpt>
      <trkpt lat="45.82305" lon="4.66868">
        <ele>307.89682</ele>
        <time>2023-10-04T08:13:44.000Z</time>
      </trkpt>
      <trkpt lat="45.82299" lon="4.66868">
        <ele>307.63641</ele>
        <time>2023-10-04T08:13:45.000Z</time>
      </trkpt>
      <trkpt lat="45.82295" lon="4.66869">
        <ele>307.35986</ele>
        <time>2023-10-04T08:13:46.000Z</time>
      </trkpt>
      <trkpt lat="45.8229" lon="4.66868">
        <ele>307.09576</ele>
        <time>2023-10-04T08:13:47.000Z</time>
      </trkpt>
      <trkpt lat="45.82284" lon="4.66869">
        <ele>306.87289</ele>
        <time>2023-10-04T08:13:48.000Z</time>
      </trkpt>
      <trkpt lat="45.82279" lon="4.66868">
        <ele>306.63947</ele>
        <time>2023-10-04T08:13:49.000Z</time>
      </trkpt>
      <trkpt lat="45.82274" lon="4.66868">
        <ele>306.52258</ele>
        <time>2023-10-04T08:13:50.000Z</time>
      </trkpt>
      <trkpt lat="45.82269" lon="4.66868">
        <ele>306.39856</ele>
        <time>2023-10-04T08:13:51.000Z</time>
      </trkpt>
      <trkpt lat="45.82264" lon="4.66869">
        <ele>306.30038</ele>
        <time>2023-10-04T08:13:52.000Z</time>
      </trkpt>
      <trkpt lat="45.82259" lon="4.6687">
        <ele>306.19382</ele>
        <time>2023-10-04T08:13:53.000Z</time>
      </trkpt>
      <trkpt lat="45.82254" lon="4.66872">
        <ele>306.11362</ele>
        <time>2023-10-04T08:13:54.000Z</time>
      </trkpt>
      <trkpt lat="45.82249" lon="4.66874">
        <ele>306.06259</ele>
        <time>2023-10-04T08:13:55.000Z</time>
      </trkpt>
      <trkpt lat="45.82244" lon="4.66874">
        <ele>306.01822</ele>
        <time>2023-10-04T08:13:56.000Z</time>
      </trkpt>
      <trkpt lat="45.82238" lon="4.66875">
        <ele>305.9408</ele>
        <time>2023-10-04T08:13:57.000Z</time>
      </trkpt>
      <trkpt lat="45.82233" lon="4.66877">
        <ele>305.89993</ele>
        <time>2023-10-04T08:13:58.000Z</time>
      </trkpt>
      <trkpt lat="45.82227" lon="4.66878">
        <ele>305.87808</ele>
        <time>2023-10-04T08:13:59.000Z</time>
      </trkpt>
      <trkpt lat="45.82222" lon="4.6688">
        <ele>305.87433</ele>
        <time>2023-10-04T08:14:00.000Z</time>
      </trkpt>
      <trkpt lat="45.82216" lon="4.66881">
        <ele>305.73941</ele>
        <time>2023-10-04T08:14:01.000Z</time>
      </trkpt>
      <trkpt lat="45.82211" lon="4.66883">
        <ele>305.59357</ele>
        <time>2023-10-04T08:14:02.000Z</time>
      </trkpt>
      <trkpt lat="45.82205" lon="4.66884">
        <ele>305.46722</ele>
        <time>2023-10-04T08:14:03.000Z</time>
      </trkpt>
      <trkpt lat="45.822" lon="4.66885">
        <ele>305.36728</ele>
        <time>2023-10-04T08:14:04.000Z</time>
      </trkpt>
      <trkpt lat="45.82194" lon="4.66886">
        <ele>305.27814</ele>
        <time>2023-10-04T08:14:05.000Z</time>
      </trkpt>
      <trkpt lat="45.82187" lon="4.66886">
        <ele>305.23352</ele>
        <time>2023-10-04T08:14:06.000Z</time>
      </trkpt>
      <trkpt lat="45.82182" lon="4.66887">
        <ele>305.11456</ele>
        <time>2023-10-04T08:14:07.000Z</time>
      </trkpt>
      <trkpt lat="45.82176" lon="4.66887">
        <ele>305.00153</ele>
        <time>2023-10-04T08:14:08.000Z</time>
      </trkpt>
      <trkpt lat="45.82171" lon="4.66888">
        <ele>304.93097</ele>
        <time>2023-10-04T08:14:09.000Z</time>
      </trkpt>
      <trkpt lat="45.82165" lon="4.66888">
        <ele>304.84003</ele>
        <time>2023-10-04T08:14:10.000Z</time>
      </trkpt>
      <trkpt lat="45.8216" lon="4.66887">
        <ele>304.75275</ele>
        <time>2023-10-04T08:14:11.000Z</time>
      </trkpt>
      <trkpt lat="45.82156" lon="4.66885">
        <ele>304.66043</ele>
        <time>2023-10-04T08:14:12.000Z</time>
      </trkpt>
      <trkpt lat="45.82151" lon="4.66886">
        <ele>304.56934</ele>
        <time>2023-10-04T08:14:13.000Z</time>
      </trkpt>
      <trkpt lat="45.82148" lon="4.66886">
        <ele>304.45743</ele>
        <time>2023-10-04T08:14:14.000Z</time>
      </trkpt>
      <trkpt lat="45.82144" lon="4.66889">
        <ele>304.30017</ele>
        <time>2023-10-04T08:14:15.000Z</time>
      </trkpt>
      <trkpt lat="45.82141" lon="4.66891">
        <ele>304.16055</ele>
        <time>2023-10-04T08:14:16.000Z</time>
      </trkpt>
      <trkpt lat="45.82138" lon="4.66894">
        <ele>304.06818</ele>
        <time>2023-10-04T08:14:17.000Z</time>
      </trkpt>
      <trkpt lat="45.82133" lon="4.66891">
        <ele>303.96411</ele>
        <time>2023-10-04T08:14:18.000Z</time>
      </trkpt>
      <trkpt lat="45.82129" lon="4.6689">
        <ele>303.8544</ele>
        <time>2023-10-04T08:14:19.000Z</time>
      </trkpt>
      <trkpt lat="45.82126" lon="4.66888">
        <ele>303.72684</ele>
        <time>2023-10-04T08:14:20.000Z</time>
      </trkpt>
      <trkpt lat="45.82125" lon="4.66883">
        <ele>303.62494</ele>
        <time>2023-10-04T08:14:21.000Z</time>
      </trkpt>
      <trkpt lat="45.82126" lon="4.6688">
        <ele>303.57693</ele>
        <time>2023-10-04T08:14:22.000Z</time>
      </trkpt>
      <trkpt lat="45.82127" lon="4.66876">
        <ele>303.53204</ele>
        <time>2023-10-04T08:14:23.000Z</time>
      </trkpt>
      <trkpt lat="45.82129" lon="4.66872">
        <ele>303.37701</ele>
        <time>2023-10-04T08:14:24.000Z</time>
      </trkpt>
      <trkpt lat="45.82127" lon="4.6687">
        <ele>303.26532</ele>
        <time>2023-10-04T08:14:25.000Z</time>
      </trkpt>
      <trkpt lat="45.82124" lon="4.66867">
        <ele>303.09381</ele>
        <time>2023-10-04T08:14:26.000Z</time>
      </trkpt>
      <trkpt lat="45.82121" lon="4.66865">
        <ele>303.01929</ele>
        <time>2023-10-04T08:14:27.000Z</time>
      </trkpt>
      <trkpt lat="45.82118" lon="4.66863">
        <ele>302.93079</ele>
        <time>2023-10-04T08:14:28.000Z</time>
      </trkpt>
      <trkpt lat="45.82115" lon="4.6686">
        <ele>302.82248</ele>
        <time>2023-10-04T08:14:29.000Z</time>
      </trkpt>
      <trkpt lat="45.82112" lon="4.66856">
        <ele>302.77554</ele>
        <time>2023-10-04T08:14:30.000Z</time>
      </trkpt>
      <trkpt lat="45.82109" lon="4.66852">
        <ele>302.73511</ele>
        <time>2023-10-04T08:14:31.000Z</time>
      </trkpt>
      <trkpt lat="45.82106" lon="4.66849">
        <ele>302.70062</ele>
        <time>2023-10-04T08:14:32.000Z</time>
      </trkpt>
      <trkpt lat="45.82103" lon="4.66845">
        <ele>302.57458</ele>
        <time>2023-10-04T08:14:33.000Z</time>
      </trkpt>
      <trkpt lat="45.821" lon="4.66841">
        <ele>302.452</ele>
        <time>2023-10-04T08:14:34.000Z</time>
      </trkpt>
      <trkpt lat="45.82098" lon="4.66837">
        <ele>302.33463</ele>
        <time>2023-10-04T08:14:35.000Z</time>
      </trkpt>
      <trkpt lat="45.82095" lon="4.66832">
        <ele>302.18991</ele>
        <time>2023-10-04T08:14:36.000Z</time>
      </trkpt>
      <trkpt lat="45.82092" lon="4.66829">
        <ele>302.02817</ele>
        <time>2023-10-04T08:14:37.000Z</time>
      </trkpt>
      <trkpt lat="45.82088" lon="4.66825">
        <ele>301.88763</ele>
        <time>2023-10-04T08:14:38.000Z</time>
      </trkpt>
      <trkpt lat="45.82085" lon="4.66822">
        <ele>301.79108</ele>
        <time>2023-10-04T08:14:39.000Z</time>
      </trkpt>
      <trkpt lat="45.82082" lon="4.66819">
        <ele>301.71066</ele>
        <time>2023-10-04T08:14:40.000Z</time>
      </trkpt>
      <trkpt lat="45.82078" lon="4.66816">
        <ele>301.63513</ele>
        <time>2023-10-04T08:14:41.000Z</time>
      </trkpt>
      <trkpt lat="45.82075" lon="4.66813">
        <ele>301.53903</ele>
        <time>2023-10-04T08:14:42.000Z</time>
      </trkpt>
      <trkpt lat="45.82072" lon="4.66809">
        <ele>301.47046</ele>
        <time>2023-10-04T08:14:43.000Z</time>
      </trkpt>
      <trkpt lat="45.82069" lon="4.66806">
        <ele>301.54437</ele>
        <time>2023-10-04T08:14:44.000Z</time>
      </trkpt>
      <trkpt lat="45.82066" lon="4.66804">
        <ele>301.55786</ele>
        <time>2023-10-04T08:14:45.000Z</time>
      </trkpt>
      <trkpt lat="45.82062" lon="4.66803">
        <ele>301.6156</ele>
        <time>2023-10-04T08:14:46.000Z</time>
      </trkpt>
      <trkpt lat="45.82059" lon="4.66801">
        <ele>301.66278</ele>
        <time>2023-10-04T08:14:47.000Z</time>
      </trkpt>
      <trkpt lat="45.82056" lon="4.66798">
        <ele>301.6969</ele>
        <time>2023-10-04T08:14:48.000Z</time>
      </trkpt>
      <trkpt lat="45.82054" lon="4.66794">
        <ele>301.74182</ele>
        <time>2023-10-04T08:14:49.000Z</time>
      </trkpt>
      <trkpt lat="45.82054" lon="4.6679">
        <ele>301.71576</ele>
        <time>2023-10-04T08:14:50.000Z</time>
      </trkpt>
      <trkpt lat="45.82054" lon="4.66784">
        <ele>301.70273</ele>
        <time>2023-10-04T08:14:51.000Z</time>
      </trkpt>
      <trkpt lat="45.82053" lon="4.6678">
        <ele>301.70416</ele>
        <time>2023-10-04T08:14:52.000Z</time>
      </trkpt>
      <trkpt lat="45.8205" lon="4.66776">
        <ele>301.79196</ele>
        <time>2023-10-04T08:14:53.000Z</time>
      </trkpt>
      <trkpt lat="45.82047" lon="4.66773">
        <ele>301.88586</ele>
        <time>2023-10-04T08:14:54.000Z</time>
      </trkpt>
      <trkpt lat="45.82044" lon="4.6677">
        <ele>301.9967</ele>
        <time>2023-10-04T08:14:55.000Z</time>
      </trkpt>
      <trkpt lat="45.82041" lon="4.66767">
        <ele>302.12729</ele>
        <time>2023-10-04T08:14:56.000Z</time>
      </trkpt>
      <trkpt lat="45.82037" lon="4.66765">
        <ele>302.32111</ele>
        <time>2023-10-04T08:14:57.000Z</time>
      </trkpt>
      <trkpt lat="45.82034" lon="4.66763">
        <ele>302.52469</ele>
        <time>2023-10-04T08:14:58.000Z</time>
      </trkpt>
      <trkpt lat="45.82031" lon="4.6676">
        <ele>302.69025</ele>
        <time>2023-10-04T08:14:59.000Z</time>
      </trkpt>
      <trkpt lat="45.82027" lon="4.66757">
        <ele>302.85492</ele>
        <time>2023-10-04T08:15:00.000Z</time>
      </trkpt>
      <trkpt lat="45.82024" lon="4.66754">
        <ele>302.95175</ele>
        <time>2023-10-04T08:15:01.000Z</time>
      </trkpt>
      <trkpt lat="45.82021" lon="4.66751">
        <ele>303.03842</ele>
        <time>2023-10-04T08:15:02.000Z</time>
      </trkpt>
      <trkpt lat="45.82017" lon="4.66747">
        <ele>303.0929</ele>
        <time>2023-10-04T08:15:03.000Z</time>
      </trkpt>
      <trkpt lat="45.82014" lon="4.66744">
        <ele>303.13495</ele>
        <time>2023-10-04T08:15:04.000Z</time>
      </trkpt>
      <trkpt lat="45.8201" lon="4.66741">
        <ele>303.17285</ele>
        <time>2023-10-04T08:15:05.000Z</time>
      </trkpt>
      <trkpt lat="45.82007" lon="4.66738">
        <ele>303.2272</ele>
        <time>2023-10-04T08:15:06.000Z</time>
      </trkpt>
      <trkpt lat="45.82004" lon="4.66735">
        <ele>303.28558</ele>
        <time>2023-10-04T08:15:07.000Z</time>
      </trkpt>
      <trkpt lat="45.82" lon="4.66732">
        <ele>303.35709</ele>
        <time>2023-10-04T08:15:08.000Z</time>
      </trkpt>
      <trkpt lat="45.81997" lon="4.66729">
        <ele>303.43982</ele>
        <time>2023-10-04T08:15:09.000Z</time>
      </trkpt>
      <trkpt lat="45.81993" lon="4.66726">
        <ele>303.55899</ele>
        <time>2023-10-04T08:15:10.000Z</time>
      </trkpt>
      <trkpt lat="45.8199" lon="4.66724">
        <ele>303.66681</ele>
        <time>2023-10-04T08:15:11.000Z</time>
      </trkpt>
      <trkpt lat="45.81987" lon="4.66721">
        <ele>303.87289</ele>
        <time>2023-10-04T08:15:12.000Z</time>
      </trkpt>
      <trkpt lat="45.81983" lon="4.66718">
        <ele>304.09796</ele>
        <time>2023-10-04T08:15:13.000Z</time>
      </trkpt>
      <trkpt lat="45.8198" lon="4.66716">
        <ele>304.20178</ele>
        <time>2023-10-04T08:15:14.000Z</time>
      </trkpt>
      <trkpt lat="45.81976" lon="4.66713">
        <ele>304.3074</ele>
        <time>2023-10-04T08:15:15.000Z</time>
      </trkpt>
      <trkpt lat="45.81973" lon="4.6671">
        <ele>304.44379</ele>
        <time>2023-10-04T08:15:16.000Z</time>
      </trkpt>
      <trkpt lat="45.81969" lon="4.66707">
        <ele>304.57684</ele>
        <time>2023-10-04T08:15:17.000Z</time>
      </trkpt>
      <trkpt lat="45.81965" lon="4.66704">
        <ele>304.67966</ele>
        <time>2023-10-04T08:15:18.000Z</time>
      </trkpt>
      <trkpt lat="45.81962" lon="4.66701">
        <ele>304.78586</ele>
        <time>2023-10-04T08:15:19.000Z</time>
      </trkpt>
      <trkpt lat="45.81958" lon="4.66699">
        <ele>304.88522</ele>
        <time>2023-10-04T08:15:20.000Z</time>
      </trkpt>
      <trkpt lat="45.81955" lon="4.66696">
        <ele>305.09167</ele>
        <time>2023-10-04T08:15:21.000Z</time>
      </trkpt>
      <trkpt lat="45.81951" lon="4.66693">
        <ele>305.29846</ele>
        <time>2023-10-04T08:15:22.000Z</time>
      </trkpt>
      <trkpt lat="45.81947" lon="4.6669">
        <ele>305.50974</ele>
        <time>2023-10-04T08:15:23.000Z</time>
      </trkpt>
      <trkpt lat="45.81944" lon="4.66688">
        <ele>305.71991</ele>
        <time>2023-10-04T08:15:24.000Z</time>
      </trkpt>
      <trkpt lat="45.81941" lon="4.66686">
        <ele>305.94031</ele>
        <time>2023-10-04T08:15:25.000Z</time>
      </trkpt>
      <trkpt lat="45.81937" lon="4.66683">
        <ele>306.13068</ele>
        <time>2023-10-04T08:15:26.000Z</time>
      </trkpt>
      <trkpt lat="45.81934" lon="4.66681">
        <ele>306.31979</ele>
        <time>2023-10-04T08:15:27.000Z</time>
      </trkpt>
      <trkpt lat="45.81931" lon="4.66678">
        <ele>306.53683</ele>
        <time>2023-10-04T08:15:28.000Z</time>
      </trkpt>
      <trkpt lat="45.81927" lon="4.66675">
        <ele>306.7381</ele>
        <time>2023-10-04T08:15:29.000Z</time>
      </trkpt>
      <trkpt lat="45.81924" lon="4.66672">
        <ele>306.95673</ele>
        <time>2023-10-04T08:15:30.000Z</time>
      </trkpt>
      <trkpt lat="45.81921" lon="4.6667">
        <ele>307.17776</ele>
        <time>2023-10-04T08:15:31.000Z</time>
      </trkpt>
      <trkpt lat="45.81917" lon="4.66668">
        <ele>307.32291</ele>
        <time>2023-10-04T08:15:32.000Z</time>
      </trkpt>
      <trkpt lat="45.81914" lon="4.66665">
        <ele>307.45895</ele>
        <time>2023-10-04T08:15:33.000Z</time>
      </trkpt>
      <trkpt lat="45.81911" lon="4.66663">
        <ele>307.72046</ele>
        <time>2023-10-04T08:15:34.000Z</time>
      </trkpt>
      <trkpt lat="45.81908" lon="4.66661">
        <ele>307.97092</ele>
        <time>2023-10-04T08:15:35.000Z</time>
      </trkpt>
      <trkpt lat="45.81905" lon="4.66659">
        <ele>308.18808</ele>
        <time>2023-10-04T08:15:36.000Z</time>
      </trkpt>
      <trkpt lat="45.81902" lon="4.66656">
        <ele>308.3837</ele>
        <time>2023-10-04T08:15:37.000Z</time>
      </trkpt>
      <trkpt lat="45.819" lon="4.66654">
        <ele>308.59235</ele>
        <time>2023-10-04T08:15:38.000Z</time>
      </trkpt>
      <trkpt lat="45.81897" lon="4.66652">
        <ele>308.81552</ele>
        <time>2023-10-04T08:15:39.000Z</time>
      </trkpt>
      <trkpt lat="45.81894" lon="4.66649">
        <ele>309.04449</ele>
        <time>2023-10-04T08:15:40.000Z</time>
      </trkpt>
      <trkpt lat="45.8189" lon="4.66647">
        <ele>309.20456</ele>
        <time>2023-10-04T08:15:41.000Z</time>
      </trkpt>
      <trkpt lat="45.81887" lon="4.66644">
        <ele>309.32846</ele>
        <time>2023-10-04T08:15:42.000Z</time>
      </trkpt>
      <trkpt lat="45.81884" lon="4.66641">
        <ele>309.46063</ele>
        <time>2023-10-04T08:15:43.000Z</time>
      </trkpt>
      <trkpt lat="45.81881" lon="4.66639">
        <ele>309.5567</ele>
        <time>2023-10-04T08:15:44.000Z</time>
      </trkpt>
      <trkpt lat="45.81878" lon="4.66636">
        <ele>309.65842</ele>
        <time>2023-10-04T08:15:45.000Z</time>
      </trkpt>
      <trkpt lat="45.81874" lon="4.66634">
        <ele>309.76947</ele>
        <time>2023-10-04T08:15:46.000Z</time>
      </trkpt>
      <trkpt lat="45.81871" lon="4.66631">
        <ele>309.8866</ele>
        <time>2023-10-04T08:15:47.000Z</time>
      </trkpt>
      <trkpt lat="45.81868" lon="4.66629">
        <ele>309.99146</ele>
        <time>2023-10-04T08:15:48.000Z</time>
      </trkpt>
      <trkpt lat="45.81864" lon="4.66626">
        <ele>310.07831</ele>
        <time>2023-10-04T08:15:49.000Z</time>
      </trkpt>
      <trkpt lat="45.81861" lon="4.66624">
        <ele>310.13687</ele>
        <time>2023-10-04T08:15:50.000Z</time>
      </trkpt>
      <trkpt lat="45.81857" lon="4.66621">
        <ele>310.16986</ele>
        <time>2023-10-04T08:15:51.000Z</time>
      </trkpt>
      <trkpt lat="45.81854" lon="4.66618">
        <ele>310.17105</ele>
        <time>2023-10-04T08:15:52.000Z</time>
      </trkpt>
      <trkpt lat="45.81851" lon="4.66615">
        <ele>310.16245</ele>
        <time>2023-10-04T08:15:53.000Z</time>
      </trkpt>
      <trkpt lat="45.81847" lon="4.66613">
        <ele>310.15652</ele>
        <time>2023-10-04T08:15:54.000Z</time>
      </trkpt>
      <trkpt lat="45.81843" lon="4.6661">
        <ele>310.16196</ele>
        <time>2023-10-04T08:15:55.000Z</time>
      </trkpt>
      <trkpt lat="45.8184" lon="4.66607">
        <ele>310.19919</ele>
        <time>2023-10-04T08:15:56.000Z</time>
      </trkpt>
      <trkpt lat="45.81836" lon="4.66604">
        <ele>310.20422</ele>
        <time>2023-10-04T08:15:57.000Z</time>
      </trkpt>
      <trkpt lat="45.81833" lon="4.66601">
        <ele>310.20129</ele>
        <time>2023-10-04T08:15:58.000Z</time>
      </trkpt>
      <trkpt lat="45.8183" lon="4.66598">
        <ele>310.22543</ele>
        <time>2023-10-04T08:15:59.000Z</time>
      </trkpt>
      <trkpt lat="45.81827" lon="4.66595">
        <ele>310.24979</ele>
        <time>2023-10-04T08:16:00.000Z</time>
      </trkpt>
      <trkpt lat="45.81823" lon="4.66592">
        <ele>310.31122</ele>
        <time>2023-10-04T08:16:01.000Z</time>
      </trkpt>
      <trkpt lat="45.81819" lon="4.66589">
        <ele>310.38806</ele>
        <time>2023-10-04T08:16:02.000Z</time>
      </trkpt>
      <trkpt lat="45.81816" lon="4.66586">
        <ele>310.47067</ele>
        <time>2023-10-04T08:16:03.000Z</time>
      </trkpt>
      <trkpt lat="45.81812" lon="4.66584">
        <ele>310.53366</ele>
        <time>2023-10-04T08:16:04.000Z</time>
      </trkpt>
      <trkpt lat="45.81808" lon="4.66581">
        <ele>310.57159</ele>
        <time>2023-10-04T08:16:05.000Z</time>
      </trkpt>
      <trkpt lat="45.81805" lon="4.66578">
        <ele>310.58151</ele>
        <time>2023-10-04T08:16:06.000Z</time>
      </trkpt>
      <trkpt lat="45.81801" lon="4.66575">
        <ele>310.70648</ele>
        <time>2023-10-04T08:16:07.000Z</time>
      </trkpt>
      <trkpt lat="45.81797" lon="4.66572">
        <ele>310.78723</ele>
        <time>2023-10-04T08:16:08.000Z</time>
      </trkpt>
      <trkpt lat="45.81794" lon="4.66569">
        <ele>310.88147</ele>
        <time>2023-10-04T08:16:09.000Z</time>
      </trkpt>
      <trkpt lat="45.8179" lon="4.66566">
        <ele>310.98486</ele>
        <time>2023-10-04T08:16:10.000Z</time>
      </trkpt>
      <trkpt lat="45.81786" lon="4.66563">
        <ele>311.08896</ele>
        <time>2023-10-04T08:16:11.000Z</time>
      </trkpt>
      <trkpt lat="45.81783" lon="4.6656">
        <ele>311.22156</ele>
        <time>2023-10-04T08:16:12.000Z</time>
      </trkpt>
      <trkpt lat="45.81779" lon="4.66557">
        <ele>311.35504</ele>
        <time>2023-10-04T08:16:13.000Z</time>
      </trkpt>
      <trkpt lat="45.81776" lon="4.66554">
        <ele>311.49796</ele>
        <time>2023-10-04T08:16:14.000Z</time>
      </trkpt>
      <trkpt lat="45.81772" lon="4.66551">
        <ele>311.61374</ele>
        <time>2023-10-04T08:16:15.000Z</time>
      </trkpt>
      <trkpt lat="45.81769" lon="4.66549">
        <ele>311.65826</ele>
        <time>2023-10-04T08:16:16.000Z</time>
      </trkpt>
      <trkpt lat="45.81765" lon="4.66546">
        <ele>311.71661</ele>
        <time>2023-10-04T08:16:17.000Z</time>
      </trkpt>
      <trkpt lat="45.81762" lon="4.66544">
        <ele>311.79514</ele>
        <time>2023-10-04T08:16:18.000Z</time>
      </trkpt>
      <trkpt lat="45.81759" lon="4.66541">
        <ele>311.84912</ele>
        <time>2023-10-04T08:16:19.000Z</time>
      </trkpt>
      <trkpt lat="45.81755" lon="4.66538">
        <ele>311.88571</ele>
        <time>2023-10-04T08:16:20.000Z</time>
      </trkpt>
      <trkpt lat="45.81752" lon="4.66535">
        <ele>312.01654</ele>
        <time>2023-10-04T08:16:21.000Z</time>
      </trkpt>
      <trkpt lat="45.81749" lon="4.66533">
        <ele>312.11899</ele>
        <time>2023-10-04T08:16:22.000Z</time>
      </trkpt>
      <trkpt lat="45.81745" lon="4.6653">
        <ele>312.22083</ele>
        <time>2023-10-04T08:16:23.000Z</time>
      </trkpt>
      <trkpt lat="45.81742" lon="4.66528">
        <ele>312.34995</ele>
        <time>2023-10-04T08:16:24.000Z</time>
      </trkpt>
      <trkpt lat="45.81738" lon="4.66526">
        <ele>312.41428</ele>
        <time>2023-10-04T08:16:25.000Z</time>
      </trkpt>
      <trkpt lat="45.81735" lon="4.66525">
        <ele>312.48199</ele>
        <time>2023-10-04T08:16:26.000Z</time>
      </trkpt>
      <trkpt lat="45.81732" lon="4.66525">
        <ele>312.57361</ele>
        <time>2023-10-04T08:16:27.000Z</time>
      </trkpt>
      <trkpt lat="45.81729" lon="4.66526">
        <ele>312.6951</ele>
        <time>2023-10-04T08:16:28.000Z</time>
      </trkpt>
      <trkpt lat="45.81726" lon="4.66527">
        <ele>312.80676</ele>
        <time>2023-10-04T08:16:29.000Z</time>
      </trkpt>
      <trkpt lat="45.81723" lon="4.66528">
        <ele>312.91571</ele>
        <time>2023-10-04T08:16:30.000Z</time>
      </trkpt>
      <trkpt lat="45.81719" lon="4.6653">
        <ele>313.07425</ele>
        <time>2023-10-04T08:16:31.000Z</time>
      </trkpt>
      <trkpt lat="45.81716" lon="4.66531">
        <ele>313.20944</ele>
        <time>2023-10-04T08:16:32.000Z</time>
      </trkpt>
      <trkpt lat="45.81713" lon="4.66532">
        <ele>313.34177</ele>
        <time>2023-10-04T08:16:33.000Z</time>
      </trkpt>
      <trkpt lat="45.8171" lon="4.66533">
        <ele>313.45178</ele>
        <time>2023-10-04T08:16:34.000Z</time>
      </trkpt>
      <trkpt lat="45.81707" lon="4.66535">
        <ele>313.60016</ele>
        <time>2023-10-04T08:16:35.000Z</time>
      </trkpt>
      <trkpt lat="45.81704" lon="4.66539">
        <ele>313.79355</ele>
        <time>2023-10-04T08:16:36.000Z</time>
      </trkpt>
      <trkpt lat="45.81702" lon="4.66545">
        <ele>313.99396</ele>
        <time>2023-10-04T08:16:37.000Z</time>
      </trkpt>
      <trkpt lat="45.81702" lon="4.66554">
        <ele>314.13739</ele>
        <time>2023-10-04T08:16:38.000Z</time>
      </trkpt>
      <trkpt lat="45.81701" lon="4.66561">
        <ele>314.26547</ele>
        <time>2023-10-04T08:16:39.000Z</time>
      </trkpt>
      <trkpt lat="45.81701" lon="4.66567">
        <ele>314.37473</ele>
        <time>2023-10-04T08:16:40.000Z</time>
      </trkpt>
      <trkpt lat="45.81699" lon="4.66575">
        <ele>314.31314</ele>
        <time>2023-10-04T08:16:41.000Z</time>
      </trkpt>
      <trkpt lat="45.81698" lon="4.66582">
        <ele>314.29221</ele>
        <time>2023-10-04T08:16:42.000Z</time>
      </trkpt>
      <trkpt lat="45.81697" lon="4.6659">
        <ele>314.25885</ele>
        <time>2023-10-04T08:16:43.000Z</time>
      </trkpt>
      <trkpt lat="45.81697" lon="4.66599">
        <ele>314.20343</ele>
        <time>2023-10-04T08:16:44.000Z</time>
      </trkpt>
      <trkpt lat="45.81696" lon="4.66607">
        <ele>314.21393</ele>
        <time>2023-10-04T08:16:45.000Z</time>
      </trkpt>
      <trkpt lat="45.81696" lon="4.66617">
        <ele>314.25342</ele>
        <time>2023-10-04T08:16:46.000Z</time>
      </trkpt>
      <trkpt lat="45.81696" lon="4.66625">
        <ele>314.14215</ele>
        <time>2023-10-04T08:16:47.000Z</time>
      </trkpt>
      <trkpt lat="45.81696" lon="4.66634">
        <ele>314.0163</ele>
        <time>2023-10-04T08:16:48.000Z</time>
      </trkpt>
      <trkpt lat="45.81696" lon="4.66642">
        <ele>313.88873</ele>
        <time>2023-10-04T08:16:49.000Z</time>
      </trkpt>
      <trkpt lat="45.81696" lon="4.66649">
        <ele>313.74298</ele>
        <time>2023-10-04T08:16:50.000Z</time>
      </trkpt>
      <trkpt lat="45.81696" lon="4.66655">
        <ele>313.56781</ele>
        <time>2023-10-04T08:16:51.000Z</time>
      </trkpt>
      <trkpt lat="45.81696" lon="4.66659">
        <ele>313.37634</ele>
        <time>2023-10-04T08:16:52.000Z</time>
      </trkpt>
      <trkpt lat="45.81696" lon="4.66663">
        <ele>313.18665</ele>
        <time>2023-10-04T08:16:54.000Z</time>
      </trkpt>
      <trkpt lat="45.81693" lon="4.66665">
        <ele>313.00632</ele>
        <time>2023-10-04T08:16:56.000Z</time>
      </trkpt>
      <trkpt lat="45.81689" lon="4.66668">
        <ele>312.79105</ele>
        <time>2023-10-04T08:16:58.000Z</time>
      </trkpt>
      <trkpt lat="45.81686" lon="4.66672">
        <ele>312.59506</ele>
        <time>2023-10-04T08:16:59.000Z</time>
      </trkpt>
      <trkpt lat="45.81682" lon="4.66676">
        <ele>312.4021</ele>
        <time>2023-10-04T08:17:00.000Z</time>
      </trkpt>
      <trkpt lat="45.81678" lon="4.66678">
        <ele>312.24835</ele>
        <time>2023-10-04T08:17:01.000Z</time>
      </trkpt>
      <trkpt lat="45.81674" lon="4.66681">
        <ele>312.10895</ele>
        <time>2023-10-04T08:17:02.000Z</time>
      </trkpt>
      <trkpt lat="45.81669" lon="4.66681">
        <ele>312.00266</ele>
        <time>2023-10-04T08:17:03.000Z</time>
      </trkpt>
      <trkpt lat="45.81664" lon="4.66681">
        <ele>311.92517</ele>
        <time>2023-10-04T08:17:04.000Z</time>
      </trkpt>
      <trkpt lat="45.81659" lon="4.66681">
        <ele>311.86084</ele>
        <time>2023-10-04T08:17:05.000Z</time>
      </trkpt>
      <trkpt lat="45.81654" lon="4.66681">
        <ele>311.79147</ele>
        <time>2023-10-04T08:17:06.000Z</time>
      </trkpt>
      <trkpt lat="45.81649" lon="4.66681">
        <ele>311.79083</ele>
        <time>2023-10-04T08:17:07.000Z</time>
      </trkpt>
      <trkpt lat="45.81645" lon="4.6668">
        <ele>311.76535</ele>
        <time>2023-10-04T08:17:08.000Z</time>
      </trkpt>
      <trkpt lat="45.81641" lon="4.6668">
        <ele>311.72327</ele>
        <time>2023-10-04T08:17:09.000Z</time>
      </trkpt>
      <trkpt lat="45.81636" lon="4.66681">
        <ele>311.7077</ele>
        <time>2023-10-04T08:17:10.000Z</time>
      </trkpt>
      <trkpt lat="45.81631" lon="4.66681">
        <ele>311.68143</ele>
        <time>2023-10-04T08:17:11.000Z</time>
      </trkpt>
      <trkpt lat="45.81626" lon="4.66681">
        <ele>311.61371</ele>
        <time>2023-10-04T08:17:12.000Z</time>
      </trkpt>
      <trkpt lat="45.81621" lon="4.66682">
        <ele>311.57312</ele>
        <time>2023-10-04T08:17:13.000Z</time>
      </trkpt>
      <trkpt lat="45.81616" lon="4.66682">
        <ele>311.5192</ele>
        <time>2023-10-04T08:17:14.000Z</time>
      </trkpt>
      <trkpt lat="45.81611" lon="4.66682">
        <ele>311.58636</ele>
        <time>2023-10-04T08:17:15.000Z</time>
      </trkpt>
      <trkpt lat="45.81606" lon="4.66683">
        <ele>311.65973</ele>
        <time>2023-10-04T08:17:16.000Z</time>
      </trkpt>
      <trkpt lat="45.81601" lon="4.66683">
        <ele>311.77176</ele>
        <time>2023-10-04T08:17:17.000Z</time>
      </trkpt>
      <trkpt lat="45.81596" lon="4.66684">
        <ele>311.88522</ele>
        <time>2023-10-04T08:17:18.000Z</time>
      </trkpt>
      <trkpt lat="45.81592" lon="4.66684">
        <ele>312.02161</ele>
        <time>2023-10-04T08:17:19.000Z</time>
      </trkpt>
      <trkpt lat="45.81587" lon="4.66685">
        <ele>312.19171</ele>
        <time>2023-10-04T08:17:20.000Z</time>
      </trkpt>
      <trkpt lat="45.81582" lon="4.66686">
        <ele>312.36331</ele>
        <time>2023-10-04T08:17:21.000Z</time>
      </trkpt>
      <trkpt lat="45.81577" lon="4.66685">
        <ele>312.54529</ele>
        <time>2023-10-04T08:17:22.000Z</time>
      </trkpt>
      <trkpt lat="45.81572" lon="4.66686">
        <ele>312.73334</ele>
        <time>2023-10-04T08:17:23.000Z</time>
      </trkpt>
      <trkpt lat="45.81569" lon="4.66686">
        <ele>312.96811</ele>
        <time>2023-10-04T08:17:24.000Z</time>
      </trkpt>
      <trkpt lat="45.81564" lon="4.66687">
        <ele>313.19699</ele>
        <time>2023-10-04T08:17:25.000Z</time>
      </trkpt>
      <trkpt lat="45.81561" lon="4.66689">
        <ele>313.46454</ele>
        <time>2023-10-04T08:17:26.000Z</time>
      </trkpt>
      <trkpt lat="45.81556" lon="4.66689">
        <ele>313.70493</ele>
        <time>2023-10-04T08:17:27.000Z</time>
      </trkpt>
      <trkpt lat="45.81552" lon="4.66691">
        <ele>314.0072</ele>
        <time>2023-10-04T08:17:28.000Z</time>
      </trkpt>
      <trkpt lat="45.81548" lon="4.66691">
        <ele>314.21863</ele>
        <time>2023-10-04T08:17:29.000Z</time>
      </trkpt>
      <trkpt lat="45.81543" lon="4.66691">
        <ele>314.40454</ele>
        <time>2023-10-04T08:17:30.000Z</time>
      </trkpt>
      <trkpt lat="45.81539" lon="4.66692">
        <ele>314.62668</ele>
        <time>2023-10-04T08:17:31.000Z</time>
      </trkpt>
      <trkpt lat="45.81535" lon="4.66692">
        <ele>315.10742</ele>
        <time>2023-10-04T08:17:32.000Z</time>
      </trkpt>
      <trkpt lat="45.81531" lon="4.66692">
        <ele>315.57178</ele>
        <time>2023-10-04T08:17:33.000Z</time>
      </trkpt>
      <trkpt lat="45.81526" lon="4.66692">
        <ele>316.0571</ele>
        <time>2023-10-04T08:17:34.000Z</time>
      </trkpt>
      <trkpt lat="45.81522" lon="4.66691">
        <ele>316.46414</ele>
        <time>2023-10-04T08:17:35.000Z</time>
      </trkpt>
      <trkpt lat="45.81519" lon="4.66689">
        <ele>316.89288</ele>
        <time>2023-10-04T08:17:36.000Z</time>
      </trkpt>
      <trkpt lat="45.81515" lon="4.66688">
        <ele>317.29083</ele>
        <time>2023-10-04T08:17:37.000Z</time>
      </trkpt>
      <trkpt lat="45.81511" lon="4.66688">
        <ele>317.72485</ele>
        <time>2023-10-04T08:17:38.000Z</time>
      </trkpt>
      <trkpt lat="45.81507" lon="4.66687">
        <ele>318.12045</ele>
        <time>2023-10-04T08:17:39.000Z</time>
      </trkpt>
      <trkpt lat="45.81503" lon="4.66687">
        <ele>318.48254</ele>
        <time>2023-10-04T08:17:40.000Z</time>
      </trkpt>
      <trkpt lat="45.81498" lon="4.66686">
        <ele>318.86279</ele>
        <time>2023-10-04T08:17:41.000Z</time>
      </trkpt>
      <trkpt lat="45.81494" lon="4.66684">
        <ele>319.23166</ele>
        <time>2023-10-04T08:17:42.000Z</time>
      </trkpt>
      <trkpt lat="45.81489" lon="4.66684">
        <ele>319.60431</ele>
        <time>2023-10-04T08:17:43.000Z</time>
      </trkpt>
      <trkpt lat="45.81485" lon="4.66683">
        <ele>319.96173</ele>
        <time>2023-10-04T08:17:44.000Z</time>
      </trkpt>
      <trkpt lat="45.81481" lon="4.66682">
        <ele>320.11292</ele>
        <time>2023-10-04T08:17:45.000Z</time>
      </trkpt>
      <trkpt lat="45.81476" lon="4.66681">
        <ele>320.23785</ele>
        <time>2023-10-04T08:17:46.000Z</time>
      </trkpt>
      <trkpt lat="45.81472" lon="4.6668">
        <ele>320.35364</ele>
        <time>2023-10-04T08:17:47.000Z</time>
      </trkpt>
      <trkpt lat="45.81468" lon="4.66679">
        <ele>320.44183</ele>
        <time>2023-10-04T08:17:48.000Z</time>
      </trkpt>
      <trkpt lat="45.81464" lon="4.66679">
        <ele>320.62189</ele>
        <time>2023-10-04T08:17:49.000Z</time>
      </trkpt>
      <trkpt lat="45.81459" lon="4.66678">
        <ele>320.78683</ele>
        <time>2023-10-04T08:17:50.000Z</time>
      </trkpt>
      <trkpt lat="45.81455" lon="4.66677">
        <ele>321.1452</ele>
        <time>2023-10-04T08:17:51.000Z</time>
      </trkpt>
      <trkpt lat="45.81451" lon="4.66676">
        <ele>321.23532</ele>
        <time>2023-10-04T08:17:52.000Z</time>
      </trkpt>
      <trkpt lat="45.81446" lon="4.66675">
        <ele>321.35236</ele>
        <time>2023-10-04T08:17:53.000Z</time>
      </trkpt>
      <trkpt lat="45.81441" lon="4.66675">
        <ele>321.47467</ele>
        <time>2023-10-04T08:17:54.000Z</time>
      </trkpt>
      <trkpt lat="45.81436" lon="4.66674">
        <ele>321.58078</ele>
        <time>2023-10-04T08:17:55.000Z</time>
      </trkpt>
      <trkpt lat="45.81431" lon="4.66673">
        <ele>321.65256</ele>
        <time>2023-10-04T08:17:56.000Z</time>
      </trkpt>
      <trkpt lat="45.81426" lon="4.66673">
        <ele>321.71796</ele>
        <time>2023-10-04T08:17:57.000Z</time>
      </trkpt>
      <trkpt lat="45.81422" lon="4.66672">
        <ele>321.77017</ele>
        <time>2023-10-04T08:17:58.000Z</time>
      </trkpt>
      <trkpt lat="45.81418" lon="4.66669">
        <ele>321.84518</ele>
        <time>2023-10-04T08:17:59.000Z</time>
      </trkpt>
      <trkpt lat="45.81414" lon="4.66666">
        <ele>321.91705</ele>
        <time>2023-10-04T08:18:00.000Z</time>
      </trkpt>
      <trkpt lat="45.8141" lon="4.66662">
        <ele>321.95529</ele>
        <time>2023-10-04T08:18:01.000Z</time>
      </trkpt>
      <trkpt lat="45.81405" lon="4.6666">
        <ele>321.94974</ele>
        <time>2023-10-04T08:18:02.000Z</time>
      </trkpt>
      <trkpt lat="45.814" lon="4.66658">
        <ele>321.82773</ele>
        <time>2023-10-04T08:18:03.000Z</time>
      </trkpt>
      <trkpt lat="45.81395" lon="4.66657">
        <ele>321.70383</ele>
        <time>2023-10-04T08:18:04.000Z</time>
      </trkpt>
      <trkpt lat="45.8139" lon="4.66654">
        <ele>321.73688</ele>
        <time>2023-10-04T08:18:05.000Z</time>
      </trkpt>
      <trkpt lat="45.81385" lon="4.66653">
        <ele>321.69348</ele>
        <time>2023-10-04T08:18:06.000Z</time>
      </trkpt>
      <trkpt lat="45.8138" lon="4.66653">
        <ele>321.85556</ele>
        <time>2023-10-04T08:18:07.000Z</time>
      </trkpt>
      <trkpt lat="45.81374" lon="4.66653">
        <ele>321.97028</ele>
        <time>2023-10-04T08:18:08.000Z</time>
      </trkpt>
      <trkpt lat="45.8137" lon="4.66652">
        <ele>322.08475</ele>
        <time>2023-10-04T08:18:09.000Z</time>
      </trkpt>
      <trkpt lat="45.81366" lon="4.66651">
        <ele>322.21967</ele>
        <time>2023-10-04T08:18:10.000Z</time>
      </trkpt>
      <trkpt lat="45.81361" lon="4.66649">
        <ele>322.1539</ele>
        <time>2023-10-04T08:18:11.000Z</time>
      </trkpt>
      <trkpt lat="45.81356" lon="4.66647">
        <ele>322.13492</ele>
        <time>2023-10-04T08:18:12.000Z</time>
      </trkpt>
      <trkpt lat="45.81353" lon="4.66646">
        <ele>322.08575</ele>
        <time>2023-10-04T08:18:13.000Z</time>
      </trkpt>
      <trkpt lat="45.81349" lon="4.66644">
        <ele>322.03497</ele>
        <time>2023-10-04T08:18:14.000Z</time>
      </trkpt>
      <trkpt lat="45.81345" lon="4.66644">
        <ele>321.96799</ele>
        <time>2023-10-04T08:18:15.000Z</time>
      </trkpt>
      <trkpt lat="45.81343" lon="4.66647">
        <ele>321.92743</ele>
        <time>2023-10-04T08:18:16.000Z</time>
      </trkpt>
      <trkpt lat="45.8134" lon="4.66652">
        <ele>321.90344</ele>
        <time>2023-10-04T08:18:17.000Z</time>
      </trkpt>
      <trkpt lat="45.8134" lon="4.66658">
        <ele>321.90436</ele>
        <time>2023-10-04T08:18:18.000Z</time>
      </trkpt>
      <trkpt lat="45.81339" lon="4.66664">
        <ele>321.90881</ele>
        <time>2023-10-04T08:18:19.000Z</time>
      </trkpt>
      <trkpt lat="45.81338" lon="4.6667">
        <ele>321.93604</ele>
        <time>2023-10-04T08:18:20.000Z</time>
      </trkpt>
      <trkpt lat="45.81337" lon="4.66677">
        <ele>321.9838</ele>
        <time>2023-10-04T08:18:21.000Z</time>
      </trkpt>
      <trkpt lat="45.81335" lon="4.66683">
        <ele>322.10208</ele>
        <time>2023-10-04T08:18:22.000Z</time>
      </trkpt>
      <trkpt lat="45.81335" lon="4.66689">
        <ele>322.21417</ele>
        <time>2023-10-04T08:18:23.000Z</time>
      </trkpt>
      <trkpt lat="45.81334" lon="4.66695">
        <ele>322.2547</ele>
        <time>2023-10-04T08:18:24.000Z</time>
      </trkpt>
      <trkpt lat="45.81333" lon="4.66701">
        <ele>322.63385</ele>
        <time>2023-10-04T08:18:25.000Z</time>
      </trkpt>
      <trkpt lat="45.81333" lon="4.66706">
        <ele>323.03339</ele>
        <time>2023-10-04T08:18:26.000Z</time>
      </trkpt>
      <trkpt lat="45.81332" lon="4.66712">
        <ele>323.22931</ele>
        <time>2023-10-04T08:18:27.000Z</time>
      </trkpt>
      <trkpt lat="45.81331" lon="4.66718">
        <ele>323.48993</ele>
        <time>2023-10-04T08:18:28.000Z</time>
      </trkpt>
      <trkpt lat="45.8133" lon="4.66724">
        <ele>323.77274</ele>
        <time>2023-10-04T08:18:29.000Z</time>
      </trkpt>
      <trkpt lat="45.81329" lon="4.6673">
        <ele>324.0766</ele>
        <time>2023-10-04T08:18:30.000Z</time>
      </trkpt>
      <trkpt lat="45.81328" lon="4.66735">
        <ele>324.37564</ele>
        <time>2023-10-04T08:18:31.000Z</time>
      </trkpt>
      <trkpt lat="45.81326" lon="4.66739">
        <ele>324.72125</ele>
        <time>2023-10-04T08:18:32.000Z</time>
      </trkpt>
      <trkpt lat="45.81322" lon="4.66739">
        <ele>324.92551</ele>
        <time>2023-10-04T08:18:33.000Z</time>
      </trkpt>
      <trkpt lat="45.81319" lon="4.66739">
        <ele>325.12241</ele>
        <time>2023-10-04T08:18:34.000Z</time>
      </trkpt>
      <trkpt lat="45.81315" lon="4.66738">
        <ele>325.2739</ele>
        <time>2023-10-04T08:18:35.000Z</time>
      </trkpt>
      <trkpt lat="45.81311" lon="4.66737">
        <ele>325.30963</ele>
        <time>2023-10-04T08:18:36.000Z</time>
      </trkpt>
      <trkpt lat="45.81306" lon="4.66735">
        <ele>325.64685</ele>
        <time>2023-10-04T08:18:37.000Z</time>
      </trkpt>
      <trkpt lat="45.81302" lon="4.66734">
        <ele>325.90027</ele>
        <time>2023-10-04T08:18:38.000Z</time>
      </trkpt>
      <trkpt lat="45.81298" lon="4.66732">
        <ele>326.11761</ele>
        <time>2023-10-04T08:18:39.000Z</time>
      </trkpt>
      <trkpt lat="45.81294" lon="4.6673">
        <ele>326.30942</ele>
        <time>2023-10-04T08:18:40.000Z</time>
      </trkpt>
      <trkpt lat="45.81289" lon="4.66728">
        <ele>326.46933</ele>
        <time>2023-10-04T08:18:41.000Z</time>
      </trkpt>
      <trkpt lat="45.81284" lon="4.66726">
        <ele>326.60797</ele>
        <time>2023-10-04T08:18:42.000Z</time>
      </trkpt>
      <trkpt lat="45.81279" lon="4.66724">
        <ele>326.84186</ele>
        <time>2023-10-04T08:18:43.000Z</time>
      </trkpt>
      <trkpt lat="45.81275" lon="4.66722">
        <ele>327.01895</ele>
        <time>2023-10-04T08:18:44.000Z</time>
      </trkpt>
      <trkpt lat="45.81271" lon="4.6672">
        <ele>326.78458</ele>
        <time>2023-10-04T08:18:45.000Z</time>
      </trkpt>
      <trkpt lat="45.81266" lon="4.66719">
        <ele>326.90179</ele>
        <time>2023-10-04T08:18:46.000Z</time>
      </trkpt>
      <trkpt lat="45.81262" lon="4.66718">
        <ele>326.9646</ele>
        <time>2023-10-04T08:18:47.000Z</time>
      </trkpt>
      <trkpt lat="45.81257" lon="4.66716">
        <ele>326.98892</ele>
        <time>2023-10-04T08:18:48.000Z</time>
      </trkpt>
      <trkpt lat="45.81253" lon="4.66715">
        <ele>327.00378</ele>
        <time>2023-10-04T08:18:49.000Z</time>
      </trkpt>
      <trkpt lat="45.81248" lon="4.66713">
        <ele>326.98117</ele>
        <time>2023-10-04T08:18:50.000Z</time>
      </trkpt>
      <trkpt lat="45.81244" lon="4.66712">
        <ele>326.97513</ele>
        <time>2023-10-04T08:18:51.000Z</time>
      </trkpt>
      <trkpt lat="45.8124" lon="4.6671">
        <ele>326.94348</ele>
        <time>2023-10-04T08:18:52.000Z</time>
      </trkpt>
      <trkpt lat="45.81235" lon="4.66708">
        <ele>327.05551</ele>
        <time>2023-10-04T08:18:53.000Z</time>
      </trkpt>
      <trkpt lat="45.8123" lon="4.66706">
        <ele>327.16599</ele>
        <time>2023-10-04T08:18:54.000Z</time>
      </trkpt>
      <trkpt lat="45.81226" lon="4.66704">
        <ele>327.35519</ele>
        <time>2023-10-04T08:18:55.000Z</time>
      </trkpt>
      <trkpt lat="45.81221" lon="4.66703">
        <ele>327.65402</ele>
        <time>2023-10-04T08:18:56.000Z</time>
      </trkpt>
      <trkpt lat="45.81216" lon="4.66701">
        <ele>327.66425</ele>
        <time>2023-10-04T08:18:57.000Z</time>
      </trkpt>
      <trkpt lat="45.81211" lon="4.66699">
        <ele>327.69336</ele>
        <time>2023-10-04T08:18:58.000Z</time>
      </trkpt>
      <trkpt lat="45.81207" lon="4.66696">
        <ele>327.71628</ele>
        <time>2023-10-04T08:18:59.000Z</time>
      </trkpt>
      <trkpt lat="45.81203" lon="4.66696">
        <ele>327.73587</ele>
        <time>2023-10-04T08:19:00.000Z</time>
      </trkpt>
      <trkpt lat="45.81198" lon="4.66694">
        <ele>327.61053</ele>
        <time>2023-10-04T08:19:01.000Z</time>
      </trkpt>
      <trkpt lat="45.81193" lon="4.66692">
        <ele>327.4776</ele>
        <time>2023-10-04T08:19:02.000Z</time>
      </trkpt>
      <trkpt lat="45.81188" lon="4.6669">
        <ele>327.25656</ele>
        <time>2023-10-04T08:19:03.000Z</time>
      </trkpt>
      <trkpt lat="45.81184" lon="4.66689">
        <ele>327.16666</ele>
        <time>2023-10-04T08:19:04.000Z</time>
      </trkpt>
      <trkpt lat="45.81178" lon="4.66688">
        <ele>327.49274</ele>
        <time>2023-10-04T08:19:05.000Z</time>
      </trkpt>
      <trkpt lat="45.81174" lon="4.66686">
        <ele>327.46021</ele>
        <time>2023-10-04T08:19:06.000Z</time>
      </trkpt>
      <trkpt lat="45.8117" lon="4.66683">
        <ele>327.45996</ele>
        <time>2023-10-04T08:19:07.000Z</time>
      </trkpt>
      <trkpt lat="45.81166" lon="4.66681">
        <ele>327.49496</ele>
        <time>2023-10-04T08:19:08.000Z</time>
      </trkpt>
      <trkpt lat="45.81162" lon="4.6668">
        <ele>327.54739</ele>
        <time>2023-10-04T08:19:09.000Z</time>
      </trkpt>
      <trkpt lat="45.81158" lon="4.66679">
        <ele>327.63843</ele>
        <time>2023-10-04T08:19:10.000Z</time>
      </trkpt>
      <trkpt lat="45.81154" lon="4.66677">
        <ele>327.72116</ele>
        <time>2023-10-04T08:19:11.000Z</time>
      </trkpt>
      <trkpt lat="45.8115" lon="4.66676">
        <ele>327.79987</ele>
        <time>2023-10-04T08:19:12.000Z</time>
      </trkpt>
      <trkpt lat="45.81146" lon="4.66675">
        <ele>327.75006</ele>
        <time>2023-10-04T08:19:13.000Z</time>
      </trkpt>
      <trkpt lat="45.81142" lon="4.66673">
        <ele>327.59506</ele>
        <time>2023-10-04T08:19:14.000Z</time>
      </trkpt>
      <trkpt lat="45.81139" lon="4.66671">
        <ele>327.71829</ele>
        <time>2023-10-04T08:19:15.000Z</time>
      </trkpt>
      <trkpt lat="45.81135" lon="4.66668">
        <ele>327.79218</ele>
        <time>2023-10-04T08:19:16.000Z</time>
      </trkpt>
      <trkpt lat="45.81131" lon="4.66666">
        <ele>327.82214</ele>
        <time>2023-10-04T08:19:17.000Z</time>
      </trkpt>
      <trkpt lat="45.81127" lon="4.66664">
        <ele>327.8735</ele>
        <time>2023-10-04T08:19:18.000Z</time>
      </trkpt>
      <trkpt lat="45.81123" lon="4.66663">
        <ele>327.8035</ele>
        <time>2023-10-04T08:19:19.000Z</time>
      </trkpt>
      <trkpt lat="45.81119" lon="4.66661">
        <ele>327.64944</ele>
        <time>2023-10-04T08:19:20.000Z</time>
      </trkpt>
      <trkpt lat="45.81115" lon="4.6666">
        <ele>327.61975</ele>
        <time>2023-10-04T08:19:21.000Z</time>
      </trkpt>
      <trkpt lat="45.8111" lon="4.66658">
        <ele>327.9371</ele>
        <time>2023-10-04T08:19:22.000Z</time>
      </trkpt>
      <trkpt lat="45.81107" lon="4.66657">
        <ele>328.3013</ele>
        <time>2023-10-04T08:19:23.000Z</time>
      </trkpt>
      <trkpt lat="45.81103" lon="4.66656">
        <ele>328.66278</ele>
        <time>2023-10-04T08:19:24.000Z</time>
      </trkpt>
      <trkpt lat="45.81099" lon="4.66655">
        <ele>328.7637</ele>
        <time>2023-10-04T08:19:25.000Z</time>
      </trkpt>
      <trkpt lat="45.81095" lon="4.66653">
        <ele>328.95184</ele>
        <time>2023-10-04T08:19:26.000Z</time>
      </trkpt>
      <trkpt lat="45.81091" lon="4.66651">
        <ele>329.19598</ele>
        <time>2023-10-04T08:19:27.000Z</time>
      </trkpt>
      <trkpt lat="45.81087" lon="4.66649">
        <ele>329.40524</ele>
        <time>2023-10-04T08:19:28.000Z</time>
      </trkpt>
      <trkpt lat="45.81084" lon="4.66647">
        <ele>329.60086</ele>
        <time>2023-10-04T08:19:29.000Z</time>
      </trkpt>
      <trkpt lat="45.8108" lon="4.66646">
        <ele>329.83734</ele>
        <time>2023-10-04T08:19:30.000Z</time>
      </trkpt>
      <trkpt lat="45.81076" lon="4.66645">
        <ele>330.06946</ele>
        <time>2023-10-04T08:19:31.000Z</time>
      </trkpt>
      <trkpt lat="45.81072" lon="4.66644">
        <ele>330.34409</ele>
        <time>2023-10-04T08:19:32.000Z</time>
      </trkpt>
      <trkpt lat="45.81068" lon="4.66644">
        <ele>330.74451</ele>
        <time>2023-10-04T08:19:33.000Z</time>
      </trkpt>
      <trkpt lat="45.81064" lon="4.66644">
        <ele>331.28241</ele>
        <time>2023-10-04T08:19:34.000Z</time>
      </trkpt>
      <trkpt lat="45.81059" lon="4.66645">
        <ele>331.51294</ele>
        <time>2023-10-04T08:19:35.000Z</time>
      </trkpt>
      <trkpt lat="45.81055" lon="4.66647">
        <ele>331.54254</ele>
        <time>2023-10-04T08:19:36.000Z</time>
      </trkpt>
      <trkpt lat="45.81051" lon="4.6665">
        <ele>331.7449</ele>
        <time>2023-10-04T08:19:37.000Z</time>
      </trkpt>
      <trkpt lat="45.81046" lon="4.66651">
        <ele>331.91901</ele>
        <time>2023-10-04T08:19:38.000Z</time>
      </trkpt>
      <trkpt lat="45.81041" lon="4.66652">
        <ele>332.24319</ele>
        <time>2023-10-04T08:19:39.000Z</time>
      </trkpt>
      <trkpt lat="45.81037" lon="4.66653">
        <ele>333.01059</ele>
        <time>2023-10-04T08:19:40.000Z</time>
      </trkpt>
      <trkpt lat="45.81032" lon="4.66653">
        <ele>333.79233</ele>
        <time>2023-10-04T08:19:41.000Z</time>
      </trkpt>
      <trkpt lat="45.81028" lon="4.66654">
        <ele>334.23428</ele>
        <time>2023-10-04T08:19:42.000Z</time>
      </trkpt>
      <trkpt lat="45.81024" lon="4.66654">
        <ele>334.73175</ele>
        <time>2023-10-04T08:19:43.000Z</time>
      </trkpt>
      <trkpt lat="45.8102" lon="4.66655">
        <ele>335.24396</ele>
        <time>2023-10-04T08:19:44.000Z</time>
      </trkpt>
      <trkpt lat="45.81016" lon="4.66656">
        <ele>335.70731</ele>
        <time>2023-10-04T08:19:45.000Z</time>
      </trkpt>
      <trkpt lat="45.81011" lon="4.66657">
        <ele>336.15366</ele>
        <time>2023-10-04T08:19:46.000Z</time>
      </trkpt>
      <trkpt lat="45.81007" lon="4.66657">
        <ele>336.5929</ele>
        <time>2023-10-04T08:19:47.000Z</time>
      </trkpt>
      <trkpt lat="45.81003" lon="4.66657">
        <ele>337.0632</ele>
        <time>2023-10-04T08:19:48.000Z</time>
      </trkpt>
      <trkpt lat="45.80999" lon="4.66658">
        <ele>337.54208</ele>
        <time>2023-10-04T08:19:49.000Z</time>
      </trkpt>
      <trkpt lat="45.80994" lon="4.66658">
        <ele>337.98199</ele>
        <time>2023-10-04T08:19:50.000Z</time>
      </trkpt>
      <trkpt lat="45.8099" lon="4.66659">
        <ele>338.26041</ele>
        <time>2023-10-04T08:19:51.000Z</time>
      </trkpt>
      <trkpt lat="45.80986" lon="4.66659">
        <ele>338.50009</ele>
        <time>2023-10-04T08:19:52.000Z</time>
      </trkpt>
      <trkpt lat="45.80981" lon="4.6666">
        <ele>338.76663</ele>
        <time>2023-10-04T08:19:53.000Z</time>
      </trkpt>
      <trkpt lat="45.80976" lon="4.66661">
        <ele>338.87085</ele>
        <time>2023-10-04T08:19:54.000Z</time>
      </trkpt>
      <trkpt lat="45.80972" lon="4.66661">
        <ele>338.78729</ele>
        <time>2023-10-04T08:19:55.000Z</time>
      </trkpt>
      <trkpt lat="45.80967" lon="4.66662">
        <ele>339.40265</ele>
        <time>2023-10-04T08:19:56.000Z</time>
      </trkpt>
      <trkpt lat="45.80963" lon="4.66663">
        <ele>339.88873</ele>
        <time>2023-10-04T08:19:57.000Z</time>
      </trkpt>
      <trkpt lat="45.80958" lon="4.66663">
        <ele>340.42621</ele>
        <time>2023-10-04T08:19:58.000Z</time>
      </trkpt>
      <trkpt lat="45.80953" lon="4.66663">
        <ele>340.95435</ele>
        <time>2023-10-04T08:19:59.000Z</time>
      </trkpt>
      <trkpt lat="45.80948" lon="4.66663">
        <ele>341.1644</ele>
        <time>2023-10-04T08:20:00.000Z</time>
      </trkpt>
      <trkpt lat="45.80942" lon="4.66662">
        <ele>341.42975</ele>
        <time>2023-10-04T08:20:01.000Z</time>
      </trkpt>
      <trkpt lat="45.80937" lon="4.66662">
        <ele>341.69101</ele>
        <time>2023-10-04T08:20:02.000Z</time>
      </trkpt>
      <trkpt lat="45.80933" lon="4.66662">
        <ele>341.73041</ele>
        <time>2023-10-04T08:20:03.000Z</time>
      </trkpt>
      <trkpt lat="45.80927" lon="4.6666">
        <ele>341.57764</ele>
        <time>2023-10-04T08:20:04.000Z</time>
      </trkpt>
      <trkpt lat="45.80922" lon="4.66661">
        <ele>341.4299</ele>
        <time>2023-10-04T08:20:05.000Z</time>
      </trkpt>
      <trkpt lat="45.80918" lon="4.6666">
        <ele>341.28876</ele>
        <time>2023-10-04T08:20:06.000Z</time>
      </trkpt>
      <trkpt lat="45.80913" lon="4.66661">
        <ele>341.64471</ele>
        <time>2023-10-04T08:20:07.000Z</time>
      </trkpt>
      <trkpt lat="45.80908" lon="4.66663">
        <ele>341.9035</ele>
        <time>2023-10-04T08:20:08.000Z</time>
      </trkpt>
      <trkpt lat="45.80904" lon="4.66666">
        <ele>342.12207</ele>
        <time>2023-10-04T08:20:09.000Z</time>
      </trkpt>
      <trkpt lat="45.80899" lon="4.6667">
        <ele>342.40509</ele>
        <time>2023-10-04T08:20:10.000Z</time>
      </trkpt>
      <trkpt lat="45.80895" lon="4.66672">
        <ele>342.88556</ele>
        <time>2023-10-04T08:20:11.000Z</time>
      </trkpt>
      <trkpt lat="45.80892" lon="4.66676">
        <ele>343.22351</ele>
        <time>2023-10-04T08:20:12.000Z</time>
      </trkpt>
      <trkpt lat="45.80886" lon="4.66678">
        <ele>343.50616</ele>
        <time>2023-10-04T08:20:13.000Z</time>
      </trkpt>
      <trkpt lat="45.80882" lon="4.6668">
        <ele>343.97116</ele>
        <time>2023-10-04T08:20:14.000Z</time>
      </trkpt>
      <trkpt lat="45.80878" lon="4.66682">
        <ele>344.6564</ele>
        <time>2023-10-04T08:20:15.000Z</time>
      </trkpt>
      <trkpt lat="45.80873" lon="4.66684">
        <ele>344.87656</ele>
        <time>2023-10-04T08:20:16.000Z</time>
      </trkpt>
      <trkpt lat="45.80867" lon="4.66686">
        <ele>345.09875</ele>
        <time>2023-10-04T08:20:17.000Z</time>
      </trkpt>
      <trkpt lat="45.80862" lon="4.66687">
        <ele>345.2919</ele>
        <time>2023-10-04T08:20:18.000Z</time>
      </trkpt>
      <trkpt lat="45.80858" lon="4.66689">
        <ele>345.5408</ele>
        <time>2023-10-04T08:20:19.000Z</time>
      </trkpt>
      <trkpt lat="45.80852" lon="4.66691">
        <ele>345.75433</ele>
        <time>2023-10-04T08:20:20.000Z</time>
      </trkpt>
      <trkpt lat="45.80847" lon="4.66692">
        <ele>345.91132</ele>
        <time>2023-10-04T08:20:21.000Z</time>
      </trkpt>
      <trkpt lat="45.80842" lon="4.66694">
        <ele>345.85114</ele>
        <time>2023-10-04T08:20:22.000Z</time>
      </trkpt>
      <trkpt lat="45.80838" lon="4.66697">
        <ele>346.00821</ele>
        <time>2023-10-04T08:20:23.000Z</time>
      </trkpt>
      <trkpt lat="45.80834" lon="4.667">
        <ele>346.19321</ele>
        <time>2023-10-04T08:20:24.000Z</time>
      </trkpt>
      <trkpt lat="45.80829" lon="4.66703">
        <ele>346.23947</ele>
        <time>2023-10-04T08:20:25.000Z</time>
      </trkpt>
      <trkpt lat="45.80824" lon="4.66705">
        <ele>346.88785</ele>
        <time>2023-10-04T08:20:26.000Z</time>
      </trkpt>
      <trkpt lat="45.8082" lon="4.66708">
        <ele>346.93307</ele>
        <time>2023-10-04T08:20:27.000Z</time>
      </trkpt>
      <trkpt lat="45.80815" lon="4.66711">
        <ele>347.09573</ele>
        <time>2023-10-04T08:20:28.000Z</time>
      </trkpt>
      <trkpt lat="45.80811" lon="4.66715">
        <ele>347.31277</ele>
        <time>2023-10-04T08:20:29.000Z</time>
      </trkpt>
      <trkpt lat="45.80806" lon="4.66718">
        <ele>347.43732</ele>
        <time>2023-10-04T08:20:30.000Z</time>
      </trkpt>
      <trkpt lat="45.80802" lon="4.66721">
        <ele>347.56854</ele>
        <time>2023-10-04T08:20:31.000Z</time>
      </trkpt>
      <trkpt lat="45.80798" lon="4.66725">
        <ele>347.79941</ele>
        <time>2023-10-04T08:20:32.000Z</time>
      </trkpt>
      <trkpt lat="45.80793" lon="4.66727">
        <ele>348.11658</ele>
        <time>2023-10-04T08:20:33.000Z</time>
      </trkpt>
      <trkpt lat="45.80788" lon="4.6673">
        <ele>348.41522</ele>
        <time>2023-10-04T08:20:34.000Z</time>
      </trkpt>
      <trkpt lat="45.80784" lon="4.66732">
        <ele>348.72137</ele>
        <time>2023-10-04T08:20:35.000Z</time>
      </trkpt>
      <trkpt lat="45.80779" lon="4.66735">
        <ele>349.07034</ele>
        <time>2023-10-04T08:20:36.000Z</time>
      </trkpt>
      <trkpt lat="45.80775" lon="4.66735">
        <ele>349.4285</ele>
        <time>2023-10-04T08:20:37.000Z</time>
      </trkpt>
      <trkpt lat="45.80771" lon="4.66734">
        <ele>349.8074</ele>
        <time>2023-10-04T08:20:38.000Z</time>
      </trkpt>
      <trkpt lat="45.80768" lon="4.66732">
        <ele>350.11938</ele>
        <time>2023-10-04T08:20:39.000Z</time>
      </trkpt>
      <trkpt lat="45.80765" lon="4.6673">
        <ele>350.42123</ele>
        <time>2023-10-04T08:20:40.000Z</time>
      </trkpt>
      <trkpt lat="45.80763" lon="4.66728">
        <ele>350.47202</ele>
        <time>2023-10-04T08:20:41.000Z</time>
      </trkpt>
      <trkpt lat="45.8076" lon="4.66724">
        <ele>350.45108</ele>
        <time>2023-10-04T08:20:42.000Z</time>
      </trkpt>
      <trkpt lat="45.80758" lon="4.66721">
        <ele>351.0426</ele>
        <time>2023-10-04T08:20:43.000Z</time>
      </trkpt>
      <trkpt lat="45.80756" lon="4.66718">
        <ele>351.64645</ele>
        <time>2023-10-04T08:20:44.000Z</time>
      </trkpt>
      <trkpt lat="45.80754" lon="4.66714">
        <ele>352.42059</ele>
        <time>2023-10-04T08:20:45.000Z</time>
      </trkpt>
      <trkpt lat="45.80752" lon="4.66709">
        <ele>352.61823</ele>
        <time>2023-10-04T08:20:46.000Z</time>
      </trkpt>
      <trkpt lat="45.80751" lon="4.66704">
        <ele>352.86151</ele>
        <time>2023-10-04T08:20:47.000Z</time>
      </trkpt>
      <trkpt lat="45.80749" lon="4.66699">
        <ele>352.77838</ele>
        <time>2023-10-04T08:20:48.000Z</time>
      </trkpt>
      <trkpt lat="45.80748" lon="4.66693">
        <ele>352.67575</ele>
        <time>2023-10-04T08:20:49.000Z</time>
      </trkpt>
      <trkpt lat="45.80746" lon="4.66687">
        <ele>352.55429</ele>
        <time>2023-10-04T08:20:50.000Z</time>
      </trkpt>
      <trkpt lat="45.80745" lon="4.66681">
        <ele>352.39304</ele>
        <time>2023-10-04T08:20:51.000Z</time>
      </trkpt>
      <trkpt lat="45.80744" lon="4.66675">
        <ele>352.28778</ele>
        <time>2023-10-04T08:20:52.000Z</time>
      </trkpt>
      <trkpt lat="45.80743" lon="4.66669">
        <ele>352.15106</ele>
        <time>2023-10-04T08:20:53.000Z</time>
      </trkpt>
      <trkpt lat="45.80742" lon="4.66662">
        <ele>351.96637</ele>
        <time>2023-10-04T08:20:54.000Z</time>
      </trkpt>
      <trkpt lat="45.80743" lon="4.66656">
        <ele>351.58356</ele>
        <time>2023-10-04T08:20:55.000Z</time>
      </trkpt>
      <trkpt lat="45.80744" lon="4.6665">
        <ele>351.07156</ele>
        <time>2023-10-04T08:20:56.000Z</time>
      </trkpt>
      <trkpt lat="45.80746" lon="4.66645">
        <ele>351.14377</ele>
        <time>2023-10-04T08:20:57.000Z</time>
      </trkpt>
      <trkpt lat="45.80749" lon="4.66639">
        <ele>351.06549</ele>
        <time>2023-10-04T08:20:58.000Z</time>
      </trkpt>
      <trkpt lat="45.80752" lon="4.66634">
        <ele>350.99164</ele>
        <time>2023-10-04T08:20:59.000Z</time>
      </trkpt>
      <trkpt lat="45.80754" lon="4.66629">
        <ele>350.88446</ele>
        <time>2023-10-04T08:21:00.000Z</time>
      </trkpt>
      <trkpt lat="45.80757" lon="4.66623">
        <ele>351.216</ele>
        <time>2023-10-04T08:21:01.000Z</time>
      </trkpt>
      <trkpt lat="45.8076" lon="4.66618">
        <ele>351.84146</ele>
        <time>2023-10-04T08:21:02.000Z</time>
      </trkpt>
      <trkpt lat="45.80764" lon="4.66613">
        <ele>351.84644</ele>
        <time>2023-10-04T08:21:03.000Z</time>
      </trkpt>
      <trkpt lat="45.80767" lon="4.66608">
        <ele>351.97714</ele>
        <time>2023-10-04T08:21:04.000Z</time>
      </trkpt>
      <trkpt lat="45.8077" lon="4.66603">
        <ele>352.08295</ele>
        <time>2023-10-04T08:21:05.000Z</time>
      </trkpt>
      <trkpt lat="45.80774" lon="4.66598">
        <ele>352.14532</ele>
        <time>2023-10-04T08:21:06.000Z</time>
      </trkpt>
      <trkpt lat="45.80777" lon="4.66592">
        <ele>352.23334</ele>
        <time>2023-10-04T08:21:07.000Z</time>
      </trkpt>
      <trkpt lat="45.80779" lon="4.66586">
        <ele>352.60086</ele>
        <time>2023-10-04T08:21:08.000Z</time>
      </trkpt>
      <trkpt lat="45.80782" lon="4.66581">
        <ele>352.94226</ele>
        <time>2023-10-04T08:21:09.000Z</time>
      </trkpt>
      <trkpt lat="45.80785" lon="4.66574">
        <ele>353.29285</ele>
        <time>2023-10-04T08:21:10.000Z</time>
      </trkpt>
      <trkpt lat="45.80786" lon="4.66567">
        <ele>353.62839</ele>
        <time>2023-10-04T08:21:11.000Z</time>
      </trkpt>
      <trkpt lat="45.80787" lon="4.6656">
        <ele>353.91669</ele>
        <time>2023-10-04T08:21:12.000Z</time>
      </trkpt>
      <trkpt lat="45.80788" lon="4.66552">
        <ele>354.1951</ele>
        <time>2023-10-04T08:21:13.000Z</time>
      </trkpt>
      <trkpt lat="45.80789" lon="4.66545">
        <ele>354.51422</ele>
        <time>2023-10-04T08:21:14.000Z</time>
      </trkpt>
      <trkpt lat="45.80789" lon="4.66537">
        <ele>354.98685</ele>
        <time>2023-10-04T08:21:15.000Z</time>
      </trkpt>
      <trkpt lat="45.8079" lon="4.6653">
        <ele>355.5538</ele>
        <time>2023-10-04T08:21:16.000Z</time>
      </trkpt>
      <trkpt lat="45.8079" lon="4.66523">
        <ele>355.51111</ele>
        <time>2023-10-04T08:21:17.000Z</time>
      </trkpt>
      <trkpt lat="45.80791" lon="4.66516">
        <ele>355.63126</ele>
        <time>2023-10-04T08:21:18.000Z</time>
      </trkpt>
      <trkpt lat="45.80791" lon="4.66509">
        <ele>355.76077</ele>
        <time>2023-10-04T08:21:19.000Z</time>
      </trkpt>
      <trkpt lat="45.80791" lon="4.66503">
        <ele>355.95911</ele>
        <time>2023-10-04T08:21:20.000Z</time>
      </trkpt>
      <trkpt lat="45.80791" lon="4.66496">
        <ele>355.82016</ele>
        <time>2023-10-04T08:21:21.000Z</time>
      </trkpt>
      <trkpt lat="45.80791" lon="4.6649">
        <ele>355.66879</ele>
        <time>2023-10-04T08:21:22.000Z</time>
      </trkpt>
      <trkpt lat="45.80791" lon="4.66485">
        <ele>355.54086</ele>
        <time>2023-10-04T08:21:23.000Z</time>
      </trkpt>
      <trkpt lat="45.80792" lon="4.6648">
        <ele>355.4278</ele>
        <time>2023-10-04T08:21:24.000Z</time>
      </trkpt>
      <trkpt lat="45.80792" lon="4.66477">
        <ele>355.32742</ele>
        <time>2023-10-04T08:21:25.000Z</time>
      </trkpt>
      <trkpt lat="45.80793" lon="4.66474">
        <ele>354.95068</ele>
        <time>2023-10-04T08:21:26.000Z</time>
      </trkpt>
      <trkpt lat="45.80792" lon="4.66471">
        <ele>354.55109</ele>
        <time>2023-10-04T08:21:27.000Z</time>
      </trkpt>
      <trkpt lat="45.80791" lon="4.66468">
        <ele>353.92703</ele>
        <time>2023-10-04T08:21:30.000Z</time>
      </trkpt>
      <trkpt lat="45.8079" lon="4.66468">
        <ele>353.8396</ele>
        <time>2023-10-04T08:24:56.000Z</time>
      </trkpt>
      <trkpt lat="45.80789" lon="4.66465">
        <ele>353.75964</ele>
        <time>2023-10-04T08:25:00.000Z</time>
      </trkpt>
      <trkpt lat="45.80788" lon="4.6646">
        <ele>353.68405</ele>
        <time>2023-10-04T08:25:02.000Z</time>
      </trkpt>
      <trkpt lat="45.80788" lon="4.66458">
        <ele>353.63348</ele>
        <time>2023-10-04T08:25:03.000Z</time>
      </trkpt>
      <trkpt lat="45.80787" lon="4.66454">
        <ele>353.57809</ele>
        <time>2023-10-04T08:25:04.000Z</time>
      </trkpt>
      <trkpt lat="45.80785" lon="4.6645">
        <ele>353.49927</ele>
        <time>2023-10-04T08:25:05.000Z</time>
      </trkpt>
      <trkpt lat="45.8078" lon="4.66449">
        <ele>353.15839</ele>
        <time>2023-10-04T08:25:06.000Z</time>
      </trkpt>
      <trkpt lat="45.80776" lon="4.6645">
        <ele>352.83212</ele>
        <time>2023-10-04T08:25:07.000Z</time>
      </trkpt>
      <trkpt lat="45.80772" lon="4.6645">
        <ele>352.48447</ele>
        <time>2023-10-04T08:25:08.000Z</time>
      </trkpt>
      <trkpt lat="45.80768" lon="4.66451">
        <ele>351.9292</ele>
        <time>2023-10-04T08:25:09.000Z</time>
      </trkpt>
      <trkpt lat="45.80764" lon="4.66451">
        <ele>351.38647</ele>
        <time>2023-10-04T08:25:10.000Z</time>
      </trkpt>
      <trkpt lat="45.80759" lon="4.66451">
        <ele>351.48334</ele>
        <time>2023-10-04T08:25:11.000Z</time>
      </trkpt>
      <trkpt lat="45.80755" lon="4.66451">
        <ele>351.67126</ele>
        <time>2023-10-04T08:25:12.000Z</time>
      </trkpt>
      <trkpt lat="45.8075" lon="4.66451">
        <ele>351.87637</ele>
        <time>2023-10-04T08:25:13.000Z</time>
      </trkpt>
      <trkpt lat="45.80746" lon="4.66452">
        <ele>352.08972</ele>
        <time>2023-10-04T08:25:14.000Z</time>
      </trkpt>
      <trkpt lat="45.80742" lon="4.66453">
        <ele>352.3049</ele>
        <time>2023-10-04T08:25:15.000Z</time>
      </trkpt>
      <trkpt lat="45.80738" lon="4.66453">
        <ele>352.50076</ele>
        <time>2023-10-04T08:25:16.000Z</time>
      </trkpt>
      <trkpt lat="45.80733" lon="4.66454">
        <ele>352.98602</ele>
        <time>2023-10-04T08:25:17.000Z</time>
      </trkpt>
      <trkpt lat="45.80728" lon="4.66454">
        <ele>353.50177</ele>
        <time>2023-10-04T08:25:18.000Z</time>
      </trkpt>
      <trkpt lat="45.80724" lon="4.66454">
        <ele>354.27939</ele>
        <time>2023-10-04T08:25:19.000Z</time>
      </trkpt>
      <trkpt lat="45.80719" lon="4.66454">
        <ele>354.5347</ele>
        <time>2023-10-04T08:25:20.000Z</time>
      </trkpt>
      <trkpt lat="45.80715" lon="4.66454">
        <ele>354.82813</ele>
        <time>2023-10-04T08:25:21.000Z</time>
      </trkpt>
      <trkpt lat="45.8071" lon="4.66455">
        <ele>355.15411</ele>
        <time>2023-10-04T08:25:22.000Z</time>
      </trkpt>
      <trkpt lat="45.80707" lon="4.66455">
        <ele>355.46335</ele>
        <time>2023-10-04T08:25:23.000Z</time>
      </trkpt>
      <trkpt lat="45.80702" lon="4.66456">
        <ele>355.77582</ele>
        <time>2023-10-04T08:25:24.000Z</time>
      </trkpt>
      <trkpt lat="45.80698" lon="4.66455">
        <ele>356.06525</ele>
        <time>2023-10-04T08:25:25.000Z</time>
      </trkpt>
      <trkpt lat="45.80693" lon="4.66456">
        <ele>356.63577</ele>
        <time>2023-10-04T08:25:26.000Z</time>
      </trkpt>
      <trkpt lat="45.80689" lon="4.66456">
        <ele>357.16815</ele>
        <time>2023-10-04T08:25:27.000Z</time>
      </trkpt>
      <trkpt lat="45.80684" lon="4.66455">
        <ele>357.74506</ele>
        <time>2023-10-04T08:25:28.000Z</time>
      </trkpt>
      <trkpt lat="45.8068" lon="4.66452">
        <ele>358.51093</ele>
        <time>2023-10-04T08:25:29.000Z</time>
      </trkpt>
      <trkpt lat="45.80676" lon="4.66448">
        <ele>359.24908</ele>
        <time>2023-10-04T08:25:30.000Z</time>
      </trkpt>
      <trkpt lat="45.80674" lon="4.66443">
        <ele>359.35699</ele>
        <time>2023-10-04T08:25:31.000Z</time>
      </trkpt>
      <trkpt lat="45.8067" lon="4.66438">
        <ele>359.509</ele>
        <time>2023-10-04T08:25:32.000Z</time>
      </trkpt>
      <trkpt lat="45.80667" lon="4.66432">
        <ele>359.69836</ele>
        <time>2023-10-04T08:25:33.000Z</time>
      </trkpt>
      <trkpt lat="45.80666" lon="4.66424">
        <ele>359.81683</ele>
        <time>2023-10-04T08:25:34.000Z</time>
      </trkpt>
      <trkpt lat="45.80664" lon="4.66418">
        <ele>359.98657</ele>
        <time>2023-10-04T08:25:35.000Z</time>
      </trkpt>
      <trkpt lat="45.80663" lon="4.66411">
        <ele>360.12012</ele>
        <time>2023-10-04T08:25:36.000Z</time>
      </trkpt>
      <trkpt lat="45.80661" lon="4.66403">
        <ele>360.25534</ele>
        <time>2023-10-04T08:25:37.000Z</time>
      </trkpt>
      <trkpt lat="45.80659" lon="4.66397">
        <ele>360.39545</ele>
        <time>2023-10-04T08:25:38.000Z</time>
      </trkpt>
      <trkpt lat="45.80657" lon="4.6639">
        <ele>360.51047</ele>
        <time>2023-10-04T08:25:39.000Z</time>
      </trkpt>
      <trkpt lat="45.80655" lon="4.66384">
        <ele>360.30856</ele>
        <time>2023-10-04T08:25:40.000Z</time>
      </trkpt>
      <trkpt lat="45.80653" lon="4.66376">
        <ele>359.72443</ele>
        <time>2023-10-04T08:25:41.000Z</time>
      </trkpt>
      <trkpt lat="45.80651" lon="4.66371">
        <ele>359.21564</ele>
        <time>2023-10-04T08:25:42.000Z</time>
      </trkpt>
      <trkpt lat="45.8065" lon="4.66365">
        <ele>358.72574</ele>
        <time>2023-10-04T08:25:43.000Z</time>
      </trkpt>
      <trkpt lat="45.80648" lon="4.66359">
        <ele>358.92194</ele>
        <time>2023-10-04T08:25:44.000Z</time>
      </trkpt>
      <trkpt lat="45.80647" lon="4.66353">
        <ele>359.04233</ele>
        <time>2023-10-04T08:25:45.000Z</time>
      </trkpt>
      <trkpt lat="45.80645" lon="4.66347">
        <ele>359.13913</ele>
        <time>2023-10-04T08:25:46.000Z</time>
      </trkpt>
      <trkpt lat="45.80643" lon="4.66342">
        <ele>359.28192</ele>
        <time>2023-10-04T08:25:47.000Z</time>
      </trkpt>
      <trkpt lat="45.80642" lon="4.66336">
        <ele>359.38773</ele>
        <time>2023-10-04T08:25:48.000Z</time>
      </trkpt>
      <trkpt lat="45.8064" lon="4.6633">
        <ele>359.15668</ele>
        <time>2023-10-04T08:25:49.000Z</time>
      </trkpt>
      <trkpt lat="45.80639" lon="4.66326">
        <ele>358.70316</ele>
        <time>2023-10-04T08:25:50.000Z</time>
      </trkpt>
      <trkpt lat="45.80637" lon="4.6632">
        <ele>358.94339</ele>
        <time>2023-10-04T08:25:51.000Z</time>
      </trkpt>
      <trkpt lat="45.80636" lon="4.66315">
        <ele>359.07635</ele>
        <time>2023-10-04T08:25:52.000Z</time>
      </trkpt>
      <trkpt lat="45.80635" lon="4.66311">
        <ele>359.15527</ele>
        <time>2023-10-04T08:25:53.000Z</time>
      </trkpt>
      <trkpt lat="45.80634" lon="4.66307">
        <ele>359.27802</ele>
        <time>2023-10-04T08:25:54.000Z</time>
      </trkpt>
      <trkpt lat="45.80632" lon="4.66302">
        <ele>358.87448</ele>
        <time>2023-10-04T08:25:55.000Z</time>
      </trkpt>
      <trkpt lat="45.8063" lon="4.66298">
        <ele>358.49503</ele>
        <time>2023-10-04T08:25:56.000Z</time>
      </trkpt>
      <trkpt lat="45.80628" lon="4.66293">
        <ele>357.9584</ele>
        <time>2023-10-04T08:25:57.000Z</time>
      </trkpt>
      <trkpt lat="45.80626" lon="4.66288">
        <ele>358.17953</ele>
        <time>2023-10-04T08:25:58.000Z</time>
      </trkpt>
      <trkpt lat="45.80624" lon="4.66282">
        <ele>358.28705</ele>
        <time>2023-10-04T08:25:59.000Z</time>
      </trkpt>
      <trkpt lat="45.80623" lon="4.66276">
        <ele>358.72647</ele>
        <time>2023-10-04T08:26:00.000Z</time>
      </trkpt>
      <trkpt lat="45.80621" lon="4.6627">
        <ele>359.53238</ele>
        <time>2023-10-04T08:26:01.000Z</time>
      </trkpt>
      <trkpt lat="45.80619" lon="4.66264">
        <ele>360.22961</ele>
        <time>2023-10-04T08:26:02.000Z</time>
      </trkpt>
      <trkpt lat="45.80617" lon="4.66259">
        <ele>360.94647</ele>
        <time>2023-10-04T08:26:03.000Z</time>
      </trkpt>
      <trkpt lat="45.80616" lon="4.66254">
        <ele>360.9704</ele>
        <time>2023-10-04T08:26:04.000Z</time>
      </trkpt>
      <trkpt lat="45.80616" lon="4.6625">
        <ele>361.05151</ele>
        <time>2023-10-04T08:26:05.000Z</time>
      </trkpt>
      <trkpt lat="45.80615" lon="4.66248">
        <ele>361.19608</ele>
        <time>2023-10-04T08:26:06.000Z</time>
      </trkpt>
      <trkpt lat="45.80613" lon="4.66247">
        <ele>361.3063</ele>
        <time>2023-10-04T08:26:07.000Z</time>
      </trkpt>
      <trkpt lat="45.80611" lon="4.6625">
        <ele>360.86615</ele>
        <time>2023-10-04T08:26:08.000Z</time>
      </trkpt>
      <trkpt lat="45.8061" lon="4.66253">
        <ele>360.82407</ele>
        <time>2023-10-04T08:26:09.000Z</time>
      </trkpt>
      <trkpt lat="45.80607" lon="4.66255">
        <ele>361.03253</ele>
        <time>2023-10-04T08:26:10.000Z</time>
      </trkpt>
      <trkpt lat="45.80604" lon="4.66258">
        <ele>360.65811</ele>
        <time>2023-10-04T08:26:11.000Z</time>
      </trkpt>
      <trkpt lat="45.80601" lon="4.6626">
        <ele>360.41486</ele>
        <time>2023-10-04T08:26:12.000Z</time>
      </trkpt>
      <trkpt lat="45.80598" lon="4.66259">
        <ele>360.01559</ele>
        <time>2023-10-04T08:26:13.000Z</time>
      </trkpt>
      <trkpt lat="45.80595" lon="4.66256">
        <ele>359.61792</ele>
        <time>2023-10-04T08:26:14.000Z</time>
      </trkpt>
      <trkpt lat="45.80593" lon="4.66252">
        <ele>359.68744</ele>
        <time>2023-10-04T08:26:15.000Z</time>
      </trkpt>
      <trkpt lat="45.80591" lon="4.66248">
        <ele>359.75668</ele>
        <time>2023-10-04T08:26:16.000Z</time>
      </trkpt>
      <trkpt lat="45.80589" lon="4.66243">
        <ele>359.88263</ele>
        <time>2023-10-04T08:26:17.000Z</time>
      </trkpt>
      <trkpt lat="45.80588" lon="4.66238">
        <ele>359.2576</ele>
        <time>2023-10-04T08:26:18.000Z</time>
      </trkpt>
      <trkpt lat="45.80586" lon="4.66234">
        <ele>359.50726</ele>
        <time>2023-10-04T08:26:19.000Z</time>
      </trkpt>
      <trkpt lat="45.80585" lon="4.6623">
        <ele>359.63068</ele>
        <time>2023-10-04T08:26:20.000Z</time>
      </trkpt>
      <trkpt lat="45.80583" lon="4.66226">
        <ele>359.711</ele>
        <time>2023-10-04T08:26:21.000Z</time>
      </trkpt>
      <trkpt lat="45.80581" lon="4.66221">
        <ele>359.76422</ele>
        <time>2023-10-04T08:26:22.000Z</time>
      </trkpt>
      <trkpt lat="45.80579" lon="4.66217">
        <ele>359.82169</ele>
        <time>2023-10-04T08:26:23.000Z</time>
      </trkpt>
      <trkpt lat="45.80577" lon="4.66213">
        <ele>359.88724</ele>
        <time>2023-10-04T08:26:24.000Z</time>
      </trkpt>
      <trkpt lat="45.80575" lon="4.66208">
        <ele>359.97565</ele>
        <time>2023-10-04T08:26:25.000Z</time>
      </trkpt>
      <trkpt lat="45.80573" lon="4.66204">
        <ele>360.04333</ele>
        <time>2023-10-04T08:26:26.000Z</time>
      </trkpt>
      <trkpt lat="45.80571" lon="4.662">
        <ele>360.10797</ele>
        <time>2023-10-04T08:26:27.000Z</time>
      </trkpt>
      <trkpt lat="45.80569" lon="4.66196">
        <ele>360.79172</ele>
        <time>2023-10-04T08:26:28.000Z</time>
      </trkpt>
      <trkpt lat="45.80568" lon="4.66193">
        <ele>361.43027</ele>
        <time>2023-10-04T08:26:29.000Z</time>
      </trkpt>
      <trkpt lat="45.80566" lon="4.66189">
        <ele>362.0535</ele>
        <time>2023-10-04T08:26:30.000Z</time>
      </trkpt>
      <trkpt lat="45.80564" lon="4.66185">
        <ele>362.18353</ele>
        <time>2023-10-04T08:26:31.000Z</time>
      </trkpt>
      <trkpt lat="45.80562" lon="4.66181">
        <ele>362.33414</ele>
        <time>2023-10-04T08:26:32.000Z</time>
      </trkpt>
      <trkpt lat="45.8056" lon="4.66178">
        <ele>362.66833</ele>
        <time>2023-10-04T08:26:33.000Z</time>
      </trkpt>
      <trkpt lat="45.80559" lon="4.66174">
        <ele>362.83707</ele>
        <time>2023-10-04T08:26:34.000Z</time>
      </trkpt>
      <trkpt lat="45.80558" lon="4.66171">
        <ele>362.90283</ele>
        <time>2023-10-04T08:26:35.000Z</time>
      </trkpt>
      <trkpt lat="45.80557" lon="4.66168">
        <ele>363.75381</ele>
        <time>2023-10-04T08:26:36.000Z</time>
      </trkpt>
      <trkpt lat="45.80557" lon="4.66164">
        <ele>364.55685</ele>
        <time>2023-10-04T08:26:37.000Z</time>
      </trkpt>
      <trkpt lat="45.80557" lon="4.66159">
        <ele>365.33051</ele>
        <time>2023-10-04T08:26:38.000Z</time>
      </trkpt>
      <trkpt lat="45.80557" lon="4.66153">
        <ele>365.37558</ele>
        <time>2023-10-04T08:26:39.000Z</time>
      </trkpt>
      <trkpt lat="45.80555" lon="4.66148">
        <ele>365.56183</ele>
        <time>2023-10-04T08:26:40.000Z</time>
      </trkpt>
      <trkpt lat="45.80553" lon="4.66145">
        <ele>365.7876</ele>
        <time>2023-10-04T08:26:41.000Z</time>
      </trkpt>
      <trkpt lat="45.8055" lon="4.66141">
        <ele>365.42029</ele>
        <time>2023-10-04T08:26:42.000Z</time>
      </trkpt>
      <trkpt lat="45.80548" lon="4.66138">
        <ele>366.36191</ele>
        <time>2023-10-04T08:26:43.000Z</time>
      </trkpt>
      <trkpt lat="45.80546" lon="4.66134">
        <ele>367.29834</ele>
        <time>2023-10-04T08:26:44.000Z</time>
      </trkpt>
      <trkpt lat="45.80544" lon="4.66131">
        <ele>368.28094</ele>
        <time>2023-10-04T08:26:45.000Z</time>
      </trkpt>
      <trkpt lat="45.80542" lon="4.66128">
        <ele>369.20355</ele>
        <time>2023-10-04T08:26:46.000Z</time>
      </trkpt>
      <trkpt lat="45.80539" lon="4.66124">
        <ele>370.13458</ele>
        <time>2023-10-04T08:26:47.000Z</time>
      </trkpt>
      <trkpt lat="45.80536" lon="4.6612">
        <ele>371.04462</ele>
        <time>2023-10-04T08:26:48.000Z</time>
      </trkpt>
      <trkpt lat="45.80534" lon="4.66117">
        <ele>371.95914</ele>
        <time>2023-10-04T08:26:49.000Z</time>
      </trkpt>
      <trkpt lat="45.80531" lon="4.66113">
        <ele>372.87671</ele>
        <time>2023-10-04T08:26:50.000Z</time>
      </trkpt>
      <trkpt lat="45.80528" lon="4.66109">
        <ele>374.08261</ele>
        <time>2023-10-04T08:26:51.000Z</time>
      </trkpt>
      <trkpt lat="45.80526" lon="4.66105">
        <ele>375.3627</ele>
        <time>2023-10-04T08:26:52.000Z</time>
      </trkpt>
      <trkpt lat="45.80523" lon="4.66101">
        <ele>376.67072</ele>
        <time>2023-10-04T08:26:53.000Z</time>
      </trkpt>
      <trkpt lat="45.80521" lon="4.66097">
        <ele>378.14377</ele>
        <time>2023-10-04T08:26:54.000Z</time>
      </trkpt>
      <trkpt lat="45.80518" lon="4.66094">
        <ele>379.7381</ele>
        <time>2023-10-04T08:26:55.000Z</time>
      </trkpt>
      <trkpt lat="45.80516" lon="4.6609">
        <ele>380.56821</ele>
        <time>2023-10-04T08:26:56.000Z</time>
      </trkpt>
      <trkpt lat="45.80513" lon="4.66086">
        <ele>381.54486</ele>
        <time>2023-10-04T08:26:57.000Z</time>
      </trkpt>
      <trkpt lat="45.80511" lon="4.66082">
        <ele>382.3732</ele>
        <time>2023-10-04T08:26:58.000Z</time>
      </trkpt>
      <trkpt lat="45.80509" lon="4.66079">
        <ele>383.10559</ele>
        <time>2023-10-04T08:26:59.000Z</time>
      </trkpt>
      <trkpt lat="45.80506" lon="4.66075">
        <ele>383.72122</ele>
        <time>2023-10-04T08:27:00.000Z</time>
      </trkpt>
      <trkpt lat="45.80504" lon="4.66071">
        <ele>384.77454</ele>
        <time>2023-10-04T08:27:01.000Z</time>
      </trkpt>
      <trkpt lat="45.80501" lon="4.66068">
        <ele>386.41791</ele>
        <time>2023-10-04T08:27:02.000Z</time>
      </trkpt>
      <trkpt lat="45.80498" lon="4.66065">
        <ele>386.75455</ele>
        <time>2023-10-04T08:27:03.000Z</time>
      </trkpt>
      <trkpt lat="45.80494" lon="4.66062">
        <ele>387.09613</ele>
        <time>2023-10-04T08:27:04.000Z</time>
      </trkpt>
      <trkpt lat="45.8049" lon="4.6606">
        <ele>387.38916</ele>
        <time>2023-10-04T08:27:05.000Z</time>
      </trkpt>
      <trkpt lat="45.80486" lon="4.66058">
        <ele>387.71991</ele>
        <time>2023-10-04T08:27:06.000Z</time>
      </trkpt>
      <trkpt lat="45.80482" lon="4.66058">
        <ele>388.05682</ele>
        <time>2023-10-04T08:27:07.000Z</time>
      </trkpt>
      <trkpt lat="45.80478" lon="4.66056">
        <ele>388.33087</ele>
        <time>2023-10-04T08:27:08.000Z</time>
      </trkpt>
      <trkpt lat="45.80474" lon="4.66055">
        <ele>388.61029</ele>
        <time>2023-10-04T08:27:09.000Z</time>
      </trkpt>
      <trkpt lat="45.8047" lon="4.66054">
        <ele>388.89349</ele>
        <time>2023-10-04T08:27:10.000Z</time>
      </trkpt>
      <trkpt lat="45.80466" lon="4.66052">
        <ele>389.25125</ele>
        <time>2023-10-04T08:27:11.000Z</time>
      </trkpt>
      <trkpt lat="45.80462" lon="4.6605">
        <ele>389.54422</ele>
        <time>2023-10-04T08:27:12.000Z</time>
      </trkpt>
      <trkpt lat="45.80458" lon="4.66049">
        <ele>389.80026</ele>
        <time>2023-10-04T08:27:13.000Z</time>
      </trkpt>
      <trkpt lat="45.80454" lon="4.66047">
        <ele>390.07626</ele>
        <time>2023-10-04T08:27:14.000Z</time>
      </trkpt>
      <trkpt lat="45.8045" lon="4.66045">
        <ele>390.33502</ele>
        <time>2023-10-04T08:27:15.000Z</time>
      </trkpt>
      <trkpt lat="45.80446" lon="4.66043">
        <ele>390.58429</ele>
        <time>2023-10-04T08:27:16.000Z</time>
      </trkpt>
      <trkpt lat="45.80441" lon="4.66041">
        <ele>390.83377</ele>
        <time>2023-10-04T08:27:17.000Z</time>
      </trkpt>
      <trkpt lat="45.80437" lon="4.66038">
        <ele>391.23187</ele>
        <time>2023-10-04T08:27:18.000Z</time>
      </trkpt>
      <trkpt lat="45.80433" lon="4.66036">
        <ele>391.69397</ele>
        <time>2023-10-04T08:27:19.000Z</time>
      </trkpt>
      <trkpt lat="45.80429" lon="4.66035">
        <ele>392.24588</ele>
        <time>2023-10-04T08:27:20.000Z</time>
      </trkpt>
      <trkpt lat="45.80425" lon="4.66033">
        <ele>392.33578</ele>
        <time>2023-10-04T08:27:21.000Z</time>
      </trkpt>
      <trkpt lat="45.80422" lon="4.66031">
        <ele>392.47574</ele>
        <time>2023-10-04T08:27:22.000Z</time>
      </trkpt>
      <trkpt lat="45.80417" lon="4.66029">
        <ele>392.60141</ele>
        <time>2023-10-04T08:27:23.000Z</time>
      </trkpt>
      <trkpt lat="45.80413" lon="4.66028">
        <ele>392.72745</ele>
        <time>2023-10-04T08:27:24.000Z</time>
      </trkpt>
      <trkpt lat="45.8041" lon="4.66026">
        <ele>392.90643</ele>
        <time>2023-10-04T08:27:25.000Z</time>
      </trkpt>
      <trkpt lat="45.80406" lon="4.66024">
        <ele>393.09027</ele>
        <time>2023-10-04T08:27:26.000Z</time>
      </trkpt>
      <trkpt lat="45.80402" lon="4.66022">
        <ele>393.29791</ele>
        <time>2023-10-04T08:27:27.000Z</time>
      </trkpt>
      <trkpt lat="45.80399" lon="4.6602">
        <ele>393.32037</ele>
        <time>2023-10-04T08:27:28.000Z</time>
      </trkpt>
      <trkpt lat="45.80394" lon="4.66018">
        <ele>393.11066</ele>
        <time>2023-10-04T08:27:29.000Z</time>
      </trkpt>
      <trkpt lat="45.80391" lon="4.66017">
        <ele>393.41849</ele>
        <time>2023-10-04T08:27:30.000Z</time>
      </trkpt>
      <trkpt lat="45.80387" lon="4.66015">
        <ele>393.69019</ele>
        <time>2023-10-04T08:27:31.000Z</time>
      </trkpt>
      <trkpt lat="45.80384" lon="4.66014">
        <ele>393.93933</ele>
        <time>2023-10-04T08:27:32.000Z</time>
      </trkpt>
      <trkpt lat="45.80381" lon="4.66013">
        <ele>394.19675</ele>
        <time>2023-10-04T08:27:33.000Z</time>
      </trkpt>
      <trkpt lat="45.80377" lon="4.66011">
        <ele>394.42554</ele>
        <time>2023-10-04T08:27:34.000Z</time>
      </trkpt>
      <trkpt lat="45.80374" lon="4.6601">
        <ele>394.66614</ele>
        <time>2023-10-04T08:27:35.000Z</time>
      </trkpt>
      <trkpt lat="45.80371" lon="4.66009">
        <ele>394.92532</ele>
        <time>2023-10-04T08:27:36.000Z</time>
      </trkpt>
      <trkpt lat="45.80368" lon="4.66009">
        <ele>395.17416</ele>
        <time>2023-10-04T08:27:37.000Z</time>
      </trkpt>
      <trkpt lat="45.80364" lon="4.66008">
        <ele>395.47479</ele>
        <time>2023-10-04T08:27:38.000Z</time>
      </trkpt>
      <trkpt lat="45.8036" lon="4.66008">
        <ele>395.55072</ele>
        <time>2023-10-04T08:27:39.000Z</time>
      </trkpt>
      <trkpt lat="45.80357" lon="4.66007">
        <ele>395.44504</ele>
        <time>2023-10-04T08:27:40.000Z</time>
      </trkpt>
      <trkpt lat="45.80353" lon="4.66006">
        <ele>395.89163</ele>
        <time>2023-10-04T08:27:41.000Z</time>
      </trkpt>
      <trkpt lat="45.8035" lon="4.66005">
        <ele>396.26675</ele>
        <time>2023-10-04T08:27:42.000Z</time>
      </trkpt>
      <trkpt lat="45.80346" lon="4.66003">
        <ele>396.65451</ele>
        <time>2023-10-04T08:27:43.000Z</time>
      </trkpt>
      <trkpt lat="45.80342" lon="4.66002">
        <ele>397.04642</ele>
        <time>2023-10-04T08:27:44.000Z</time>
      </trkpt>
      <trkpt lat="45.80338" lon="4.66">
        <ele>397.42316</ele>
        <time>2023-10-04T08:27:45.000Z</time>
      </trkpt>
      <trkpt lat="45.80334" lon="4.65999">
        <ele>397.81091</ele>
        <time>2023-10-04T08:27:46.000Z</time>
      </trkpt>
      <trkpt lat="45.8033" lon="4.65998">
        <ele>398.18997</ele>
        <time>2023-10-04T08:27:47.000Z</time>
      </trkpt>
      <trkpt lat="45.80326" lon="4.65996">
        <ele>398.77768</ele>
        <time>2023-10-04T08:27:48.000Z</time>
      </trkpt>
      <trkpt lat="45.80322" lon="4.65994">
        <ele>399.30954</ele>
        <time>2023-10-04T08:27:49.000Z</time>
      </trkpt>
      <trkpt lat="45.80319" lon="4.65993">
        <ele>399.14438</ele>
        <time>2023-10-04T08:27:50.000Z</time>
      </trkpt>
      <trkpt lat="45.80315" lon="4.65991">
        <ele>399.01559</ele>
        <time>2023-10-04T08:27:51.000Z</time>
      </trkpt>
      <trkpt lat="45.80311" lon="4.65989">
        <ele>399.47952</ele>
        <time>2023-10-04T08:27:52.000Z</time>
      </trkpt>
      <trkpt lat="45.80307" lon="4.65988">
        <ele>399.81836</ele>
        <time>2023-10-04T08:27:53.000Z</time>
      </trkpt>
      <trkpt lat="45.80304" lon="4.65986">
        <ele>400.1702</ele>
        <time>2023-10-04T08:27:54.000Z</time>
      </trkpt>
      <trkpt lat="45.803" lon="4.65984">
        <ele>400.54135</ele>
        <time>2023-10-04T08:27:55.000Z</time>
      </trkpt>
      <trkpt lat="45.80296" lon="4.65982">
        <ele>400.90714</ele>
        <time>2023-10-04T08:27:56.000Z</time>
      </trkpt>
      <trkpt lat="45.80293" lon="4.6598">
        <ele>401.2644</ele>
        <time>2023-10-04T08:27:57.000Z</time>
      </trkpt>
      <trkpt lat="45.8029" lon="4.65978">
        <ele>401.58124</ele>
        <time>2023-10-04T08:27:58.000Z</time>
      </trkpt>
      <trkpt lat="45.80286" lon="4.65976">
        <ele>402.13156</ele>
        <time>2023-10-04T08:27:59.000Z</time>
      </trkpt>
      <trkpt lat="45.80283" lon="4.65973">
        <ele>402.87201</ele>
        <time>2023-10-04T08:28:00.000Z</time>
      </trkpt>
      <trkpt lat="45.8028" lon="4.65972">
        <ele>403.0972</ele>
        <time>2023-10-04T08:28:01.000Z</time>
      </trkpt>
      <trkpt lat="45.80277" lon="4.6597">
        <ele>403.36423</ele>
        <time>2023-10-04T08:28:02.000Z</time>
      </trkpt>
      <trkpt lat="45.80274" lon="4.65967">
        <ele>403.52417</ele>
        <time>2023-10-04T08:28:03.000Z</time>
      </trkpt>
      <trkpt lat="45.80271" lon="4.65964">
        <ele>403.72092</ele>
        <time>2023-10-04T08:28:04.000Z</time>
      </trkpt>
      <trkpt lat="45.80268" lon="4.65962">
        <ele>403.96576</ele>
        <time>2023-10-04T08:28:05.000Z</time>
      </trkpt>
      <trkpt lat="45.80265" lon="4.65959">
        <ele>403.94373</ele>
        <time>2023-10-04T08:28:06.000Z</time>
      </trkpt>
      <trkpt lat="45.80262" lon="4.65956">
        <ele>403.92316</ele>
        <time>2023-10-04T08:28:07.000Z</time>
      </trkpt>
      <trkpt lat="45.80259" lon="4.65953">
        <ele>403.86966</ele>
        <time>2023-10-04T08:28:08.000Z</time>
      </trkpt>
      <trkpt lat="45.80256" lon="4.6595">
        <ele>403.95886</ele>
        <time>2023-10-04T08:28:09.000Z</time>
      </trkpt>
      <trkpt lat="45.80253" lon="4.65947">
        <ele>404.04996</ele>
        <time>2023-10-04T08:28:10.000Z</time>
      </trkpt>
      <trkpt lat="45.8025" lon="4.65944">
        <ele>404.84586</ele>
        <time>2023-10-04T08:28:11.000Z</time>
      </trkpt>
      <trkpt lat="45.80247" lon="4.6594">
        <ele>404.99261</ele>
        <time>2023-10-04T08:28:12.000Z</time>
      </trkpt>
      <trkpt lat="45.80244" lon="4.65936">
        <ele>405.20313</ele>
        <time>2023-10-04T08:28:13.000Z</time>
      </trkpt>
      <trkpt lat="45.80241" lon="4.65932">
        <ele>405.41473</ele>
        <time>2023-10-04T08:28:14.000Z</time>
      </trkpt>
      <trkpt lat="45.80237" lon="4.65926">
        <ele>405.44623</ele>
        <time>2023-10-04T08:28:15.000Z</time>
      </trkpt>
      <trkpt lat="45.80234" lon="4.65923">
        <ele>405.41562</ele>
        <time>2023-10-04T08:28:16.000Z</time>
      </trkpt>
      <trkpt lat="45.80232" lon="4.65921">
        <ele>405.25183</ele>
        <time>2023-10-04T08:28:17.000Z</time>
      </trkpt>
      <trkpt lat="45.80226" lon="4.65917">
        <ele>405.14594</ele>
        <time>2023-10-04T08:28:18.000Z</time>
      </trkpt>
      <trkpt lat="45.80222" lon="4.65914">
        <ele>405.06903</ele>
        <time>2023-10-04T08:28:19.000Z</time>
      </trkpt>
      <trkpt lat="45.80218" lon="4.65911">
        <ele>405.05573</ele>
        <time>2023-10-04T08:28:20.000Z</time>
      </trkpt>
      <trkpt lat="45.80215" lon="4.65906">
        <ele>404.65424</ele>
        <time>2023-10-04T08:28:21.000Z</time>
      </trkpt>
      <trkpt lat="45.80211" lon="4.65903">
        <ele>404.0054</ele>
        <time>2023-10-04T08:28:22.000Z</time>
      </trkpt>
      <trkpt lat="45.80208" lon="4.65901">
        <ele>404.24957</ele>
        <time>2023-10-04T08:28:23.000Z</time>
      </trkpt>
      <trkpt lat="45.80204" lon="4.65898">
        <ele>404.41031</ele>
        <time>2023-10-04T08:28:24.000Z</time>
      </trkpt>
      <trkpt lat="45.80201" lon="4.65897">
        <ele>404.44257</ele>
        <time>2023-10-04T08:28:25.000Z</time>
      </trkpt>
      <trkpt lat="45.80197" lon="4.65894">
        <ele>405.81302</ele>
        <time>2023-10-04T08:28:26.000Z</time>
      </trkpt>
      <trkpt lat="45.80194" lon="4.65891">
        <ele>407.15033</ele>
        <time>2023-10-04T08:28:27.000Z</time>
      </trkpt>
      <trkpt lat="45.8019" lon="4.65887">
        <ele>408.48737</ele>
        <time>2023-10-04T08:28:28.000Z</time>
      </trkpt>
      <trkpt lat="45.80187" lon="4.65883">
        <ele>409.91797</ele>
        <time>2023-10-04T08:28:29.000Z</time>
      </trkpt>
      <trkpt lat="45.80183" lon="4.65881">
        <ele>411.55786</ele>
        <time>2023-10-04T08:28:30.000Z</time>
      </trkpt>
      <trkpt lat="45.80179" lon="4.65877">
        <ele>412.46875</ele>
        <time>2023-10-04T08:28:31.000Z</time>
      </trkpt>
      <trkpt lat="45.80176" lon="4.65874">
        <ele>413.4437</ele>
        <time>2023-10-04T08:28:32.000Z</time>
      </trkpt>
      <trkpt lat="45.80172" lon="4.65871">
        <ele>414.49396</ele>
        <time>2023-10-04T08:28:33.000Z</time>
      </trkpt>
      <trkpt lat="45.80169" lon="4.65867">
        <ele>415.53961</ele>
        <time>2023-10-04T08:28:34.000Z</time>
      </trkpt>
      <trkpt lat="45.80165" lon="4.65864">
        <ele>416.73859</ele>
        <time>2023-10-04T08:28:35.000Z</time>
      </trkpt>
      <trkpt lat="45.80162" lon="4.65861">
        <ele>417.97784</ele>
        <time>2023-10-04T08:28:36.000Z</time>
      </trkpt>
      <trkpt lat="45.80158" lon="4.65859">
        <ele>419.34506</ele>
        <time>2023-10-04T08:28:37.000Z</time>
      </trkpt>
      <trkpt lat="45.80154" lon="4.65857">
        <ele>420.63165</ele>
        <time>2023-10-04T08:28:38.000Z</time>
      </trkpt>
      <trkpt lat="45.8015" lon="4.65854">
        <ele>421.87735</ele>
        <time>2023-10-04T08:28:39.000Z</time>
      </trkpt>
      <trkpt lat="45.80146" lon="4.65852">
        <ele>423.09317</ele>
        <time>2023-10-04T08:28:40.000Z</time>
      </trkpt>
      <trkpt lat="45.80141" lon="4.6585">
        <ele>424.71957</ele>
        <time>2023-10-04T08:28:41.000Z</time>
      </trkpt>
      <trkpt lat="45.80137" lon="4.65848">
        <ele>426.62726</ele>
        <time>2023-10-04T08:28:42.000Z</time>
      </trkpt>
      <trkpt lat="45.80133" lon="4.65846">
        <ele>427.73135</ele>
        <time>2023-10-04T08:28:43.000Z</time>
      </trkpt>
      <trkpt lat="45.80129" lon="4.65843">
        <ele>428.88647</ele>
        <time>2023-10-04T08:28:44.000Z</time>
      </trkpt>
      <trkpt lat="45.80125" lon="4.65841">
        <ele>430.11945</ele>
        <time>2023-10-04T08:28:45.000Z</time>
      </trkpt>
      <trkpt lat="45.80121" lon="4.65839">
        <ele>430.2652</ele>
        <time>2023-10-04T08:28:46.000Z</time>
      </trkpt>
      <trkpt lat="45.80117" lon="4.65837">
        <ele>430.44156</ele>
        <time>2023-10-04T08:28:47.000Z</time>
      </trkpt>
      <trkpt lat="45.80114" lon="4.65834">
        <ele>430.56683</ele>
        <time>2023-10-04T08:28:48.000Z</time>
      </trkpt>
      <trkpt lat="45.80111" lon="4.65831">
        <ele>430.74448</ele>
        <time>2023-10-04T08:28:49.000Z</time>
      </trkpt>
      <trkpt lat="45.80107" lon="4.65828">
        <ele>431.00592</ele>
        <time>2023-10-04T08:28:50.000Z</time>
      </trkpt>
      <trkpt lat="45.80103" lon="4.65827">
        <ele>431.27948</ele>
        <time>2023-10-04T08:28:51.000Z</time>
      </trkpt>
      <trkpt lat="45.80099" lon="4.65824">
        <ele>431.55136</ele>
        <time>2023-10-04T08:28:52.000Z</time>
      </trkpt>
      <trkpt lat="45.80095" lon="4.65821">
        <ele>431.80835</ele>
        <time>2023-10-04T08:28:53.000Z</time>
      </trkpt>
      <trkpt lat="45.80091" lon="4.65819">
        <ele>432.07602</ele>
        <time>2023-10-04T08:28:54.000Z</time>
      </trkpt>
      <trkpt lat="45.80087" lon="4.65816">
        <ele>432.32739</ele>
        <time>2023-10-04T08:28:55.000Z</time>
      </trkpt>
      <trkpt lat="45.80083" lon="4.65814">
        <ele>432.59384</ele>
        <time>2023-10-04T08:28:56.000Z</time>
      </trkpt>
      <trkpt lat="45.80079" lon="4.65811">
        <ele>432.87964</ele>
        <time>2023-10-04T08:28:57.000Z</time>
      </trkpt>
      <trkpt lat="45.80075" lon="4.65809">
        <ele>433.18637</ele>
        <time>2023-10-04T08:28:58.000Z</time>
      </trkpt>
      <trkpt lat="45.80071" lon="4.65806">
        <ele>433.50058</ele>
        <time>2023-10-04T08:28:59.000Z</time>
      </trkpt>
      <trkpt lat="45.80067" lon="4.65804">
        <ele>433.77896</ele>
        <time>2023-10-04T08:29:00.000Z</time>
      </trkpt>
      <trkpt lat="45.80063" lon="4.65802">
        <ele>434.04086</ele>
        <time>2023-10-04T08:29:01.000Z</time>
      </trkpt>
      <trkpt lat="45.80059" lon="4.658">
        <ele>434.30365</ele>
        <time>2023-10-04T08:29:02.000Z</time>
      </trkpt>
      <trkpt lat="45.80055" lon="4.65798">
        <ele>434.57397</ele>
        <time>2023-10-04T08:29:03.000Z</time>
      </trkpt>
      <trkpt lat="45.80052" lon="4.65796">
        <ele>434.86246</ele>
        <time>2023-10-04T08:29:04.000Z</time>
      </trkpt>
      <trkpt lat="45.80048" lon="4.65794">
        <ele>435.13495</ele>
        <time>2023-10-04T08:29:05.000Z</time>
      </trkpt>
      <trkpt lat="45.80044" lon="4.65792">
        <ele>435.42203</ele>
        <time>2023-10-04T08:29:06.000Z</time>
      </trkpt>
      <trkpt lat="45.8004" lon="4.65789">
        <ele>435.70441</ele>
        <time>2023-10-04T08:29:07.000Z</time>
      </trkpt>
      <trkpt lat="45.80037" lon="4.65786">
        <ele>435.9931</ele>
        <time>2023-10-04T08:29:08.000Z</time>
      </trkpt>
      <trkpt lat="45.80033" lon="4.65784">
        <ele>436.26593</ele>
        <time>2023-10-04T08:29:09.000Z</time>
      </trkpt>
      <trkpt lat="45.8003" lon="4.65782">
        <ele>436.38605</ele>
        <time>2023-10-04T08:29:10.000Z</time>
      </trkpt>
      <trkpt lat="45.80026" lon="4.6578">
        <ele>436.52106</ele>
        <time>2023-10-04T08:29:11.000Z</time>
      </trkpt>
      <trkpt lat="45.80022" lon="4.65778">
        <ele>436.87579</ele>
        <time>2023-10-04T08:29:12.000Z</time>
      </trkpt>
      <trkpt lat="45.80018" lon="4.65775">
        <ele>437.30615</ele>
        <time>2023-10-04T08:29:13.000Z</time>
      </trkpt>
      <trkpt lat="45.80014" lon="4.65773">
        <ele>437.75211</ele>
        <time>2023-10-04T08:29:14.000Z</time>
      </trkpt>
      <trkpt lat="45.80011" lon="4.65771">
        <ele>438.22739</ele>
        <time>2023-10-04T08:29:15.000Z</time>
      </trkpt>
      <trkpt lat="45.80007" lon="4.65768">
        <ele>438.737</ele>
        <time>2023-10-04T08:29:16.000Z</time>
      </trkpt>
      <trkpt lat="45.80003" lon="4.65766">
        <ele>439.23779</ele>
        <time>2023-10-04T08:29:17.000Z</time>
      </trkpt>
      <trkpt lat="45.8" lon="4.65763">
        <ele>438.14258</ele>
        <time>2023-10-04T08:29:18.000Z</time>
      </trkpt>
      <trkpt lat="45.79996" lon="4.6576">
        <ele>437.10361</ele>
        <time>2023-10-04T08:29:19.000Z</time>
      </trkpt>
      <trkpt lat="45.79992" lon="4.65758">
        <ele>436.05707</ele>
        <time>2023-10-04T08:29:20.000Z</time>
      </trkpt>
      <trkpt lat="45.79989" lon="4.65756">
        <ele>436.47534</ele>
        <time>2023-10-04T08:29:21.000Z</time>
      </trkpt>
      <trkpt lat="45.79985" lon="4.65753">
        <ele>436.8764</ele>
        <time>2023-10-04T08:29:22.000Z</time>
      </trkpt>
      <trkpt lat="45.79981" lon="4.65752">
        <ele>437.26401</ele>
        <time>2023-10-04T08:29:23.000Z</time>
      </trkpt>
      <trkpt lat="45.79976" lon="4.65751">
        <ele>437.62866</ele>
        <time>2023-10-04T08:29:24.000Z</time>
      </trkpt>
      <trkpt lat="45.79972" lon="4.65749">
        <ele>437.74747</ele>
        <time>2023-10-04T08:29:25.000Z</time>
      </trkpt>
      <trkpt lat="45.79968" lon="4.65748">
        <ele>437.8248</ele>
        <time>2023-10-04T08:29:26.000Z</time>
      </trkpt>
      <trkpt lat="45.79964" lon="4.65747">
        <ele>437.88022</ele>
        <time>2023-10-04T08:29:27.000Z</time>
      </trkpt>
      <trkpt lat="45.7996" lon="4.65747">
        <ele>437.89679</ele>
        <time>2023-10-04T08:29:28.000Z</time>
      </trkpt>
      <trkpt lat="45.79956" lon="4.65747">
        <ele>437.90552</ele>
        <time>2023-10-04T08:29:29.000Z</time>
      </trkpt>
      <trkpt lat="45.79952" lon="4.65747">
        <ele>436.80597</ele>
        <time>2023-10-04T08:29:30.000Z</time>
      </trkpt>
      <trkpt lat="45.79948" lon="4.65746">
        <ele>435.67676</ele>
        <time>2023-10-04T08:29:31.000Z</time>
      </trkpt>
      <trkpt lat="45.79943" lon="4.65747">
        <ele>434.34268</ele>
        <time>2023-10-04T08:29:32.000Z</time>
      </trkpt>
      <trkpt lat="45.79937" lon="4.65745">
        <ele>432.88858</ele>
        <time>2023-10-04T08:29:33.000Z</time>
      </trkpt>
      <trkpt lat="45.79933" lon="4.65745">
        <ele>431.38574</ele>
        <time>2023-10-04T08:29:34.000Z</time>
      </trkpt>
      <trkpt lat="45.79929" lon="4.65745">
        <ele>429.8548</ele>
        <time>2023-10-04T08:29:35.000Z</time>
      </trkpt>
      <trkpt lat="45.79924" lon="4.65745">
        <ele>428.25357</ele>
        <time>2023-10-04T08:29:36.000Z</time>
      </trkpt>
      <trkpt lat="45.7992" lon="4.65747">
        <ele>426.59482</ele>
        <time>2023-10-04T08:29:37.000Z</time>
      </trkpt>
      <trkpt lat="45.79916" lon="4.65746">
        <ele>426.55566</ele>
        <time>2023-10-04T08:29:38.000Z</time>
      </trkpt>
      <trkpt lat="45.79911" lon="4.65746">
        <ele>426.01035</ele>
        <time>2023-10-04T08:29:39.000Z</time>
      </trkpt>
      <trkpt lat="45.79907" lon="4.65747">
        <ele>425.50699</ele>
        <time>2023-10-04T08:29:40.000Z</time>
      </trkpt>
      <trkpt lat="45.79903" lon="4.65748">
        <ele>423.49307</ele>
        <time>2023-10-04T08:29:41.000Z</time>
      </trkpt>
      <trkpt lat="45.79898" lon="4.65749">
        <ele>421.49634</ele>
        <time>2023-10-04T08:29:42.000Z</time>
      </trkpt>
      <trkpt lat="45.79893" lon="4.65749">
        <ele>419.2453</ele>
        <time>2023-10-04T08:29:43.000Z</time>
      </trkpt>
      <trkpt lat="45.79888" lon="4.6575">
        <ele>416.86801</ele>
        <time>2023-10-04T08:29:44.000Z</time>
      </trkpt>
      <trkpt lat="45.79884" lon="4.6575">
        <ele>414.72333</ele>
        <time>2023-10-04T08:29:45.000Z</time>
      </trkpt>
      <trkpt lat="45.79879" lon="4.6575">
        <ele>413.57538</ele>
        <time>2023-10-04T08:29:46.000Z</time>
      </trkpt>
      <trkpt lat="45.79874" lon="4.65751">
        <ele>412.24048</ele>
        <time>2023-10-04T08:29:47.000Z</time>
      </trkpt>
      <trkpt lat="45.79869" lon="4.65751">
        <ele>411.02631</ele>
        <time>2023-10-04T08:29:48.000Z</time>
      </trkpt>
      <trkpt lat="45.79864" lon="4.65753">
        <ele>409.82056</ele>
        <time>2023-10-04T08:29:49.000Z</time>
      </trkpt>
      <trkpt lat="45.79859" lon="4.65754">
        <ele>409.76593</ele>
        <time>2023-10-04T08:29:50.000Z</time>
      </trkpt>
      <trkpt lat="45.79854" lon="4.65755">
        <ele>409.62994</ele>
        <time>2023-10-04T08:29:51.000Z</time>
      </trkpt>
      <trkpt lat="45.79849" lon="4.65754">
        <ele>409.49881</ele>
        <time>2023-10-04T08:29:52.000Z</time>
      </trkpt>
      <trkpt lat="45.79844" lon="4.65756">
        <ele>408.62708</ele>
        <time>2023-10-04T08:29:53.000Z</time>
      </trkpt>
      <trkpt lat="45.79839" lon="4.65756">
        <ele>407.93671</ele>
        <time>2023-10-04T08:29:54.000Z</time>
      </trkpt>
      <trkpt lat="45.79833" lon="4.65757">
        <ele>407.12762</ele>
        <time>2023-10-04T08:29:55.000Z</time>
      </trkpt>
      <trkpt lat="45.79828" lon="4.65757">
        <ele>406.32184</ele>
        <time>2023-10-04T08:29:56.000Z</time>
      </trkpt>
      <trkpt lat="45.79821" lon="4.65757">
        <ele>405.44064</ele>
        <time>2023-10-04T08:29:57.000Z</time>
      </trkpt>
      <trkpt lat="45.79816" lon="4.65756">
        <ele>404.75226</ele>
        <time>2023-10-04T08:29:58.000Z</time>
      </trkpt>
      <trkpt lat="45.7981" lon="4.65756">
        <ele>403.86514</ele>
        <time>2023-10-04T08:29:59.000Z</time>
      </trkpt>
      <trkpt lat="45.79805" lon="4.65756">
        <ele>402.62744</ele>
        <time>2023-10-04T08:30:00.000Z</time>
      </trkpt>
      <trkpt lat="45.79799" lon="4.65756">
        <ele>401.42444</ele>
        <time>2023-10-04T08:30:01.000Z</time>
      </trkpt>
      <trkpt lat="45.79793" lon="4.65756">
        <ele>400.04523</ele>
        <time>2023-10-04T08:30:02.000Z</time>
      </trkpt>
      <trkpt lat="45.79788" lon="4.65757">
        <ele>398.89124</ele>
        <time>2023-10-04T08:30:03.000Z</time>
      </trkpt>
      <trkpt lat="45.79783" lon="4.65757">
        <ele>399.26544</ele>
        <time>2023-10-04T08:30:04.000Z</time>
      </trkpt>
      <trkpt lat="45.79778" lon="4.65758">
        <ele>399.41278</ele>
        <time>2023-10-04T08:30:05.000Z</time>
      </trkpt>
      <trkpt lat="45.79773" lon="4.65758">
        <ele>398.53903</ele>
        <time>2023-10-04T08:30:06.000Z</time>
      </trkpt>
      <trkpt lat="45.79768" lon="4.65761">
        <ele>397.78937</ele>
        <time>2023-10-04T08:30:07.000Z</time>
      </trkpt>
      <trkpt lat="45.79764" lon="4.65764">
        <ele>396.11395</ele>
        <time>2023-10-04T08:30:08.000Z</time>
      </trkpt>
      <trkpt lat="45.79759" lon="4.65766">
        <ele>394.26535</ele>
        <time>2023-10-04T08:30:09.000Z</time>
      </trkpt>
      <trkpt lat="45.79755" lon="4.65769">
        <ele>393.85712</ele>
        <time>2023-10-04T08:30:10.000Z</time>
      </trkpt>
      <trkpt lat="45.7975" lon="4.6577">
        <ele>393.2016</ele>
        <time>2023-10-04T08:30:11.000Z</time>
      </trkpt>
      <trkpt lat="45.79746" lon="4.65772">
        <ele>392.51959</ele>
        <time>2023-10-04T08:30:12.000Z</time>
      </trkpt>
      <trkpt lat="45.79742" lon="4.65776">
        <ele>392.61249</ele>
        <time>2023-10-04T08:30:13.000Z</time>
      </trkpt>
      <trkpt lat="45.79737" lon="4.65779">
        <ele>392.62369</ele>
        <time>2023-10-04T08:30:14.000Z</time>
      </trkpt>
      <trkpt lat="45.79732" lon="4.6578">
        <ele>392.6546</ele>
        <time>2023-10-04T08:30:15.000Z</time>
      </trkpt>
      <trkpt lat="45.79728" lon="4.65783">
        <ele>392.72104</ele>
        <time>2023-10-04T08:30:16.000Z</time>
      </trkpt>
      <trkpt lat="45.79724" lon="4.65785">
        <ele>392.61572</ele>
        <time>2023-10-04T08:30:17.000Z</time>
      </trkpt>
      <trkpt lat="45.7972" lon="4.65787">
        <ele>392.29553</ele>
        <time>2023-10-04T08:30:18.000Z</time>
      </trkpt>
      <trkpt lat="45.79716" lon="4.65789">
        <ele>392.60452</ele>
        <time>2023-10-04T08:30:19.000Z</time>
      </trkpt>
      <trkpt lat="45.79712" lon="4.65791">
        <ele>393.24075</ele>
        <time>2023-10-04T08:30:20.000Z</time>
      </trkpt>
      <trkpt lat="45.79708" lon="4.65792">
        <ele>393.88666</ele>
        <time>2023-10-04T08:30:21.000Z</time>
      </trkpt>
      <trkpt lat="45.79704" lon="4.65794">
        <ele>394.92661</ele>
        <time>2023-10-04T08:30:22.000Z</time>
      </trkpt>
      <trkpt lat="45.797" lon="4.65796">
        <ele>395.94202</ele>
        <time>2023-10-04T08:30:23.000Z</time>
      </trkpt>
      <trkpt lat="45.79696" lon="4.65799">
        <ele>396.55563</ele>
        <time>2023-10-04T08:30:24.000Z</time>
      </trkpt>
      <trkpt lat="45.79692" lon="4.658">
        <ele>397.18365</ele>
        <time>2023-10-04T08:30:25.000Z</time>
      </trkpt>
      <trkpt lat="45.79688" lon="4.65802">
        <ele>397.81281</ele>
        <time>2023-10-04T08:30:26.000Z</time>
      </trkpt>
      <trkpt lat="45.79684" lon="4.65804">
        <ele>398.52628</ele>
        <time>2023-10-04T08:30:27.000Z</time>
      </trkpt>
      <trkpt lat="45.7968" lon="4.65806">
        <ele>400.18692</ele>
        <time>2023-10-04T08:30:28.000Z</time>
      </trkpt>
      <trkpt lat="45.79676" lon="4.65808">
        <ele>401.91876</ele>
        <time>2023-10-04T08:30:29.000Z</time>
      </trkpt>
      <trkpt lat="45.79672" lon="4.6581">
        <ele>402.1806</ele>
        <time>2023-10-04T08:30:30.000Z</time>
      </trkpt>
      <trkpt lat="45.79668" lon="4.65811">
        <ele>402.63971</ele>
        <time>2023-10-04T08:30:31.000Z</time>
      </trkpt>
      <trkpt lat="45.79664" lon="4.65813">
        <ele>402.92654</ele>
        <time>2023-10-04T08:30:32.000Z</time>
      </trkpt>
      <trkpt lat="45.79661" lon="4.65815">
        <ele>403.04486</ele>
        <time>2023-10-04T08:30:33.000Z</time>
      </trkpt>
      <trkpt lat="45.79657" lon="4.65816">
        <ele>402.96057</ele>
        <time>2023-10-04T08:30:34.000Z</time>
      </trkpt>
      <trkpt lat="45.79653" lon="4.65817">
        <ele>402.81015</ele>
        <time>2023-10-04T08:30:35.000Z</time>
      </trkpt>
      <trkpt lat="45.79648" lon="4.65818">
        <ele>402.2308</ele>
        <time>2023-10-04T08:30:36.000Z</time>
      </trkpt>
      <trkpt lat="45.79643" lon="4.6582">
        <ele>402.07056</ele>
        <time>2023-10-04T08:30:37.000Z</time>
      </trkpt>
      <trkpt lat="45.79639" lon="4.65821">
        <ele>401.73422</ele>
        <time>2023-10-04T08:30:38.000Z</time>
      </trkpt>
      <trkpt lat="45.79635" lon="4.65823">
        <ele>401.38547</ele>
        <time>2023-10-04T08:30:39.000Z</time>
      </trkpt>
      <trkpt lat="45.7963" lon="4.65824">
        <ele>401.1803</ele>
        <time>2023-10-04T08:30:40.000Z</time>
      </trkpt>
      <trkpt lat="45.79625" lon="4.65825">
        <ele>400.80676</ele>
        <time>2023-10-04T08:30:41.000Z</time>
      </trkpt>
      <trkpt lat="45.79621" lon="4.65825">
        <ele>401.27161</ele>
        <time>2023-10-04T08:30:42.000Z</time>
      </trkpt>
      <trkpt lat="45.79617" lon="4.65826">
        <ele>401.59235</ele>
        <time>2023-10-04T08:30:43.000Z</time>
      </trkpt>
      <trkpt lat="45.79613" lon="4.65827">
        <ele>401.1116</ele>
        <time>2023-10-04T08:30:44.000Z</time>
      </trkpt>
      <trkpt lat="45.79609" lon="4.65828">
        <ele>400.83478</ele>
        <time>2023-10-04T08:30:45.000Z</time>
      </trkpt>
      <trkpt lat="45.79605" lon="4.65828">
        <ele>400.6272</ele>
        <time>2023-10-04T08:30:46.000Z</time>
      </trkpt>
      <trkpt lat="45.79602" lon="4.65828">
        <ele>400.30649</ele>
        <time>2023-10-04T08:30:47.000Z</time>
      </trkpt>
      <trkpt lat="45.79598" lon="4.65828">
        <ele>400.02975</ele>
        <time>2023-10-04T08:30:48.000Z</time>
      </trkpt>
      <trkpt lat="45.79594" lon="4.65828">
        <ele>399.8371</ele>
        <time>2023-10-04T08:30:49.000Z</time>
      </trkpt>
      <trkpt lat="45.79589" lon="4.65828">
        <ele>399.67615</ele>
        <time>2023-10-04T08:30:50.000Z</time>
      </trkpt>
      <trkpt lat="45.79585" lon="4.65828">
        <ele>399.53094</ele>
        <time>2023-10-04T08:30:51.000Z</time>
      </trkpt>
      <trkpt lat="45.79582" lon="4.65828">
        <ele>399.67694</ele>
        <time>2023-10-04T08:30:52.000Z</time>
      </trkpt>
      <trkpt lat="45.79579" lon="4.65827">
        <ele>400.07025</ele>
        <time>2023-10-04T08:30:53.000Z</time>
      </trkpt>
      <trkpt lat="45.79575" lon="4.65826">
        <ele>400.5954</ele>
        <time>2023-10-04T08:30:54.000Z</time>
      </trkpt>
      <trkpt lat="45.79572" lon="4.65825">
        <ele>401.17865</ele>
        <time>2023-10-04T08:30:55.000Z</time>
      </trkpt>
      <trkpt lat="45.79568" lon="4.65824">
        <ele>402.24152</ele>
        <time>2023-10-04T08:30:56.000Z</time>
      </trkpt>
      <trkpt lat="45.79564" lon="4.65823">
        <ele>403.11115</ele>
        <time>2023-10-04T08:30:57.000Z</time>
      </trkpt>
      <trkpt lat="45.7956" lon="4.65821">
        <ele>404.22372</ele>
        <time>2023-10-04T08:30:58.000Z</time>
      </trkpt>
      <trkpt lat="45.79557" lon="4.65819">
        <ele>405.33856</ele>
        <time>2023-10-04T08:30:59.000Z</time>
      </trkpt>
      <trkpt lat="45.79554" lon="4.65817">
        <ele>406.31168</ele>
        <time>2023-10-04T08:31:00.000Z</time>
      </trkpt>
      <trkpt lat="45.79551" lon="4.65815">
        <ele>407.58902</ele>
        <time>2023-10-04T08:31:01.000Z</time>
      </trkpt>
      <trkpt lat="45.79549" lon="4.65814">
        <ele>407.82254</ele>
        <time>2023-10-04T08:31:02.000Z</time>
      </trkpt>
      <trkpt lat="45.79546" lon="4.65812">
        <ele>408.25122</ele>
        <time>2023-10-04T08:31:03.000Z</time>
      </trkpt>
      <trkpt lat="45.79542" lon="4.6581">
        <ele>408.48376</ele>
        <time>2023-10-04T08:31:04.000Z</time>
      </trkpt>
      <trkpt lat="45.79539" lon="4.65807">
        <ele>407.96494</ele>
        <time>2023-10-04T08:31:05.000Z</time>
      </trkpt>
      <trkpt lat="45.79536" lon="4.65804">
        <ele>407.29675</ele>
        <time>2023-10-04T08:31:06.000Z</time>
      </trkpt>
      <trkpt lat="45.79533" lon="4.65802">
        <ele>406.18219</ele>
        <time>2023-10-04T08:31:07.000Z</time>
      </trkpt>
      <trkpt lat="45.7953" lon="4.658">
        <ele>406.90936</ele>
        <time>2023-10-04T08:31:08.000Z</time>
      </trkpt>
      <trkpt lat="45.79527" lon="4.65798">
        <ele>407.59201</ele>
        <time>2023-10-04T08:31:09.000Z</time>
      </trkpt>
      <trkpt lat="45.79524" lon="4.65796">
        <ele>408.29526</ele>
        <time>2023-10-04T08:31:10.000Z</time>
      </trkpt>
      <trkpt lat="45.79521" lon="4.65794">
        <ele>409.66797</ele>
        <time>2023-10-04T08:31:11.000Z</time>
      </trkpt>
      <trkpt lat="45.79519" lon="4.65792">
        <ele>410.90567</ele>
        <time>2023-10-04T08:31:12.000Z</time>
      </trkpt>
      <trkpt lat="45.79516" lon="4.6579">
        <ele>411.92685</ele>
        <time>2023-10-04T08:31:13.000Z</time>
      </trkpt>
      <trkpt lat="45.79513" lon="4.65788">
        <ele>412.9715</ele>
        <time>2023-10-04T08:31:14.000Z</time>
      </trkpt>
      <trkpt lat="45.7951" lon="4.65786">
        <ele>414.08917</ele>
        <time>2023-10-04T08:31:15.000Z</time>
      </trkpt>
      <trkpt lat="45.79507" lon="4.65784">
        <ele>415.11981</ele>
        <time>2023-10-04T08:31:16.000Z</time>
      </trkpt>
      <trkpt lat="45.79504" lon="4.65783">
        <ele>416.24966</ele>
        <time>2023-10-04T08:31:17.000Z</time>
      </trkpt>
      <trkpt lat="45.795" lon="4.65782">
        <ele>417.43402</ele>
        <time>2023-10-04T08:31:18.000Z</time>
      </trkpt>
      <trkpt lat="45.79497" lon="4.6578">
        <ele>418.66095</ele>
        <time>2023-10-04T08:31:19.000Z</time>
      </trkpt>
      <trkpt lat="45.79494" lon="4.65778">
        <ele>419.75397</ele>
        <time>2023-10-04T08:31:20.000Z</time>
      </trkpt>
      <trkpt lat="45.79491" lon="4.65776">
        <ele>420.5043</ele>
        <time>2023-10-04T08:31:21.000Z</time>
      </trkpt>
      <trkpt lat="45.79488" lon="4.65775">
        <ele>421.63959</ele>
        <time>2023-10-04T08:31:22.000Z</time>
      </trkpt>
      <trkpt lat="45.79485" lon="4.65775">
        <ele>422.62994</ele>
        <time>2023-10-04T08:31:23.000Z</time>
      </trkpt>
      <trkpt lat="45.79481" lon="4.65775">
        <ele>423.44824</ele>
        <time>2023-10-04T08:31:24.000Z</time>
      </trkpt>
      <trkpt lat="45.79478" lon="4.65775">
        <ele>424.96494</ele>
        <time>2023-10-04T08:31:25.000Z</time>
      </trkpt>
      <trkpt lat="45.79476" lon="4.65775">
        <ele>426.55746</ele>
        <time>2023-10-04T08:31:26.000Z</time>
      </trkpt>
      <trkpt lat="45.79472" lon="4.65774">
        <ele>428.77045</ele>
        <time>2023-10-04T08:31:27.000Z</time>
      </trkpt>
      <trkpt lat="45.79469" lon="4.65773">
        <ele>429.02777</ele>
        <time>2023-10-04T08:31:28.000Z</time>
      </trkpt>
      <trkpt lat="45.79466" lon="4.65772">
        <ele>429.33429</ele>
        <time>2023-10-04T08:31:29.000Z</time>
      </trkpt>
      <trkpt lat="45.79464" lon="4.65771">
        <ele>429.63892</ele>
        <time>2023-10-04T08:31:30.000Z</time>
      </trkpt>
      <trkpt lat="45.79461" lon="4.6577">
        <ele>429.36285</ele>
        <time>2023-10-04T08:31:31.000Z</time>
      </trkpt>
      <trkpt lat="45.79459" lon="4.65769">
        <ele>429.07709</ele>
        <time>2023-10-04T08:31:32.000Z</time>
      </trkpt>
      <trkpt lat="45.79457" lon="4.65768">
        <ele>428.78571</ele>
        <time>2023-10-04T08:31:33.000Z</time>
      </trkpt>
      <trkpt lat="45.79454" lon="4.65768">
        <ele>428.35663</ele>
        <time>2023-10-04T08:31:34.000Z</time>
      </trkpt>
      <trkpt lat="45.7945" lon="4.65769">
        <ele>427.87622</ele>
        <time>2023-10-04T08:31:35.000Z</time>
      </trkpt>
      <trkpt lat="45.79447" lon="4.65769">
        <ele>427.87006</ele>
        <time>2023-10-04T08:31:36.000Z</time>
      </trkpt>
      <trkpt lat="45.79445" lon="4.65771">
        <ele>427.77847</ele>
        <time>2023-10-04T08:31:37.000Z</time>
      </trkpt>
      <trkpt lat="45.79443" lon="4.65772">
        <ele>427.51447</ele>
        <time>2023-10-04T08:31:38.000Z</time>
      </trkpt>
      <trkpt lat="45.7944" lon="4.65774">
        <ele>427.11777</ele>
        <time>2023-10-04T08:31:39.000Z</time>
      </trkpt>
      <trkpt lat="45.79438" lon="4.65775">
        <ele>426.91611</ele>
        <time>2023-10-04T08:31:40.000Z</time>
      </trkpt>
      <trkpt lat="45.79436" lon="4.65776">
        <ele>426.85541</ele>
        <time>2023-10-04T08:31:41.000Z</time>
      </trkpt>
      <trkpt lat="45.79433" lon="4.65776">
        <ele>426.42783</ele>
        <time>2023-10-04T08:31:42.000Z</time>
      </trkpt>
      <trkpt lat="45.79431" lon="4.65776">
        <ele>426.05939</ele>
        <time>2023-10-04T08:31:43.000Z</time>
      </trkpt>
      <trkpt lat="45.79428" lon="4.65776">
        <ele>425.85638</ele>
        <time>2023-10-04T08:31:44.000Z</time>
      </trkpt>
      <trkpt lat="45.79425" lon="4.65776">
        <ele>425.74152</ele>
        <time>2023-10-04T08:31:45.000Z</time>
      </trkpt>
      <trkpt lat="45.79421" lon="4.65777">
        <ele>425.55975</ele>
        <time>2023-10-04T08:31:46.000Z</time>
      </trkpt>
      <trkpt lat="45.79419" lon="4.65777">
        <ele>425.27106</ele>
        <time>2023-10-04T08:31:47.000Z</time>
      </trkpt>
      <trkpt lat="45.79416" lon="4.65777">
        <ele>425.00873</ele>
        <time>2023-10-04T08:31:48.000Z</time>
      </trkpt>
      <trkpt lat="45.79413" lon="4.65777">
        <ele>424.79596</ele>
        <time>2023-10-04T08:31:49.000Z</time>
      </trkpt>
      <trkpt lat="45.7941" lon="4.65777">
        <ele>424.50171</ele>
        <time>2023-10-04T08:31:50.000Z</time>
      </trkpt>
      <trkpt lat="45.79407" lon="4.65776">
        <ele>424.26749</ele>
        <time>2023-10-04T08:31:51.000Z</time>
      </trkpt>
      <trkpt lat="45.79405" lon="4.65776">
        <ele>424.06714</ele>
        <time>2023-10-04T08:31:52.000Z</time>
      </trkpt>
      <trkpt lat="45.79402" lon="4.65775">
        <ele>423.8707</ele>
        <time>2023-10-04T08:31:53.000Z</time>
      </trkpt>
      <trkpt lat="45.79399" lon="4.65775">
        <ele>423.70303</ele>
        <time>2023-10-04T08:31:54.000Z</time>
      </trkpt>
      <trkpt lat="45.79397" lon="4.65774">
        <ele>423.61816</ele>
        <time>2023-10-04T08:31:55.000Z</time>
      </trkpt>
      <trkpt lat="45.79395" lon="4.65773">
        <ele>423.10883</ele>
        <time>2023-10-04T08:31:56.000Z</time>
      </trkpt>
      <trkpt lat="45.79392" lon="4.65772">
        <ele>424.32867</ele>
        <time>2023-10-04T08:31:57.000Z</time>
      </trkpt>
      <trkpt lat="45.7939" lon="4.65771">
        <ele>425.62509</ele>
        <time>2023-10-04T08:31:58.000Z</time>
      </trkpt>
      <trkpt lat="45.79387" lon="4.65769">
        <ele>427.06982</ele>
        <time>2023-10-04T08:31:59.000Z</time>
      </trkpt>
      <trkpt lat="45.79384" lon="4.65767">
        <ele>428.44232</ele>
        <time>2023-10-04T08:32:00.000Z</time>
      </trkpt>
      <trkpt lat="45.79381" lon="4.65765">
        <ele>429.85895</ele>
        <time>2023-10-04T08:32:01.000Z</time>
      </trkpt>
      <trkpt lat="45.79378" lon="4.65764">
        <ele>431.25073</ele>
        <time>2023-10-04T08:32:02.000Z</time>
      </trkpt>
      <trkpt lat="45.79375" lon="4.65763">
        <ele>432.72919</ele>
        <time>2023-10-04T08:32:03.000Z</time>
      </trkpt>
      <trkpt lat="45.79372" lon="4.65762">
        <ele>434.2059</ele>
        <time>2023-10-04T08:32:04.000Z</time>
      </trkpt>
      <trkpt lat="45.79369" lon="4.65761">
        <ele>435.67261</ele>
        <time>2023-10-04T08:32:05.000Z</time>
      </trkpt>
      <trkpt lat="45.79367" lon="4.65761">
        <ele>437.24722</ele>
        <time>2023-10-04T08:32:06.000Z</time>
      </trkpt>
      <trkpt lat="45.79365" lon="4.65761">
        <ele>438.84442</ele>
        <time>2023-10-04T08:32:07.000Z</time>
      </trkpt>
      <trkpt lat="45.79363" lon="4.65761">
        <ele>440.45123</ele>
        <time>2023-10-04T08:32:08.000Z</time>
      </trkpt>
      <trkpt lat="45.7936" lon="4.65761">
        <ele>442.03003</ele>
        <time>2023-10-04T08:32:09.000Z</time>
      </trkpt>
      <trkpt lat="45.79358" lon="4.65761">
        <ele>443.65958</ele>
        <time>2023-10-04T08:32:10.000Z</time>
      </trkpt>
      <trkpt lat="45.79355" lon="4.65761">
        <ele>445.30673</ele>
        <time>2023-10-04T08:32:11.000Z</time>
      </trkpt>
      <trkpt lat="45.79352" lon="4.6576">
        <ele>446.94867</ele>
        <time>2023-10-04T08:32:12.000Z</time>
      </trkpt>
      <trkpt lat="45.79349" lon="4.6576">
        <ele>448.71539</ele>
        <time>2023-10-04T08:32:13.000Z</time>
      </trkpt>
      <trkpt lat="45.79347" lon="4.6576">
        <ele>450.55762</ele>
        <time>2023-10-04T08:32:14.000Z</time>
      </trkpt>
      <trkpt lat="45.79345" lon="4.65761">
        <ele>452.43301</ele>
        <time>2023-10-04T08:32:15.000Z</time>
      </trkpt>
      <trkpt lat="45.79342" lon="4.65761">
        <ele>455.34711</ele>
        <time>2023-10-04T08:32:17.000Z</time>
      </trkpt>
      <trkpt lat="45.7934" lon="4.65762">
        <ele>456.63623</ele>
        <time>2023-10-04T08:32:18.000Z</time>
      </trkpt>
      <trkpt lat="45.79338" lon="4.65762">
        <ele>457.9772</ele>
        <time>2023-10-04T08:32:19.000Z</time>
      </trkpt>
      <trkpt lat="45.79336" lon="4.65763">
        <ele>459.29816</ele>
        <time>2023-10-04T08:32:20.000Z</time>
      </trkpt>
      <trkpt lat="45.79334" lon="4.65764">
        <ele>460.32123</ele>
        <time>2023-10-04T08:32:21.000Z</time>
      </trkpt>
      <trkpt lat="45.79332" lon="4.65765">
        <ele>461.42081</ele>
        <time>2023-10-04T08:32:22.000Z</time>
      </trkpt>
      <trkpt lat="45.7933" lon="4.65766">
        <ele>462.55151</ele>
        <time>2023-10-04T08:32:23.000Z</time>
      </trkpt>
      <trkpt lat="45.79328" lon="4.65766">
        <ele>463.66113</ele>
        <time>2023-10-04T08:32:24.000Z</time>
      </trkpt>
      <trkpt lat="45.79326" lon="4.65767">
        <ele>464.79697</ele>
        <time>2023-10-04T08:32:25.000Z</time>
      </trkpt>
      <trkpt lat="45.79324" lon="4.65767">
        <ele>466.10507</ele>
        <time>2023-10-04T08:32:26.000Z</time>
      </trkpt>
      <trkpt lat="45.79321" lon="4.65768">
        <ele>466.69141</ele>
        <time>2023-10-04T08:32:27.000Z</time>
      </trkpt>
      <trkpt lat="45.7932" lon="4.65769">
        <ele>467.32172</ele>
        <time>2023-10-04T08:32:28.000Z</time>
      </trkpt>
      <trkpt lat="45.79318" lon="4.6577">
        <ele>467.9769</ele>
        <time>2023-10-04T08:32:29.000Z</time>
      </trkpt>
      <trkpt lat="45.79316" lon="4.6577">
        <ele>468.64423</ele>
        <time>2023-10-04T08:32:30.000Z</time>
      </trkpt>
      <trkpt lat="45.79314" lon="4.65771">
        <ele>469.33978</ele>
        <time>2023-10-04T08:32:31.000Z</time>
      </trkpt>
      <trkpt lat="45.79311" lon="4.65772">
        <ele>464.70282</ele>
        <time>2023-10-04T08:32:32.000Z</time>
      </trkpt>
      <trkpt lat="45.79308" lon="4.65774">
        <ele>465.17023</ele>
        <time>2023-10-04T08:32:33.000Z</time>
      </trkpt>
      <trkpt lat="45.79305" lon="4.65774">
        <ele>466.26776</ele>
        <time>2023-10-04T08:32:34.000Z</time>
      </trkpt>
      <trkpt lat="45.79303" lon="4.65774">
        <ele>467.39166</ele>
        <time>2023-10-04T08:32:35.000Z</time>
      </trkpt>
      <trkpt lat="45.79301" lon="4.65773">
        <ele>468.52423</ele>
        <time>2023-10-04T08:32:36.000Z</time>
      </trkpt>
      <trkpt lat="45.79299" lon="4.65772">
        <ele>468.59479</ele>
        <time>2023-10-04T08:32:37.000Z</time>
      </trkpt>
      <trkpt lat="45.79297" lon="4.65772">
        <ele>468.72256</ele>
        <time>2023-10-04T08:32:38.000Z</time>
      </trkpt>
      <trkpt lat="45.79295" lon="4.65772">
        <ele>468.8085</ele>
        <time>2023-10-04T08:32:39.000Z</time>
      </trkpt>
      <trkpt lat="45.79292" lon="4.65773">
        <ele>468.82202</ele>
        <time>2023-10-04T08:32:41.000Z</time>
      </trkpt>
      <trkpt lat="45.79289" lon="4.65774">
        <ele>469.20111</ele>
        <time>2023-10-04T08:32:42.000Z</time>
      </trkpt>
      <trkpt lat="45.79287" lon="4.65773">
        <ele>469.46906</ele>
        <time>2023-10-04T08:32:43.000Z</time>
      </trkpt>
      <trkpt lat="45.79284" lon="4.65772">
        <ele>469.70099</ele>
        <time>2023-10-04T08:32:44.000Z</time>
      </trkpt>
      <trkpt lat="45.79282" lon="4.65772">
        <ele>469.96841</ele>
        <time>2023-10-04T08:32:45.000Z</time>
      </trkpt>
      <trkpt lat="45.7928" lon="4.65771">
        <ele>470.19629</ele>
        <time>2023-10-04T08:32:46.000Z</time>
      </trkpt>
      <trkpt lat="45.79277" lon="4.65771">
        <ele>470.24716</ele>
        <time>2023-10-04T08:32:47.000Z</time>
      </trkpt>
      <trkpt lat="45.79274" lon="4.6577">
        <ele>471.01862</ele>
        <time>2023-10-04T08:32:48.000Z</time>
      </trkpt>
      <trkpt lat="45.79272" lon="4.65769">
        <ele>471.7399</ele>
        <time>2023-10-04T08:32:49.000Z</time>
      </trkpt>
      <trkpt lat="45.79269" lon="4.65768">
        <ele>472.51651</ele>
        <time>2023-10-04T08:32:50.000Z</time>
      </trkpt>
      <trkpt lat="45.79266" lon="4.65768">
        <ele>473.28644</ele>
        <time>2023-10-04T08:32:51.000Z</time>
      </trkpt>
      <trkpt lat="45.79263" lon="4.65767">
        <ele>474.02115</ele>
        <time>2023-10-04T08:32:52.000Z</time>
      </trkpt>
      <trkpt lat="45.7926" lon="4.65766">
        <ele>480.0722</ele>
        <time>2023-10-04T08:32:53.000Z</time>
      </trkpt>
      <trkpt lat="45.79258" lon="4.65765">
        <ele>481.09943</ele>
        <time>2023-10-04T08:32:54.000Z</time>
      </trkpt>
      <trkpt lat="45.79255" lon="4.65763">
        <ele>481.50137</ele>
        <time>2023-10-04T08:32:55.000Z</time>
      </trkpt>
      <trkpt lat="45.79252" lon="4.65761">
        <ele>481.68561</ele>
        <time>2023-10-04T08:32:56.000Z</time>
      </trkpt>
      <trkpt lat="45.7925" lon="4.6576">
        <ele>481.92334</ele>
        <time>2023-10-04T08:32:57.000Z</time>
      </trkpt>
      <trkpt lat="45.79247" lon="4.65758">
        <ele>482.10245</ele>
        <time>2023-10-04T08:32:58.000Z</time>
      </trkpt>
      <trkpt lat="45.79244" lon="4.65756">
        <ele>482.06412</ele>
        <time>2023-10-04T08:32:59.000Z</time>
      </trkpt>
      <trkpt lat="45.79242" lon="4.65755">
        <ele>482.02393</ele>
        <time>2023-10-04T08:33:00.000Z</time>
      </trkpt>
      <trkpt lat="45.79239" lon="4.65755">
        <ele>482.02481</ele>
        <time>2023-10-04T08:33:01.000Z</time>
      </trkpt>
      <trkpt lat="45.79236" lon="4.65754">
        <ele>482.0083</ele>
        <time>2023-10-04T08:33:02.000Z</time>
      </trkpt>
      <trkpt lat="45.79233" lon="4.65753">
        <ele>482.01837</ele>
        <time>2023-10-04T08:33:03.000Z</time>
      </trkpt>
      <trkpt lat="45.79231" lon="4.65753">
        <ele>482.04297</ele>
        <time>2023-10-04T08:33:04.000Z</time>
      </trkpt>
      <trkpt lat="45.79229" lon="4.65752">
        <ele>482.06119</ele>
        <time>2023-10-04T08:33:05.000Z</time>
      </trkpt>
      <trkpt lat="45.79226" lon="4.65752">
        <ele>482.07037</ele>
        <time>2023-10-04T08:33:06.000Z</time>
      </trkpt>
      <trkpt lat="45.79223" lon="4.65751">
        <ele>482.11884</ele>
        <time>2023-10-04T08:33:07.000Z</time>
      </trkpt>
      <trkpt lat="45.79221" lon="4.6575">
        <ele>482.19415</ele>
        <time>2023-10-04T08:33:08.000Z</time>
      </trkpt>
      <trkpt lat="45.79219" lon="4.6575">
        <ele>482.21655</ele>
        <time>2023-10-04T08:33:09.000Z</time>
      </trkpt>
      <trkpt lat="45.79217" lon="4.6575">
        <ele>482.19809</ele>
        <time>2023-10-04T08:33:10.000Z</time>
      </trkpt>
      <trkpt lat="45.79214" lon="4.65749">
        <ele>482.15543</ele>
        <time>2023-10-04T08:33:11.000Z</time>
      </trkpt>
      <trkpt lat="45.79212" lon="4.65749">
        <ele>482.11859</ele>
        <time>2023-10-04T08:33:12.000Z</time>
      </trkpt>
      <trkpt lat="45.79209" lon="4.65748">
        <ele>482.22479</ele>
        <time>2023-10-04T08:33:13.000Z</time>
      </trkpt>
      <trkpt lat="45.79207" lon="4.65747">
        <ele>482.22858</ele>
        <time>2023-10-04T08:33:14.000Z</time>
      </trkpt>
      <trkpt lat="45.79204" lon="4.65747">
        <ele>482.24579</ele>
        <time>2023-10-04T08:33:15.000Z</time>
      </trkpt>
      <trkpt lat="45.79202" lon="4.65746">
        <ele>482.49829</ele>
        <time>2023-10-04T08:33:16.000Z</time>
      </trkpt>
      <trkpt lat="45.792" lon="4.65746">
        <ele>482.65576</ele>
        <time>2023-10-04T08:33:17.000Z</time>
      </trkpt>
      <trkpt lat="45.79198" lon="4.65746">
        <ele>482.88696</ele>
        <time>2023-10-04T08:33:18.000Z</time>
      </trkpt>
      <trkpt lat="45.79195" lon="4.65747">
        <ele>483.1915</ele>
        <time>2023-10-04T08:33:19.000Z</time>
      </trkpt>
      <trkpt lat="45.79193" lon="4.65747">
        <ele>483.51236</ele>
        <time>2023-10-04T08:33:20.000Z</time>
      </trkpt>
      <trkpt lat="45.79191" lon="4.65747">
        <ele>483.89282</ele>
        <time>2023-10-04T08:33:21.000Z</time>
      </trkpt>
      <trkpt lat="45.79189" lon="4.65747">
        <ele>484.27158</ele>
        <time>2023-10-04T08:33:22.000Z</time>
      </trkpt>
      <trkpt lat="45.79187" lon="4.65747">
        <ele>484.67593</ele>
        <time>2023-10-04T08:33:23.000Z</time>
      </trkpt>
      <trkpt lat="45.79183" lon="4.65747">
        <ele>485.13446</ele>
        <time>2023-10-04T08:33:25.000Z</time>
      </trkpt>
      <trkpt lat="45.7918" lon="4.65747">
        <ele>485.53265</ele>
        <time>2023-10-04T08:33:26.000Z</time>
      </trkpt>
      <trkpt lat="45.79178" lon="4.65747">
        <ele>486.05209</ele>
        <time>2023-10-04T08:33:27.000Z</time>
      </trkpt>
      <trkpt lat="45.79176" lon="4.65747">
        <ele>486.52435</ele>
        <time>2023-10-04T08:33:28.000Z</time>
      </trkpt>
      <trkpt lat="45.79173" lon="4.65746">
        <ele>486.95728</ele>
        <time>2023-10-04T08:33:29.000Z</time>
      </trkpt>
      <trkpt lat="45.79171" lon="4.65746">
        <ele>487.49872</ele>
        <time>2023-10-04T08:33:30.000Z</time>
      </trkpt>
      <trkpt lat="45.79169" lon="4.65745">
        <ele>488.0441</ele>
        <time>2023-10-04T08:33:31.000Z</time>
      </trkpt>
      <trkpt lat="45.79166" lon="4.65744">
        <ele>488.59662</ele>
        <time>2023-10-04T08:33:32.000Z</time>
      </trkpt>
      <trkpt lat="45.79165" lon="4.65742">
        <ele>489.14194</ele>
        <time>2023-10-04T08:33:33.000Z</time>
      </trkpt>
      <trkpt lat="45.79163" lon="4.6574">
        <ele>489.54419</ele>
        <time>2023-10-04T08:33:34.000Z</time>
      </trkpt>
      <trkpt lat="45.7916" lon="4.65738">
        <ele>489.99731</ele>
        <time>2023-10-04T08:33:36.000Z</time>
      </trkpt>
      <trkpt lat="45.79159" lon="4.65736">
        <ele>490.47064</ele>
        <time>2023-10-04T08:33:38.000Z</time>
      </trkpt>
      <trkpt lat="45.79156" lon="4.65734">
        <ele>490.94818</ele>
        <time>2023-10-04T08:33:40.000Z</time>
      </trkpt>
      <trkpt lat="45.79152" lon="4.65733">
        <ele>491.47443</ele>
        <time>2023-10-04T08:33:42.000Z</time>
      </trkpt>
      <trkpt lat="45.7915" lon="4.65732">
        <ele>491.9725</ele>
        <time>2023-10-04T08:33:43.000Z</time>
      </trkpt>
      <trkpt lat="45.79147" lon="4.65732">
        <ele>492.53662</ele>
        <time>2023-10-04T08:33:44.000Z</time>
      </trkpt>
      <trkpt lat="45.79145" lon="4.65731">
        <ele>493.08398</ele>
        <time>2023-10-04T08:33:45.000Z</time>
      </trkpt>
      <trkpt lat="45.79143" lon="4.65731">
        <ele>493.59897</ele>
        <time>2023-10-04T08:33:46.000Z</time>
      </trkpt>
      <trkpt lat="45.79141" lon="4.6573">
        <ele>494.0528</ele>
        <time>2023-10-04T08:33:47.000Z</time>
      </trkpt>
      <trkpt lat="45.79138" lon="4.65728">
        <ele>494.49677</ele>
        <time>2023-10-04T08:33:49.000Z</time>
      </trkpt>
      <trkpt lat="45.79136" lon="4.65728">
        <ele>494.90253</ele>
        <time>2023-10-04T08:33:50.000Z</time>
      </trkpt>
      <trkpt lat="45.79134" lon="4.65727">
        <ele>495.3653</ele>
        <time>2023-10-04T08:33:51.000Z</time>
      </trkpt>
      <trkpt lat="45.79132" lon="4.65726">
        <ele>495.69623</ele>
        <time>2023-10-04T08:33:52.000Z</time>
      </trkpt>
      <trkpt lat="45.7913" lon="4.65726">
        <ele>496.05844</ele>
        <time>2023-10-04T08:33:53.000Z</time>
      </trkpt>
      <trkpt lat="45.79128" lon="4.65725">
        <ele>496.41904</ele>
        <time>2023-10-04T08:33:54.000Z</time>
      </trkpt>
      <trkpt lat="45.79125" lon="4.65724">
        <ele>496.72064</ele>
        <time>2023-10-04T08:33:55.000Z</time>
      </trkpt>
      <trkpt lat="45.79123" lon="4.65724">
        <ele>496.97714</ele>
        <time>2023-10-04T08:33:56.000Z</time>
      </trkpt>
      <trkpt lat="45.79121" lon="4.65725">
        <ele>497.24576</ele>
        <time>2023-10-04T08:33:57.000Z</time>
      </trkpt>
      <trkpt lat="45.79119" lon="4.65728">
        <ele>497.52057</ele>
        <time>2023-10-04T08:33:58.000Z</time>
      </trkpt>
      <trkpt lat="45.79118" lon="4.6573">
        <ele>497.77863</ele>
        <time>2023-10-04T08:33:59.000Z</time>
      </trkpt>
      <trkpt lat="45.79116" lon="4.65732">
        <ele>498.00995</ele>
        <time>2023-10-04T08:34:01.000Z</time>
      </trkpt>
      <trkpt lat="45.79114" lon="4.65733">
        <ele>498.1871</ele>
        <time>2023-10-04T08:34:06.000Z</time>
      </trkpt>
      <trkpt lat="45.79113" lon="4.6573">
        <ele>498.33139</ele>
        <time>2023-10-04T08:40:38.000Z</time>
      </trkpt>
      <trkpt lat="45.79111" lon="4.65727">
        <ele>498.44571</ele>
        <time>2023-10-04T08:40:41.000Z</time>
      </trkpt>
      <trkpt lat="45.79109" lon="4.65723">
        <ele>498.55707</ele>
        <time>2023-10-04T08:40:43.000Z</time>
      </trkpt>
      <trkpt lat="45.79108" lon="4.65721">
        <ele>498.63907</ele>
        <time>2023-10-04T08:40:44.000Z</time>
      </trkpt>
      <trkpt lat="45.79107" lon="4.65718">
        <ele>498.68304</ele>
        <time>2023-10-04T08:40:45.000Z</time>
      </trkpt>
      <trkpt lat="45.79106" lon="4.65716">
        <ele>498.71631</ele>
        <time>2023-10-04T08:40:46.000Z</time>
      </trkpt>
      <trkpt lat="45.79104" lon="4.65713">
        <ele>498.7392</ele>
        <time>2023-10-04T08:40:47.000Z</time>
      </trkpt>
      <trkpt lat="45.79103" lon="4.65712">
        <ele>498.74152</ele>
        <time>2023-10-04T08:40:48.000Z</time>
      </trkpt>
      <trkpt lat="45.79101" lon="4.6571">
        <ele>498.68286</ele>
        <time>2023-10-04T08:40:49.000Z</time>
      </trkpt>
      <trkpt lat="45.79099" lon="4.65708">
        <ele>498.62646</ele>
        <time>2023-10-04T08:40:50.000Z</time>
      </trkpt>
      <trkpt lat="45.79098" lon="4.65706">
        <ele>498.57465</ele>
        <time>2023-10-04T08:40:51.000Z</time>
      </trkpt>
      <trkpt lat="45.79096" lon="4.65704">
        <ele>498.45514</ele>
        <time>2023-10-04T08:40:52.000Z</time>
      </trkpt>
      <trkpt lat="45.79094" lon="4.65701">
        <ele>498.34344</ele>
        <time>2023-10-04T08:40:53.000Z</time>
      </trkpt>
      <trkpt lat="45.79092" lon="4.65698">
        <ele>498.26288</ele>
        <time>2023-10-04T08:40:54.000Z</time>
      </trkpt>
      <trkpt lat="45.79089" lon="4.65696">
        <ele>498.17047</ele>
        <time>2023-10-04T08:40:55.000Z</time>
      </trkpt>
      <trkpt lat="45.79087" lon="4.65694">
        <ele>498.33112</ele>
        <time>2023-10-04T08:40:56.000Z</time>
      </trkpt>
      <trkpt lat="45.79084" lon="4.65692">
        <ele>498.42285</ele>
        <time>2023-10-04T08:40:57.000Z</time>
      </trkpt>
      <trkpt lat="45.79082" lon="4.65691">
        <ele>498.52286</ele>
        <time>2023-10-04T08:40:58.000Z</time>
      </trkpt>
      <trkpt lat="45.7908" lon="4.65688">
        <ele>498.59488</ele>
        <time>2023-10-04T08:40:59.000Z</time>
      </trkpt>
      <trkpt lat="45.79078" lon="4.65685">
        <ele>498.70712</ele>
        <time>2023-10-04T08:41:00.000Z</time>
      </trkpt>
      <trkpt lat="45.79077" lon="4.65683">
        <ele>498.78595</ele>
        <time>2023-10-04T08:41:01.000Z</time>
      </trkpt>
      <trkpt lat="45.79075" lon="4.65681">
        <ele>498.88052</ele>
        <time>2023-10-04T08:41:02.000Z</time>
      </trkpt>
      <trkpt lat="45.79073" lon="4.65678">
        <ele>499.01596</ele>
        <time>2023-10-04T08:41:03.000Z</time>
      </trkpt>
      <trkpt lat="45.79071" lon="4.65675">
        <ele>499.16693</ele>
        <time>2023-10-04T08:41:04.000Z</time>
      </trkpt>
      <trkpt lat="45.79069" lon="4.65673">
        <ele>499.36743</ele>
        <time>2023-10-04T08:41:05.000Z</time>
      </trkpt>
      <trkpt lat="45.79066" lon="4.6567">
        <ele>499.59277</ele>
        <time>2023-10-04T08:41:06.000Z</time>
      </trkpt>
      <trkpt lat="45.79064" lon="4.65668">
        <ele>499.83514</ele>
        <time>2023-10-04T08:41:07.000Z</time>
      </trkpt>
      <trkpt lat="45.79061" lon="4.65666">
        <ele>500.06226</ele>
        <time>2023-10-04T08:41:08.000Z</time>
      </trkpt>
      <trkpt lat="45.79059" lon="4.65664">
        <ele>500.31046</ele>
        <time>2023-10-04T08:41:09.000Z</time>
      </trkpt>
      <trkpt lat="45.79056" lon="4.65661">
        <ele>500.54315</ele>
        <time>2023-10-04T08:41:10.000Z</time>
      </trkpt>
      <trkpt lat="45.79053" lon="4.65659">
        <ele>500.80255</ele>
        <time>2023-10-04T08:41:11.000Z</time>
      </trkpt>
      <trkpt lat="45.79051" lon="4.65657">
        <ele>501.11963</ele>
        <time>2023-10-04T08:41:12.000Z</time>
      </trkpt>
      <trkpt lat="45.79049" lon="4.65654">
        <ele>501.46323</ele>
        <time>2023-10-04T08:41:13.000Z</time>
      </trkpt>
      <trkpt lat="45.79047" lon="4.65652">
        <ele>501.81348</ele>
        <time>2023-10-04T08:41:14.000Z</time>
      </trkpt>
      <trkpt lat="45.79044" lon="4.65649">
        <ele>502.15683</ele>
        <time>2023-10-04T08:41:15.000Z</time>
      </trkpt>
      <trkpt lat="45.79042" lon="4.65646">
        <ele>502.22501</ele>
        <time>2023-10-04T08:41:16.000Z</time>
      </trkpt>
      <trkpt lat="45.7904" lon="4.65643">
        <ele>502.39975</ele>
        <time>2023-10-04T08:41:17.000Z</time>
      </trkpt>
      <trkpt lat="45.79038" lon="4.65641">
        <ele>502.58261</ele>
        <time>2023-10-04T08:41:18.000Z</time>
      </trkpt>
      <trkpt lat="45.79036" lon="4.65638">
        <ele>502.79028</ele>
        <time>2023-10-04T08:41:19.000Z</time>
      </trkpt>
      <trkpt lat="45.79034" lon="4.65635">
        <ele>503.0145</ele>
        <time>2023-10-04T08:41:20.000Z</time>
      </trkpt>
      <trkpt lat="45.79033" lon="4.65632">
        <ele>503.28326</ele>
        <time>2023-10-04T08:41:21.000Z</time>
      </trkpt>
      <trkpt lat="45.79031" lon="4.6563">
        <ele>503.52734</ele>
        <time>2023-10-04T08:41:22.000Z</time>
      </trkpt>
      <trkpt lat="45.7903" lon="4.65627">
        <ele>503.76898</ele>
        <time>2023-10-04T08:41:23.000Z</time>
      </trkpt>
      <trkpt lat="45.79028" lon="4.65625">
        <ele>504.02728</ele>
        <time>2023-10-04T08:41:24.000Z</time>
      </trkpt>
      <trkpt lat="45.79026" lon="4.65622">
        <ele>504.2562</ele>
        <time>2023-10-04T08:41:25.000Z</time>
      </trkpt>
      <trkpt lat="45.79025" lon="4.65619">
        <ele>504.47925</ele>
        <time>2023-10-04T08:41:26.000Z</time>
      </trkpt>
      <trkpt lat="45.79023" lon="4.65615">
        <ele>504.73389</ele>
        <time>2023-10-04T08:41:27.000Z</time>
      </trkpt>
      <trkpt lat="45.79021" lon="4.65612">
        <ele>504.9975</ele>
        <time>2023-10-04T08:41:28.000Z</time>
      </trkpt>
      <trkpt lat="45.7902" lon="4.65609">
        <ele>505.28726</ele>
        <time>2023-10-04T08:41:29.000Z</time>
      </trkpt>
      <trkpt lat="45.79018" lon="4.65605">
        <ele>505.60571</ele>
        <time>2023-10-04T08:41:30.000Z</time>
      </trkpt>
      <trkpt lat="45.79017" lon="4.65602">
        <ele>505.9516</ele>
        <time>2023-10-04T08:41:31.000Z</time>
      </trkpt>
      <trkpt lat="45.79015" lon="4.65598">
        <ele>506.28687</ele>
        <time>2023-10-04T08:41:32.000Z</time>
      </trkpt>
      <trkpt lat="45.79014" lon="4.65594">
        <ele>506.61035</ele>
        <time>2023-10-04T08:41:33.000Z</time>
      </trkpt>
      <trkpt lat="45.79013" lon="4.6559">
        <ele>506.90649</ele>
        <time>2023-10-04T08:41:34.000Z</time>
      </trkpt>
      <trkpt lat="45.79013" lon="4.65586">
        <ele>507.22845</ele>
        <time>2023-10-04T08:41:35.000Z</time>
      </trkpt>
      <trkpt lat="45.79012" lon="4.65582">
        <ele>507.57062</ele>
        <time>2023-10-04T08:41:36.000Z</time>
      </trkpt>
      <trkpt lat="45.79012" lon="4.65578">
        <ele>507.87207</ele>
        <time>2023-10-04T08:41:37.000Z</time>
      </trkpt>
      <trkpt lat="45.79011" lon="4.65575">
        <ele>508.14337</ele>
        <time>2023-10-04T08:41:38.000Z</time>
      </trkpt>
      <trkpt lat="45.79011" lon="4.65571">
        <ele>508.43188</ele>
        <time>2023-10-04T08:41:39.000Z</time>
      </trkpt>
      <trkpt lat="45.7901" lon="4.65568">
        <ele>508.68744</ele>
        <time>2023-10-04T08:41:40.000Z</time>
      </trkpt>
      <trkpt lat="45.79009" lon="4.65564">
        <ele>508.91022</ele>
        <time>2023-10-04T08:41:41.000Z</time>
      </trkpt>
      <trkpt lat="45.79009" lon="4.6556">
        <ele>509.16846</ele>
        <time>2023-10-04T08:41:42.000Z</time>
      </trkpt>
      <trkpt lat="45.79008" lon="4.65556">
        <ele>509.39655</ele>
        <time>2023-10-04T08:41:43.000Z</time>
      </trkpt>
      <trkpt lat="45.79008" lon="4.65553">
        <ele>509.57935</ele>
        <time>2023-10-04T08:41:44.000Z</time>
      </trkpt>
      <trkpt lat="45.79007" lon="4.65549">
        <ele>509.74005</ele>
        <time>2023-10-04T08:41:45.000Z</time>
      </trkpt>
      <trkpt lat="45.79006" lon="4.65546">
        <ele>509.86807</ele>
        <time>2023-10-04T08:41:46.000Z</time>
      </trkpt>
      <trkpt lat="45.79005" lon="4.65543">
        <ele>509.97357</ele>
        <time>2023-10-04T08:41:47.000Z</time>
      </trkpt>
      <trkpt lat="45.79004" lon="4.65539">
        <ele>510.08212</ele>
        <time>2023-10-04T08:41:48.000Z</time>
      </trkpt>
      <trkpt lat="45.79003" lon="4.65535">
        <ele>510.17032</ele>
        <time>2023-10-04T08:41:49.000Z</time>
      </trkpt>
      <trkpt lat="45.79001" lon="4.65532">
        <ele>510.23935</ele>
        <time>2023-10-04T08:41:50.000Z</time>
      </trkpt>
      <trkpt lat="45.79" lon="4.65529">
        <ele>510.29999</ele>
        <time>2023-10-04T08:41:51.000Z</time>
      </trkpt>
      <trkpt lat="45.79" lon="4.65526">
        <ele>510.34659</ele>
        <time>2023-10-04T08:41:52.000Z</time>
      </trkpt>
      <trkpt lat="45.78998" lon="4.65522">
        <ele>510.46344</ele>
        <time>2023-10-04T08:41:53.000Z</time>
      </trkpt>
      <trkpt lat="45.78997" lon="4.65518">
        <ele>510.62238</ele>
        <time>2023-10-04T08:41:54.000Z</time>
      </trkpt>
      <trkpt lat="45.78997" lon="4.65514">
        <ele>510.74249</ele>
        <time>2023-10-04T08:41:55.000Z</time>
      </trkpt>
      <trkpt lat="45.78996" lon="4.6551">
        <ele>510.83942</ele>
        <time>2023-10-04T08:41:56.000Z</time>
      </trkpt>
      <trkpt lat="45.78995" lon="4.65507">
        <ele>510.96515</ele>
        <time>2023-10-04T08:41:57.000Z</time>
      </trkpt>
      <trkpt lat="45.78993" lon="4.65504">
        <ele>511.14243</ele>
        <time>2023-10-04T08:41:58.000Z</time>
      </trkpt>
      <trkpt lat="45.78992" lon="4.655">
        <ele>511.33389</ele>
        <time>2023-10-04T08:41:59.000Z</time>
      </trkpt>
      <trkpt lat="45.78992" lon="4.65496">
        <ele>511.55801</ele>
        <time>2023-10-04T08:42:00.000Z</time>
      </trkpt>
      <trkpt lat="45.78991" lon="4.65493">
        <ele>511.784</ele>
        <time>2023-10-04T08:42:01.000Z</time>
      </trkpt>
      <trkpt lat="45.78991" lon="4.65489">
        <ele>511.98456</ele>
        <time>2023-10-04T08:42:02.000Z</time>
      </trkpt>
      <trkpt lat="45.7899" lon="4.65486">
        <ele>512.2005</ele>
        <time>2023-10-04T08:42:03.000Z</time>
      </trkpt>
      <trkpt lat="45.7899" lon="4.65481">
        <ele>512.41791</ele>
        <time>2023-10-04T08:42:05.000Z</time>
      </trkpt>
      <trkpt lat="45.78989" lon="4.65476">
        <ele>512.60797</ele>
        <time>2023-10-04T08:42:07.000Z</time>
      </trkpt>
      <trkpt lat="45.7899" lon="4.65472">
        <ele>512.83997</ele>
        <time>2023-10-04T08:42:09.000Z</time>
      </trkpt>
      <trkpt lat="45.78989" lon="4.65468">
        <ele>513.10486</ele>
        <time>2023-10-04T08:42:11.000Z</time>
      </trkpt>
      <trkpt lat="45.78988" lon="4.65463">
        <ele>513.41571</ele>
        <time>2023-10-04T08:42:13.000Z</time>
      </trkpt>
      <trkpt lat="45.78987" lon="4.65461">
        <ele>513.77838</ele>
        <time>2023-10-04T08:42:15.000Z</time>
      </trkpt>
      <trkpt lat="45.78986" lon="4.65457">
        <ele>514.13806</ele>
        <time>2023-10-04T08:42:18.000Z</time>
      </trkpt>
      <trkpt lat="45.78985" lon="4.65454">
        <ele>514.33942</ele>
        <time>2023-10-04T08:42:22.000Z</time>
      </trkpt>
      <trkpt lat="45.78984" lon="4.6545">
        <ele>514.59454</ele>
        <time>2023-10-04T08:42:24.000Z</time>
      </trkpt>
      <trkpt lat="45.78984" lon="4.65447">
        <ele>514.77991</ele>
        <time>2023-10-04T08:42:25.000Z</time>
      </trkpt>
      <trkpt lat="45.78984" lon="4.65445">
        <ele>514.92773</ele>
        <time>2023-10-04T08:42:26.000Z</time>
      </trkpt>
      <trkpt lat="45.78984" lon="4.6544">
        <ele>515.11383</ele>
        <time>2023-10-04T08:42:28.000Z</time>
      </trkpt>
      <trkpt lat="45.78984" lon="4.65437">
        <ele>515.2793</ele>
        <time>2023-10-04T08:42:29.000Z</time>
      </trkpt>
      <trkpt lat="45.78985" lon="4.65434">
        <ele>515.42053</ele>
        <time>2023-10-04T08:42:31.000Z</time>
      </trkpt>
      <trkpt lat="45.78986" lon="4.65429">
        <ele>515.4704</ele>
        <time>2023-10-04T08:42:33.000Z</time>
      </trkpt>
      <trkpt lat="45.78987" lon="4.65426">
        <ele>515.63068</ele>
        <time>2023-10-04T08:42:34.000Z</time>
      </trkpt>
      <trkpt lat="45.78987" lon="4.65423">
        <ele>515.7254</ele>
        <time>2023-10-04T08:42:35.000Z</time>
      </trkpt>
      <trkpt lat="45.78987" lon="4.65419">
        <ele>515.78845</ele>
        <time>2023-10-04T08:42:36.000Z</time>
      </trkpt>
      <trkpt lat="45.78987" lon="4.65416">
        <ele>515.8891</ele>
        <time>2023-10-04T08:42:37.000Z</time>
      </trkpt>
      <trkpt lat="45.78987" lon="4.65414">
        <ele>516.01331</ele>
        <time>2023-10-04T08:42:38.000Z</time>
      </trkpt>
      <trkpt lat="45.78987" lon="4.65411">
        <ele>516.16266</ele>
        <time>2023-10-04T08:42:39.000Z</time>
      </trkpt>
      <trkpt lat="45.78987" lon="4.65408">
        <ele>516.35651</ele>
        <time>2023-10-04T08:42:40.000Z</time>
      </trkpt>
      <trkpt lat="45.78986" lon="4.65406">
        <ele>516.49609</ele>
        <time>2023-10-04T08:42:41.000Z</time>
      </trkpt>
      <trkpt lat="45.78985" lon="4.65403">
        <ele>516.54095</ele>
        <time>2023-10-04T08:42:42.000Z</time>
      </trkpt>
      <trkpt lat="45.78984" lon="4.654">
        <ele>516.56818</ele>
        <time>2023-10-04T08:42:43.000Z</time>
      </trkpt>
      <trkpt lat="45.78982" lon="4.65398">
        <ele>516.68854</ele>
        <time>2023-10-04T08:42:44.000Z</time>
      </trkpt>
      <trkpt lat="45.78981" lon="4.65395">
        <ele>516.73199</ele>
        <time>2023-10-04T08:42:45.000Z</time>
      </trkpt>
      <trkpt lat="45.7898" lon="4.65393">
        <ele>516.89972</ele>
        <time>2023-10-04T08:42:46.000Z</time>
      </trkpt>
      <trkpt lat="45.78978" lon="4.65388">
        <ele>517.07776</ele>
        <time>2023-10-04T08:42:48.000Z</time>
      </trkpt>
      <trkpt lat="45.78977" lon="4.65385">
        <ele>517.26624</ele>
        <time>2023-10-04T08:42:49.000Z</time>
      </trkpt>
      <trkpt lat="45.78977" lon="4.65381">
        <ele>517.42114</ele>
        <time>2023-10-04T08:42:50.000Z</time>
      </trkpt>
      <trkpt lat="45.78977" lon="4.65378">
        <ele>517.53864</ele>
        <time>2023-10-04T08:42:51.000Z</time>
      </trkpt>
      <trkpt lat="45.78975" lon="4.65374">
        <ele>517.7002</ele>
        <time>2023-10-04T08:42:53.000Z</time>
      </trkpt>
      <trkpt lat="45.78974" lon="4.65371">
        <ele>517.83362</ele>
        <time>2023-10-04T08:42:54.000Z</time>
      </trkpt>
      <trkpt lat="45.78973" lon="4.65368">
        <ele>518.02844</ele>
        <time>2023-10-04T08:42:55.000Z</time>
      </trkpt>
      <trkpt lat="45.78971" lon="4.65366">
        <ele>518.12695</ele>
        <time>2023-10-04T08:42:56.000Z</time>
      </trkpt>
      <trkpt lat="45.7897" lon="4.65363">
        <ele>518.28217</ele>
        <time>2023-10-04T08:42:57.000Z</time>
      </trkpt>
      <trkpt lat="45.78969" lon="4.65358">
        <ele>518.49304</ele>
        <time>2023-10-04T08:42:59.000Z</time>
      </trkpt>
      <trkpt lat="45.78969" lon="4.65355">
        <ele>518.66376</ele>
        <time>2023-10-04T08:43:00.000Z</time>
      </trkpt>
      <trkpt lat="45.78967" lon="4.65351">
        <ele>518.81677</ele>
        <time>2023-10-04T08:43:02.000Z</time>
      </trkpt>
      <trkpt lat="45.78965" lon="4.65348">
        <ele>518.95508</ele>
        <time>2023-10-04T08:43:03.000Z</time>
      </trkpt>
      <trkpt lat="45.78964" lon="4.65345">
        <ele>519.07098</ele>
        <time>2023-10-04T08:43:04.000Z</time>
      </trkpt>
      <trkpt lat="45.78963" lon="4.65342">
        <ele>519.36707</ele>
        <time>2023-10-04T08:43:05.000Z</time>
      </trkpt>
      <trkpt lat="45.78962" lon="4.6534">
        <ele>519.65515</ele>
        <time>2023-10-04T08:43:06.000Z</time>
      </trkpt>
      <trkpt lat="45.78961" lon="4.65337">
        <ele>519.91766</ele>
        <time>2023-10-04T08:43:07.000Z</time>
      </trkpt>
      <trkpt lat="45.7896" lon="4.65334">
        <ele>520.04675</ele>
        <time>2023-10-04T08:43:08.000Z</time>
      </trkpt>
      <trkpt lat="45.7896" lon="4.65331">
        <ele>520.22034</ele>
        <time>2023-10-04T08:43:09.000Z</time>
      </trkpt>
      <trkpt lat="45.78958" lon="4.65328">
        <ele>520.38599</ele>
        <time>2023-10-04T08:43:10.000Z</time>
      </trkpt>
      <trkpt lat="45.78957" lon="4.65325">
        <ele>520.5033</ele>
        <time>2023-10-04T08:43:11.000Z</time>
      </trkpt>
      <trkpt lat="45.78956" lon="4.65323">
        <ele>520.60925</ele>
        <time>2023-10-04T08:43:12.000Z</time>
      </trkpt>
      <trkpt lat="45.78954" lon="4.6532">
        <ele>520.78406</ele>
        <time>2023-10-04T08:43:13.000Z</time>
      </trkpt>
      <trkpt lat="45.78952" lon="4.65318">
        <ele>520.97559</ele>
        <time>2023-10-04T08:43:14.000Z</time>
      </trkpt>
      <trkpt lat="45.78951" lon="4.65315">
        <ele>521.18909</ele>
        <time>2023-10-04T08:43:15.000Z</time>
      </trkpt>
      <trkpt lat="45.7895" lon="4.65312">
        <ele>521.28198</ele>
        <time>2023-10-04T08:43:16.000Z</time>
      </trkpt>
      <trkpt lat="45.78949" lon="4.6531">
        <ele>521.52136</ele>
        <time>2023-10-04T08:43:17.000Z</time>
      </trkpt>
      <trkpt lat="45.78948" lon="4.65307">
        <ele>521.70465</ele>
        <time>2023-10-04T08:43:18.000Z</time>
      </trkpt>
      <trkpt lat="45.78947" lon="4.65305">
        <ele>521.81897</ele>
        <time>2023-10-04T08:43:19.000Z</time>
      </trkpt>
      <trkpt lat="45.78947" lon="4.65302">
        <ele>521.9093</ele>
        <time>2023-10-04T08:43:20.000Z</time>
      </trkpt>
      <trkpt lat="45.78946" lon="4.65299">
        <ele>522.14026</ele>
        <time>2023-10-04T08:43:21.000Z</time>
      </trkpt>
      <trkpt lat="45.78945" lon="4.65295">
        <ele>522.28497</ele>
        <time>2023-10-04T08:43:22.000Z</time>
      </trkpt>
      <trkpt lat="45.78944" lon="4.65291">
        <ele>522.38611</ele>
        <time>2023-10-04T08:43:23.000Z</time>
      </trkpt>
      <trkpt lat="45.78942" lon="4.65287">
        <ele>522.48407</ele>
        <time>2023-10-04T08:43:24.000Z</time>
      </trkpt>
      <trkpt lat="45.78941" lon="4.65284">
        <ele>522.48071</ele>
        <time>2023-10-04T08:43:25.000Z</time>
      </trkpt>
      <trkpt lat="45.78939" lon="4.65281">
        <ele>522.53839</ele>
        <time>2023-10-04T08:43:26.000Z</time>
      </trkpt>
      <trkpt lat="45.78938" lon="4.65278">
        <ele>522.62292</ele>
        <time>2023-10-04T08:43:27.000Z</time>
      </trkpt>
      <trkpt lat="45.78936" lon="4.65275">
        <ele>522.67731</ele>
        <time>2023-10-04T08:43:28.000Z</time>
      </trkpt>
      <trkpt lat="45.78934" lon="4.65271">
        <ele>522.77826</ele>
        <time>2023-10-04T08:43:29.000Z</time>
      </trkpt>
      <trkpt lat="45.78932" lon="4.65267">
        <ele>522.91205</ele>
        <time>2023-10-04T08:43:30.000Z</time>
      </trkpt>
      <trkpt lat="45.78931" lon="4.65263">
        <ele>523.08612</ele>
        <time>2023-10-04T08:43:31.000Z</time>
      </trkpt>
      <trkpt lat="45.78929" lon="4.65259">
        <ele>523.24622</ele>
        <time>2023-10-04T08:43:32.000Z</time>
      </trkpt>
      <trkpt lat="45.78927" lon="4.65255">
        <ele>523.37244</ele>
        <time>2023-10-04T08:43:33.000Z</time>
      </trkpt>
      <trkpt lat="45.78925" lon="4.65251">
        <ele>523.46796</ele>
        <time>2023-10-04T08:43:34.000Z</time>
      </trkpt>
      <trkpt lat="45.78922" lon="4.65246">
        <ele>523.71954</ele>
        <time>2023-10-04T08:43:35.000Z</time>
      </trkpt>
      <trkpt lat="45.7892" lon="4.65243">
        <ele>524.06818</ele>
        <time>2023-10-04T08:43:36.000Z</time>
      </trkpt>
      <trkpt lat="45.78918" lon="4.65239">
        <ele>524.35297</ele>
        <time>2023-10-04T08:43:37.000Z</time>
      </trkpt>
      <trkpt lat="45.78917" lon="4.65235">
        <ele>524.64905</ele>
        <time>2023-10-04T08:43:38.000Z</time>
      </trkpt>
      <trkpt lat="45.78915" lon="4.65232">
        <ele>524.99475</ele>
        <time>2023-10-04T08:43:39.000Z</time>
      </trkpt>
      <trkpt lat="45.78914" lon="4.65228">
        <ele>525.3335</ele>
        <time>2023-10-04T08:43:40.000Z</time>
      </trkpt>
      <trkpt lat="45.78912" lon="4.65225">
        <ele>525.53937</ele>
        <time>2023-10-04T08:43:41.000Z</time>
      </trkpt>
      <trkpt lat="45.7891" lon="4.65221">
        <ele>525.80768</ele>
        <time>2023-10-04T08:43:42.000Z</time>
      </trkpt>
      <trkpt lat="45.78907" lon="4.65217">
        <ele>526.13538</ele>
        <time>2023-10-04T08:43:43.000Z</time>
      </trkpt>
      <trkpt lat="45.78905" lon="4.65214">
        <ele>526.59045</ele>
        <time>2023-10-04T08:43:44.000Z</time>
      </trkpt>
      <trkpt lat="45.78903" lon="4.65211">
        <ele>526.97186</ele>
        <time>2023-10-04T08:43:45.000Z</time>
      </trkpt>
      <trkpt lat="45.789" lon="4.65208">
        <ele>527.38019</ele>
        <time>2023-10-04T08:43:46.000Z</time>
      </trkpt>
      <trkpt lat="45.78897" lon="4.65205">
        <ele>527.90436</ele>
        <time>2023-10-04T08:43:47.000Z</time>
      </trkpt>
      <trkpt lat="45.78894" lon="4.65203">
        <ele>528.42157</ele>
        <time>2023-10-04T08:43:48.000Z</time>
      </trkpt>
      <trkpt lat="45.78891" lon="4.65201">
        <ele>528.9342</ele>
        <time>2023-10-04T08:43:49.000Z</time>
      </trkpt>
      <trkpt lat="45.78889" lon="4.652">
        <ele>529.4458</ele>
        <time>2023-10-04T08:43:50.000Z</time>
      </trkpt>
      <trkpt lat="45.78886" lon="4.65198">
        <ele>529.91248</ele>
        <time>2023-10-04T08:43:51.000Z</time>
      </trkpt>
      <trkpt lat="45.78884" lon="4.65196">
        <ele>530.37476</ele>
        <time>2023-10-04T08:43:52.000Z</time>
      </trkpt>
      <trkpt lat="45.78882" lon="4.65194">
        <ele>530.83997</ele>
        <time>2023-10-04T08:43:53.000Z</time>
      </trkpt>
      <trkpt lat="45.7888" lon="4.65192">
        <ele>531.37213</ele>
        <time>2023-10-04T08:43:54.000Z</time>
      </trkpt>
      <trkpt lat="45.78879" lon="4.6519">
        <ele>531.67719</ele>
        <time>2023-10-04T08:43:55.000Z</time>
      </trkpt>
      <trkpt lat="45.78877" lon="4.65188">
        <ele>532.05139</ele>
        <time>2023-10-04T08:43:56.000Z</time>
      </trkpt>
      <trkpt lat="45.78875" lon="4.65186">
        <ele>532.32849</ele>
        <time>2023-10-04T08:43:57.000Z</time>
      </trkpt>
      <trkpt lat="45.78873" lon="4.65185">
        <ele>532.69073</ele>
        <time>2023-10-04T08:43:58.000Z</time>
      </trkpt>
      <trkpt lat="45.7887" lon="4.65184">
        <ele>533.05298</ele>
        <time>2023-10-04T08:43:59.000Z</time>
      </trkpt>
      <trkpt lat="45.78868" lon="4.65182">
        <ele>533.45679</ele>
        <time>2023-10-04T08:44:00.000Z</time>
      </trkpt>
      <trkpt lat="45.78866" lon="4.65181">
        <ele>533.84369</ele>
        <time>2023-10-04T08:44:01.000Z</time>
      </trkpt>
      <trkpt lat="45.78863" lon="4.6518">
        <ele>534.21216</ele>
        <time>2023-10-04T08:44:02.000Z</time>
      </trkpt>
      <trkpt lat="45.78861" lon="4.65178">
        <ele>534.60394</ele>
        <time>2023-10-04T08:44:03.000Z</time>
      </trkpt>
      <trkpt lat="45.78859" lon="4.65177">
        <ele>534.89417</ele>
        <time>2023-10-04T08:44:04.000Z</time>
      </trkpt>
      <trkpt lat="45.78858" lon="4.65176">
        <ele>535.19763</ele>
        <time>2023-10-04T08:44:05.000Z</time>
      </trkpt>
      <trkpt lat="45.78854" lon="4.65175">
        <ele>535.51788</ele>
        <time>2023-10-04T08:44:07.000Z</time>
      </trkpt>
      <trkpt lat="45.78852" lon="4.65174">
        <ele>535.74835</ele>
        <time>2023-10-04T08:44:08.000Z</time>
      </trkpt>
      <trkpt lat="45.7885" lon="4.65173">
        <ele>535.96606</ele>
        <time>2023-10-04T08:44:09.000Z</time>
      </trkpt>
      <trkpt lat="45.78848" lon="4.65172">
        <ele>536.17151</ele>
        <time>2023-10-04T08:44:10.000Z</time>
      </trkpt>
      <trkpt lat="45.78846" lon="4.65171">
        <ele>536.36285</ele>
        <time>2023-10-04T08:44:11.000Z</time>
      </trkpt>
      <trkpt lat="45.78845" lon="4.65169">
        <ele>536.53619</ele>
        <time>2023-10-04T08:44:12.000Z</time>
      </trkpt>
      <trkpt lat="45.78843" lon="4.65167">
        <ele>536.69586</ele>
        <time>2023-10-04T08:44:13.000Z</time>
      </trkpt>
      <trkpt lat="45.78841" lon="4.65166">
        <ele>536.96667</ele>
        <time>2023-10-04T08:44:14.000Z</time>
      </trkpt>
      <trkpt lat="45.78838" lon="4.65165">
        <ele>537.20459</ele>
        <time>2023-10-04T08:44:15.000Z</time>
      </trkpt>
      <trkpt lat="45.78836" lon="4.65165">
        <ele>537.51544</ele>
        <time>2023-10-04T08:44:16.000Z</time>
      </trkpt>
      <trkpt lat="45.78834" lon="4.65164">
        <ele>537.81372</ele>
        <time>2023-10-04T08:44:17.000Z</time>
      </trkpt>
      <trkpt lat="45.78832" lon="4.65164">
        <ele>538.13696</ele>
        <time>2023-10-04T08:44:18.000Z</time>
      </trkpt>
      <trkpt lat="45.7883" lon="4.65161">
        <ele>538.39154</ele>
        <time>2023-10-04T08:44:20.000Z</time>
      </trkpt>
      <trkpt lat="45.78828" lon="4.65157">
        <ele>538.81573</ele>
        <time>2023-10-04T08:44:22.000Z</time>
      </trkpt>
      <trkpt lat="45.78826" lon="4.65154">
        <ele>539.2298</ele>
        <time>2023-10-04T08:44:24.000Z</time>
      </trkpt>
      <trkpt lat="45.78826" lon="4.6515">
        <ele>538.76257</ele>
        <time>2023-10-04T08:44:26.000Z</time>
      </trkpt>
      <trkpt lat="45.78826" lon="4.65148">
        <ele>538.37982</ele>
        <time>2023-10-04T08:44:35.000Z</time>
      </trkpt>
      <trkpt lat="45.78825" lon="4.65145">
        <ele>538.05994</ele>
        <time>2023-10-04T08:44:39.000Z</time>
      </trkpt>
      <trkpt lat="45.78823" lon="4.65143">
        <ele>538.00531</ele>
        <time>2023-10-04T08:44:44.000Z</time>
      </trkpt>
      <trkpt lat="45.78822" lon="4.65142">
        <ele>537.92029</ele>
        <time>2023-10-04T08:44:53.000Z</time>
      </trkpt>
      <trkpt lat="45.7882" lon="4.65139">
        <ele>537.76398</ele>
        <time>2023-10-04T08:44:55.000Z</time>
      </trkpt>
      <trkpt lat="45.78818" lon="4.65137">
        <ele>537.79614</ele>
        <time>2023-10-04T08:44:56.000Z</time>
      </trkpt>
      <trkpt lat="45.78817" lon="4.65136">
        <ele>537.85236</ele>
        <time>2023-10-04T08:44:57.000Z</time>
      </trkpt>
      <trkpt lat="45.78815" lon="4.65134">
        <ele>537.92578</ele>
        <time>2023-10-04T08:44:58.000Z</time>
      </trkpt>
      <trkpt lat="45.78813" lon="4.65133">
        <ele>538.047</ele>
        <time>2023-10-04T08:44:59.000Z</time>
      </trkpt>
      <trkpt lat="45.78812" lon="4.6513">
        <ele>538.11365</ele>
        <time>2023-10-04T08:45:00.000Z</time>
      </trkpt>
      <trkpt lat="45.7881" lon="4.65127">
        <ele>538.16223</ele>
        <time>2023-10-04T08:45:02.000Z</time>
      </trkpt>
      <trkpt lat="45.78808" lon="4.65123">
        <ele>538.21527</ele>
        <time>2023-10-04T08:45:04.000Z</time>
      </trkpt>
      <trkpt lat="45.78806" lon="4.65119">
        <ele>538.22217</ele>
        <time>2023-10-04T08:45:06.000Z</time>
      </trkpt>
      <trkpt lat="45.78804" lon="4.65117">
        <ele>538.20935</ele>
        <time>2023-10-04T08:45:07.000Z</time>
      </trkpt>
      <trkpt lat="45.78803" lon="4.65114">
        <ele>538.2124</ele>
        <time>2023-10-04T08:45:08.000Z</time>
      </trkpt>
      <trkpt lat="45.78802" lon="4.65112">
        <ele>538.19568</ele>
        <time>2023-10-04T08:45:09.000Z</time>
      </trkpt>
      <trkpt lat="45.78801" lon="4.65109">
        <ele>538.1947</ele>
        <time>2023-10-04T08:45:10.000Z</time>
      </trkpt>
      <trkpt lat="45.788" lon="4.65105">
        <ele>537.89093</ele>
        <time>2023-10-04T08:45:12.000Z</time>
      </trkpt>
      <trkpt lat="45.78799" lon="4.65103">
        <ele>537.56366</ele>
        <time>2023-10-04T08:45:13.000Z</time>
      </trkpt>
      <trkpt lat="45.78798" lon="4.651">
        <ele>538.15515</ele>
        <time>2023-10-04T08:45:14.000Z</time>
      </trkpt>
      <trkpt lat="45.78796" lon="4.65096">
        <ele>538.64984</ele>
        <time>2023-10-04T08:45:16.000Z</time>
      </trkpt>
      <trkpt lat="45.78797" lon="4.65099">
        <ele>539.05408</ele>
        <time>2023-10-04T08:45:18.000Z</time>
      </trkpt>
      <trkpt lat="45.78796" lon="4.65096">
        <ele>539.58185</ele>
        <time>2023-10-04T08:45:25.000Z</time>
      </trkpt>
      <trkpt lat="45.78795" lon="4.65094">
        <ele>540.07751</ele>
        <time>2023-10-04T08:45:28.000Z</time>
      </trkpt>
      <trkpt lat="45.78793" lon="4.65092">
        <ele>540.57733</ele>
        <time>2023-10-04T08:45:33.000Z</time>
      </trkpt>
      <trkpt lat="45.78792" lon="4.65089">
        <ele>540.76794</ele>
        <time>2023-10-04T08:45:35.000Z</time>
      </trkpt>
      <trkpt lat="45.7879" lon="4.65085">
        <ele>540.88184</ele>
        <time>2023-10-04T08:45:37.000Z</time>
      </trkpt>
      <trkpt lat="45.78789" lon="4.6508">
        <ele>540.8891</ele>
        <time>2023-10-04T08:45:39.000Z</time>
      </trkpt>
      <trkpt lat="45.78786" lon="4.65076">
        <ele>540.70966</ele>
        <time>2023-10-04T08:45:41.000Z</time>
      </trkpt>
      <trkpt lat="45.78784" lon="4.65073">
        <ele>540.48535</ele>
        <time>2023-10-04T08:45:43.000Z</time>
      </trkpt>
      <trkpt lat="45.78783" lon="4.65071">
        <ele>540.38617</ele>
        <time>2023-10-04T08:45:44.000Z</time>
      </trkpt>
      <trkpt lat="45.78782" lon="4.65069">
        <ele>540.23492</ele>
        <time>2023-10-04T08:45:45.000Z</time>
      </trkpt>
      <trkpt lat="45.7878" lon="4.65067">
        <ele>540.55603</ele>
        <time>2023-10-04T08:45:46.000Z</time>
      </trkpt>
      <trkpt lat="45.78779" lon="4.65064">
        <ele>540.7674</ele>
        <time>2023-10-04T08:45:47.000Z</time>
      </trkpt>
      <trkpt lat="45.78778" lon="4.65062">
        <ele>540.97931</ele>
        <time>2023-10-04T08:45:48.000Z</time>
      </trkpt>
      <trkpt lat="45.78775" lon="4.6506">
        <ele>541.27197</ele>
        <time>2023-10-04T08:45:50.000Z</time>
      </trkpt>
      <trkpt lat="45.78773" lon="4.65058">
        <ele>541.45709</ele>
        <time>2023-10-04T08:45:51.000Z</time>
      </trkpt>
      <trkpt lat="45.78772" lon="4.65057">
        <ele>541.79138</ele>
        <time>2023-10-04T08:45:52.000Z</time>
      </trkpt>
      <trkpt lat="45.7877" lon="4.65055">
        <ele>541.89563</ele>
        <time>2023-10-04T08:45:53.000Z</time>
      </trkpt>
      <trkpt lat="45.78768" lon="4.65053">
        <ele>542.0036</ele>
        <time>2023-10-04T08:45:54.000Z</time>
      </trkpt>
      <trkpt lat="45.78765" lon="4.65051">
        <ele>542.05658</ele>
        <time>2023-10-04T08:45:55.000Z</time>
      </trkpt>
      <trkpt lat="45.78764" lon="4.65049">
        <ele>542.52039</ele>
        <time>2023-10-04T08:45:56.000Z</time>
      </trkpt>
      <trkpt lat="45.78761" lon="4.65046">
        <ele>542.54828</ele>
        <time>2023-10-04T08:45:58.000Z</time>
      </trkpt>
      <trkpt lat="45.78758" lon="4.65044">
        <ele>542.83331</ele>
        <time>2023-10-04T08:46:00.000Z</time>
      </trkpt>
      <trkpt lat="45.78756" lon="4.65043">
        <ele>542.87616</ele>
        <time>2023-10-04T08:46:01.000Z</time>
      </trkpt>
      <trkpt lat="45.78754" lon="4.65042">
        <ele>542.99475</ele>
        <time>2023-10-04T08:46:02.000Z</time>
      </trkpt>
      <trkpt lat="45.78751" lon="4.65041">
        <ele>543.2074</ele>
        <time>2023-10-04T08:46:03.000Z</time>
      </trkpt>
      <trkpt lat="45.78748" lon="4.65039">
        <ele>543.45099</ele>
        <time>2023-10-04T08:46:05.000Z</time>
      </trkpt>
      <trkpt lat="45.78747" lon="4.65037">
        <ele>543.81152</ele>
        <time>2023-10-04T08:46:06.000Z</time>
      </trkpt>
      <trkpt lat="45.78745" lon="4.65035">
        <ele>544.41821</ele>
        <time>2023-10-04T08:46:07.000Z</time>
      </trkpt>
      <trkpt lat="45.78743" lon="4.65034">
        <ele>544.98224</ele>
        <time>2023-10-04T08:46:08.000Z</time>
      </trkpt>
      <trkpt lat="45.78741" lon="4.65032">
        <ele>545.50464</ele>
        <time>2023-10-04T08:46:09.000Z</time>
      </trkpt>
      <trkpt lat="45.78739" lon="4.65031">
        <ele>545.63367</ele>
        <time>2023-10-04T08:46:10.000Z</time>
      </trkpt>
      <trkpt lat="45.78737" lon="4.65031">
        <ele>545.92554</ele>
        <time>2023-10-04T08:46:11.000Z</time>
      </trkpt>
      <trkpt lat="45.78735" lon="4.6503">
        <ele>546.23682</ele>
        <time>2023-10-04T08:46:13.000Z</time>
      </trkpt>
      <trkpt lat="45.78733" lon="4.65028">
        <ele>546.50891</ele>
        <time>2023-10-04T08:46:17.000Z</time>
      </trkpt>
      <trkpt lat="45.7873" lon="4.65026">
        <ele>547.31732</ele>
        <time>2023-10-04T08:46:19.000Z</time>
      </trkpt>
      <trkpt lat="45.78729" lon="4.65025">
        <ele>547.92798</ele>
        <time>2023-10-04T08:46:20.000Z</time>
      </trkpt>
      <trkpt lat="45.78725" lon="4.65023">
        <ele>549.31494</ele>
        <time>2023-10-04T08:46:22.000Z</time>
      </trkpt>
      <trkpt lat="45.78723" lon="4.65024">
        <ele>550.71289</ele>
        <time>2023-10-04T08:46:23.000Z</time>
      </trkpt>
      <trkpt lat="45.78721" lon="4.65025">
        <ele>552.21088</ele>
        <time>2023-10-04T08:46:24.000Z</time>
      </trkpt>
      <trkpt lat="45.78719" lon="4.65026">
        <ele>553.28876</ele>
        <time>2023-10-04T08:46:25.000Z</time>
      </trkpt>
      <trkpt lat="45.78717" lon="4.65027">
        <ele>554.41418</ele>
        <time>2023-10-04T08:46:26.000Z</time>
      </trkpt>
      <trkpt lat="45.78715" lon="4.65028">
        <ele>555.37274</ele>
        <time>2023-10-04T08:46:27.000Z</time>
      </trkpt>
      <trkpt lat="45.78713" lon="4.65029">
        <ele>556.55817</ele>
        <time>2023-10-04T08:46:28.000Z</time>
      </trkpt>
      <trkpt lat="45.78711" lon="4.65029">
        <ele>557.00781</ele>
        <time>2023-10-04T08:46:29.000Z</time>
      </trkpt>
      <trkpt lat="45.78709" lon="4.6503">
        <ele>557.41882</ele>
        <time>2023-10-04T08:46:30.000Z</time>
      </trkpt>
      <trkpt lat="45.78707" lon="4.65031">
        <ele>557.91858</ele>
        <time>2023-10-04T08:46:31.000Z</time>
      </trkpt>
      <trkpt lat="45.78704" lon="4.65031">
        <ele>558.3609</ele>
        <time>2023-10-04T08:46:33.000Z</time>
      </trkpt>
      <trkpt lat="45.78702" lon="4.65032">
        <ele>558.69208</ele>
        <time>2023-10-04T08:46:34.000Z</time>
      </trkpt>
      <trkpt lat="45.787" lon="4.65032">
        <ele>558.90417</ele>
        <time>2023-10-04T08:46:35.000Z</time>
      </trkpt>
      <trkpt lat="45.78698" lon="4.65031">
        <ele>559.11993</ele>
        <time>2023-10-04T08:46:37.000Z</time>
      </trkpt>
      <trkpt lat="45.78696" lon="4.65031">
        <ele>559.82874</ele>
        <time>2023-10-04T08:49:28.000Z</time>
      </trkpt>
      <trkpt lat="45.78692" lon="4.65031">
        <ele>560.34943</ele>
        <time>2023-10-04T08:49:30.000Z</time>
      </trkpt>
      <trkpt lat="45.78691" lon="4.65031">
        <ele>560.78589</ele>
        <time>2023-10-04T08:49:31.000Z</time>
      </trkpt>
      <trkpt lat="45.78687" lon="4.6503">
        <ele>561.03851</ele>
        <time>2023-10-04T08:49:33.000Z</time>
      </trkpt>
      <trkpt lat="45.78684" lon="4.6503">
        <ele>560.86505</ele>
        <time>2023-10-04T08:49:34.000Z</time>
      </trkpt>
      <trkpt lat="45.78682" lon="4.65029">
        <ele>560.87793</ele>
        <time>2023-10-04T08:49:35.000Z</time>
      </trkpt>
      <trkpt lat="45.7868" lon="4.65029">
        <ele>560.43921</ele>
        <time>2023-10-04T08:49:36.000Z</time>
      </trkpt>
      <trkpt lat="45.78678" lon="4.65029">
        <ele>559.96075</ele>
        <time>2023-10-04T08:49:37.000Z</time>
      </trkpt>
      <trkpt lat="45.78675" lon="4.65028">
        <ele>559.47668</ele>
        <time>2023-10-04T08:49:38.000Z</time>
      </trkpt>
      <trkpt lat="45.78673" lon="4.65028">
        <ele>558.41351</ele>
        <time>2023-10-04T08:49:39.000Z</time>
      </trkpt>
      <trkpt lat="45.7867" lon="4.65028">
        <ele>557.42798</ele>
        <time>2023-10-04T08:49:40.000Z</time>
      </trkpt>
      <trkpt lat="45.78667" lon="4.65028">
        <ele>556.31885</ele>
        <time>2023-10-04T08:49:41.000Z</time>
      </trkpt>
      <trkpt lat="45.78663" lon="4.65028">
        <ele>555.01984</ele>
        <time>2023-10-04T08:49:42.000Z</time>
      </trkpt>
      <trkpt lat="45.78661" lon="4.65028">
        <ele>554.42548</ele>
        <time>2023-10-04T08:49:43.000Z</time>
      </trkpt>
      <trkpt lat="45.78658" lon="4.65028">
        <ele>553.84558</ele>
        <time>2023-10-04T08:49:44.000Z</time>
      </trkpt>
      <trkpt lat="45.78655" lon="4.65026">
        <ele>553.63147</ele>
        <time>2023-10-04T08:49:45.000Z</time>
      </trkpt>
      <trkpt lat="45.78652" lon="4.65027">
        <ele>553.48865</ele>
        <time>2023-10-04T08:49:46.000Z</time>
      </trkpt>
      <trkpt lat="45.78649" lon="4.65027">
        <ele>553.31311</ele>
        <time>2023-10-04T08:49:47.000Z</time>
      </trkpt>
      <trkpt lat="45.78646" lon="4.65027">
        <ele>553.20398</ele>
        <time>2023-10-04T08:49:48.000Z</time>
      </trkpt>
      <trkpt lat="45.78643" lon="4.65026">
        <ele>552.99164</ele>
        <time>2023-10-04T08:49:49.000Z</time>
      </trkpt>
      <trkpt lat="45.78639" lon="4.65027">
        <ele>552.06824</ele>
        <time>2023-10-04T08:49:50.000Z</time>
      </trkpt>
      <trkpt lat="45.78636" lon="4.65025">
        <ele>551.25098</ele>
        <time>2023-10-04T08:49:51.000Z</time>
      </trkpt>
      <trkpt lat="45.78633" lon="4.65025">
        <ele>550.55933</ele>
        <time>2023-10-04T08:49:52.000Z</time>
      </trkpt>
      <trkpt lat="45.7863" lon="4.65024">
        <ele>550.04681</ele>
        <time>2023-10-04T08:49:53.000Z</time>
      </trkpt>
      <trkpt lat="45.78627" lon="4.65024">
        <ele>549.49768</ele>
        <time>2023-10-04T08:49:54.000Z</time>
      </trkpt>
      <trkpt lat="45.78624" lon="4.65023">
        <ele>548.96582</ele>
        <time>2023-10-04T08:49:55.000Z</time>
      </trkpt>
      <trkpt lat="45.78622" lon="4.65023">
        <ele>548.33496</ele>
        <time>2023-10-04T08:49:56.000Z</time>
      </trkpt>
      <trkpt lat="45.78619" lon="4.65021">
        <ele>547.65918</ele>
        <time>2023-10-04T08:49:57.000Z</time>
      </trkpt>
      <trkpt lat="45.78616" lon="4.6502">
        <ele>546.95203</ele>
        <time>2023-10-04T08:49:58.000Z</time>
      </trkpt>
      <trkpt lat="45.78615" lon="4.65018">
        <ele>547.7851</ele>
        <time>2023-10-04T08:49:59.000Z</time>
      </trkpt>
      <trkpt lat="45.78613" lon="4.65016">
        <ele>548.55652</ele>
        <time>2023-10-04T08:50:00.000Z</time>
      </trkpt>
      <trkpt lat="45.78611" lon="4.65015">
        <ele>549.46094</ele>
        <time>2023-10-04T08:50:01.000Z</time>
      </trkpt>
      <trkpt lat="45.78609" lon="4.65013">
        <ele>550.6015</ele>
        <time>2023-10-04T08:50:02.000Z</time>
      </trkpt>
      <trkpt lat="45.78608" lon="4.65011">
        <ele>551.77124</ele>
        <time>2023-10-04T08:50:03.000Z</time>
      </trkpt>
      <trkpt lat="45.78605" lon="4.65008">
        <ele>552.87384</ele>
        <time>2023-10-04T08:50:05.000Z</time>
      </trkpt>
      <trkpt lat="45.78602" lon="4.65006">
        <ele>553.57654</ele>
        <time>2023-10-04T08:50:06.000Z</time>
      </trkpt>
      <trkpt lat="45.78601" lon="4.65004">
        <ele>554.48999</ele>
        <time>2023-10-04T08:50:07.000Z</time>
      </trkpt>
      <trkpt lat="45.78599" lon="4.65002">
        <ele>555.37683</ele>
        <time>2023-10-04T08:50:08.000Z</time>
      </trkpt>
      <trkpt lat="45.78598" lon="4.64999">
        <ele>556.27521</ele>
        <time>2023-10-04T08:50:09.000Z</time>
      </trkpt>
      <trkpt lat="45.78596" lon="4.64998">
        <ele>557.2442</ele>
        <time>2023-10-04T08:50:10.000Z</time>
      </trkpt>
      <trkpt lat="45.78594" lon="4.64995">
        <ele>558.37146</ele>
        <time>2023-10-04T08:50:11.000Z</time>
      </trkpt>
      <trkpt lat="45.78592" lon="4.64994">
        <ele>559.52161</ele>
        <time>2023-10-04T08:50:12.000Z</time>
      </trkpt>
      <trkpt lat="45.7859" lon="4.64992">
        <ele>560.60309</ele>
        <time>2023-10-04T08:50:13.000Z</time>
      </trkpt>
      <trkpt lat="45.78588" lon="4.64991">
        <ele>561.55273</ele>
        <time>2023-10-04T08:50:14.000Z</time>
      </trkpt>
      <trkpt lat="45.78584" lon="4.6499">
        <ele>562.47858</ele>
        <time>2023-10-04T08:50:15.000Z</time>
      </trkpt>
      <trkpt lat="45.78582" lon="4.6499">
        <ele>563.39441</ele>
        <time>2023-10-04T08:50:16.000Z</time>
      </trkpt>
      <trkpt lat="45.78579" lon="4.64989">
        <ele>564.33557</ele>
        <time>2023-10-04T08:50:17.000Z</time>
      </trkpt>
      <trkpt lat="45.78577" lon="4.64986">
        <ele>565.328</ele>
        <time>2023-10-04T08:50:18.000Z</time>
      </trkpt>
      <trkpt lat="45.78575" lon="4.64984">
        <ele>566.3844</ele>
        <time>2023-10-04T08:50:19.000Z</time>
      </trkpt>
      <trkpt lat="45.78573" lon="4.64982">
        <ele>566.47211</ele>
        <time>2023-10-04T08:50:20.000Z</time>
      </trkpt>
      <trkpt lat="45.78569" lon="4.64981">
        <ele>566.59784</ele>
        <time>2023-10-04T08:50:22.000Z</time>
      </trkpt>
      <trkpt lat="45.78567" lon="4.6498">
        <ele>566.67432</ele>
        <time>2023-10-04T08:50:23.000Z</time>
      </trkpt>
      <trkpt lat="45.78563" lon="4.6498">
        <ele>566.75012</ele>
        <time>2023-10-04T08:50:25.000Z</time>
      </trkpt>
      <trkpt lat="45.7856" lon="4.64981">
        <ele>566.89221</ele>
        <time>2023-10-04T08:50:26.000Z</time>
      </trkpt>
      <trkpt lat="45.78558" lon="4.64981">
        <ele>567.11627</ele>
        <time>2023-10-04T08:50:27.000Z</time>
      </trkpt>
      <trkpt lat="45.78555" lon="4.64981">
        <ele>567.23639</ele>
        <time>2023-10-04T08:50:29.000Z</time>
      </trkpt>
      <trkpt lat="45.78551" lon="4.64981">
        <ele>567.16272</ele>
        <time>2023-10-04T08:50:31.000Z</time>
      </trkpt>
      <trkpt lat="45.78549" lon="4.64982">
        <ele>567.125</ele>
        <time>2023-10-04T08:50:32.000Z</time>
      </trkpt>
      <trkpt lat="45.78547" lon="4.64984">
        <ele>558.12939</ele>
        <time>2023-10-04T08:50:33.000Z</time>
      </trkpt>
      <trkpt lat="45.78544" lon="4.64985">
        <ele>557.65344</ele>
        <time>2023-10-04T08:50:34.000Z</time>
      </trkpt>
      <trkpt lat="45.78542" lon="4.64987">
        <ele>557.18658</ele>
        <time>2023-10-04T08:50:35.000Z</time>
      </trkpt>
      <trkpt lat="45.78539" lon="4.64988">
        <ele>556.67883</ele>
        <time>2023-10-04T08:50:36.000Z</time>
      </trkpt>
      <trkpt lat="45.78537" lon="4.64989">
        <ele>556.12762</ele>
        <time>2023-10-04T08:50:37.000Z</time>
      </trkpt>
      <trkpt lat="45.78535" lon="4.6499">
        <ele>555.64148</ele>
        <time>2023-10-04T08:50:38.000Z</time>
      </trkpt>
      <trkpt lat="45.78532" lon="4.64992">
        <ele>547.08118</ele>
        <time>2023-10-04T08:50:39.000Z</time>
      </trkpt>
      <trkpt lat="45.7853" lon="4.64994">
        <ele>546.15405</ele>
        <time>2023-10-04T08:50:40.000Z</time>
      </trkpt>
      <trkpt lat="45.78527" lon="4.64995">
        <ele>545.16882</ele>
        <time>2023-10-04T08:50:41.000Z</time>
      </trkpt>
      <trkpt lat="45.78525" lon="4.64995">
        <ele>544.11707</ele>
        <time>2023-10-04T08:50:42.000Z</time>
      </trkpt>
      <trkpt lat="45.78521" lon="4.64996">
        <ele>542.97412</ele>
        <time>2023-10-04T08:50:43.000Z</time>
      </trkpt>
      <trkpt lat="45.78517" lon="4.64998">
        <ele>541.78876</ele>
        <time>2023-10-04T08:50:44.000Z</time>
      </trkpt>
      <trkpt lat="45.78514" lon="4.64999">
        <ele>534.5022</ele>
        <time>2023-10-04T08:50:45.000Z</time>
      </trkpt>
      <trkpt lat="45.78511" lon="4.65001">
        <ele>532.85583</ele>
        <time>2023-10-04T08:50:46.000Z</time>
      </trkpt>
      <trkpt lat="45.78507" lon="4.65002">
        <ele>531.11957</ele>
        <time>2023-10-04T08:50:47.000Z</time>
      </trkpt>
      <trkpt lat="45.78504" lon="4.65003">
        <ele>529.22784</ele>
        <time>2023-10-04T08:50:48.000Z</time>
      </trkpt>
      <trkpt lat="45.785" lon="4.65003">
        <ele>527.23157</ele>
        <time>2023-10-04T08:50:49.000Z</time>
      </trkpt>
      <trkpt lat="45.78497" lon="4.65002">
        <ele>525.23737</ele>
        <time>2023-10-04T08:50:50.000Z</time>
      </trkpt>
      <trkpt lat="45.78493" lon="4.65001">
        <ele>517.3111</ele>
        <time>2023-10-04T08:50:51.000Z</time>
      </trkpt>
      <trkpt lat="45.7849" lon="4.65">
        <ele>514.81848</ele>
        <time>2023-10-04T08:50:52.000Z</time>
      </trkpt>
      <trkpt lat="45.78487" lon="4.64999">
        <ele>521.16064</ele>
        <time>2023-10-04T08:50:53.000Z</time>
      </trkpt>
      <trkpt lat="45.78484" lon="4.64998">
        <ele>519.31219</ele>
        <time>2023-10-04T08:50:54.000Z</time>
      </trkpt>
      <trkpt lat="45.78481" lon="4.64996">
        <ele>517.39514</ele>
        <time>2023-10-04T08:50:55.000Z</time>
      </trkpt>
      <trkpt lat="45.78478" lon="4.64995">
        <ele>515.40564</ele>
        <time>2023-10-04T08:50:56.000Z</time>
      </trkpt>
      <trkpt lat="45.78475" lon="4.64994">
        <ele>509.31927</ele>
        <time>2023-10-04T08:50:57.000Z</time>
      </trkpt>
      <trkpt lat="45.78472" lon="4.64993">
        <ele>506.97885</ele>
        <time>2023-10-04T08:50:58.000Z</time>
      </trkpt>
      <trkpt lat="45.7847" lon="4.64994">
        <ele>512.62714</ele>
        <time>2023-10-04T08:50:59.000Z</time>
      </trkpt>
      <trkpt lat="45.78467" lon="4.64994">
        <ele>510.90445</ele>
        <time>2023-10-04T08:51:00.000Z</time>
      </trkpt>
      <trkpt lat="45.78465" lon="4.64995">
        <ele>509.14194</ele>
        <time>2023-10-04T08:51:01.000Z</time>
      </trkpt>
      <trkpt lat="45.78462" lon="4.64997">
        <ele>507.34058</ele>
        <time>2023-10-04T08:51:02.000Z</time>
      </trkpt>
      <trkpt lat="45.7846" lon="4.64998">
        <ele>501.27441</ele>
        <time>2023-10-04T08:51:03.000Z</time>
      </trkpt>
      <trkpt lat="45.78457" lon="4.64998">
        <ele>499.18939</ele>
        <time>2023-10-04T08:51:04.000Z</time>
      </trkpt>
      <trkpt lat="45.78454" lon="4.64998">
        <ele>501.87213</ele>
        <time>2023-10-04T08:51:05.000Z</time>
      </trkpt>
      <trkpt lat="45.78452" lon="4.64998">
        <ele>500.24063</ele>
        <time>2023-10-04T08:51:06.000Z</time>
      </trkpt>
      <trkpt lat="45.7845" lon="4.64997">
        <ele>498.60986</ele>
        <time>2023-10-04T08:51:07.000Z</time>
      </trkpt>
      <trkpt lat="45.78447" lon="4.64997">
        <ele>496.98438</ele>
        <time>2023-10-04T08:51:08.000Z</time>
      </trkpt>
      <trkpt lat="45.78445" lon="4.64997">
        <ele>493.92343</ele>
        <time>2023-10-04T08:51:09.000Z</time>
      </trkpt>
      <trkpt lat="45.78443" lon="4.64997">
        <ele>490.9772</ele>
        <time>2023-10-04T08:51:10.000Z</time>
      </trkpt>
      <trkpt lat="45.78441" lon="4.64997">
        <ele>494.08804</ele>
        <time>2023-10-04T08:51:11.000Z</time>
      </trkpt>
      <trkpt lat="45.78439" lon="4.64996">
        <ele>491.93457</ele>
        <time>2023-10-04T08:51:12.000Z</time>
      </trkpt>
      <trkpt lat="45.78437" lon="4.64996">
        <ele>490.29022</ele>
        <time>2023-10-04T08:51:13.000Z</time>
      </trkpt>
      <trkpt lat="45.78435" lon="4.64996">
        <ele>488.36981</ele>
        <time>2023-10-04T08:51:14.000Z</time>
      </trkpt>
      <trkpt lat="45.78433" lon="4.64996">
        <ele>486.82269</ele>
        <time>2023-10-04T08:51:15.000Z</time>
      </trkpt>
      <trkpt lat="45.78431" lon="4.64994">
        <ele>485.29404</ele>
        <time>2023-10-04T08:51:16.000Z</time>
      </trkpt>
      <trkpt lat="45.78429" lon="4.64993">
        <ele>487.81113</ele>
        <time>2023-10-04T08:51:17.000Z</time>
      </trkpt>
      <trkpt lat="45.78427" lon="4.64992">
        <ele>486.73575</ele>
        <time>2023-10-04T08:51:18.000Z</time>
      </trkpt>
      <trkpt lat="45.78424" lon="4.64991">
        <ele>485.72357</ele>
        <time>2023-10-04T08:51:19.000Z</time>
      </trkpt>
      <trkpt lat="45.78422" lon="4.64991">
        <ele>482.25775</ele>
        <time>2023-10-04T08:51:20.000Z</time>
      </trkpt>
      <trkpt lat="45.78419" lon="4.6499">
        <ele>480.82544</ele>
        <time>2023-10-04T08:51:21.000Z</time>
      </trkpt>
      <trkpt lat="45.78417" lon="4.64989">
        <ele>479.40961</ele>
        <time>2023-10-04T08:51:22.000Z</time>
      </trkpt>
      <trkpt lat="45.78415" lon="4.64988">
        <ele>482.24039</ele>
        <time>2023-10-04T08:51:23.000Z</time>
      </trkpt>
      <trkpt lat="45.78413" lon="4.64987">
        <ele>481.28867</ele>
        <time>2023-10-04T08:51:24.000Z</time>
      </trkpt>
      <trkpt lat="45.78411" lon="4.64985">
        <ele>481.56314</ele>
        <time>2023-10-04T08:51:25.000Z</time>
      </trkpt>
      <trkpt lat="45.78409" lon="4.64982">
        <ele>477.44684</ele>
        <time>2023-10-04T08:51:26.000Z</time>
      </trkpt>
      <trkpt lat="45.78409" lon="4.64979">
        <ele>476.4743</ele>
        <time>2023-10-04T08:51:27.000Z</time>
      </trkpt>
      <trkpt lat="45.78408" lon="4.64976">
        <ele>474.85284</ele>
        <time>2023-10-04T08:51:28.000Z</time>
      </trkpt>
      <trkpt lat="45.78408" lon="4.64972">
        <ele>474.6539</ele>
        <time>2023-10-04T08:51:30.000Z</time>
      </trkpt>
      <trkpt lat="45.78405" lon="4.6497">
        <ele>475.13397</ele>
        <time>2023-10-04T08:51:32.000Z</time>
      </trkpt>
      <trkpt lat="45.78403" lon="4.6497">
        <ele>475.53384</ele>
        <time>2023-10-04T08:51:36.000Z</time>
      </trkpt>
      <trkpt lat="45.78402" lon="4.64968">
        <ele>476.50571</ele>
        <time>2023-10-04T08:51:57.000Z</time>
      </trkpt>
      <trkpt lat="45.78401" lon="4.64965">
        <ele>477.13623</ele>
        <time>2023-10-04T08:51:59.000Z</time>
      </trkpt>
      <trkpt lat="45.784" lon="4.64962">
        <ele>477.44916</ele>
        <time>2023-10-04T08:52:01.000Z</time>
      </trkpt>
      <trkpt lat="45.78399" lon="4.6496">
        <ele>477.09952</ele>
        <time>2023-10-04T08:52:03.000Z</time>
      </trkpt>
      <trkpt lat="45.78399" lon="4.64957">
        <ele>475.73218</ele>
        <time>2023-10-04T08:52:06.000Z</time>
      </trkpt>
      <trkpt lat="45.78397" lon="4.64955">
        <ele>476.41129</ele>
        <time>2023-10-04T08:52:31.000Z</time>
      </trkpt>
      <trkpt lat="45.78396" lon="4.64952">
        <ele>476.29669</ele>
        <time>2023-10-04T08:52:36.000Z</time>
      </trkpt>
      <trkpt lat="45.78396" lon="4.64949">
        <ele>476.11124</ele>
        <time>2023-10-04T08:52:38.000Z</time>
      </trkpt>
      <trkpt lat="45.78395" lon="4.64947">
        <ele>477.97803</ele>
        <time>2023-10-04T08:52:42.000Z</time>
      </trkpt>
      <trkpt lat="45.78394" lon="4.64944">
        <ele>477.82513</ele>
        <time>2023-10-04T08:52:45.000Z</time>
      </trkpt>
      <trkpt lat="45.78393" lon="4.64943">
        <ele>478.56802</ele>
        <time>2023-10-04T08:52:49.000Z</time>
      </trkpt>
      <trkpt lat="45.78394" lon="4.64942">
        <ele>480.539</ele>
        <time>2023-10-04T09:04:36.000Z</time>
      </trkpt>
      <trkpt lat="45.78392" lon="4.64943">
        <ele>483.6774</ele>
        <time>2023-10-04T09:07:36.000Z</time>
      </trkpt>
      <trkpt lat="45.7839" lon="4.64945">
        <ele>483.79681</ele>
        <time>2023-10-04T09:07:38.000Z</time>
      </trkpt>
      <trkpt lat="45.7839" lon="4.64948">
        <ele>488.46915</ele>
        <time>2023-10-04T09:07:40.000Z</time>
      </trkpt>
      <trkpt lat="45.78392" lon="4.64952">
        <ele>489.73151</ele>
        <time>2023-10-04T09:07:42.000Z</time>
      </trkpt>
      <trkpt lat="45.78394" lon="4.64956">
        <ele>491.50937</ele>
        <time>2023-10-04T09:07:44.000Z</time>
      </trkpt>
      <trkpt lat="45.78396" lon="4.64959">
        <ele>493.49127</ele>
        <time>2023-10-04T09:07:46.000Z</time>
      </trkpt>
      <trkpt lat="45.78398" lon="4.64961">
        <ele>494.52402</ele>
        <time>2023-10-04T09:07:47.000Z</time>
      </trkpt>
      <trkpt lat="45.78399" lon="4.64963">
        <ele>495.29214</ele>
        <time>2023-10-04T09:07:48.000Z</time>
      </trkpt>
      <trkpt lat="45.78401" lon="4.64966">
        <ele>494.97845</ele>
        <time>2023-10-04T09:07:49.000Z</time>
      </trkpt>
      <trkpt lat="45.78402" lon="4.64969">
        <ele>494.26254</ele>
        <time>2023-10-04T09:07:50.000Z</time>
      </trkpt>
      <trkpt lat="45.78403" lon="4.64971">
        <ele>493.952</ele>
        <time>2023-10-04T09:07:51.000Z</time>
      </trkpt>
      <trkpt lat="45.78404" lon="4.64974">
        <ele>493.84659</ele>
        <time>2023-10-04T09:07:52.000Z</time>
      </trkpt>
      <trkpt lat="45.78405" lon="4.64976">
        <ele>495.05087</ele>
        <time>2023-10-04T09:07:53.000Z</time>
      </trkpt>
      <trkpt lat="45.78408" lon="4.6498">
        <ele>494.13043</ele>
        <time>2023-10-04T09:07:55.000Z</time>
      </trkpt>
      <trkpt lat="45.78409" lon="4.64982">
        <ele>494.39511</ele>
        <time>2023-10-04T09:07:57.000Z</time>
      </trkpt>
      <trkpt lat="45.78411" lon="4.64983">
        <ele>495.08383</ele>
        <time>2023-10-04T09:08:04.000Z</time>
      </trkpt>
      <trkpt lat="45.78413" lon="4.64983">
        <ele>495.00861</ele>
        <time>2023-10-04T09:08:06.000Z</time>
      </trkpt>
      <trkpt lat="45.78415" lon="4.64983">
        <ele>495.79901</ele>
        <time>2023-10-04T09:08:08.000Z</time>
      </trkpt>
      <trkpt lat="45.78418" lon="4.64984">
        <ele>495.32465</ele>
        <time>2023-10-04T09:08:10.000Z</time>
      </trkpt>
      <trkpt lat="45.78422" lon="4.64985">
        <ele>493.24725</ele>
        <time>2023-10-04T09:08:12.000Z</time>
      </trkpt>
      <trkpt lat="45.78424" lon="4.64986">
        <ele>489.91138</ele>
        <time>2023-10-04T09:08:13.000Z</time>
      </trkpt>
      <trkpt lat="45.78426" lon="4.64986">
        <ele>489.31445</ele>
        <time>2023-10-04T09:08:14.000Z</time>
      </trkpt>
      <trkpt lat="45.78428" lon="4.64987">
        <ele>487.33536</ele>
        <time>2023-10-04T09:08:15.000Z</time>
      </trkpt>
      <trkpt lat="45.7843" lon="4.64987">
        <ele>485.4549</ele>
        <time>2023-10-04T09:08:16.000Z</time>
      </trkpt>
      <trkpt lat="45.78432" lon="4.64987">
        <ele>484.64078</ele>
        <time>2023-10-04T09:08:17.000Z</time>
      </trkpt>
      <trkpt lat="45.78434" lon="4.64988">
        <ele>483.68939</ele>
        <time>2023-10-04T09:08:18.000Z</time>
      </trkpt>
      <trkpt lat="45.78436" lon="4.6499">
        <ele>482.94571</ele>
        <time>2023-10-04T09:08:19.000Z</time>
      </trkpt>
      <trkpt lat="45.78439" lon="4.64991">
        <ele>481.37506</ele>
        <time>2023-10-04T09:08:20.000Z</time>
      </trkpt>
      <trkpt lat="45.78441" lon="4.64991">
        <ele>479.82471</ele>
        <time>2023-10-04T09:08:21.000Z</time>
      </trkpt>
      <trkpt lat="45.78443" lon="4.64991">
        <ele>478.84018</ele>
        <time>2023-10-04T09:08:22.000Z</time>
      </trkpt>
      <trkpt lat="45.78446" lon="4.6499">
        <ele>477.69244</ele>
        <time>2023-10-04T09:08:23.000Z</time>
      </trkpt>
      <trkpt lat="45.78449" lon="4.64989">
        <ele>476.32822</ele>
        <time>2023-10-04T09:08:24.000Z</time>
      </trkpt>
      <trkpt lat="45.78452" lon="4.64989">
        <ele>475.0694</ele>
        <time>2023-10-04T09:08:25.000Z</time>
      </trkpt>
      <trkpt lat="45.78456" lon="4.64988">
        <ele>473.75497</ele>
        <time>2023-10-04T09:08:26.000Z</time>
      </trkpt>
      <trkpt lat="45.78459" lon="4.64988">
        <ele>471.78412</ele>
        <time>2023-10-04T09:08:27.000Z</time>
      </trkpt>
      <trkpt lat="45.78462" lon="4.64987">
        <ele>469.15063</ele>
        <time>2023-10-04T09:08:28.000Z</time>
      </trkpt>
      <trkpt lat="45.78465" lon="4.64988">
        <ele>468.65106</ele>
        <time>2023-10-04T09:08:29.000Z</time>
      </trkpt>
      <trkpt lat="45.78469" lon="4.64989">
        <ele>467.33319</ele>
        <time>2023-10-04T09:08:30.000Z</time>
      </trkpt>
      <trkpt lat="45.78472" lon="4.64991">
        <ele>466.39008</ele>
        <time>2023-10-04T09:08:31.000Z</time>
      </trkpt>
      <trkpt lat="45.78476" lon="4.64993">
        <ele>465.84552</ele>
        <time>2023-10-04T09:08:32.000Z</time>
      </trkpt>
      <trkpt lat="45.78479" lon="4.64994">
        <ele>465.2233</ele>
        <time>2023-10-04T09:08:33.000Z</time>
      </trkpt>
      <trkpt lat="45.78483" lon="4.64995">
        <ele>460.27362</ele>
        <time>2023-10-04T09:08:34.000Z</time>
      </trkpt>
      <trkpt lat="45.78488" lon="4.64995">
        <ele>459.61679</ele>
        <time>2023-10-04T09:08:35.000Z</time>
      </trkpt>
      <trkpt lat="45.78492" lon="4.64994">
        <ele>459.17627</ele>
        <time>2023-10-04T09:08:36.000Z</time>
      </trkpt>
      <trkpt lat="45.78497" lon="4.64993">
        <ele>457.8623</ele>
        <time>2023-10-04T09:08:37.000Z</time>
      </trkpt>
      <trkpt lat="45.78501" lon="4.64991">
        <ele>456.52338</ele>
        <time>2023-10-04T09:08:38.000Z</time>
      </trkpt>
      <trkpt lat="45.78505" lon="4.64989">
        <ele>455.1651</ele>
        <time>2023-10-04T09:08:39.000Z</time>
      </trkpt>
      <trkpt lat="45.78509" lon="4.64988">
        <ele>451.4567</ele>
        <time>2023-10-04T09:08:40.000Z</time>
      </trkpt>
      <trkpt lat="45.78512" lon="4.64986">
        <ele>451.20956</ele>
        <time>2023-10-04T09:08:41.000Z</time>
      </trkpt>
      <trkpt lat="45.78516" lon="4.64984">
        <ele>450.74341</ele>
        <time>2023-10-04T09:08:42.000Z</time>
      </trkpt>
      <trkpt lat="45.78519" lon="4.64982">
        <ele>449.34552</ele>
        <time>2023-10-04T09:08:43.000Z</time>
      </trkpt>
      <trkpt lat="45.78521" lon="4.64979">
        <ele>447.92691</ele>
        <time>2023-10-04T09:08:44.000Z</time>
      </trkpt>
      <trkpt lat="45.78524" lon="4.64977">
        <ele>446.41367</ele>
        <time>2023-10-04T09:08:45.000Z</time>
      </trkpt>
      <trkpt lat="45.78527" lon="4.64975">
        <ele>445.02335</ele>
        <time>2023-10-04T09:08:46.000Z</time>
      </trkpt>
      <trkpt lat="45.7853" lon="4.64973">
        <ele>443.46817</ele>
        <time>2023-10-04T09:08:47.000Z</time>
      </trkpt>
      <trkpt lat="45.78534" lon="4.64972">
        <ele>443.435</ele>
        <time>2023-10-04T09:08:48.000Z</time>
      </trkpt>
      <trkpt lat="45.78537" lon="4.6497">
        <ele>440.81964</ele>
        <time>2023-10-04T09:08:49.000Z</time>
      </trkpt>
      <trkpt lat="45.78539" lon="4.64969">
        <ele>438.42413</ele>
        <time>2023-10-04T09:08:50.000Z</time>
      </trkpt>
      <trkpt lat="45.78541" lon="4.64968">
        <ele>435.56622</ele>
        <time>2023-10-04T09:08:51.000Z</time>
      </trkpt>
      <trkpt lat="45.78543" lon="4.64967">
        <ele>434.02505</ele>
        <time>2023-10-04T09:08:52.000Z</time>
      </trkpt>
      <trkpt lat="45.78546" lon="4.64966">
        <ele>432.43402</ele>
        <time>2023-10-04T09:08:53.000Z</time>
      </trkpt>
      <trkpt lat="45.78548" lon="4.64967">
        <ele>435.4184</ele>
        <time>2023-10-04T09:08:54.000Z</time>
      </trkpt>
      <trkpt lat="45.7855" lon="4.64967">
        <ele>434.17563</ele>
        <time>2023-10-04T09:08:55.000Z</time>
      </trkpt>
      <trkpt lat="45.78553" lon="4.64968">
        <ele>432.90356</ele>
        <time>2023-10-04T09:08:56.000Z</time>
      </trkpt>
      <trkpt lat="45.78555" lon="4.64969">
        <ele>429.12128</ele>
        <time>2023-10-04T09:08:57.000Z</time>
      </trkpt>
      <trkpt lat="45.78557" lon="4.6497">
        <ele>427.68423</ele>
        <time>2023-10-04T09:08:58.000Z</time>
      </trkpt>
      <trkpt lat="45.78559" lon="4.64971">
        <ele>426.24228</ele>
        <time>2023-10-04T09:08:59.000Z</time>
      </trkpt>
      <trkpt lat="45.78562" lon="4.64973">
        <ele>428.11908</ele>
        <time>2023-10-04T09:09:00.000Z</time>
      </trkpt>
      <trkpt lat="45.78565" lon="4.64974">
        <ele>426.95221</ele>
        <time>2023-10-04T09:09:01.000Z</time>
      </trkpt>
      <trkpt lat="45.78568" lon="4.64976">
        <ele>425.73935</ele>
        <time>2023-10-04T09:09:02.000Z</time>
      </trkpt>
      <trkpt lat="45.7857" lon="4.64978">
        <ele>422.76031</ele>
        <time>2023-10-04T09:09:03.000Z</time>
      </trkpt>
      <trkpt lat="45.78573" lon="4.6498">
        <ele>422.71771</ele>
        <time>2023-10-04T09:09:04.000Z</time>
      </trkpt>
      <trkpt lat="45.78576" lon="4.64983">
        <ele>422.4476</ele>
        <time>2023-10-04T09:09:05.000Z</time>
      </trkpt>
      <trkpt lat="45.7858" lon="4.64985">
        <ele>422.25137</ele>
        <time>2023-10-04T09:09:06.000Z</time>
      </trkpt>
      <trkpt lat="45.78584" lon="4.64987">
        <ele>422.34927</ele>
        <time>2023-10-04T09:09:07.000Z</time>
      </trkpt>
      <trkpt lat="45.78588" lon="4.64989">
        <ele>421.2933</ele>
        <time>2023-10-04T09:09:08.000Z</time>
      </trkpt>
      <trkpt lat="45.78592" lon="4.64991">
        <ele>418.80411</ele>
        <time>2023-10-04T09:09:09.000Z</time>
      </trkpt>
      <trkpt lat="45.78602" lon="4.64999">
        <ele>418.70728</ele>
        <time>2023-10-04T09:09:10.000Z</time>
      </trkpt>
      <trkpt lat="45.78606" lon="4.65004">
        <ele>419.13388</ele>
        <time>2023-10-04T09:09:11.000Z</time>
      </trkpt>
      <trkpt lat="45.78609" lon="4.65009">
        <ele>418.31226</ele>
        <time>2023-10-04T09:09:12.000Z</time>
      </trkpt>
      <trkpt lat="45.78612" lon="4.6501">
        <ele>416.22736</ele>
        <time>2023-10-04T09:09:13.000Z</time>
      </trkpt>
      <trkpt lat="45.78615" lon="4.65012">
        <ele>415.41699</ele>
        <time>2023-10-04T09:09:14.000Z</time>
      </trkpt>
      <trkpt lat="45.78618" lon="4.65012">
        <ele>414.4169</ele>
        <time>2023-10-04T09:09:16.000Z</time>
      </trkpt>
      <trkpt lat="45.7862" lon="4.65013">
        <ele>413.71954</ele>
        <time>2023-10-04T09:09:20.000Z</time>
      </trkpt>
      <trkpt lat="45.78622" lon="4.65014">
        <ele>415.60483</ele>
        <time>2023-10-04T09:09:21.000Z</time>
      </trkpt>
      <trkpt lat="45.78625" lon="4.65014">
        <ele>414.92902</ele>
        <time>2023-10-04T09:09:24.000Z</time>
      </trkpt>
      <trkpt lat="45.78628" lon="4.65014">
        <ele>414.29126</ele>
        <time>2023-10-04T09:09:26.000Z</time>
      </trkpt>
      <trkpt lat="45.7863" lon="4.65014">
        <ele>420.47192</ele>
        <time>2023-10-04T09:09:27.000Z</time>
      </trkpt>
      <trkpt lat="45.78633" lon="4.65016">
        <ele>420.08954</ele>
        <time>2023-10-04T09:09:29.000Z</time>
      </trkpt>
      <trkpt lat="45.78636" lon="4.65017">
        <ele>419.74643</ele>
        <time>2023-10-04T09:09:31.000Z</time>
      </trkpt>
      <trkpt lat="45.78639" lon="4.65018">
        <ele>429.23325</ele>
        <time>2023-10-04T09:09:33.000Z</time>
      </trkpt>
      <trkpt lat="45.78641" lon="4.65019">
        <ele>429.55688</ele>
        <time>2023-10-04T09:09:34.000Z</time>
      </trkpt>
      <trkpt lat="45.78644" lon="4.6502">
        <ele>430.05096</ele>
        <time>2023-10-04T09:09:36.000Z</time>
      </trkpt>
      <trkpt lat="45.78646" lon="4.65021">
        <ele>429.71606</ele>
        <time>2023-10-04T09:09:38.000Z</time>
      </trkpt>
      <trkpt lat="45.78648" lon="4.65021">
        <ele>429.44891</ele>
        <time>2023-10-04T09:09:40.000Z</time>
      </trkpt>
      <trkpt lat="45.78651" lon="4.65022">
        <ele>429.80389</ele>
        <time>2023-10-04T09:09:42.000Z</time>
      </trkpt>
      <trkpt lat="45.78654" lon="4.65022">
        <ele>431.46762</ele>
        <time>2023-10-04T09:09:43.000Z</time>
      </trkpt>
      <trkpt lat="45.78657" lon="4.65022">
        <ele>432.10083</ele>
        <time>2023-10-04T09:09:44.000Z</time>
      </trkpt>
      <trkpt lat="45.78659" lon="4.65022">
        <ele>432.77051</ele>
        <time>2023-10-04T09:09:45.000Z</time>
      </trkpt>
      <trkpt lat="45.78662" lon="4.65022">
        <ele>433.45233</ele>
        <time>2023-10-04T09:09:46.000Z</time>
      </trkpt>
      <trkpt lat="45.78665" lon="4.65023">
        <ele>435.50861</ele>
        <time>2023-10-04T09:09:47.000Z</time>
      </trkpt>
      <trkpt lat="45.78667" lon="4.65023">
        <ele>436.47266</ele>
        <time>2023-10-04T09:09:48.000Z</time>
      </trkpt>
      <trkpt lat="45.7867" lon="4.65022">
        <ele>443.01025</ele>
        <time>2023-10-04T09:09:49.000Z</time>
      </trkpt>
      <trkpt lat="45.78672" lon="4.65022">
        <ele>444.14932</ele>
        <time>2023-10-04T09:09:50.000Z</time>
      </trkpt>
      <trkpt lat="45.78674" lon="4.65023">
        <ele>445.29492</ele>
        <time>2023-10-04T09:09:51.000Z</time>
      </trkpt>
      <trkpt lat="45.78676" lon="4.65023">
        <ele>446.77945</ele>
        <time>2023-10-04T09:09:52.000Z</time>
      </trkpt>
      <trkpt lat="45.78679" lon="4.65023">
        <ele>448.37198</ele>
        <time>2023-10-04T09:09:53.000Z</time>
      </trkpt>
      <trkpt lat="45.78682" lon="4.65023">
        <ele>443.29779</ele>
        <time>2023-10-04T09:09:54.000Z</time>
      </trkpt>
      <trkpt lat="45.78684" lon="4.65024">
        <ele>449.84464</ele>
        <time>2023-10-04T09:09:55.000Z</time>
      </trkpt>
      <trkpt lat="45.78687" lon="4.65024">
        <ele>451.33237</ele>
        <time>2023-10-04T09:09:56.000Z</time>
      </trkpt>
      <trkpt lat="45.7869" lon="4.65024">
        <ele>445.79681</ele>
        <time>2023-10-04T09:09:57.000Z</time>
      </trkpt>
      <trkpt lat="45.78693" lon="4.65024">
        <ele>446.625</ele>
        <time>2023-10-04T09:09:58.000Z</time>
      </trkpt>
      <trkpt lat="45.78696" lon="4.65025">
        <ele>447.32626</ele>
        <time>2023-10-04T09:09:59.000Z</time>
      </trkpt>
      <trkpt lat="45.78699" lon="4.65025">
        <ele>448.90509</ele>
        <time>2023-10-04T09:10:00.000Z</time>
      </trkpt>
      <trkpt lat="45.78702" lon="4.65025">
        <ele>455.87949</ele>
        <time>2023-10-04T09:10:01.000Z</time>
      </trkpt>
      <trkpt lat="45.78704" lon="4.65025">
        <ele>457.20102</ele>
        <time>2023-10-04T09:10:02.000Z</time>
      </trkpt>
      <trkpt lat="45.78706" lon="4.65025">
        <ele>460.04449</ele>
        <time>2023-10-04T09:10:03.000Z</time>
      </trkpt>
      <trkpt lat="45.7871" lon="4.65025">
        <ele>461.47333</ele>
        <time>2023-10-04T09:10:05.000Z</time>
      </trkpt>
      <trkpt lat="45.78713" lon="4.65025">
        <ele>467.03387</ele>
        <time>2023-10-04T09:10:07.000Z</time>
      </trkpt>
      <trkpt lat="45.78716" lon="4.65026">
        <ele>468.74707</ele>
        <time>2023-10-04T09:10:09.000Z</time>
      </trkpt>
      <trkpt lat="45.78718" lon="4.65025">
        <ele>470.51181</ele>
        <time>2023-10-04T09:10:11.000Z</time>
      </trkpt>
      <trkpt lat="45.78722" lon="4.65023">
        <ele>476.95148</ele>
        <time>2023-10-04T09:10:13.000Z</time>
      </trkpt>
      <trkpt lat="45.78724" lon="4.65022">
        <ele>473.49057</ele>
        <time>2023-10-04T09:10:14.000Z</time>
      </trkpt>
      <trkpt lat="45.78728" lon="4.65023">
        <ele>475.01456</ele>
        <time>2023-10-04T09:10:16.000Z</time>
      </trkpt>
      <trkpt lat="45.78731" lon="4.65024">
        <ele>477.78076</ele>
        <time>2023-10-04T09:10:17.000Z</time>
      </trkpt>
      <trkpt lat="45.78734" lon="4.65024">
        <ele>479.80377</ele>
        <time>2023-10-04T09:10:18.000Z</time>
      </trkpt>
      <trkpt lat="45.78736" lon="4.65025">
        <ele>481.45499</ele>
        <time>2023-10-04T09:10:19.000Z</time>
      </trkpt>
      <trkpt lat="45.78738" lon="4.65025">
        <ele>483.10913</ele>
        <time>2023-10-04T09:10:20.000Z</time>
      </trkpt>
      <trkpt lat="45.78742" lon="4.65026">
        <ele>479.69418</ele>
        <time>2023-10-04T09:10:21.000Z</time>
      </trkpt>
      <trkpt lat="45.78744" lon="4.65026">
        <ele>481.18668</ele>
        <time>2023-10-04T09:10:22.000Z</time>
      </trkpt>
      <trkpt lat="45.78747" lon="4.65028">
        <ele>482.67938</ele>
        <time>2023-10-04T09:10:23.000Z</time>
      </trkpt>
      <trkpt lat="45.78749" lon="4.65031">
        <ele>487.58807</ele>
        <time>2023-10-04T09:10:24.000Z</time>
      </trkpt>
      <trkpt lat="45.78751" lon="4.65035">
        <ele>489.63623</ele>
        <time>2023-10-04T09:10:25.000Z</time>
      </trkpt>
      <trkpt lat="45.78753" lon="4.65037">
        <ele>491.75177</ele>
        <time>2023-10-04T09:10:26.000Z</time>
      </trkpt>
      <trkpt lat="45.78756" lon="4.6504">
        <ele>488.51953</ele>
        <time>2023-10-04T09:10:27.000Z</time>
      </trkpt>
      <trkpt lat="45.78759" lon="4.65043">
        <ele>490.15152</ele>
        <time>2023-10-04T09:10:28.000Z</time>
      </trkpt>
      <trkpt lat="45.78762" lon="4.65046">
        <ele>491.79901</ele>
        <time>2023-10-04T09:10:29.000Z</time>
      </trkpt>
      <trkpt lat="45.78764" lon="4.65047">
        <ele>496.07895</ele>
        <time>2023-10-04T09:10:30.000Z</time>
      </trkpt>
      <trkpt lat="45.78766" lon="4.65049">
        <ele>493.71735</ele>
        <time>2023-10-04T09:10:31.000Z</time>
      </trkpt>
      <trkpt lat="45.7877" lon="4.6505">
        <ele>495.05151</ele>
        <time>2023-10-04T09:10:32.000Z</time>
      </trkpt>
      <trkpt lat="45.78773" lon="4.65053">
        <ele>496.36676</ele>
        <time>2023-10-04T09:10:33.000Z</time>
      </trkpt>
      <trkpt lat="45.78775" lon="4.65056">
        <ele>492.97003</ele>
        <time>2023-10-04T09:10:34.000Z</time>
      </trkpt>
      <trkpt lat="45.78777" lon="4.65058">
        <ele>493.77094</ele>
        <time>2023-10-04T09:10:35.000Z</time>
      </trkpt>
      <trkpt lat="45.78779" lon="4.65061">
        <ele>497.27948</ele>
        <time>2023-10-04T09:10:36.000Z</time>
      </trkpt>
      <trkpt lat="45.78781" lon="4.65064">
        <ele>497.16977</ele>
        <time>2023-10-04T09:10:37.000Z</time>
      </trkpt>
      <trkpt lat="45.78783" lon="4.65068">
        <ele>497.74054</ele>
        <time>2023-10-04T09:10:38.000Z</time>
      </trkpt>
      <trkpt lat="45.78785" lon="4.65072">
        <ele>498.63736</ele>
        <time>2023-10-04T09:10:39.000Z</time>
      </trkpt>
      <trkpt lat="45.78787" lon="4.65075">
        <ele>499.49649</ele>
        <time>2023-10-04T09:10:40.000Z</time>
      </trkpt>
      <trkpt lat="45.78789" lon="4.65078">
        <ele>500.31583</ele>
        <time>2023-10-04T09:10:41.000Z</time>
      </trkpt>
      <trkpt lat="45.78791" lon="4.65081">
        <ele>503.23022</ele>
        <time>2023-10-04T09:10:42.000Z</time>
      </trkpt>
      <trkpt lat="45.78792" lon="4.65085">
        <ele>504.33243</ele>
        <time>2023-10-04T09:10:43.000Z</time>
      </trkpt>
      <trkpt lat="45.78794" lon="4.65088">
        <ele>502.35049</ele>
        <time>2023-10-04T09:10:44.000Z</time>
      </trkpt>
      <trkpt lat="45.78796" lon="4.65092">
        <ele>503.08862</ele>
        <time>2023-10-04T09:10:45.000Z</time>
      </trkpt>
      <trkpt lat="45.78797" lon="4.65096">
        <ele>503.76129</ele>
        <time>2023-10-04T09:10:46.000Z</time>
      </trkpt>
      <trkpt lat="45.78798" lon="4.65099">
        <ele>504.36176</ele>
        <time>2023-10-04T09:10:47.000Z</time>
      </trkpt>
      <trkpt lat="45.788" lon="4.65103">
        <ele>507.09995</ele>
        <time>2023-10-04T09:10:48.000Z</time>
      </trkpt>
      <trkpt lat="45.78801" lon="4.65108">
        <ele>507.94736</ele>
        <time>2023-10-04T09:10:49.000Z</time>
      </trkpt>
      <trkpt lat="45.78803" lon="4.65112">
        <ele>506.06256</ele>
        <time>2023-10-04T09:10:50.000Z</time>
      </trkpt>
      <trkpt lat="45.78805" lon="4.65115">
        <ele>506.56171</ele>
        <time>2023-10-04T09:10:51.000Z</time>
      </trkpt>
      <trkpt lat="45.78808" lon="4.65119">
        <ele>507.20392</ele>
        <time>2023-10-04T09:10:52.000Z</time>
      </trkpt>
      <trkpt lat="45.7881" lon="4.65123">
        <ele>509.30762</ele>
        <time>2023-10-04T09:10:53.000Z</time>
      </trkpt>
      <trkpt lat="45.78812" lon="4.65127">
        <ele>511.37881</ele>
        <time>2023-10-04T09:10:54.000Z</time>
      </trkpt>
      <trkpt lat="45.78813" lon="4.6513">
        <ele>513.59943</ele>
        <time>2023-10-04T09:10:55.000Z</time>
      </trkpt>
      <trkpt lat="45.78815" lon="4.65133">
        <ele>513.26233</ele>
        <time>2023-10-04T09:10:56.000Z</time>
      </trkpt>
      <trkpt lat="45.78818" lon="4.65136">
        <ele>515.24847</ele>
        <time>2023-10-04T09:10:57.000Z</time>
      </trkpt>
      <trkpt lat="45.7882" lon="4.65138">
        <ele>517.19788</ele>
        <time>2023-10-04T09:10:58.000Z</time>
      </trkpt>
      <trkpt lat="45.78822" lon="4.65141">
        <ele>519.33655</ele>
        <time>2023-10-04T09:10:59.000Z</time>
      </trkpt>
      <trkpt lat="45.78824" lon="4.65143">
        <ele>521.41541</ele>
        <time>2023-10-04T09:11:00.000Z</time>
      </trkpt>
      <trkpt lat="45.78826" lon="4.65145">
        <ele>523.55603</ele>
        <time>2023-10-04T09:11:01.000Z</time>
      </trkpt>
      <trkpt lat="45.78827" lon="4.65148">
        <ele>523.8783</ele>
        <time>2023-10-04T09:11:02.000Z</time>
      </trkpt>
      <trkpt lat="45.78829" lon="4.65151">
        <ele>525.96161</ele>
        <time>2023-10-04T09:11:03.000Z</time>
      </trkpt>
      <trkpt lat="45.78831" lon="4.65153">
        <ele>527.69153</ele>
        <time>2023-10-04T09:11:04.000Z</time>
      </trkpt>
      <trkpt lat="45.78833" lon="4.65156">
        <ele>529.5387</ele>
        <time>2023-10-04T09:11:05.000Z</time>
      </trkpt>
      <trkpt lat="45.78834" lon="4.65158">
        <ele>531.52625</ele>
        <time>2023-10-04T09:11:06.000Z</time>
      </trkpt>
      <trkpt lat="45.78836" lon="4.65159">
        <ele>533.49622</ele>
        <time>2023-10-04T09:11:07.000Z</time>
      </trkpt>
      <trkpt lat="45.78839" lon="4.6516">
        <ele>533.30176</ele>
        <time>2023-10-04T09:11:08.000Z</time>
      </trkpt>
      <trkpt lat="45.78841" lon="4.65162">
        <ele>534.93439</ele>
        <time>2023-10-04T09:11:09.000Z</time>
      </trkpt>
      <trkpt lat="45.78844" lon="4.65163">
        <ele>536.52014</ele>
        <time>2023-10-04T09:11:10.000Z</time>
      </trkpt>
      <trkpt lat="45.78846" lon="4.65164">
        <ele>538.17444</ele>
        <time>2023-10-04T09:11:11.000Z</time>
      </trkpt>
      <trkpt lat="45.78849" lon="4.65167">
        <ele>539.79761</ele>
        <time>2023-10-04T09:11:13.000Z</time>
      </trkpt>
      <trkpt lat="45.78851" lon="4.65169">
        <ele>539.89563</ele>
        <time>2023-10-04T09:11:15.000Z</time>
      </trkpt>
      <trkpt lat="45.78854" lon="4.6517">
        <ele>539.92877</ele>
        <time>2023-10-04T09:11:16.000Z</time>
      </trkpt>
      <trkpt lat="45.78856" lon="4.65171">
        <ele>539.98328</ele>
        <time>2023-10-04T09:11:17.000Z</time>
      </trkpt>
      <trkpt lat="45.78858" lon="4.65172">
        <ele>540.05121</ele>
        <time>2023-10-04T09:11:18.000Z</time>
      </trkpt>
      <trkpt lat="45.78859" lon="4.65174">
        <ele>540.25586</ele>
        <time>2023-10-04T09:11:19.000Z</time>
      </trkpt>
      <trkpt lat="45.78861" lon="4.65175">
        <ele>540.44031</ele>
        <time>2023-10-04T09:11:20.000Z</time>
      </trkpt>
      <trkpt lat="45.78864" lon="4.65177">
        <ele>540.32178</ele>
        <time>2023-10-04T09:11:21.000Z</time>
      </trkpt>
      <trkpt lat="45.78866" lon="4.65179">
        <ele>540.17761</ele>
        <time>2023-10-04T09:11:22.000Z</time>
      </trkpt>
      <trkpt lat="45.78868" lon="4.65181">
        <ele>539.91669</ele>
        <time>2023-10-04T09:11:23.000Z</time>
      </trkpt>
      <trkpt lat="45.7887" lon="4.65182">
        <ele>539.52716</ele>
        <time>2023-10-04T09:11:24.000Z</time>
      </trkpt>
      <trkpt lat="45.78873" lon="4.65183">
        <ele>539.09723</ele>
        <time>2023-10-04T09:11:25.000Z</time>
      </trkpt>
      <trkpt lat="45.78874" lon="4.65185">
        <ele>538.93219</ele>
        <time>2023-10-04T09:11:26.000Z</time>
      </trkpt>
      <trkpt lat="45.78877" lon="4.65187">
        <ele>538.73804</ele>
        <time>2023-10-04T09:11:27.000Z</time>
      </trkpt>
      <trkpt lat="45.78879" lon="4.6519">
        <ele>538.35632</ele>
        <time>2023-10-04T09:11:28.000Z</time>
      </trkpt>
      <trkpt lat="45.78882" lon="4.65192">
        <ele>537.93475</ele>
        <time>2023-10-04T09:11:29.000Z</time>
      </trkpt>
      <trkpt lat="45.78885" lon="4.65195">
        <ele>537.68182</ele>
        <time>2023-10-04T09:11:30.000Z</time>
      </trkpt>
      <trkpt lat="45.78888" lon="4.65197">
        <ele>537.36145</ele>
        <time>2023-10-04T09:11:31.000Z</time>
      </trkpt>
      <trkpt lat="45.78891" lon="4.652">
        <ele>537.02802</ele>
        <time>2023-10-04T09:11:32.000Z</time>
      </trkpt>
      <trkpt lat="45.78894" lon="4.65202">
        <ele>536.70203</ele>
        <time>2023-10-04T09:11:33.000Z</time>
      </trkpt>
      <trkpt lat="45.78897" lon="4.65204">
        <ele>536.3443</ele>
        <time>2023-10-04T09:11:34.000Z</time>
      </trkpt>
      <trkpt lat="45.789" lon="4.65207">
        <ele>535.95624</ele>
        <time>2023-10-04T09:11:35.000Z</time>
      </trkpt>
      <trkpt lat="45.78903" lon="4.65212">
        <ele>535.57495</ele>
        <time>2023-10-04T09:11:36.000Z</time>
      </trkpt>
      <trkpt lat="45.78906" lon="4.65217">
        <ele>535.10004</ele>
        <time>2023-10-04T09:11:37.000Z</time>
      </trkpt>
      <trkpt lat="45.78909" lon="4.65221">
        <ele>534.63879</ele>
        <time>2023-10-04T09:11:38.000Z</time>
      </trkpt>
      <trkpt lat="45.78912" lon="4.65226">
        <ele>534.02502</ele>
        <time>2023-10-04T09:11:39.000Z</time>
      </trkpt>
      <trkpt lat="45.78915" lon="4.65231">
        <ele>533.45337</ele>
        <time>2023-10-04T09:11:40.000Z</time>
      </trkpt>
      <trkpt lat="45.78918" lon="4.65237">
        <ele>532.94116</ele>
        <time>2023-10-04T09:11:41.000Z</time>
      </trkpt>
      <trkpt lat="45.78921" lon="4.65243">
        <ele>532.50195</ele>
        <time>2023-10-04T09:11:42.000Z</time>
      </trkpt>
      <trkpt lat="45.78925" lon="4.6525">
        <ele>532.06903</ele>
        <time>2023-10-04T09:11:43.000Z</time>
      </trkpt>
      <trkpt lat="45.78929" lon="4.65256">
        <ele>531.65668</ele>
        <time>2023-10-04T09:11:44.000Z</time>
      </trkpt>
      <trkpt lat="45.78932" lon="4.65262">
        <ele>531.26416</ele>
        <time>2023-10-04T09:11:45.000Z</time>
      </trkpt>
      <trkpt lat="45.78936" lon="4.65268">
        <ele>530.91113</ele>
        <time>2023-10-04T09:11:46.000Z</time>
      </trkpt>
      <trkpt lat="45.78939" lon="4.65274">
        <ele>530.55548</ele>
        <time>2023-10-04T09:11:47.000Z</time>
      </trkpt>
      <trkpt lat="45.78942" lon="4.65282">
        <ele>530.20251</ele>
        <time>2023-10-04T09:11:48.000Z</time>
      </trkpt>
      <trkpt lat="45.78945" lon="4.65289">
        <ele>529.89716</ele>
        <time>2023-10-04T09:11:49.000Z</time>
      </trkpt>
      <trkpt lat="45.78947" lon="4.65296">
        <ele>529.61328</ele>
        <time>2023-10-04T09:11:50.000Z</time>
      </trkpt>
      <trkpt lat="45.78949" lon="4.65302">
        <ele>529.41034</ele>
        <time>2023-10-04T09:11:51.000Z</time>
      </trkpt>
      <trkpt lat="45.78951" lon="4.65307">
        <ele>529.2561</ele>
        <time>2023-10-04T09:11:52.000Z</time>
      </trkpt>
      <trkpt lat="45.78953" lon="4.65313">
        <ele>529.15735</ele>
        <time>2023-10-04T09:11:53.000Z</time>
      </trkpt>
      <trkpt lat="45.78955" lon="4.65318">
        <ele>529.09454</ele>
        <time>2023-10-04T09:11:54.000Z</time>
      </trkpt>
      <trkpt lat="45.78958" lon="4.65323">
        <ele>529.0802</ele>
        <time>2023-10-04T09:11:55.000Z</time>
      </trkpt>
      <trkpt lat="45.78961" lon="4.65327">
        <ele>529.02673</ele>
        <time>2023-10-04T09:11:56.000Z</time>
      </trkpt>
      <trkpt lat="45.78963" lon="4.65331">
        <ele>529.05469</ele>
        <time>2023-10-04T09:11:57.000Z</time>
      </trkpt>
      <trkpt lat="45.78965" lon="4.65336">
        <ele>529.07391</ele>
        <time>2023-10-04T09:11:58.000Z</time>
      </trkpt>
      <trkpt lat="45.78968" lon="4.6534">
        <ele>529.10986</ele>
        <time>2023-10-04T09:11:59.000Z</time>
      </trkpt>
      <trkpt lat="45.7897" lon="4.65345">
        <ele>529.10248</ele>
        <time>2023-10-04T09:12:00.000Z</time>
      </trkpt>
      <trkpt lat="45.78971" lon="4.6535">
        <ele>529.12476</ele>
        <time>2023-10-04T09:12:01.000Z</time>
      </trkpt>
      <trkpt lat="45.78972" lon="4.65354">
        <ele>529.11249</ele>
        <time>2023-10-04T09:12:02.000Z</time>
      </trkpt>
      <trkpt lat="45.78973" lon="4.65359">
        <ele>529.0849</ele>
        <time>2023-10-04T09:12:03.000Z</time>
      </trkpt>
      <trkpt lat="45.78975" lon="4.65363">
        <ele>529.06775</ele>
        <time>2023-10-04T09:12:04.000Z</time>
      </trkpt>
      <trkpt lat="45.78976" lon="4.65368">
        <ele>529.00037</ele>
        <time>2023-10-04T09:12:05.000Z</time>
      </trkpt>
      <trkpt lat="45.78977" lon="4.65372">
        <ele>528.92487</ele>
        <time>2023-10-04T09:12:06.000Z</time>
      </trkpt>
      <trkpt lat="45.78979" lon="4.65376">
        <ele>528.83978</ele>
        <time>2023-10-04T09:12:07.000Z</time>
      </trkpt>
      <trkpt lat="45.78981" lon="4.6538">
        <ele>528.74219</ele>
        <time>2023-10-04T09:12:08.000Z</time>
      </trkpt>
      <trkpt lat="45.78982" lon="4.65384">
        <ele>528.61053</ele>
        <time>2023-10-04T09:12:09.000Z</time>
      </trkpt>
      <trkpt lat="45.78983" lon="4.65389">
        <ele>528.46851</ele>
        <time>2023-10-04T09:12:10.000Z</time>
      </trkpt>
      <trkpt lat="45.78984" lon="4.65393">
        <ele>528.29944</ele>
        <time>2023-10-04T09:12:11.000Z</time>
      </trkpt>
      <trkpt lat="45.78985" lon="4.65398">
        <ele>528.09851</ele>
        <time>2023-10-04T09:12:12.000Z</time>
      </trkpt>
      <trkpt lat="45.78986" lon="4.65402">
        <ele>527.83777</ele>
        <time>2023-10-04T09:12:13.000Z</time>
      </trkpt>
      <trkpt lat="45.78988" lon="4.65406">
        <ele>527.5965</ele>
        <time>2023-10-04T09:12:14.000Z</time>
      </trkpt>
      <trkpt lat="45.7899" lon="4.6541">
        <ele>527.32043</ele>
        <time>2023-10-04T09:12:15.000Z</time>
      </trkpt>
      <trkpt lat="45.78991" lon="4.65414">
        <ele>527.13477</ele>
        <time>2023-10-04T09:12:16.000Z</time>
      </trkpt>
      <trkpt lat="45.78992" lon="4.65419">
        <ele>526.96545</ele>
        <time>2023-10-04T09:12:17.000Z</time>
      </trkpt>
      <trkpt lat="45.78992" lon="4.65424">
        <ele>526.79889</ele>
        <time>2023-10-04T09:12:18.000Z</time>
      </trkpt>
      <trkpt lat="45.78992" lon="4.65429">
        <ele>526.62756</ele>
        <time>2023-10-04T09:12:19.000Z</time>
      </trkpt>
      <trkpt lat="45.78992" lon="4.65435">
        <ele>526.47864</ele>
        <time>2023-10-04T09:12:20.000Z</time>
      </trkpt>
      <trkpt lat="45.78992" lon="4.6544">
        <ele>526.32886</ele>
        <time>2023-10-04T09:12:21.000Z</time>
      </trkpt>
      <trkpt lat="45.78991" lon="4.65444">
        <ele>526.23108</ele>
        <time>2023-10-04T09:12:22.000Z</time>
      </trkpt>
      <trkpt lat="45.78991" lon="4.65448">
        <ele>526.1532</ele>
        <time>2023-10-04T09:12:23.000Z</time>
      </trkpt>
      <trkpt lat="45.78991" lon="4.65453">
        <ele>526.07361</ele>
        <time>2023-10-04T09:12:24.000Z</time>
      </trkpt>
      <trkpt lat="45.78991" lon="4.65458">
        <ele>526.04138</ele>
        <time>2023-10-04T09:12:25.000Z</time>
      </trkpt>
      <trkpt lat="45.78992" lon="4.65462">
        <ele>525.98181</ele>
        <time>2023-10-04T09:12:26.000Z</time>
      </trkpt>
      <trkpt lat="45.78992" lon="4.65466">
        <ele>525.93384</ele>
        <time>2023-10-04T09:12:27.000Z</time>
      </trkpt>
      <trkpt lat="45.7899" lon="4.65466">
        <ele>525.87091</ele>
        <time>2023-10-04T09:12:28.000Z</time>
      </trkpt>
      <trkpt lat="45.78988" lon="4.65471">
        <ele>525.75629</ele>
        <time>2023-10-04T09:12:30.000Z</time>
      </trkpt>
      <trkpt lat="45.7899" lon="4.65475">
        <ele>525.65955</ele>
        <time>2023-10-04T09:12:31.000Z</time>
      </trkpt>
      <trkpt lat="45.78991" lon="4.65481">
        <ele>525.52362</ele>
        <time>2023-10-04T09:12:32.000Z</time>
      </trkpt>
      <trkpt lat="45.78992" lon="4.65485">
        <ele>525.388</ele>
        <time>2023-10-04T09:12:33.000Z</time>
      </trkpt>
      <trkpt lat="45.78992" lon="4.6549">
        <ele>525.24738</ele>
        <time>2023-10-04T09:12:34.000Z</time>
      </trkpt>
      <trkpt lat="45.78993" lon="4.65495">
        <ele>525.08594</ele>
        <time>2023-10-04T09:12:35.000Z</time>
      </trkpt>
      <trkpt lat="45.78994" lon="4.65499">
        <ele>524.93353</ele>
        <time>2023-10-04T09:12:36.000Z</time>
      </trkpt>
      <trkpt lat="45.78995" lon="4.65504">
        <ele>524.73889</ele>
        <time>2023-10-04T09:12:37.000Z</time>
      </trkpt>
      <trkpt lat="45.78996" lon="4.65508">
        <ele>524.51892</ele>
        <time>2023-10-04T09:12:38.000Z</time>
      </trkpt>
      <trkpt lat="45.78997" lon="4.65512">
        <ele>524.26929</ele>
        <time>2023-10-04T09:12:39.000Z</time>
      </trkpt>
      <trkpt lat="45.78999" lon="4.65517">
        <ele>524.01459</ele>
        <time>2023-10-04T09:12:40.000Z</time>
      </trkpt>
      <trkpt lat="45.79" lon="4.65522">
        <ele>523.78534</ele>
        <time>2023-10-04T09:12:41.000Z</time>
      </trkpt>
      <trkpt lat="45.79001" lon="4.65527">
        <ele>523.42712</ele>
        <time>2023-10-04T09:12:42.000Z</time>
      </trkpt>
      <trkpt lat="45.79002" lon="4.65532">
        <ele>523.09528</ele>
        <time>2023-10-04T09:12:43.000Z</time>
      </trkpt>
      <trkpt lat="45.79003" lon="4.65537">
        <ele>522.7392</ele>
        <time>2023-10-04T09:12:44.000Z</time>
      </trkpt>
      <trkpt lat="45.79004" lon="4.65543">
        <ele>522.40027</ele>
        <time>2023-10-04T09:12:45.000Z</time>
      </trkpt>
      <trkpt lat="45.79005" lon="4.65548">
        <ele>522.09412</ele>
        <time>2023-10-04T09:12:46.000Z</time>
      </trkpt>
      <trkpt lat="45.79006" lon="4.65553">
        <ele>521.81146</ele>
        <time>2023-10-04T09:12:47.000Z</time>
      </trkpt>
      <trkpt lat="45.79008" lon="4.65561">
        <ele>521.52075</ele>
        <time>2023-10-04T09:12:48.000Z</time>
      </trkpt>
      <trkpt lat="45.79008" lon="4.65567">
        <ele>521.24231</ele>
        <time>2023-10-04T09:12:49.000Z</time>
      </trkpt>
      <trkpt lat="45.79008" lon="4.65574">
        <ele>520.95593</ele>
        <time>2023-10-04T09:12:50.000Z</time>
      </trkpt>
      <trkpt lat="45.79008" lon="4.6558">
        <ele>520.61395</ele>
        <time>2023-10-04T09:12:51.000Z</time>
      </trkpt>
      <trkpt lat="45.7901" lon="4.65586">
        <ele>520.2926</ele>
        <time>2023-10-04T09:12:52.000Z</time>
      </trkpt>
      <trkpt lat="45.79012" lon="4.65592">
        <ele>519.93542</ele>
        <time>2023-10-04T09:12:53.000Z</time>
      </trkpt>
      <trkpt lat="45.79013" lon="4.656">
        <ele>519.59979</ele>
        <time>2023-10-04T09:12:54.000Z</time>
      </trkpt>
      <trkpt lat="45.79016" lon="4.65605">
        <ele>519.25842</ele>
        <time>2023-10-04T09:12:55.000Z</time>
      </trkpt>
      <trkpt lat="45.79019" lon="4.65613">
        <ele>518.91724</ele>
        <time>2023-10-04T09:12:56.000Z</time>
      </trkpt>
      <trkpt lat="45.79022" lon="4.65619">
        <ele>518.58997</ele>
        <time>2023-10-04T09:12:57.000Z</time>
      </trkpt>
      <trkpt lat="45.79026" lon="4.65624">
        <ele>518.28094</ele>
        <time>2023-10-04T09:12:58.000Z</time>
      </trkpt>
      <trkpt lat="45.79029" lon="4.65629">
        <ele>517.97217</ele>
        <time>2023-10-04T09:12:59.000Z</time>
      </trkpt>
      <trkpt lat="45.79031" lon="4.65634">
        <ele>517.51434</ele>
        <time>2023-10-04T09:13:00.000Z</time>
      </trkpt>
      <trkpt lat="45.79034" lon="4.65639">
        <ele>517.01111</ele>
        <time>2023-10-04T09:13:01.000Z</time>
      </trkpt>
      <trkpt lat="45.79037" lon="4.65645">
        <ele>516.62347</ele>
        <time>2023-10-04T09:13:02.000Z</time>
      </trkpt>
      <trkpt lat="45.79041" lon="4.6565">
        <ele>516.15179</ele>
        <time>2023-10-04T09:13:03.000Z</time>
      </trkpt>
      <trkpt lat="45.79045" lon="4.65655">
        <ele>515.72986</ele>
        <time>2023-10-04T09:13:04.000Z</time>
      </trkpt>
      <trkpt lat="45.7905" lon="4.6566">
        <ele>515.26843</ele>
        <time>2023-10-04T09:13:05.000Z</time>
      </trkpt>
      <trkpt lat="45.79054" lon="4.65666">
        <ele>514.75037</ele>
        <time>2023-10-04T09:13:06.000Z</time>
      </trkpt>
      <trkpt lat="45.7906" lon="4.6567">
        <ele>514.24091</ele>
        <time>2023-10-04T09:13:07.000Z</time>
      </trkpt>
      <trkpt lat="45.79065" lon="4.65674">
        <ele>513.75323</ele>
        <time>2023-10-04T09:13:08.000Z</time>
      </trkpt>
      <trkpt lat="45.7907" lon="4.65679">
        <ele>513.24274</ele>
        <time>2023-10-04T09:13:09.000Z</time>
      </trkpt>
      <trkpt lat="45.79073" lon="4.65682">
        <ele>512.82092</ele>
        <time>2023-10-04T09:13:10.000Z</time>
      </trkpt>
      <trkpt lat="45.79077" lon="4.65688">
        <ele>512.42773</ele>
        <time>2023-10-04T09:13:11.000Z</time>
      </trkpt>
      <trkpt lat="45.79082" lon="4.65692">
        <ele>512.01868</ele>
        <time>2023-10-04T09:13:12.000Z</time>
      </trkpt>
      <trkpt lat="45.79087" lon="4.65697">
        <ele>511.63419</ele>
        <time>2023-10-04T09:13:13.000Z</time>
      </trkpt>
      <trkpt lat="45.79094" lon="4.65701">
        <ele>511.24594</ele>
        <time>2023-10-04T09:13:14.000Z</time>
      </trkpt>
      <trkpt lat="45.79098" lon="4.65705">
        <ele>510.88461</ele>
        <time>2023-10-04T09:13:15.000Z</time>
      </trkpt>
      <trkpt lat="45.79102" lon="4.6571">
        <ele>510.49258</ele>
        <time>2023-10-04T09:13:16.000Z</time>
      </trkpt>
      <trkpt lat="45.79105" lon="4.65716">
        <ele>510.15976</ele>
        <time>2023-10-04T09:13:17.000Z</time>
      </trkpt>
      <trkpt lat="45.79109" lon="4.65718">
        <ele>509.61835</ele>
        <time>2023-10-04T09:13:18.000Z</time>
      </trkpt>
      <trkpt lat="45.79112" lon="4.65721">
        <ele>509.09906</ele>
        <time>2023-10-04T09:13:19.000Z</time>
      </trkpt>
      <trkpt lat="45.79115" lon="4.65722">
        <ele>508.76855</ele>
        <time>2023-10-04T09:13:20.000Z</time>
      </trkpt>
      <trkpt lat="45.79118" lon="4.65722">
        <ele>508.51166</ele>
        <time>2023-10-04T09:13:21.000Z</time>
      </trkpt>
      <trkpt lat="45.79124" lon="4.65722">
        <ele>508.26715</ele>
        <time>2023-10-04T09:13:23.000Z</time>
      </trkpt>
      <trkpt lat="45.79127" lon="4.65722">
        <ele>508.0148</ele>
        <time>2023-10-04T09:13:24.000Z</time>
      </trkpt>
      <trkpt lat="45.7913" lon="4.65723">
        <ele>507.76837</ele>
        <time>2023-10-04T09:13:25.000Z</time>
      </trkpt>
      <trkpt lat="45.79135" lon="4.65724">
        <ele>507.51898</ele>
        <time>2023-10-04T09:13:26.000Z</time>
      </trkpt>
      <trkpt lat="45.79138" lon="4.65725">
        <ele>507.39633</ele>
        <time>2023-10-04T09:13:27.000Z</time>
      </trkpt>
      <trkpt lat="45.79142" lon="4.65726">
        <ele>507.26498</ele>
        <time>2023-10-04T09:13:28.000Z</time>
      </trkpt>
      <trkpt lat="45.79146" lon="4.65726">
        <ele>507.12476</ele>
        <time>2023-10-04T09:13:29.000Z</time>
      </trkpt>
      <trkpt lat="45.79149" lon="4.65727">
        <ele>507.02313</ele>
        <time>2023-10-04T09:13:30.000Z</time>
      </trkpt>
      <trkpt lat="45.79152" lon="4.65727">
        <ele>506.89764</ele>
        <time>2023-10-04T09:13:31.000Z</time>
      </trkpt>
      <trkpt lat="45.79155" lon="4.65728">
        <ele>504.10898</ele>
        <time>2023-10-04T09:13:32.000Z</time>
      </trkpt>
      <trkpt lat="45.79157" lon="4.65729">
        <ele>503.88565</ele>
        <time>2023-10-04T09:13:33.000Z</time>
      </trkpt>
      <trkpt lat="45.7916" lon="4.65732">
        <ele>503.66269</ele>
        <time>2023-10-04T09:13:34.000Z</time>
      </trkpt>
      <trkpt lat="45.79162" lon="4.65734">
        <ele>503.43839</ele>
        <time>2023-10-04T09:13:35.000Z</time>
      </trkpt>
      <trkpt lat="45.79165" lon="4.65737">
        <ele>503.18497</ele>
        <time>2023-10-04T09:13:36.000Z</time>
      </trkpt>
      <trkpt lat="45.79169" lon="4.65739">
        <ele>502.95392</ele>
        <time>2023-10-04T09:13:37.000Z</time>
      </trkpt>
      <trkpt lat="45.79174" lon="4.65741">
        <ele>499.85455</ele>
        <time>2023-10-04T09:13:38.000Z</time>
      </trkpt>
      <trkpt lat="45.79179" lon="4.65742">
        <ele>499.61026</ele>
        <time>2023-10-04T09:13:39.000Z</time>
      </trkpt>
      <trkpt lat="45.79186" lon="4.65742">
        <ele>499.36313</ele>
        <time>2023-10-04T09:13:40.000Z</time>
      </trkpt>
      <trkpt lat="45.79193" lon="4.65741">
        <ele>499.0687</ele>
        <time>2023-10-04T09:13:41.000Z</time>
      </trkpt>
      <trkpt lat="45.79201" lon="4.65741">
        <ele>498.74713</ele>
        <time>2023-10-04T09:13:42.000Z</time>
      </trkpt>
      <trkpt lat="45.79208" lon="4.65743">
        <ele>498.40741</ele>
        <time>2023-10-04T09:13:43.000Z</time>
      </trkpt>
      <trkpt lat="45.79216" lon="4.65745">
        <ele>495.4747</ele>
        <time>2023-10-04T09:13:44.000Z</time>
      </trkpt>
      <trkpt lat="45.79224" lon="4.65745">
        <ele>494.85678</ele>
        <time>2023-10-04T09:13:45.000Z</time>
      </trkpt>
      <trkpt lat="45.79231" lon="4.65746">
        <ele>494.26642</ele>
        <time>2023-10-04T09:13:46.000Z</time>
      </trkpt>
      <trkpt lat="45.79239" lon="4.65746">
        <ele>493.5517</ele>
        <time>2023-10-04T09:13:47.000Z</time>
      </trkpt>
      <trkpt lat="45.79247" lon="4.65746">
        <ele>492.7912</ele>
        <time>2023-10-04T09:13:48.000Z</time>
      </trkpt>
      <trkpt lat="45.79252" lon="4.6575">
        <ele>492.0018</ele>
        <time>2023-10-04T09:13:49.000Z</time>
      </trkpt>
      <trkpt lat="45.79256" lon="4.65751">
        <ele>491.17706</ele>
        <time>2023-10-04T09:13:50.000Z</time>
      </trkpt>
      <trkpt lat="45.79259" lon="4.65751">
        <ele>490.53839</ele>
        <time>2023-10-04T09:13:51.000Z</time>
      </trkpt>
      <trkpt lat="45.79262" lon="4.6575">
        <ele>492.68253</ele>
        <time>2023-10-04T09:13:52.000Z</time>
      </trkpt>
      <trkpt lat="45.79265" lon="4.6575">
        <ele>492.29135</ele>
        <time>2023-10-04T09:13:53.000Z</time>
      </trkpt>
      <trkpt lat="45.79269" lon="4.6575">
        <ele>491.95468</ele>
        <time>2023-10-04T09:13:54.000Z</time>
      </trkpt>
      <trkpt lat="45.79273" lon="4.65749">
        <ele>491.62256</ele>
        <time>2023-10-04T09:13:55.000Z</time>
      </trkpt>
      <trkpt lat="45.79278" lon="4.6575">
        <ele>491.18109</ele>
        <time>2023-10-04T09:13:56.000Z</time>
      </trkpt>
      <trkpt lat="45.79283" lon="4.65751">
        <ele>490.75409</ele>
        <time>2023-10-04T09:13:57.000Z</time>
      </trkpt>
      <trkpt lat="45.79286" lon="4.65752">
        <ele>493.12592</ele>
        <time>2023-10-04T09:13:58.000Z</time>
      </trkpt>
      <trkpt lat="45.79291" lon="4.65751">
        <ele>492.84506</ele>
        <time>2023-10-04T09:13:59.000Z</time>
      </trkpt>
      <trkpt lat="45.79294" lon="4.65751">
        <ele>492.55048</ele>
        <time>2023-10-04T09:14:00.000Z</time>
      </trkpt>
      <trkpt lat="45.79298" lon="4.6575">
        <ele>492.27036</ele>
        <time>2023-10-04T09:14:01.000Z</time>
      </trkpt>
      <trkpt lat="45.79305" lon="4.65748">
        <ele>491.99823</ele>
        <time>2023-10-04T09:14:02.000Z</time>
      </trkpt>
      <trkpt lat="45.79311" lon="4.65747">
        <ele>491.71738</ele>
        <time>2023-10-04T09:14:03.000Z</time>
      </trkpt>
      <trkpt lat="45.79318" lon="4.65746">
        <ele>494.00995</ele>
        <time>2023-10-04T09:14:04.000Z</time>
      </trkpt>
      <trkpt lat="45.79323" lon="4.65748">
        <ele>493.90533</ele>
        <time>2023-10-04T09:14:05.000Z</time>
      </trkpt>
      <trkpt lat="45.79328" lon="4.65748">
        <ele>493.72198</ele>
        <time>2023-10-04T09:14:06.000Z</time>
      </trkpt>
      <trkpt lat="45.79333" lon="4.65748">
        <ele>493.3497</ele>
        <time>2023-10-04T09:14:07.000Z</time>
      </trkpt>
      <trkpt lat="45.79337" lon="4.65745">
        <ele>493.30649</ele>
        <time>2023-10-04T09:14:08.000Z</time>
      </trkpt>
      <trkpt lat="45.79342" lon="4.65743">
        <ele>493.29034</ele>
        <time>2023-10-04T09:14:09.000Z</time>
      </trkpt>
      <trkpt lat="45.79348" lon="4.65741">
        <ele>493.30185</ele>
        <time>2023-10-04T09:14:10.000Z</time>
      </trkpt>
      <trkpt lat="45.79355" lon="4.65742">
        <ele>493.10516</ele>
        <time>2023-10-04T09:14:11.000Z</time>
      </trkpt>
      <trkpt lat="45.79361" lon="4.65743">
        <ele>492.54239</ele>
        <time>2023-10-04T09:14:12.000Z</time>
      </trkpt>
      <trkpt lat="45.79368" lon="4.65744">
        <ele>491.98926</ele>
        <time>2023-10-04T09:14:13.000Z</time>
      </trkpt>
      <trkpt lat="45.79375" lon="4.65743">
        <ele>491.36099</ele>
        <time>2023-10-04T09:14:14.000Z</time>
      </trkpt>
      <trkpt lat="45.7938" lon="4.65745">
        <ele>490.75244</ele>
        <time>2023-10-04T09:14:15.000Z</time>
      </trkpt>
      <trkpt lat="45.79385" lon="4.65747">
        <ele>490.25684</ele>
        <time>2023-10-04T09:14:16.000Z</time>
      </trkpt>
      <trkpt lat="45.7939" lon="4.65748">
        <ele>489.746</ele>
        <time>2023-10-04T09:14:17.000Z</time>
      </trkpt>
      <trkpt lat="45.79395" lon="4.65749">
        <ele>489.41388</ele>
        <time>2023-10-04T09:14:18.000Z</time>
      </trkpt>
      <trkpt lat="45.794" lon="4.65749">
        <ele>489.07886</ele>
        <time>2023-10-04T09:14:19.000Z</time>
      </trkpt>
      <trkpt lat="45.79403" lon="4.65748">
        <ele>488.84116</ele>
        <time>2023-10-04T09:14:20.000Z</time>
      </trkpt>
      <trkpt lat="45.79406" lon="4.6575">
        <ele>488.60675</ele>
        <time>2023-10-04T09:14:21.000Z</time>
      </trkpt>
      <trkpt lat="45.79412" lon="4.6575">
        <ele>488.21353</ele>
        <time>2023-10-04T09:14:22.000Z</time>
      </trkpt>
      <trkpt lat="45.79417" lon="4.65753">
        <ele>487.84064</ele>
        <time>2023-10-04T09:14:23.000Z</time>
      </trkpt>
      <trkpt lat="45.79423" lon="4.65755">
        <ele>487.47137</ele>
        <time>2023-10-04T09:14:24.000Z</time>
      </trkpt>
      <trkpt lat="45.79429" lon="4.65756">
        <ele>487.11841</ele>
        <time>2023-10-04T09:14:25.000Z</time>
      </trkpt>
      <trkpt lat="45.79435" lon="4.65755">
        <ele>486.82867</ele>
        <time>2023-10-04T09:14:26.000Z</time>
      </trkpt>
      <trkpt lat="45.79442" lon="4.65756">
        <ele>486.75128</ele>
        <time>2023-10-04T09:14:27.000Z</time>
      </trkpt>
      <trkpt lat="45.79449" lon="4.65756">
        <ele>486.41031</ele>
        <time>2023-10-04T09:14:28.000Z</time>
      </trkpt>
      <trkpt lat="45.79455" lon="4.65757">
        <ele>486.04376</ele>
        <time>2023-10-04T09:14:29.000Z</time>
      </trkpt>
      <trkpt lat="45.7946" lon="4.65758">
        <ele>485.70819</ele>
        <time>2023-10-04T09:14:30.000Z</time>
      </trkpt>
      <trkpt lat="45.79464" lon="4.65765">
        <ele>485.41473</ele>
        <time>2023-10-04T09:14:31.000Z</time>
      </trkpt>
      <trkpt lat="45.79469" lon="4.65766">
        <ele>485.11182</ele>
        <time>2023-10-04T09:14:32.000Z</time>
      </trkpt>
      <trkpt lat="45.79473" lon="4.65768">
        <ele>484.80548</ele>
        <time>2023-10-04T09:14:33.000Z</time>
      </trkpt>
      <trkpt lat="45.79479" lon="4.65769">
        <ele>484.4787</ele>
        <time>2023-10-04T09:14:34.000Z</time>
      </trkpt>
      <trkpt lat="45.79483" lon="4.65771">
        <ele>484.14127</ele>
        <time>2023-10-04T09:14:35.000Z</time>
      </trkpt>
      <trkpt lat="45.79487" lon="4.65772">
        <ele>483.85284</ele>
        <time>2023-10-04T09:14:36.000Z</time>
      </trkpt>
      <trkpt lat="45.79491" lon="4.65775">
        <ele>483.58734</ele>
        <time>2023-10-04T09:14:37.000Z</time>
      </trkpt>
      <trkpt lat="45.79495" lon="4.65777">
        <ele>483.19342</ele>
        <time>2023-10-04T09:14:38.000Z</time>
      </trkpt>
      <trkpt lat="45.79499" lon="4.6578">
        <ele>482.69684</ele>
        <time>2023-10-04T09:14:39.000Z</time>
      </trkpt>
      <trkpt lat="45.79502" lon="4.65784">
        <ele>482.07208</ele>
        <time>2023-10-04T09:14:40.000Z</time>
      </trkpt>
      <trkpt lat="45.79507" lon="4.65785">
        <ele>481.41928</ele>
        <time>2023-10-04T09:14:41.000Z</time>
      </trkpt>
      <trkpt lat="45.79512" lon="4.65789">
        <ele>480.9252</ele>
        <time>2023-10-04T09:14:42.000Z</time>
      </trkpt>
      <trkpt lat="45.79517" lon="4.65792">
        <ele>480.46344</ele>
        <time>2023-10-04T09:14:43.000Z</time>
      </trkpt>
      <trkpt lat="45.7952" lon="4.65798">
        <ele>480.04852</ele>
        <time>2023-10-04T09:14:44.000Z</time>
      </trkpt>
      <trkpt lat="45.79524" lon="4.65802">
        <ele>479.62955</ele>
        <time>2023-10-04T09:14:45.000Z</time>
      </trkpt>
      <trkpt lat="45.79528" lon="4.65807">
        <ele>479.20346</ele>
        <time>2023-10-04T09:14:46.000Z</time>
      </trkpt>
      <trkpt lat="45.79531" lon="4.65809">
        <ele>478.85825</ele>
        <time>2023-10-04T09:14:47.000Z</time>
      </trkpt>
      <trkpt lat="45.79534" lon="4.6581">
        <ele>478.54727</ele>
        <time>2023-10-04T09:14:48.000Z</time>
      </trkpt>
      <trkpt lat="45.79538" lon="4.65811">
        <ele>478.26532</ele>
        <time>2023-10-04T09:14:49.000Z</time>
      </trkpt>
      <trkpt lat="45.79541" lon="4.65813">
        <ele>477.7269</ele>
        <time>2023-10-04T09:14:50.000Z</time>
      </trkpt>
      <trkpt lat="45.79545" lon="4.65815">
        <ele>477.15332</ele>
        <time>2023-10-04T09:14:51.000Z</time>
      </trkpt>
      <trkpt lat="45.79548" lon="4.65818">
        <ele>476.9686</ele>
        <time>2023-10-04T09:14:52.000Z</time>
      </trkpt>
      <trkpt lat="45.79553" lon="4.6582">
        <ele>476.8024</ele>
        <time>2023-10-04T09:14:53.000Z</time>
      </trkpt>
      <trkpt lat="45.79558" lon="4.65824">
        <ele>476.73993</ele>
        <time>2023-10-04T09:14:54.000Z</time>
      </trkpt>
      <trkpt lat="45.79562" lon="4.65825">
        <ele>476.67194</ele>
        <time>2023-10-04T09:14:55.000Z</time>
      </trkpt>
      <trkpt lat="45.79567" lon="4.65826">
        <ele>476.55908</ele>
        <time>2023-10-04T09:14:56.000Z</time>
      </trkpt>
      <trkpt lat="45.79572" lon="4.65829">
        <ele>476.43115</ele>
        <time>2023-10-04T09:14:57.000Z</time>
      </trkpt>
      <trkpt lat="45.79576" lon="4.6583">
        <ele>476.25888</ele>
        <time>2023-10-04T09:14:58.000Z</time>
      </trkpt>
      <trkpt lat="45.79582" lon="4.65832">
        <ele>472.13751</ele>
        <time>2023-10-04T09:14:59.000Z</time>
      </trkpt>
      <trkpt lat="45.79586" lon="4.65834">
        <ele>471.9209</ele>
        <time>2023-10-04T09:15:00.000Z</time>
      </trkpt>
      <trkpt lat="45.7959" lon="4.6584">
        <ele>471.71613</ele>
        <time>2023-10-04T09:15:01.000Z</time>
      </trkpt>
      <trkpt lat="45.79594" lon="4.65839">
        <ele>471.5079</ele>
        <time>2023-10-04T09:15:02.000Z</time>
      </trkpt>
      <trkpt lat="45.79599" lon="4.65837">
        <ele>471.26147</ele>
        <time>2023-10-04T09:15:03.000Z</time>
      </trkpt>
      <trkpt lat="45.79604" lon="4.65836">
        <ele>470.98737</ele>
        <time>2023-10-04T09:15:04.000Z</time>
      </trkpt>
      <trkpt lat="45.79609" lon="4.65836">
        <ele>466.97894</ele>
        <time>2023-10-04T09:15:05.000Z</time>
      </trkpt>
      <trkpt lat="45.79615" lon="4.65838">
        <ele>466.54437</ele>
        <time>2023-10-04T09:15:06.000Z</time>
      </trkpt>
      <trkpt lat="45.79619" lon="4.65836">
        <ele>466.00522</ele>
        <time>2023-10-04T09:15:07.000Z</time>
      </trkpt>
      <trkpt lat="45.79623" lon="4.65833">
        <ele>465.3913</ele>
        <time>2023-10-04T09:15:08.000Z</time>
      </trkpt>
      <trkpt lat="45.79629" lon="4.65832">
        <ele>464.75171</ele>
        <time>2023-10-04T09:15:09.000Z</time>
      </trkpt>
      <trkpt lat="45.79634" lon="4.6583">
        <ele>464.32025</ele>
        <time>2023-10-04T09:15:10.000Z</time>
      </trkpt>
      <trkpt lat="45.79639" lon="4.65828">
        <ele>460.22559</ele>
        <time>2023-10-04T09:15:11.000Z</time>
      </trkpt>
      <trkpt lat="45.79644" lon="4.65827">
        <ele>459.47284</ele>
        <time>2023-10-04T09:15:12.000Z</time>
      </trkpt>
      <trkpt lat="45.79649" lon="4.65826">
        <ele>458.65787</ele>
        <time>2023-10-04T09:15:13.000Z</time>
      </trkpt>
      <trkpt lat="45.79654" lon="4.65823">
        <ele>457.75064</ele>
        <time>2023-10-04T09:15:14.000Z</time>
      </trkpt>
      <trkpt lat="45.79659" lon="4.6582">
        <ele>456.80118</ele>
        <time>2023-10-04T09:15:15.000Z</time>
      </trkpt>
      <trkpt lat="45.79664" lon="4.65818">
        <ele>455.80762</ele>
        <time>2023-10-04T09:15:16.000Z</time>
      </trkpt>
      <trkpt lat="45.79668" lon="4.65815">
        <ele>452.48599</ele>
        <time>2023-10-04T09:15:17.000Z</time>
      </trkpt>
      <trkpt lat="45.79673" lon="4.65813">
        <ele>451.28876</ele>
        <time>2023-10-04T09:15:18.000Z</time>
      </trkpt>
      <trkpt lat="45.79679" lon="4.6581">
        <ele>454.09433</ele>
        <time>2023-10-04T09:15:19.000Z</time>
      </trkpt>
      <trkpt lat="45.79684" lon="4.65806">
        <ele>453.1922</ele>
        <time>2023-10-04T09:15:20.000Z</time>
      </trkpt>
      <trkpt lat="45.79689" lon="4.65805">
        <ele>452.25577</ele>
        <time>2023-10-04T09:15:21.000Z</time>
      </trkpt>
      <trkpt lat="45.79694" lon="4.65803">
        <ele>451.28278</ele>
        <time>2023-10-04T09:15:22.000Z</time>
      </trkpt>
      <trkpt lat="45.79699" lon="4.65801">
        <ele>447.1861</ele>
        <time>2023-10-04T09:15:23.000Z</time>
      </trkpt>
      <trkpt lat="45.79703" lon="4.658">
        <ele>445.98233</ele>
        <time>2023-10-04T09:15:24.000Z</time>
      </trkpt>
      <trkpt lat="45.79708" lon="4.65797">
        <ele>448.49274</ele>
        <time>2023-10-04T09:15:25.000Z</time>
      </trkpt>
      <trkpt lat="45.79713" lon="4.65795">
        <ele>447.56845</ele>
        <time>2023-10-04T09:15:26.000Z</time>
      </trkpt>
      <trkpt lat="45.79717" lon="4.65792">
        <ele>446.61969</ele>
        <time>2023-10-04T09:15:27.000Z</time>
      </trkpt>
      <trkpt lat="45.79721" lon="4.6579">
        <ele>445.65045</ele>
        <time>2023-10-04T09:15:28.000Z</time>
      </trkpt>
      <trkpt lat="45.79725" lon="4.65788">
        <ele>442.7561</ele>
        <time>2023-10-04T09:15:29.000Z</time>
      </trkpt>
      <trkpt lat="45.79728" lon="4.65786">
        <ele>441.65631</ele>
        <time>2023-10-04T09:15:30.000Z</time>
      </trkpt>
      <trkpt lat="45.79732" lon="4.65785">
        <ele>444.185</ele>
        <time>2023-10-04T09:15:31.000Z</time>
      </trkpt>
      <trkpt lat="45.79736" lon="4.65783">
        <ele>443.38297</ele>
        <time>2023-10-04T09:15:32.000Z</time>
      </trkpt>
      <trkpt lat="45.7974" lon="4.6578">
        <ele>442.57846</ele>
        <time>2023-10-04T09:15:33.000Z</time>
      </trkpt>
      <trkpt lat="45.79743" lon="4.65777">
        <ele>441.77448</ele>
        <time>2023-10-04T09:15:34.000Z</time>
      </trkpt>
      <trkpt lat="45.79746" lon="4.65775">
        <ele>439.1767</ele>
        <time>2023-10-04T09:15:35.000Z</time>
      </trkpt>
      <trkpt lat="45.79749" lon="4.65774">
        <ele>438.2955</ele>
        <time>2023-10-04T09:15:36.000Z</time>
      </trkpt>
      <trkpt lat="45.79752" lon="4.65772">
        <ele>439.70401</ele>
        <time>2023-10-04T09:15:37.000Z</time>
      </trkpt>
      <trkpt lat="45.79754" lon="4.6577">
        <ele>439.06488</ele>
        <time>2023-10-04T09:15:38.000Z</time>
      </trkpt>
      <trkpt lat="45.79756" lon="4.65768">
        <ele>438.45367</ele>
        <time>2023-10-04T09:15:39.000Z</time>
      </trkpt>
      <trkpt lat="45.79759" lon="4.65768">
        <ele>437.67163</ele>
        <time>2023-10-04T09:15:40.000Z</time>
      </trkpt>
      <trkpt lat="45.79761" lon="4.65767">
        <ele>435.05475</ele>
        <time>2023-10-04T09:15:41.000Z</time>
      </trkpt>
      <trkpt lat="45.79763" lon="4.65766">
        <ele>434.19467</ele>
        <time>2023-10-04T09:15:42.000Z</time>
      </trkpt>
      <trkpt lat="45.79765" lon="4.65765">
        <ele>436.42569</ele>
        <time>2023-10-04T09:15:43.000Z</time>
      </trkpt>
      <trkpt lat="45.79768" lon="4.65765">
        <ele>435.88763</ele>
        <time>2023-10-04T09:15:45.000Z</time>
      </trkpt>
      <trkpt lat="45.7977" lon="4.65762">
        <ele>432.5152</ele>
        <time>2023-10-04T09:15:47.000Z</time>
      </trkpt>
      <trkpt lat="45.79773" lon="4.65762">
        <ele>431.71631</ele>
        <time>2023-10-04T09:15:52.000Z</time>
      </trkpt>
      <trkpt lat="45.79775" lon="4.65762">
        <ele>429.36459</ele>
        <time>2023-10-04T09:15:53.000Z</time>
      </trkpt>
      <trkpt lat="45.79778" lon="4.65762">
        <ele>427.06729</ele>
        <time>2023-10-04T09:15:54.000Z</time>
      </trkpt>
      <trkpt lat="45.79782" lon="4.65762">
        <ele>426.71884</ele>
        <time>2023-10-04T09:15:55.000Z</time>
      </trkpt>
      <trkpt lat="45.79785" lon="4.65761">
        <ele>424.59937</ele>
        <time>2023-10-04T09:15:56.000Z</time>
      </trkpt>
      <trkpt lat="45.79788" lon="4.65761">
        <ele>423.74652</ele>
        <time>2023-10-04T09:15:57.000Z</time>
      </trkpt>
      <trkpt lat="45.79791" lon="4.65761">
        <ele>422.72461</ele>
        <time>2023-10-04T09:15:58.000Z</time>
      </trkpt>
      <trkpt lat="45.79794" lon="4.65762">
        <ele>421.69171</ele>
        <time>2023-10-04T09:15:59.000Z</time>
      </trkpt>
      <trkpt lat="45.79797" lon="4.65763">
        <ele>419.94318</ele>
        <time>2023-10-04T09:16:00.000Z</time>
      </trkpt>
      <trkpt lat="45.798" lon="4.65763">
        <ele>419.73969</ele>
        <time>2023-10-04T09:16:01.000Z</time>
      </trkpt>
      <trkpt lat="45.79802" lon="4.65763">
        <ele>417.8143</ele>
        <time>2023-10-04T09:16:02.000Z</time>
      </trkpt>
      <trkpt lat="45.79806" lon="4.65763">
        <ele>415.94263</ele>
        <time>2023-10-04T09:16:03.000Z</time>
      </trkpt>
      <trkpt lat="45.79809" lon="4.65762">
        <ele>414.01935</ele>
        <time>2023-10-04T09:16:04.000Z</time>
      </trkpt>
      <trkpt lat="45.79813" lon="4.65762">
        <ele>412.13998</ele>
        <time>2023-10-04T09:16:05.000Z</time>
      </trkpt>
      <trkpt lat="45.79816" lon="4.65761">
        <ele>410.28964</ele>
        <time>2023-10-04T09:16:06.000Z</time>
      </trkpt>
      <trkpt lat="45.7982" lon="4.6576">
        <ele>410.3851</ele>
        <time>2023-10-04T09:16:07.000Z</time>
      </trkpt>
      <trkpt lat="45.79823" lon="4.6576">
        <ele>408.71271</ele>
        <time>2023-10-04T09:16:08.000Z</time>
      </trkpt>
      <trkpt lat="45.79826" lon="4.65759">
        <ele>407.15161</ele>
        <time>2023-10-04T09:16:09.000Z</time>
      </trkpt>
      <trkpt lat="45.79829" lon="4.65759">
        <ele>405.47601</ele>
        <time>2023-10-04T09:16:10.000Z</time>
      </trkpt>
      <trkpt lat="45.79831" lon="4.65759">
        <ele>406.67142</ele>
        <time>2023-10-04T09:16:11.000Z</time>
      </trkpt>
      <trkpt lat="45.79834" lon="4.65759">
        <ele>405.03659</ele>
        <time>2023-10-04T09:16:12.000Z</time>
      </trkpt>
      <trkpt lat="45.79837" lon="4.65759">
        <ele>405.00909</ele>
        <time>2023-10-04T09:16:13.000Z</time>
      </trkpt>
      <trkpt lat="45.79839" lon="4.65758">
        <ele>404.97665</ele>
        <time>2023-10-04T09:16:14.000Z</time>
      </trkpt>
      <trkpt lat="45.79841" lon="4.65758">
        <ele>404.29083</ele>
        <time>2023-10-04T09:16:15.000Z</time>
      </trkpt>
      <trkpt lat="45.79844" lon="4.65757">
        <ele>405.47888</ele>
        <time>2023-10-04T09:16:16.000Z</time>
      </trkpt>
      <trkpt lat="45.79846" lon="4.65757">
        <ele>404.52289</ele>
        <time>2023-10-04T09:16:17.000Z</time>
      </trkpt>
      <trkpt lat="45.79848" lon="4.65757">
        <ele>402.15472</ele>
        <time>2023-10-04T09:16:18.000Z</time>
      </trkpt>
      <trkpt lat="45.79851" lon="4.65757">
        <ele>401.03922</ele>
        <time>2023-10-04T09:16:20.000Z</time>
      </trkpt>
      <trkpt lat="45.79853" lon="4.65756">
        <ele>400.68637</ele>
        <time>2023-10-04T09:16:21.000Z</time>
      </trkpt>
      <trkpt lat="45.79855" lon="4.65756">
        <ele>400.63773</ele>
        <time>2023-10-04T09:16:22.000Z</time>
      </trkpt>
      <trkpt lat="45.79858" lon="4.65755">
        <ele>400.64383</ele>
        <time>2023-10-04T09:16:24.000Z</time>
      </trkpt>
      <trkpt lat="45.79861" lon="4.65755">
        <ele>400.63461</ele>
        <time>2023-10-04T09:16:25.000Z</time>
      </trkpt>
      <trkpt lat="45.79863" lon="4.65755">
        <ele>400.61407</ele>
        <time>2023-10-04T09:16:26.000Z</time>
      </trkpt>
      <trkpt lat="45.79865" lon="4.65754">
        <ele>400.58609</ele>
        <time>2023-10-04T09:16:27.000Z</time>
      </trkpt>
      <trkpt lat="45.79867" lon="4.65753">
        <ele>399.88297</ele>
        <time>2023-10-04T09:16:28.000Z</time>
      </trkpt>
      <trkpt lat="45.79869" lon="4.65753">
        <ele>398.63971</ele>
        <time>2023-10-04T09:16:29.000Z</time>
      </trkpt>
      <trkpt lat="45.79872" lon="4.65752">
        <ele>398.8967</ele>
        <time>2023-10-04T09:16:30.000Z</time>
      </trkpt>
      <trkpt lat="45.79874" lon="4.65752">
        <ele>398.84503</ele>
        <time>2023-10-04T09:16:31.000Z</time>
      </trkpt>
      <trkpt lat="45.79876" lon="4.65752">
        <ele>399.42938</ele>
        <time>2023-10-04T09:16:32.000Z</time>
      </trkpt>
      <trkpt lat="45.79878" lon="4.65752">
        <ele>400.0412</ele>
        <time>2023-10-04T09:16:33.000Z</time>
      </trkpt>
      <trkpt lat="45.79881" lon="4.65752">
        <ele>400.75699</ele>
        <time>2023-10-04T09:16:34.000Z</time>
      </trkpt>
      <trkpt lat="45.79883" lon="4.65753">
        <ele>401.42566</ele>
        <time>2023-10-04T09:16:35.000Z</time>
      </trkpt>
      <trkpt lat="45.79885" lon="4.65753">
        <ele>402.1622</ele>
        <time>2023-10-04T09:16:36.000Z</time>
      </trkpt>
      <trkpt lat="45.79888" lon="4.65753">
        <ele>403.52313</ele>
        <time>2023-10-04T09:16:37.000Z</time>
      </trkpt>
      <trkpt lat="45.7989" lon="4.65752">
        <ele>403.05377</ele>
        <time>2023-10-04T09:16:38.000Z</time>
      </trkpt>
      <trkpt lat="45.79892" lon="4.65752">
        <ele>403.52594</ele>
        <time>2023-10-04T09:16:40.000Z</time>
      </trkpt>
      <trkpt lat="45.79894" lon="4.65753">
        <ele>405.4704</ele>
        <time>2023-10-04T09:16:47.000Z</time>
      </trkpt>
      <trkpt lat="45.79896" lon="4.65754">
        <ele>406.1586</ele>
        <time>2023-10-04T09:16:48.000Z</time>
      </trkpt>
      <trkpt lat="45.79898" lon="4.65753">
        <ele>406.84833</ele>
        <time>2023-10-04T09:16:49.000Z</time>
      </trkpt>
      <trkpt lat="45.799" lon="4.65753">
        <ele>407.52728</ele>
        <time>2023-10-04T09:16:50.000Z</time>
      </trkpt>
      <trkpt lat="45.79902" lon="4.65752">
        <ele>408.21808</ele>
        <time>2023-10-04T09:16:51.000Z</time>
      </trkpt>
      <trkpt lat="45.79905" lon="4.65751">
        <ele>408.91528</ele>
        <time>2023-10-04T09:16:52.000Z</time>
      </trkpt>
      <trkpt lat="45.79908" lon="4.65751">
        <ele>409.63263</ele>
        <time>2023-10-04T09:16:53.000Z</time>
      </trkpt>
      <trkpt lat="45.79911" lon="4.6575">
        <ele>410.29214</ele>
        <time>2023-10-04T09:16:54.000Z</time>
      </trkpt>
      <trkpt lat="45.79914" lon="4.6575">
        <ele>411.67499</ele>
        <time>2023-10-04T09:16:55.000Z</time>
      </trkpt>
      <trkpt lat="45.79916" lon="4.65749">
        <ele>413.51263</ele>
        <time>2023-10-04T09:16:56.000Z</time>
      </trkpt>
      <trkpt lat="45.79919" lon="4.65749">
        <ele>413.91846</ele>
        <time>2023-10-04T09:16:57.000Z</time>
      </trkpt>
      <trkpt lat="45.79921" lon="4.65748">
        <ele>414.56631</ele>
        <time>2023-10-04T09:16:58.000Z</time>
      </trkpt>
      <trkpt lat="45.79924" lon="4.65748">
        <ele>414.1062</ele>
        <time>2023-10-04T09:16:59.000Z</time>
      </trkpt>
      <trkpt lat="45.79926" lon="4.65748">
        <ele>413.64178</ele>
        <time>2023-10-04T09:17:00.000Z</time>
      </trkpt>
      <trkpt lat="45.79929" lon="4.65747">
        <ele>414.26709</ele>
        <time>2023-10-04T09:17:02.000Z</time>
      </trkpt>
      <trkpt lat="45.79932" lon="4.65746">
        <ele>414.8107</ele>
        <time>2023-10-04T09:17:04.000Z</time>
      </trkpt>
      <trkpt lat="45.79935" lon="4.65746">
        <ele>415.68057</ele>
        <time>2023-10-04T09:17:06.000Z</time>
      </trkpt>
      <trkpt lat="45.79938" lon="4.65746">
        <ele>416.56601</ele>
        <time>2023-10-04T09:17:08.000Z</time>
      </trkpt>
      <trkpt lat="45.79941" lon="4.65746">
        <ele>417.42911</ele>
        <time>2023-10-04T09:17:10.000Z</time>
      </trkpt>
      <trkpt lat="45.79944" lon="4.65746">
        <ele>417.95908</ele>
        <time>2023-10-04T09:17:12.000Z</time>
      </trkpt>
      <trkpt lat="45.79946" lon="4.65747">
        <ele>418.48203</ele>
        <time>2023-10-04T09:17:15.000Z</time>
      </trkpt>
      <trkpt lat="45.79949" lon="4.65747">
        <ele>419.01459</ele>
        <time>2023-10-04T09:17:17.000Z</time>
      </trkpt>
      <trkpt lat="45.79951" lon="4.65747">
        <ele>419.54095</ele>
        <time>2023-10-04T09:17:18.000Z</time>
      </trkpt>
      <trkpt lat="45.79953" lon="4.65747">
        <ele>420.38898</ele>
        <time>2023-10-04T09:17:19.000Z</time>
      </trkpt>
      <trkpt lat="45.79955" lon="4.65747">
        <ele>420.92172</ele>
        <time>2023-10-04T09:17:20.000Z</time>
      </trkpt>
      <trkpt lat="45.79958" lon="4.65748">
        <ele>421.42523</ele>
        <time>2023-10-04T09:17:21.000Z</time>
      </trkpt>
      <trkpt lat="45.7996" lon="4.65748">
        <ele>421.86441</ele>
        <time>2023-10-04T09:17:22.000Z</time>
      </trkpt>
      <trkpt lat="45.79963" lon="4.6575">
        <ele>422.36475</ele>
        <time>2023-10-04T09:17:23.000Z</time>
      </trkpt>
      <trkpt lat="45.79966" lon="4.6575">
        <ele>422.00717</ele>
        <time>2023-10-04T09:17:24.000Z</time>
      </trkpt>
      <trkpt lat="45.7997" lon="4.65751">
        <ele>421.6586</ele>
        <time>2023-10-04T09:17:25.000Z</time>
      </trkpt>
      <trkpt lat="45.79973" lon="4.65752">
        <ele>421.29688</ele>
        <time>2023-10-04T09:17:26.000Z</time>
      </trkpt>
      <trkpt lat="45.79978" lon="4.65754">
        <ele>420.92816</ele>
        <time>2023-10-04T09:17:27.000Z</time>
      </trkpt>
      <trkpt lat="45.79982" lon="4.65755">
        <ele>421.03778</ele>
        <time>2023-10-04T09:17:28.000Z</time>
      </trkpt>
      <trkpt lat="45.79986" lon="4.65757">
        <ele>421.16318</ele>
        <time>2023-10-04T09:17:29.000Z</time>
      </trkpt>
      <trkpt lat="45.79989" lon="4.65758">
        <ele>420.28726</ele>
        <time>2023-10-04T09:17:30.000Z</time>
      </trkpt>
      <trkpt lat="45.79992" lon="4.6576">
        <ele>419.53922</ele>
        <time>2023-10-04T09:17:31.000Z</time>
      </trkpt>
      <trkpt lat="45.79995" lon="4.65762">
        <ele>418.37958</ele>
        <time>2023-10-04T09:17:32.000Z</time>
      </trkpt>
      <trkpt lat="45.79998" lon="4.65763">
        <ele>417.22916</ele>
        <time>2023-10-04T09:17:33.000Z</time>
      </trkpt>
      <trkpt lat="45.80001" lon="4.65765">
        <ele>416.07632</ele>
        <time>2023-10-04T09:17:34.000Z</time>
      </trkpt>
      <trkpt lat="45.80005" lon="4.65767">
        <ele>415.26675</ele>
        <time>2023-10-04T09:17:35.000Z</time>
      </trkpt>
      <trkpt lat="45.80008" lon="4.6577">
        <ele>414.42587</ele>
        <time>2023-10-04T09:17:36.000Z</time>
      </trkpt>
      <trkpt lat="45.80012" lon="4.65771">
        <ele>412.85513</ele>
        <time>2023-10-04T09:17:37.000Z</time>
      </trkpt>
      <trkpt lat="45.80015" lon="4.65773">
        <ele>411.15924</ele>
        <time>2023-10-04T09:17:38.000Z</time>
      </trkpt>
      <trkpt lat="45.80019" lon="4.65776">
        <ele>409.13074</ele>
        <time>2023-10-04T09:17:39.000Z</time>
      </trkpt>
      <trkpt lat="45.80023" lon="4.65778">
        <ele>408.57068</ele>
        <time>2023-10-04T09:17:40.000Z</time>
      </trkpt>
      <trkpt lat="45.80028" lon="4.6578">
        <ele>407.83228</ele>
        <time>2023-10-04T09:17:41.000Z</time>
      </trkpt>
      <trkpt lat="45.80032" lon="4.65782">
        <ele>405.59283</ele>
        <time>2023-10-04T09:17:42.000Z</time>
      </trkpt>
      <trkpt lat="45.80037" lon="4.65784">
        <ele>404.54599</ele>
        <time>2023-10-04T09:17:43.000Z</time>
      </trkpt>
      <trkpt lat="45.80041" lon="4.65787">
        <ele>404.24396</ele>
        <time>2023-10-04T09:17:44.000Z</time>
      </trkpt>
      <trkpt lat="45.80046" lon="4.6579">
        <ele>403.95157</ele>
        <time>2023-10-04T09:17:45.000Z</time>
      </trkpt>
      <trkpt lat="45.8005" lon="4.65794">
        <ele>403.65204</ele>
        <time>2023-10-04T09:17:46.000Z</time>
      </trkpt>
      <trkpt lat="45.80055" lon="4.65797">
        <ele>403.43991</ele>
        <time>2023-10-04T09:17:47.000Z</time>
      </trkpt>
      <trkpt lat="45.8006" lon="4.658">
        <ele>403.2323</ele>
        <time>2023-10-04T09:17:48.000Z</time>
      </trkpt>
      <trkpt lat="45.80065" lon="4.65804">
        <ele>402.99908</ele>
        <time>2023-10-04T09:17:49.000Z</time>
      </trkpt>
      <trkpt lat="45.8007" lon="4.65807">
        <ele>402.69296</ele>
        <time>2023-10-04T09:17:50.000Z</time>
      </trkpt>
      <trkpt lat="45.80075" lon="4.6581">
        <ele>402.36407</ele>
        <time>2023-10-04T09:17:51.000Z</time>
      </trkpt>
      <trkpt lat="45.8008" lon="4.65813">
        <ele>402.0343</ele>
        <time>2023-10-04T09:17:52.000Z</time>
      </trkpt>
      <trkpt lat="45.80085" lon="4.65817">
        <ele>403.75644</ele>
        <time>2023-10-04T09:17:53.000Z</time>
      </trkpt>
      <trkpt lat="45.80091" lon="4.6582">
        <ele>403.49701</ele>
        <time>2023-10-04T09:17:54.000Z</time>
      </trkpt>
      <trkpt lat="45.80096" lon="4.65824">
        <ele>403.20532</ele>
        <time>2023-10-04T09:17:55.000Z</time>
      </trkpt>
      <trkpt lat="45.80101" lon="4.65827">
        <ele>402.91986</ele>
        <time>2023-10-04T09:17:56.000Z</time>
      </trkpt>
      <trkpt lat="45.80107" lon="4.65831">
        <ele>403.39511</ele>
        <time>2023-10-04T09:17:57.000Z</time>
      </trkpt>
      <trkpt lat="45.80112" lon="4.65835">
        <ele>404.01712</ele>
        <time>2023-10-04T09:17:58.000Z</time>
      </trkpt>
      <trkpt lat="45.80118" lon="4.65838">
        <ele>407.77084</ele>
        <time>2023-10-04T09:17:59.000Z</time>
      </trkpt>
      <trkpt lat="45.80124" lon="4.6584">
        <ele>407.45639</ele>
        <time>2023-10-04T09:18:00.000Z</time>
      </trkpt>
      <trkpt lat="45.80129" lon="4.65843">
        <ele>407.33304</ele>
        <time>2023-10-04T09:18:01.000Z</time>
      </trkpt>
      <trkpt lat="45.80134" lon="4.65846">
        <ele>408.74133</ele>
        <time>2023-10-04T09:18:02.000Z</time>
      </trkpt>
      <trkpt lat="45.8014" lon="4.6585">
        <ele>409.86905</ele>
        <time>2023-10-04T09:18:03.000Z</time>
      </trkpt>
      <trkpt lat="45.80146" lon="4.65854">
        <ele>410.96722</ele>
        <time>2023-10-04T09:18:04.000Z</time>
      </trkpt>
      <trkpt lat="45.80152" lon="4.65858">
        <ele>412.00684</ele>
        <time>2023-10-04T09:18:05.000Z</time>
      </trkpt>
      <trkpt lat="45.80157" lon="4.65861">
        <ele>413.06354</ele>
        <time>2023-10-04T09:18:06.000Z</time>
      </trkpt>
      <trkpt lat="45.80164" lon="4.65865">
        <ele>414.28745</ele>
        <time>2023-10-04T09:18:07.000Z</time>
      </trkpt>
      <trkpt lat="45.8017" lon="4.65868">
        <ele>414.82983</ele>
        <time>2023-10-04T09:18:08.000Z</time>
      </trkpt>
      <trkpt lat="45.80176" lon="4.65874">
        <ele>414.02216</ele>
        <time>2023-10-04T09:18:09.000Z</time>
      </trkpt>
      <trkpt lat="45.80181" lon="4.65878">
        <ele>413.233</ele>
        <time>2023-10-04T09:18:10.000Z</time>
      </trkpt>
      <trkpt lat="45.80187" lon="4.65885">
        <ele>412.41205</ele>
        <time>2023-10-04T09:18:11.000Z</time>
      </trkpt>
      <trkpt lat="45.80193" lon="4.6589">
        <ele>411.57819</ele>
        <time>2023-10-04T09:18:12.000Z</time>
      </trkpt>
      <trkpt lat="45.802" lon="4.65896">
        <ele>410.63925</ele>
        <time>2023-10-04T09:18:13.000Z</time>
      </trkpt>
      <trkpt lat="45.80206" lon="4.65901">
        <ele>411.60449</ele>
        <time>2023-10-04T09:18:14.000Z</time>
      </trkpt>
      <trkpt lat="45.80212" lon="4.65906">
        <ele>412.58063</ele>
        <time>2023-10-04T09:18:15.000Z</time>
      </trkpt>
      <trkpt lat="45.80217" lon="4.6591">
        <ele>413.5563</ele>
        <time>2023-10-04T09:18:16.000Z</time>
      </trkpt>
      <trkpt lat="45.80223" lon="4.65915">
        <ele>414.51041</ele>
        <time>2023-10-04T09:18:17.000Z</time>
      </trkpt>
      <trkpt lat="45.8023" lon="4.6592">
        <ele>415.31451</ele>
        <time>2023-10-04T09:18:18.000Z</time>
      </trkpt>
      <trkpt lat="45.80235" lon="4.65926">
        <ele>412.94394</ele>
        <time>2023-10-04T09:18:19.000Z</time>
      </trkpt>
      <trkpt lat="45.80241" lon="4.6593">
        <ele>413.71631</ele>
        <time>2023-10-04T09:18:20.000Z</time>
      </trkpt>
      <trkpt lat="45.80246" lon="4.65936">
        <ele>414.47055</ele>
        <time>2023-10-04T09:18:21.000Z</time>
      </trkpt>
      <trkpt lat="45.80251" lon="4.65941">
        <ele>415.23169</ele>
        <time>2023-10-04T09:18:22.000Z</time>
      </trkpt>
      <trkpt lat="45.80256" lon="4.65946">
        <ele>415.04672</ele>
        <time>2023-10-04T09:18:23.000Z</time>
      </trkpt>
      <trkpt lat="45.80261" lon="4.65952">
        <ele>414.9437</ele>
        <time>2023-10-04T09:18:24.000Z</time>
      </trkpt>
      <trkpt lat="45.80267" lon="4.65957">
        <ele>414.8772</ele>
        <time>2023-10-04T09:18:25.000Z</time>
      </trkpt>
      <trkpt lat="45.80272" lon="4.65962">
        <ele>414.76553</ele>
        <time>2023-10-04T09:18:26.000Z</time>
      </trkpt>
      <trkpt lat="45.80277" lon="4.65966">
        <ele>414.23212</ele>
        <time>2023-10-04T09:18:27.000Z</time>
      </trkpt>
      <trkpt lat="45.80283" lon="4.65971">
        <ele>414.32144</ele>
        <time>2023-10-04T09:18:28.000Z</time>
      </trkpt>
      <trkpt lat="45.80289" lon="4.65973">
        <ele>415.93658</ele>
        <time>2023-10-04T09:18:29.000Z</time>
      </trkpt>
      <trkpt lat="45.80295" lon="4.65977">
        <ele>417.48349</ele>
        <time>2023-10-04T09:18:30.000Z</time>
      </trkpt>
      <trkpt lat="45.80301" lon="4.65981">
        <ele>419.03033</ele>
        <time>2023-10-04T09:18:31.000Z</time>
      </trkpt>
      <trkpt lat="45.80307" lon="4.65985">
        <ele>420.59067</ele>
        <time>2023-10-04T09:18:32.000Z</time>
      </trkpt>
      <trkpt lat="45.80314" lon="4.65988">
        <ele>420.19809</ele>
        <time>2023-10-04T09:18:33.000Z</time>
      </trkpt>
      <trkpt lat="45.8032" lon="4.65992">
        <ele>419.85953</ele>
        <time>2023-10-04T09:18:34.000Z</time>
      </trkpt>
      <trkpt lat="45.80326" lon="4.65995">
        <ele>419.50861</ele>
        <time>2023-10-04T09:18:35.000Z</time>
      </trkpt>
      <trkpt lat="45.80333" lon="4.65998">
        <ele>419.13153</ele>
        <time>2023-10-04T09:18:36.000Z</time>
      </trkpt>
      <trkpt lat="45.80339" lon="4.66001">
        <ele>418.78833</ele>
        <time>2023-10-04T09:18:37.000Z</time>
      </trkpt>
      <trkpt lat="45.80346" lon="4.66004">
        <ele>418.55966</ele>
        <time>2023-10-04T09:18:38.000Z</time>
      </trkpt>
      <trkpt lat="45.80352" lon="4.66006">
        <ele>418.35001</ele>
        <time>2023-10-04T09:18:39.000Z</time>
      </trkpt>
      <trkpt lat="45.80359" lon="4.66008">
        <ele>417.86322</ele>
        <time>2023-10-04T09:18:40.000Z</time>
      </trkpt>
      <trkpt lat="45.80365" lon="4.6601">
        <ele>417.38086</ele>
        <time>2023-10-04T09:18:41.000Z</time>
      </trkpt>
      <trkpt lat="45.80371" lon="4.66012">
        <ele>416.85541</ele>
        <time>2023-10-04T09:18:42.000Z</time>
      </trkpt>
      <trkpt lat="45.80378" lon="4.66013">
        <ele>416.34235</ele>
        <time>2023-10-04T09:18:43.000Z</time>
      </trkpt>
      <trkpt lat="45.80384" lon="4.66015">
        <ele>415.79047</ele>
        <time>2023-10-04T09:18:44.000Z</time>
      </trkpt>
      <trkpt lat="45.80392" lon="4.66017">
        <ele>415.27728</ele>
        <time>2023-10-04T09:18:45.000Z</time>
      </trkpt>
      <trkpt lat="45.804" lon="4.6602">
        <ele>414.74277</ele>
        <time>2023-10-04T09:18:46.000Z</time>
      </trkpt>
      <trkpt lat="45.80407" lon="4.66024">
        <ele>414.34912</ele>
        <time>2023-10-04T09:18:47.000Z</time>
      </trkpt>
      <trkpt lat="45.80415" lon="4.66027">
        <ele>413.9064</ele>
        <time>2023-10-04T09:18:48.000Z</time>
      </trkpt>
      <trkpt lat="45.80422" lon="4.66031">
        <ele>413.25714</ele>
        <time>2023-10-04T09:18:49.000Z</time>
      </trkpt>
      <trkpt lat="45.8043" lon="4.66035">
        <ele>412.62564</ele>
        <time>2023-10-04T09:18:50.000Z</time>
      </trkpt>
      <trkpt lat="45.80439" lon="4.6604">
        <ele>412.04941</ele>
        <time>2023-10-04T09:18:51.000Z</time>
      </trkpt>
      <trkpt lat="45.80448" lon="4.66045">
        <ele>411.43085</ele>
        <time>2023-10-04T09:18:52.000Z</time>
      </trkpt>
      <trkpt lat="45.80455" lon="4.66048">
        <ele>410.01132</ele>
        <time>2023-10-04T09:18:53.000Z</time>
      </trkpt>
      <trkpt lat="45.80463" lon="4.66052">
        <ele>408.7674</ele>
        <time>2023-10-04T09:18:54.000Z</time>
      </trkpt>
      <trkpt lat="45.80469" lon="4.66057">
        <ele>407.49057</ele>
        <time>2023-10-04T09:18:55.000Z</time>
      </trkpt>
      <trkpt lat="45.80476" lon="4.66059">
        <ele>406.17569</ele>
        <time>2023-10-04T09:18:56.000Z</time>
      </trkpt>
      <trkpt lat="45.80481" lon="4.66062">
        <ele>404.84799</ele>
        <time>2023-10-04T09:18:57.000Z</time>
      </trkpt>
      <trkpt lat="45.80487" lon="4.66063">
        <ele>403.53104</ele>
        <time>2023-10-04T09:18:58.000Z</time>
      </trkpt>
      <trkpt lat="45.80493" lon="4.66065">
        <ele>401.94733</ele>
        <time>2023-10-04T09:18:59.000Z</time>
      </trkpt>
      <trkpt lat="45.80499" lon="4.66069">
        <ele>401.28125</ele>
        <time>2023-10-04T09:19:00.000Z</time>
      </trkpt>
      <trkpt lat="45.80504" lon="4.66075">
        <ele>400.63425</ele>
        <time>2023-10-04T09:19:01.000Z</time>
      </trkpt>
      <trkpt lat="45.80509" lon="4.66082">
        <ele>400.04248</ele>
        <time>2023-10-04T09:19:02.000Z</time>
      </trkpt>
      <trkpt lat="45.80514" lon="4.66089">
        <ele>399.42908</ele>
        <time>2023-10-04T09:19:03.000Z</time>
      </trkpt>
      <trkpt lat="45.80519" lon="4.66096">
        <ele>398.83926</ele>
        <time>2023-10-04T09:19:04.000Z</time>
      </trkpt>
      <trkpt lat="45.80525" lon="4.66104">
        <ele>398.17834</ele>
        <time>2023-10-04T09:19:05.000Z</time>
      </trkpt>
      <trkpt lat="45.8053" lon="4.66111">
        <ele>397.55304</ele>
        <time>2023-10-04T09:19:06.000Z</time>
      </trkpt>
      <trkpt lat="45.80536" lon="4.66118">
        <ele>396.94769</ele>
        <time>2023-10-04T09:19:07.000Z</time>
      </trkpt>
      <trkpt lat="45.80542" lon="4.66126">
        <ele>395.87244</ele>
        <time>2023-10-04T09:19:08.000Z</time>
      </trkpt>
      <trkpt lat="45.80547" lon="4.66135">
        <ele>394.81378</ele>
        <time>2023-10-04T09:19:09.000Z</time>
      </trkpt>
      <trkpt lat="45.80551" lon="4.66143">
        <ele>393.81067</ele>
        <time>2023-10-04T09:19:10.000Z</time>
      </trkpt>
      <trkpt lat="45.80556" lon="4.66149">
        <ele>392.74237</ele>
        <time>2023-10-04T09:19:11.000Z</time>
      </trkpt>
      <trkpt lat="45.8056" lon="4.66154">
        <ele>391.72638</ele>
        <time>2023-10-04T09:19:12.000Z</time>
      </trkpt>
      <trkpt lat="45.80566" lon="4.66157">
        <ele>391.51569</ele>
        <time>2023-10-04T09:19:13.000Z</time>
      </trkpt>
      <trkpt lat="45.80571" lon="4.66156">
        <ele>390.02298</ele>
        <time>2023-10-04T09:19:14.000Z</time>
      </trkpt>
      <trkpt lat="45.80575" lon="4.66155">
        <ele>388.58453</ele>
        <time>2023-10-04T09:19:15.000Z</time>
      </trkpt>
      <trkpt lat="45.80578" lon="4.66153">
        <ele>388.56976</ele>
        <time>2023-10-04T09:19:16.000Z</time>
      </trkpt>
      <trkpt lat="45.80581" lon="4.66151">
        <ele>387.65106</ele>
        <time>2023-10-04T09:19:17.000Z</time>
      </trkpt>
      <trkpt lat="45.80585" lon="4.66154">
        <ele>386.38177</ele>
        <time>2023-10-04T09:19:18.000Z</time>
      </trkpt>
      <trkpt lat="45.80587" lon="4.66155">
        <ele>385.36078</ele>
        <time>2023-10-04T09:19:19.000Z</time>
      </trkpt>
      <trkpt lat="45.8059" lon="4.6616">
        <ele>383.32861</ele>
        <time>2023-10-04T09:19:21.000Z</time>
      </trkpt>
      <trkpt lat="45.80591" lon="4.66165">
        <ele>381.31799</ele>
        <time>2023-10-04T09:19:22.000Z</time>
      </trkpt>
      <trkpt lat="45.80592" lon="4.6617">
        <ele>379.29611</ele>
        <time>2023-10-04T09:19:23.000Z</time>
      </trkpt>
      <trkpt lat="45.80593" lon="4.66176">
        <ele>377.3447</ele>
        <time>2023-10-04T09:19:24.000Z</time>
      </trkpt>
      <trkpt lat="45.80594" lon="4.66181">
        <ele>375.33511</ele>
        <time>2023-10-04T09:19:25.000Z</time>
      </trkpt>
      <trkpt lat="45.80596" lon="4.66186">
        <ele>373.38736</ele>
        <time>2023-10-04T09:19:26.000Z</time>
      </trkpt>
      <trkpt lat="45.80598" lon="4.66193">
        <ele>371.4953</ele>
        <time>2023-10-04T09:19:27.000Z</time>
      </trkpt>
      <trkpt lat="45.806" lon="4.66199">
        <ele>369.62262</ele>
        <time>2023-10-04T09:19:28.000Z</time>
      </trkpt>
      <trkpt lat="45.80602" lon="4.66206">
        <ele>368.43933</ele>
        <time>2023-10-04T09:19:29.000Z</time>
      </trkpt>
      <trkpt lat="45.80604" lon="4.66212">
        <ele>367.3306</ele>
        <time>2023-10-04T09:19:30.000Z</time>
      </trkpt>
      <trkpt lat="45.80606" lon="4.66219">
        <ele>366.27594</ele>
        <time>2023-10-04T09:19:31.000Z</time>
      </trkpt>
      <trkpt lat="45.80609" lon="4.66226">
        <ele>365.30365</ele>
        <time>2023-10-04T09:19:32.000Z</time>
      </trkpt>
      <trkpt lat="45.80611" lon="4.66233">
        <ele>364.30273</ele>
        <time>2023-10-04T09:19:33.000Z</time>
      </trkpt>
      <trkpt lat="45.80612" lon="4.66239">
        <ele>363.3703</ele>
        <time>2023-10-04T09:19:34.000Z</time>
      </trkpt>
      <trkpt lat="45.80613" lon="4.66246">
        <ele>363.55139</ele>
        <time>2023-10-04T09:19:35.000Z</time>
      </trkpt>
      <trkpt lat="45.80615" lon="4.66251">
        <ele>363.71503</ele>
        <time>2023-10-04T09:19:36.000Z</time>
      </trkpt>
      <trkpt lat="45.80616" lon="4.66256">
        <ele>362.04083</ele>
        <time>2023-10-04T09:19:37.000Z</time>
      </trkpt>
      <trkpt lat="45.80617" lon="4.66261">
        <ele>361.40393</ele>
        <time>2023-10-04T09:19:38.000Z</time>
      </trkpt>
      <trkpt lat="45.80618" lon="4.66266">
        <ele>360.91534</ele>
        <time>2023-10-04T09:19:39.000Z</time>
      </trkpt>
      <trkpt lat="45.8062" lon="4.66271">
        <ele>361.21988</ele>
        <time>2023-10-04T09:19:40.000Z</time>
      </trkpt>
      <trkpt lat="45.8062" lon="4.66278">
        <ele>361.44427</ele>
        <time>2023-10-04T09:19:41.000Z</time>
      </trkpt>
      <trkpt lat="45.80622" lon="4.66284">
        <ele>361.64374</ele>
        <time>2023-10-04T09:19:42.000Z</time>
      </trkpt>
      <trkpt lat="45.80623" lon="4.6629">
        <ele>361.83633</ele>
        <time>2023-10-04T09:19:43.000Z</time>
      </trkpt>
      <trkpt lat="45.80625" lon="4.66297">
        <ele>361.98892</ele>
        <time>2023-10-04T09:19:44.000Z</time>
      </trkpt>
      <trkpt lat="45.80626" lon="4.66303">
        <ele>361.74298</ele>
        <time>2023-10-04T09:19:45.000Z</time>
      </trkpt>
      <trkpt lat="45.80628" lon="4.66309">
        <ele>361.48349</ele>
        <time>2023-10-04T09:19:46.000Z</time>
      </trkpt>
      <trkpt lat="45.80629" lon="4.66315">
        <ele>361.10684</ele>
        <time>2023-10-04T09:19:47.000Z</time>
      </trkpt>
      <trkpt lat="45.80631" lon="4.66322">
        <ele>361.44437</ele>
        <time>2023-10-04T09:19:48.000Z</time>
      </trkpt>
      <trkpt lat="45.80632" lon="4.66328">
        <ele>361.47662</ele>
        <time>2023-10-04T09:19:49.000Z</time>
      </trkpt>
      <trkpt lat="45.80634" lon="4.66334">
        <ele>361.44141</ele>
        <time>2023-10-04T09:19:50.000Z</time>
      </trkpt>
      <trkpt lat="45.80636" lon="4.66341">
        <ele>361.37433</ele>
        <time>2023-10-04T09:19:51.000Z</time>
      </trkpt>
      <trkpt lat="45.80637" lon="4.66346">
        <ele>361.28619</ele>
        <time>2023-10-04T09:19:52.000Z</time>
      </trkpt>
      <trkpt lat="45.80639" lon="4.66353">
        <ele>361.1716</ele>
        <time>2023-10-04T09:19:53.000Z</time>
      </trkpt>
      <trkpt lat="45.80641" lon="4.6636">
        <ele>360.98242</ele>
        <time>2023-10-04T09:19:54.000Z</time>
      </trkpt>
      <trkpt lat="45.80642" lon="4.66368">
        <ele>360.76501</ele>
        <time>2023-10-04T09:19:55.000Z</time>
      </trkpt>
      <trkpt lat="45.80644" lon="4.66375">
        <ele>360.54269</ele>
        <time>2023-10-04T09:19:56.000Z</time>
      </trkpt>
      <trkpt lat="45.80646" lon="4.66383">
        <ele>360.81787</ele>
        <time>2023-10-04T09:19:57.000Z</time>
      </trkpt>
      <trkpt lat="45.80648" lon="4.66391">
        <ele>360.99219</ele>
        <time>2023-10-04T09:19:58.000Z</time>
      </trkpt>
      <trkpt lat="45.8065" lon="4.66398">
        <ele>361.37402</ele>
        <time>2023-10-04T09:19:59.000Z</time>
      </trkpt>
      <trkpt lat="45.80652" lon="4.66406">
        <ele>360.67572</ele>
        <time>2023-10-04T09:20:00.000Z</time>
      </trkpt>
      <trkpt lat="45.80655" lon="4.66413">
        <ele>360.03165</ele>
        <time>2023-10-04T09:20:01.000Z</time>
      </trkpt>
      <trkpt lat="45.80658" lon="4.6642">
        <ele>359.31372</ele>
        <time>2023-10-04T09:20:02.000Z</time>
      </trkpt>
      <trkpt lat="45.8066" lon="4.66428">
        <ele>358.57578</ele>
        <time>2023-10-04T09:20:03.000Z</time>
      </trkpt>
      <trkpt lat="45.80662" lon="4.66437">
        <ele>358.51483</ele>
        <time>2023-10-04T09:20:04.000Z</time>
      </trkpt>
      <trkpt lat="45.80662" lon="4.66446">
        <ele>358.7923</ele>
        <time>2023-10-04T09:20:05.000Z</time>
      </trkpt>
      <trkpt lat="45.80661" lon="4.66455">
        <ele>359.11591</ele>
        <time>2023-10-04T09:20:06.000Z</time>
      </trkpt>
      <trkpt lat="45.80661" lon="4.66464">
        <ele>359.52277</ele>
        <time>2023-10-04T09:20:07.000Z</time>
      </trkpt>
      <trkpt lat="45.80663" lon="4.66472">
        <ele>359.20013</ele>
        <time>2023-10-04T09:20:08.000Z</time>
      </trkpt>
      <trkpt lat="45.80668" lon="4.66477">
        <ele>359.06573</ele>
        <time>2023-10-04T09:20:09.000Z</time>
      </trkpt>
      <trkpt lat="45.80672" lon="4.66478">
        <ele>358.91257</ele>
        <time>2023-10-04T09:20:10.000Z</time>
      </trkpt>
      <trkpt lat="45.80678" lon="4.66477">
        <ele>358.76602</ele>
        <time>2023-10-04T09:20:11.000Z</time>
      </trkpt>
      <trkpt lat="45.80682" lon="4.66475">
        <ele>358.56619</ele>
        <time>2023-10-04T09:20:12.000Z</time>
      </trkpt>
      <trkpt lat="45.80686" lon="4.66471">
        <ele>358.44186</ele>
        <time>2023-10-04T09:20:13.000Z</time>
      </trkpt>
      <trkpt lat="45.8069" lon="4.66468">
        <ele>358.37921</ele>
        <time>2023-10-04T09:20:14.000Z</time>
      </trkpt>
      <trkpt lat="45.80693" lon="4.66465">
        <ele>358.28864</ele>
        <time>2023-10-04T09:20:15.000Z</time>
      </trkpt>
      <trkpt lat="45.80698" lon="4.66464">
        <ele>357.74789</ele>
        <time>2023-10-04T09:20:16.000Z</time>
      </trkpt>
      <trkpt lat="45.80701" lon="4.66462">
        <ele>357.09006</ele>
        <time>2023-10-04T09:20:17.000Z</time>
      </trkpt>
      <trkpt lat="45.80705" lon="4.6646">
        <ele>356.34814</ele>
        <time>2023-10-04T09:20:18.000Z</time>
      </trkpt>
      <trkpt lat="45.8071" lon="4.66458">
        <ele>356.31857</ele>
        <time>2023-10-04T09:20:19.000Z</time>
      </trkpt>
      <trkpt lat="45.80714" lon="4.66458">
        <ele>356.5152</ele>
        <time>2023-10-04T09:20:20.000Z</time>
      </trkpt>
      <trkpt lat="45.80718" lon="4.66458">
        <ele>356.85422</ele>
        <time>2023-10-04T09:20:21.000Z</time>
      </trkpt>
      <trkpt lat="45.80723" lon="4.66458">
        <ele>357.27454</ele>
        <time>2023-10-04T09:20:22.000Z</time>
      </trkpt>
      <trkpt lat="45.80727" lon="4.66458">
        <ele>357.68823</ele>
        <time>2023-10-04T09:20:23.000Z</time>
      </trkpt>
      <trkpt lat="45.80733" lon="4.66459">
        <ele>357.38983</ele>
        <time>2023-10-04T09:20:24.000Z</time>
      </trkpt>
      <trkpt lat="45.80738" lon="4.66459">
        <ele>357.20889</ele>
        <time>2023-10-04T09:20:25.000Z</time>
      </trkpt>
      <trkpt lat="45.80743" lon="4.66459">
        <ele>357.0047</ele>
        <time>2023-10-04T09:20:26.000Z</time>
      </trkpt>
      <trkpt lat="45.80749" lon="4.66458">
        <ele>356.74103</ele>
        <time>2023-10-04T09:20:27.000Z</time>
      </trkpt>
      <trkpt lat="45.80754" lon="4.66458">
        <ele>356.50641</ele>
        <time>2023-10-04T09:20:28.000Z</time>
      </trkpt>
      <trkpt lat="45.8076" lon="4.66457">
        <ele>356.22012</ele>
        <time>2023-10-04T09:20:29.000Z</time>
      </trkpt>
      <trkpt lat="45.80765" lon="4.66456">
        <ele>355.94864</ele>
        <time>2023-10-04T09:20:30.000Z</time>
      </trkpt>
      <trkpt lat="45.80771" lon="4.66456">
        <ele>355.65323</ele>
        <time>2023-10-04T09:20:31.000Z</time>
      </trkpt>
      <trkpt lat="45.80776" lon="4.66455">
        <ele>355.38519</ele>
        <time>2023-10-04T09:20:32.000Z</time>
      </trkpt>
      <trkpt lat="45.80782" lon="4.66455">
        <ele>354.81631</ele>
        <time>2023-10-04T09:20:33.000Z</time>
      </trkpt>
      <trkpt lat="45.80788" lon="4.66454">
        <ele>354.19312</ele>
        <time>2023-10-04T09:20:34.000Z</time>
      </trkpt>
      <trkpt lat="45.80794" lon="4.66453">
        <ele>353.61652</ele>
        <time>2023-10-04T09:20:35.000Z</time>
      </trkpt>
      <trkpt lat="45.808" lon="4.66453">
        <ele>353.49481</ele>
        <time>2023-10-04T09:20:36.000Z</time>
      </trkpt>
      <trkpt lat="45.80806" lon="4.66452">
        <ele>353.33325</ele>
        <time>2023-10-04T09:20:37.000Z</time>
      </trkpt>
      <trkpt lat="45.80813" lon="4.66451">
        <ele>353.14767</ele>
        <time>2023-10-04T09:20:38.000Z</time>
      </trkpt>
      <trkpt lat="45.8082" lon="4.6645">
        <ele>352.79752</ele>
        <time>2023-10-04T09:20:39.000Z</time>
      </trkpt>
      <trkpt lat="45.80828" lon="4.6645">
        <ele>352.42755</ele>
        <time>2023-10-04T09:20:40.000Z</time>
      </trkpt>
      <trkpt lat="45.80835" lon="4.66449">
        <ele>352.03745</ele>
        <time>2023-10-04T09:20:41.000Z</time>
      </trkpt>
      <trkpt lat="45.80842" lon="4.66447">
        <ele>351.64926</ele>
        <time>2023-10-04T09:20:42.000Z</time>
      </trkpt>
      <trkpt lat="45.8085" lon="4.66446">
        <ele>351.25925</ele>
        <time>2023-10-04T09:20:43.000Z</time>
      </trkpt>
      <trkpt lat="45.80858" lon="4.66445">
        <ele>350.85135</ele>
        <time>2023-10-04T09:20:44.000Z</time>
      </trkpt>
      <trkpt lat="45.80865" lon="4.66442">
        <ele>350.47662</ele>
        <time>2023-10-04T09:20:45.000Z</time>
      </trkpt>
      <trkpt lat="45.80874" lon="4.6644">
        <ele>349.81622</ele>
        <time>2023-10-04T09:20:46.000Z</time>
      </trkpt>
      <trkpt lat="45.80882" lon="4.66438">
        <ele>349.2016</ele>
        <time>2023-10-04T09:20:47.000Z</time>
      </trkpt>
      <trkpt lat="45.80891" lon="4.66435">
        <ele>348.53607</ele>
        <time>2023-10-04T09:20:48.000Z</time>
      </trkpt>
      <trkpt lat="45.809" lon="4.66433">
        <ele>347.89337</ele>
        <time>2023-10-04T09:20:49.000Z</time>
      </trkpt>
      <trkpt lat="45.80909" lon="4.66429">
        <ele>347.15005</ele>
        <time>2023-10-04T09:20:50.000Z</time>
      </trkpt>
      <trkpt lat="45.80918" lon="4.66428">
        <ele>346.25592</ele>
        <time>2023-10-04T09:20:51.000Z</time>
      </trkpt>
      <trkpt lat="45.80927" lon="4.66426">
        <ele>345.32425</ele>
        <time>2023-10-04T09:20:52.000Z</time>
      </trkpt>
      <trkpt lat="45.80936" lon="4.66422">
        <ele>345.19034</ele>
        <time>2023-10-04T09:20:53.000Z</time>
      </trkpt>
      <trkpt lat="45.80946" lon="4.66419">
        <ele>344.99371</ele>
        <time>2023-10-04T09:20:54.000Z</time>
      </trkpt>
      <trkpt lat="45.80956" lon="4.66417">
        <ele>344.75519</ele>
        <time>2023-10-04T09:20:55.000Z</time>
      </trkpt>
      <trkpt lat="45.80965" lon="4.66414">
        <ele>344.50403</ele>
        <time>2023-10-04T09:20:56.000Z</time>
      </trkpt>
      <trkpt lat="45.80975" lon="4.66411">
        <ele>344.36584</ele>
        <time>2023-10-04T09:20:57.000Z</time>
      </trkpt>
      <trkpt lat="45.80985" lon="4.66409">
        <ele>344.28021</ele>
        <time>2023-10-04T09:20:58.000Z</time>
      </trkpt>
      <trkpt lat="45.80995" lon="4.66406">
        <ele>343.60269</ele>
        <time>2023-10-04T09:20:59.000Z</time>
      </trkpt>
      <trkpt lat="45.81004" lon="4.66402">
        <ele>343.03925</ele>
        <time>2023-10-04T09:21:00.000Z</time>
      </trkpt>
      <trkpt lat="45.81014" lon="4.664">
        <ele>342.46951</ele>
        <time>2023-10-04T09:21:01.000Z</time>
      </trkpt>
      <trkpt lat="45.81024" lon="4.66397">
        <ele>341.86392</ele>
        <time>2023-10-04T09:21:02.000Z</time>
      </trkpt>
      <trkpt lat="45.81034" lon="4.66395">
        <ele>340.99628</ele>
        <time>2023-10-04T09:21:03.000Z</time>
      </trkpt>
      <trkpt lat="45.81043" lon="4.66392">
        <ele>340.17273</ele>
        <time>2023-10-04T09:21:04.000Z</time>
      </trkpt>
      <trkpt lat="45.81053" lon="4.66389">
        <ele>339.29767</ele>
        <time>2023-10-04T09:21:05.000Z</time>
      </trkpt>
      <trkpt lat="45.81062" lon="4.66387">
        <ele>338.66534</ele>
        <time>2023-10-04T09:21:06.000Z</time>
      </trkpt>
      <trkpt lat="45.81072" lon="4.66384">
        <ele>338.42596</ele>
        <time>2023-10-04T09:21:07.000Z</time>
      </trkpt>
      <trkpt lat="45.81081" lon="4.66382">
        <ele>338.1373</ele>
        <time>2023-10-04T09:21:08.000Z</time>
      </trkpt>
      <trkpt lat="45.81091" lon="4.66379">
        <ele>337.76782</ele>
        <time>2023-10-04T09:21:09.000Z</time>
      </trkpt>
      <trkpt lat="45.811" lon="4.66377">
        <ele>337.56415</ele>
        <time>2023-10-04T09:21:10.000Z</time>
      </trkpt>
      <trkpt lat="45.8111" lon="4.66374">
        <ele>337.46329</ele>
        <time>2023-10-04T09:21:11.000Z</time>
      </trkpt>
      <trkpt lat="45.81119" lon="4.66371">
        <ele>337.41339</ele>
        <time>2023-10-04T09:21:12.000Z</time>
      </trkpt>
      <trkpt lat="45.81129" lon="4.66369">
        <ele>336.70834</ele>
        <time>2023-10-04T09:21:13.000Z</time>
      </trkpt>
      <trkpt lat="45.81138" lon="4.66367">
        <ele>336.27518</ele>
        <time>2023-10-04T09:21:14.000Z</time>
      </trkpt>
      <trkpt lat="45.81147" lon="4.66365">
        <ele>335.89581</ele>
        <time>2023-10-04T09:21:15.000Z</time>
      </trkpt>
      <trkpt lat="45.81156" lon="4.66361">
        <ele>335.51422</ele>
        <time>2023-10-04T09:21:16.000Z</time>
      </trkpt>
      <trkpt lat="45.81165" lon="4.66359">
        <ele>334.84012</ele>
        <time>2023-10-04T09:21:17.000Z</time>
      </trkpt>
      <trkpt lat="45.81174" lon="4.66356">
        <ele>334.17941</ele>
        <time>2023-10-04T09:21:18.000Z</time>
      </trkpt>
      <trkpt lat="45.81182" lon="4.66353">
        <ele>333.53693</ele>
        <time>2023-10-04T09:21:19.000Z</time>
      </trkpt>
      <trkpt lat="45.81192" lon="4.6635">
        <ele>332.83649</ele>
        <time>2023-10-04T09:21:20.000Z</time>
      </trkpt>
      <trkpt lat="45.812" lon="4.66347">
        <ele>332.16199</ele>
        <time>2023-10-04T09:21:21.000Z</time>
      </trkpt>
      <trkpt lat="45.81208" lon="4.66345">
        <ele>331.85638</ele>
        <time>2023-10-04T09:21:22.000Z</time>
      </trkpt>
      <trkpt lat="45.81216" lon="4.66343">
        <ele>331.80655</ele>
        <time>2023-10-04T09:21:23.000Z</time>
      </trkpt>
      <trkpt lat="45.81224" lon="4.6634">
        <ele>331.74927</ele>
        <time>2023-10-04T09:21:24.000Z</time>
      </trkpt>
      <trkpt lat="45.81232" lon="4.66337">
        <ele>331.7547</ele>
        <time>2023-10-04T09:21:25.000Z</time>
      </trkpt>
      <trkpt lat="45.81239" lon="4.66334">
        <ele>331.77139</ele>
        <time>2023-10-04T09:21:26.000Z</time>
      </trkpt>
      <trkpt lat="45.81247" lon="4.66332">
        <ele>331.37338</ele>
        <time>2023-10-04T09:21:27.000Z</time>
      </trkpt>
      <trkpt lat="45.81255" lon="4.6633">
        <ele>331.02676</ele>
        <time>2023-10-04T09:21:28.000Z</time>
      </trkpt>
      <trkpt lat="45.81262" lon="4.66327">
        <ele>330.81024</ele>
        <time>2023-10-04T09:21:29.000Z</time>
      </trkpt>
      <trkpt lat="45.81269" lon="4.66325">
        <ele>330.52802</ele>
        <time>2023-10-04T09:21:30.000Z</time>
      </trkpt>
      <trkpt lat="45.81277" lon="4.66323">
        <ele>330.29309</ele>
        <time>2023-10-04T09:21:31.000Z</time>
      </trkpt>
      <trkpt lat="45.81285" lon="4.66321">
        <ele>330.03177</ele>
        <time>2023-10-04T09:21:32.000Z</time>
      </trkpt>
      <trkpt lat="45.81292" lon="4.66317">
        <ele>329.89151</ele>
        <time>2023-10-04T09:21:33.000Z</time>
      </trkpt>
      <trkpt lat="45.81299" lon="4.66316">
        <ele>329.54712</ele>
        <time>2023-10-04T09:21:34.000Z</time>
      </trkpt>
      <trkpt lat="45.81306" lon="4.66314">
        <ele>329.19315</ele>
        <time>2023-10-04T09:21:35.000Z</time>
      </trkpt>
      <trkpt lat="45.81314" lon="4.66312">
        <ele>328.84012</ele>
        <time>2023-10-04T09:21:36.000Z</time>
      </trkpt>
      <trkpt lat="45.81321" lon="4.6631">
        <ele>328.84317</ele>
        <time>2023-10-04T09:21:37.000Z</time>
      </trkpt>
      <trkpt lat="45.81328" lon="4.66308">
        <ele>328.83856</ele>
        <time>2023-10-04T09:21:38.000Z</time>
      </trkpt>
      <trkpt lat="45.81335" lon="4.66305">
        <ele>328.84235</ele>
        <time>2023-10-04T09:21:39.000Z</time>
      </trkpt>
      <trkpt lat="45.81342" lon="4.66301">
        <ele>328.90195</ele>
        <time>2023-10-04T09:21:40.000Z</time>
      </trkpt>
      <trkpt lat="45.81348" lon="4.663">
        <ele>328.931</ele>
        <time>2023-10-04T09:21:41.000Z</time>
      </trkpt>
      <trkpt lat="45.81355" lon="4.66298">
        <ele>328.61414</ele>
        <time>2023-10-04T09:21:42.000Z</time>
      </trkpt>
      <trkpt lat="45.81363" lon="4.66296">
        <ele>328.34021</ele>
        <time>2023-10-04T09:21:43.000Z</time>
      </trkpt>
      <trkpt lat="45.81372" lon="4.66296">
        <ele>328.07703</ele>
        <time>2023-10-04T09:21:44.000Z</time>
      </trkpt>
      <trkpt lat="45.81379" lon="4.66296">
        <ele>327.80298</ele>
        <time>2023-10-04T09:21:45.000Z</time>
      </trkpt>
      <trkpt lat="45.81387" lon="4.66295">
        <ele>327.5311</ele>
        <time>2023-10-04T09:21:46.000Z</time>
      </trkpt>
      <trkpt lat="45.81394" lon="4.66296">
        <ele>327.27167</ele>
        <time>2023-10-04T09:21:47.000Z</time>
      </trkpt>
      <trkpt lat="45.81401" lon="4.66296">
        <ele>327.03333</ele>
        <time>2023-10-04T09:21:48.000Z</time>
      </trkpt>
      <trkpt lat="45.81409" lon="4.66298">
        <ele>326.65909</ele>
        <time>2023-10-04T09:21:49.000Z</time>
      </trkpt>
      <trkpt lat="45.81417" lon="4.66299">
        <ele>326.28723</ele>
        <time>2023-10-04T09:21:50.000Z</time>
      </trkpt>
      <trkpt lat="45.81424" lon="4.66299">
        <ele>325.82755</ele>
        <time>2023-10-04T09:21:51.000Z</time>
      </trkpt>
      <trkpt lat="45.81431" lon="4.66301">
        <ele>325.38068</ele>
        <time>2023-10-04T09:21:52.000Z</time>
      </trkpt>
      <trkpt lat="45.81439" lon="4.66303">
        <ele>324.96719</ele>
        <time>2023-10-04T09:21:53.000Z</time>
      </trkpt>
      <trkpt lat="45.81447" lon="4.66304">
        <ele>324.81668</ele>
        <time>2023-10-04T09:21:54.000Z</time>
      </trkpt>
      <trkpt lat="45.81454" lon="4.66306">
        <ele>324.67053</ele>
        <time>2023-10-04T09:21:55.000Z</time>
      </trkpt>
      <trkpt lat="45.81461" lon="4.66309">
        <ele>324.58783</ele>
        <time>2023-10-04T09:21:56.000Z</time>
      </trkpt>
      <trkpt lat="45.81468" lon="4.66313">
        <ele>324.47424</ele>
        <time>2023-10-04T09:21:57.000Z</time>
      </trkpt>
      <trkpt lat="45.81474" lon="4.66317">
        <ele>324.40881</ele>
        <time>2023-10-04T09:21:58.000Z</time>
      </trkpt>
      <trkpt lat="45.81482" lon="4.66322">
        <ele>324.35464</ele>
        <time>2023-10-04T09:21:59.000Z</time>
      </trkpt>
      <trkpt lat="45.81488" lon="4.66326">
        <ele>324.28937</ele>
        <time>2023-10-04T09:22:00.000Z</time>
      </trkpt>
      <trkpt lat="45.81495" lon="4.6633">
        <ele>324.26361</ele>
        <time>2023-10-04T09:22:01.000Z</time>
      </trkpt>
      <trkpt lat="45.81501" lon="4.66333">
        <ele>324.24036</ele>
        <time>2023-10-04T09:22:02.000Z</time>
      </trkpt>
      <trkpt lat="45.81507" lon="4.66336">
        <ele>324.08673</ele>
        <time>2023-10-04T09:22:03.000Z</time>
      </trkpt>
      <trkpt lat="45.81513" lon="4.6634">
        <ele>323.93762</ele>
        <time>2023-10-04T09:22:04.000Z</time>
      </trkpt>
      <trkpt lat="45.81519" lon="4.66345">
        <ele>323.68646</ele>
        <time>2023-10-04T09:22:05.000Z</time>
      </trkpt>
      <trkpt lat="45.81524" lon="4.66349">
        <ele>323.43417</ele>
        <time>2023-10-04T09:22:06.000Z</time>
      </trkpt>
      <trkpt lat="45.8153" lon="4.66353">
        <ele>323.4671</ele>
        <time>2023-10-04T09:22:07.000Z</time>
      </trkpt>
      <trkpt lat="45.81536" lon="4.66357">
        <ele>323.4314</ele>
        <time>2023-10-04T09:22:08.000Z</time>
      </trkpt>
      <trkpt lat="45.81541" lon="4.66362">
        <ele>323.45352</ele>
        <time>2023-10-04T09:22:09.000Z</time>
      </trkpt>
      <trkpt lat="45.81547" lon="4.66367">
        <ele>323.49258</ele>
        <time>2023-10-04T09:22:10.000Z</time>
      </trkpt>
      <trkpt lat="45.81553" lon="4.66373">
        <ele>323.60507</ele>
        <time>2023-10-04T09:22:11.000Z</time>
      </trkpt>
      <trkpt lat="45.81558" lon="4.66378">
        <ele>323.73727</ele>
        <time>2023-10-04T09:22:12.000Z</time>
      </trkpt>
      <trkpt lat="45.81564" lon="4.66383">
        <ele>323.8446</ele>
        <time>2023-10-04T09:22:13.000Z</time>
      </trkpt>
      <trkpt lat="45.81569" lon="4.66388">
        <ele>323.68179</ele>
        <time>2023-10-04T09:22:14.000Z</time>
      </trkpt>
      <trkpt lat="45.81575" lon="4.66393">
        <ele>323.50809</ele>
        <time>2023-10-04T09:22:15.000Z</time>
      </trkpt>
      <trkpt lat="45.81581" lon="4.66398">
        <ele>323.2944</ele>
        <time>2023-10-04T09:22:16.000Z</time>
      </trkpt>
      <trkpt lat="45.81587" lon="4.66403">
        <ele>323.06516</ele>
        <time>2023-10-04T09:22:17.000Z</time>
      </trkpt>
      <trkpt lat="45.81593" lon="4.66407">
        <ele>322.72986</ele>
        <time>2023-10-04T09:22:18.000Z</time>
      </trkpt>
      <trkpt lat="45.81599" lon="4.66411">
        <ele>322.29993</ele>
        <time>2023-10-04T09:22:19.000Z</time>
      </trkpt>
      <trkpt lat="45.81605" lon="4.66415">
        <ele>322.11517</ele>
        <time>2023-10-04T09:22:20.000Z</time>
      </trkpt>
      <trkpt lat="45.8161" lon="4.66419">
        <ele>321.86899</ele>
        <time>2023-10-04T09:22:21.000Z</time>
      </trkpt>
      <trkpt lat="45.81615" lon="4.66423">
        <ele>321.64053</ele>
        <time>2023-10-04T09:22:22.000Z</time>
      </trkpt>
      <trkpt lat="45.81621" lon="4.66427">
        <ele>321.54971</ele>
        <time>2023-10-04T09:22:23.000Z</time>
      </trkpt>
      <trkpt lat="45.81626" lon="4.66432">
        <ele>321.414</ele>
        <time>2023-10-04T09:22:24.000Z</time>
      </trkpt>
      <trkpt lat="45.81632" lon="4.66437">
        <ele>321.34979</ele>
        <time>2023-10-04T09:22:25.000Z</time>
      </trkpt>
      <trkpt lat="45.81638" lon="4.66442">
        <ele>321.27106</ele>
        <time>2023-10-04T09:22:26.000Z</time>
      </trkpt>
      <trkpt lat="45.81642" lon="4.66446">
        <ele>320.94891</ele>
        <time>2023-10-04T09:22:27.000Z</time>
      </trkpt>
      <trkpt lat="45.81647" lon="4.6645">
        <ele>320.68671</ele>
        <time>2023-10-04T09:22:28.000Z</time>
      </trkpt>
      <trkpt lat="45.81653" lon="4.66454">
        <ele>320.43912</ele>
        <time>2023-10-04T09:22:29.000Z</time>
      </trkpt>
      <trkpt lat="45.81659" lon="4.66459">
        <ele>320.18588</ele>
        <time>2023-10-04T09:22:30.000Z</time>
      </trkpt>
      <trkpt lat="45.81665" lon="4.66464">
        <ele>319.93008</ele>
        <time>2023-10-04T09:22:31.000Z</time>
      </trkpt>
      <trkpt lat="45.8167" lon="4.66468">
        <ele>319.66876</ele>
        <time>2023-10-04T09:22:32.000Z</time>
      </trkpt>
      <trkpt lat="45.81675" lon="4.66473">
        <ele>319.38287</ele>
        <time>2023-10-04T09:22:33.000Z</time>
      </trkpt>
      <trkpt lat="45.8168" lon="4.66477">
        <ele>319.09576</ele>
        <time>2023-10-04T09:22:34.000Z</time>
      </trkpt>
      <trkpt lat="45.81684" lon="4.66481">
        <ele>318.7402</ele>
        <time>2023-10-04T09:22:35.000Z</time>
      </trkpt>
      <trkpt lat="45.81689" lon="4.66485">
        <ele>318.39923</ele>
        <time>2023-10-04T09:22:36.000Z</time>
      </trkpt>
      <trkpt lat="45.81693" lon="4.66488">
        <ele>318.03308</ele>
        <time>2023-10-04T09:22:37.000Z</time>
      </trkpt>
      <trkpt lat="45.81696" lon="4.66493">
        <ele>317.72946</ele>
        <time>2023-10-04T09:22:38.000Z</time>
      </trkpt>
      <trkpt lat="45.81699" lon="4.66499">
        <ele>317.64069</ele>
        <time>2023-10-04T09:22:39.000Z</time>
      </trkpt>
      <trkpt lat="45.81701" lon="4.66505">
        <ele>317.35104</ele>
        <time>2023-10-04T09:22:40.000Z</time>
      </trkpt>
      <trkpt lat="45.81701" lon="4.66512">
        <ele>317.12546</ele>
        <time>2023-10-04T09:22:41.000Z</time>
      </trkpt>
      <trkpt lat="45.81701" lon="4.66518">
        <ele>316.86444</ele>
        <time>2023-10-04T09:22:42.000Z</time>
      </trkpt>
      <trkpt lat="45.81701" lon="4.66524">
        <ele>316.58289</ele>
        <time>2023-10-04T09:22:43.000Z</time>
      </trkpt>
      <trkpt lat="45.817" lon="4.66529">
        <ele>316.34109</ele>
        <time>2023-10-04T09:22:44.000Z</time>
      </trkpt>
      <trkpt lat="45.81702" lon="4.66533">
        <ele>316.17865</ele>
        <time>2023-10-04T09:22:45.000Z</time>
      </trkpt>
      <trkpt lat="45.81703" lon="4.66535">
        <ele>316.04282</ele>
        <time>2023-10-04T09:22:46.000Z</time>
      </trkpt>
      <trkpt lat="45.81704" lon="4.66537">
        <ele>315.78549</ele>
        <time>2023-10-04T09:22:48.000Z</time>
      </trkpt>
      <trkpt lat="45.81706" lon="4.66539">
        <ele>315.63153</ele>
        <time>2023-10-04T09:22:54.000Z</time>
      </trkpt>
      <trkpt lat="45.81709" lon="4.66542">
        <ele>315.51215</ele>
        <time>2023-10-04T09:22:56.000Z</time>
      </trkpt>
      <trkpt lat="45.8171" lon="4.66543">
        <ele>315.40176</ele>
        <time>2023-10-04T09:22:57.000Z</time>
      </trkpt>
      <trkpt lat="45.81712" lon="4.66541">
        <ele>315.27582</ele>
        <time>2023-10-04T09:22:59.000Z</time>
      </trkpt>
      <trkpt lat="45.81713" lon="4.66537">
        <ele>315.14145</ele>
        <time>2023-10-04T09:23:01.000Z</time>
      </trkpt>
      <trkpt lat="45.81714" lon="4.66535">
        <ele>315.05286</ele>
        <time>2023-10-04T09:23:03.000Z</time>
      </trkpt>
      <trkpt lat="45.81713" lon="4.66533">
        <ele>314.97147</ele>
        <time>2023-10-04T09:23:08.000Z</time>
      </trkpt>
      <trkpt lat="45.81715" lon="4.66533">
        <ele>314.96939</ele>
        <time>2023-10-04T09:23:12.000Z</time>
      </trkpt>
      <trkpt lat="45.81717" lon="4.66533">
        <ele>314.94077</ele>
        <time>2023-10-04T09:23:23.000Z</time>
      </trkpt>
      <trkpt lat="45.81719" lon="4.66533">
        <ele>314.9693</ele>
        <time>2023-10-04T09:23:25.000Z</time>
      </trkpt>
      <trkpt lat="45.81723" lon="4.66531">
        <ele>315.03308</ele>
        <time>2023-10-04T09:23:27.000Z</time>
      </trkpt>
      <trkpt lat="45.81725" lon="4.6653">
        <ele>314.9783</ele>
        <time>2023-10-04T09:23:28.000Z</time>
      </trkpt>
      <trkpt lat="45.81727" lon="4.66529">
        <ele>314.88535</ele>
        <time>2023-10-04T09:23:29.000Z</time>
      </trkpt>
      <trkpt lat="45.8173" lon="4.66528">
        <ele>314.79987</ele>
        <time>2023-10-04T09:23:30.000Z</time>
      </trkpt>
      <trkpt lat="45.81732" lon="4.66527">
        <ele>314.66287</ele>
        <time>2023-10-04T09:23:31.000Z</time>
      </trkpt>
      <trkpt lat="45.81735" lon="4.66527">
        <ele>314.52777</ele>
        <time>2023-10-04T09:23:32.000Z</time>
      </trkpt>
      <trkpt lat="45.81738" lon="4.66527">
        <ele>314.39124</ele>
        <time>2023-10-04T09:23:33.000Z</time>
      </trkpt>
      <trkpt lat="45.81741" lon="4.66527">
        <ele>314.19016</ele>
        <time>2023-10-04T09:23:34.000Z</time>
      </trkpt>
      <trkpt lat="45.81744" lon="4.66529">
        <ele>313.98654</ele>
        <time>2023-10-04T09:23:35.000Z</time>
      </trkpt>
      <trkpt lat="45.81748" lon="4.66531">
        <ele>313.88696</ele>
        <time>2023-10-04T09:23:36.000Z</time>
      </trkpt>
      <trkpt lat="45.81751" lon="4.66533">
        <ele>313.68304</ele>
        <time>2023-10-04T09:23:37.000Z</time>
      </trkpt>
      <trkpt lat="45.81755" lon="4.66535">
        <ele>313.48108</ele>
        <time>2023-10-04T09:23:38.000Z</time>
      </trkpt>
      <trkpt lat="45.81758" lon="4.66538">
        <ele>313.28387</ele>
        <time>2023-10-04T09:23:39.000Z</time>
      </trkpt>
      <trkpt lat="45.81762" lon="4.66541">
        <ele>313.1069</ele>
        <time>2023-10-04T09:23:40.000Z</time>
      </trkpt>
      <trkpt lat="45.81765" lon="4.66544">
        <ele>312.94183</ele>
        <time>2023-10-04T09:23:41.000Z</time>
      </trkpt>
      <trkpt lat="45.81769" lon="4.66548">
        <ele>312.77118</ele>
        <time>2023-10-04T09:23:42.000Z</time>
      </trkpt>
      <trkpt lat="45.81773" lon="4.66551">
        <ele>312.60535</ele>
        <time>2023-10-04T09:23:43.000Z</time>
      </trkpt>
      <trkpt lat="45.81777" lon="4.66555">
        <ele>312.43799</ele>
        <time>2023-10-04T09:23:44.000Z</time>
      </trkpt>
      <trkpt lat="45.81781" lon="4.66559">
        <ele>312.28156</ele>
        <time>2023-10-04T09:23:45.000Z</time>
      </trkpt>
      <trkpt lat="45.81786" lon="4.66562">
        <ele>312.11017</ele>
        <time>2023-10-04T09:23:46.000Z</time>
      </trkpt>
      <trkpt lat="45.8179" lon="4.66566">
        <ele>311.9231</ele>
        <time>2023-10-04T09:23:47.000Z</time>
      </trkpt>
      <trkpt lat="45.81794" lon="4.66569">
        <ele>311.73193</ele>
        <time>2023-10-04T09:23:48.000Z</time>
      </trkpt>
      <trkpt lat="45.81799" lon="4.66574">
        <ele>311.65121</ele>
        <time>2023-10-04T09:23:49.000Z</time>
      </trkpt>
      <trkpt lat="45.81803" lon="4.66577">
        <ele>311.5069</ele>
        <time>2023-10-04T09:23:50.000Z</time>
      </trkpt>
      <trkpt lat="45.81807" lon="4.6658">
        <ele>311.4538</ele>
        <time>2023-10-04T09:23:51.000Z</time>
      </trkpt>
      <trkpt lat="45.81812" lon="4.66585">
        <ele>311.40399</ele>
        <time>2023-10-04T09:23:52.000Z</time>
      </trkpt>
      <trkpt lat="45.81817" lon="4.66588">
        <ele>311.36685</ele>
        <time>2023-10-04T09:23:53.000Z</time>
      </trkpt>
      <trkpt lat="45.81822" lon="4.66591">
        <ele>311.36118</ele>
        <time>2023-10-04T09:23:54.000Z</time>
      </trkpt>
      <trkpt lat="45.81826" lon="4.66596">
        <ele>311.35168</ele>
        <time>2023-10-04T09:23:55.000Z</time>
      </trkpt>
      <trkpt lat="45.81831" lon="4.666">
        <ele>311.33197</ele>
        <time>2023-10-04T09:23:56.000Z</time>
      </trkpt>
      <trkpt lat="45.81836" lon="4.66604">
        <ele>311.30936</ele>
        <time>2023-10-04T09:23:57.000Z</time>
      </trkpt>
      <trkpt lat="45.81841" lon="4.66608">
        <ele>311.25922</ele>
        <time>2023-10-04T09:23:58.000Z</time>
      </trkpt>
      <trkpt lat="45.81846" lon="4.66612">
        <ele>311.19592</ele>
        <time>2023-10-04T09:23:59.000Z</time>
      </trkpt>
      <trkpt lat="45.81851" lon="4.66616">
        <ele>311.09976</ele>
        <time>2023-10-04T09:24:00.000Z</time>
      </trkpt>
      <trkpt lat="45.81857" lon="4.66621">
        <ele>310.93887</ele>
        <time>2023-10-04T09:24:01.000Z</time>
      </trkpt>
      <trkpt lat="45.81862" lon="4.66625">
        <ele>310.76801</ele>
        <time>2023-10-04T09:24:02.000Z</time>
      </trkpt>
      <trkpt lat="45.81867" lon="4.6663">
        <ele>310.65479</ele>
        <time>2023-10-04T09:24:03.000Z</time>
      </trkpt>
      <trkpt lat="45.81872" lon="4.66633">
        <ele>310.54361</ele>
        <time>2023-10-04T09:24:04.000Z</time>
      </trkpt>
      <trkpt lat="45.81878" lon="4.66637">
        <ele>310.44754</ele>
        <time>2023-10-04T09:24:05.000Z</time>
      </trkpt>
      <trkpt lat="45.81883" lon="4.66642">
        <ele>310.32452</ele>
        <time>2023-10-04T09:24:06.000Z</time>
      </trkpt>
      <trkpt lat="45.81889" lon="4.66647">
        <ele>310.17255</ele>
        <time>2023-10-04T09:24:07.000Z</time>
      </trkpt>
      <trkpt lat="45.81895" lon="4.66651">
        <ele>310.02548</ele>
        <time>2023-10-04T09:24:08.000Z</time>
      </trkpt>
      <trkpt lat="45.819" lon="4.66656">
        <ele>309.79895</ele>
        <time>2023-10-04T09:24:09.000Z</time>
      </trkpt>
      <trkpt lat="45.81906" lon="4.6666">
        <ele>309.6123</ele>
        <time>2023-10-04T09:24:10.000Z</time>
      </trkpt>
      <trkpt lat="45.81911" lon="4.66665">
        <ele>309.41644</ele>
        <time>2023-10-04T09:24:11.000Z</time>
      </trkpt>
      <trkpt lat="45.81916" lon="4.66669">
        <ele>309.21295</ele>
        <time>2023-10-04T09:24:12.000Z</time>
      </trkpt>
      <trkpt lat="45.81921" lon="4.66673">
        <ele>309.02203</ele>
        <time>2023-10-04T09:24:13.000Z</time>
      </trkpt>
      <trkpt lat="45.81927" lon="4.66677">
        <ele>308.81161</ele>
        <time>2023-10-04T09:24:14.000Z</time>
      </trkpt>
      <trkpt lat="45.81932" lon="4.66681">
        <ele>308.55804</ele>
        <time>2023-10-04T09:24:15.000Z</time>
      </trkpt>
      <trkpt lat="45.81937" lon="4.66686">
        <ele>308.32333</ele>
        <time>2023-10-04T09:24:16.000Z</time>
      </trkpt>
      <trkpt lat="45.81942" lon="4.6669">
        <ele>308.09006</ele>
        <time>2023-10-04T09:24:17.000Z</time>
      </trkpt>
      <trkpt lat="45.81948" lon="4.66694">
        <ele>307.88965</ele>
        <time>2023-10-04T09:24:18.000Z</time>
      </trkpt>
      <trkpt lat="45.81953" lon="4.66698">
        <ele>307.68753</ele>
        <time>2023-10-04T09:24:19.000Z</time>
      </trkpt>
      <trkpt lat="45.81958" lon="4.66702">
        <ele>307.51483</ele>
        <time>2023-10-04T09:24:20.000Z</time>
      </trkpt>
      <trkpt lat="45.81964" lon="4.66707">
        <ele>307.45673</ele>
        <time>2023-10-04T09:24:21.000Z</time>
      </trkpt>
      <trkpt lat="45.81968" lon="4.66711">
        <ele>307.38739</ele>
        <time>2023-10-04T09:24:22.000Z</time>
      </trkpt>
      <trkpt lat="45.81973" lon="4.66714">
        <ele>307.26996</ele>
        <time>2023-10-04T09:24:23.000Z</time>
      </trkpt>
      <trkpt lat="45.81978" lon="4.66719">
        <ele>307.13733</ele>
        <time>2023-10-04T09:24:24.000Z</time>
      </trkpt>
      <trkpt lat="45.81984" lon="4.66722">
        <ele>306.97452</ele>
        <time>2023-10-04T09:24:25.000Z</time>
      </trkpt>
      <trkpt lat="45.81989" lon="4.66727">
        <ele>306.86523</ele>
        <time>2023-10-04T09:24:26.000Z</time>
      </trkpt>
      <trkpt lat="45.81995" lon="4.66732">
        <ele>306.77759</ele>
        <time>2023-10-04T09:24:27.000Z</time>
      </trkpt>
      <trkpt lat="45.82" lon="4.66736">
        <ele>306.78992</ele>
        <time>2023-10-04T09:24:28.000Z</time>
      </trkpt>
      <trkpt lat="45.82005" lon="4.66741">
        <ele>306.79489</ele>
        <time>2023-10-04T09:24:29.000Z</time>
      </trkpt>
      <trkpt lat="45.82011" lon="4.66746">
        <ele>306.79132</ele>
        <time>2023-10-04T09:24:30.000Z</time>
      </trkpt>
      <trkpt lat="45.82016" lon="4.66751">
        <ele>306.78845</ele>
        <time>2023-10-04T09:24:31.000Z</time>
      </trkpt>
      <trkpt lat="45.82022" lon="4.66756">
        <ele>306.78934</ele>
        <time>2023-10-04T09:24:32.000Z</time>
      </trkpt>
      <trkpt lat="45.82027" lon="4.6676">
        <ele>306.78412</ele>
        <time>2023-10-04T09:24:33.000Z</time>
      </trkpt>
      <trkpt lat="45.82034" lon="4.66765">
        <ele>306.7981</ele>
        <time>2023-10-04T09:24:34.000Z</time>
      </trkpt>
      <trkpt lat="45.82039" lon="4.6677">
        <ele>306.86337</ele>
        <time>2023-10-04T09:24:35.000Z</time>
      </trkpt>
      <trkpt lat="45.82045" lon="4.66775">
        <ele>306.92999</ele>
        <time>2023-10-04T09:24:36.000Z</time>
      </trkpt>
      <trkpt lat="45.8205" lon="4.66781">
        <ele>306.93011</ele>
        <time>2023-10-04T09:24:37.000Z</time>
      </trkpt>
      <trkpt lat="45.82055" lon="4.66785">
        <ele>306.93304</ele>
        <time>2023-10-04T09:24:38.000Z</time>
      </trkpt>
      <trkpt lat="45.8206" lon="4.66791">
        <ele>306.94299</ele>
        <time>2023-10-04T09:24:39.000Z</time>
      </trkpt>
      <trkpt lat="45.82063" lon="4.66795">
        <ele>306.94904</ele>
        <time>2023-10-04T09:24:40.000Z</time>
      </trkpt>
      <trkpt lat="45.82066" lon="4.66799">
        <ele>306.89679</ele>
        <time>2023-10-04T09:24:41.000Z</time>
      </trkpt>
      <trkpt lat="45.82069" lon="4.66803">
        <ele>306.76022</ele>
        <time>2023-10-04T09:24:42.000Z</time>
      </trkpt>
      <trkpt lat="45.82072" lon="4.66806">
        <ele>306.60962</ele>
        <time>2023-10-04T09:24:43.000Z</time>
      </trkpt>
      <trkpt lat="45.82075" lon="4.6681">
        <ele>306.46133</ele>
        <time>2023-10-04T09:24:44.000Z</time>
      </trkpt>
      <trkpt lat="45.82078" lon="4.66813">
        <ele>306.33472</ele>
        <time>2023-10-04T09:24:45.000Z</time>
      </trkpt>
      <trkpt lat="45.82081" lon="4.66816">
        <ele>306.21323</ele>
        <time>2023-10-04T09:24:46.000Z</time>
      </trkpt>
      <trkpt lat="45.82083" lon="4.6682">
        <ele>306.08948</ele>
        <time>2023-10-04T09:24:47.000Z</time>
      </trkpt>
      <trkpt lat="45.82086" lon="4.66823">
        <ele>305.83929</ele>
        <time>2023-10-04T09:24:48.000Z</time>
      </trkpt>
      <trkpt lat="45.82089" lon="4.66825">
        <ele>305.60394</ele>
        <time>2023-10-04T09:24:49.000Z</time>
      </trkpt>
      <trkpt lat="45.82092" lon="4.66829">
        <ele>305.39459</ele>
        <time>2023-10-04T09:24:50.000Z</time>
      </trkpt>
      <trkpt lat="45.82094" lon="4.6683">
        <ele>305.1944</ele>
        <time>2023-10-04T09:24:51.000Z</time>
      </trkpt>
      <trkpt lat="45.82096" lon="4.66832">
        <ele>304.98944</ele>
        <time>2023-10-04T09:24:52.000Z</time>
      </trkpt>
      <trkpt lat="45.82098" lon="4.66834">
        <ele>304.77866</ele>
        <time>2023-10-04T09:24:53.000Z</time>
      </trkpt>
      <trkpt lat="45.821" lon="4.66836">
        <ele>304.53336</ele>
        <time>2023-10-04T09:24:54.000Z</time>
      </trkpt>
      <trkpt lat="45.82102" lon="4.66838">
        <ele>304.29559</ele>
        <time>2023-10-04T09:24:55.000Z</time>
      </trkpt>
      <trkpt lat="45.82104" lon="4.66841">
        <ele>304.04865</ele>
        <time>2023-10-04T09:24:56.000Z</time>
      </trkpt>
      <trkpt lat="45.82105" lon="4.66844">
        <ele>303.90121</ele>
        <time>2023-10-04T09:24:57.000Z</time>
      </trkpt>
      <trkpt lat="45.82106" lon="4.66847">
        <ele>303.76431</ele>
        <time>2023-10-04T09:24:58.000Z</time>
      </trkpt>
      <trkpt lat="45.82108" lon="4.66851">
        <ele>303.61569</ele>
        <time>2023-10-04T09:25:00.000Z</time>
      </trkpt>
      <trkpt lat="45.8211" lon="4.66852">
        <ele>303.62726</ele>
        <time>2023-10-04T09:25:03.000Z</time>
      </trkpt>
      <trkpt lat="45.82113" lon="4.66855">
        <ele>303.638</ele>
        <time>2023-10-04T09:25:07.000Z</time>
      </trkpt>
      <trkpt lat="45.82115" lon="4.66856">
        <ele>303.68024</ele>
        <time>2023-10-04T09:25:09.000Z</time>
      </trkpt>
      <trkpt lat="45.82119" lon="4.66858">
        <ele>303.73767</ele>
        <time>2023-10-04T09:25:11.000Z</time>
      </trkpt>
      <trkpt lat="45.82121" lon="4.66859">
        <ele>303.83163</ele>
        <time>2023-10-04T09:25:12.000Z</time>
      </trkpt>
      <trkpt lat="45.82123" lon="4.66861">
        <ele>303.90549</ele>
        <time>2023-10-04T09:25:13.000Z</time>
      </trkpt>
      <trkpt lat="45.82125" lon="4.66863">
        <ele>303.94</ele>
        <time>2023-10-04T09:25:14.000Z</time>
      </trkpt>
      <trkpt lat="45.82126" lon="4.66864">
        <ele>303.99338</ele>
        <time>2023-10-04T09:25:15.000Z</time>
      </trkpt>
      <trkpt lat="45.82129" lon="4.66867">
        <ele>304.07452</ele>
        <time>2023-10-04T09:25:17.000Z</time>
      </trkpt>
      <trkpt lat="45.82132" lon="4.66869">
        <ele>304.12698</ele>
        <time>2023-10-04T09:25:19.000Z</time>
      </trkpt>
      <trkpt lat="45.82134" lon="4.66871">
        <ele>304.17593</ele>
        <time>2023-10-04T09:25:21.000Z</time>
      </trkpt>
      <trkpt lat="45.82136" lon="4.66874">
        <ele>304.20999</ele>
        <time>2023-10-04T09:25:23.000Z</time>
      </trkpt>
      <trkpt lat="45.82138" lon="4.66878">
        <ele>304.25656</ele>
        <time>2023-10-04T09:25:25.000Z</time>
      </trkpt>
      <trkpt lat="45.8214" lon="4.6688">
        <ele>304.27899</ele>
        <time>2023-10-04T09:25:26.000Z</time>
      </trkpt>
      <trkpt lat="45.82142" lon="4.66881">
        <ele>304.29926</ele>
        <time>2023-10-04T09:25:27.000Z</time>
      </trkpt>
      <trkpt lat="45.82144" lon="4.66881">
        <ele>304.29092</ele>
        <time>2023-10-04T09:25:28.000Z</time>
      </trkpt>
      <trkpt lat="45.82147" lon="4.66882">
        <ele>304.28436</ele>
        <time>2023-10-04T09:25:29.000Z</time>
      </trkpt>
      <trkpt lat="45.8215" lon="4.66882">
        <ele>304.23532</ele>
        <time>2023-10-04T09:25:30.000Z</time>
      </trkpt>
      <trkpt lat="45.82154" lon="4.66883">
        <ele>304.17429</ele>
        <time>2023-10-04T09:25:31.000Z</time>
      </trkpt>
      <trkpt lat="45.82157" lon="4.66885">
        <ele>304.1203</ele>
        <time>2023-10-04T09:25:32.000Z</time>
      </trkpt>
      <trkpt lat="45.82161" lon="4.66886">
        <ele>303.90234</ele>
        <time>2023-10-04T09:25:33.000Z</time>
      </trkpt>
      <trkpt lat="45.82165" lon="4.66887">
        <ele>303.70111</ele>
        <time>2023-10-04T09:25:34.000Z</time>
      </trkpt>
      <trkpt lat="45.82169" lon="4.66888">
        <ele>303.57108</ele>
        <time>2023-10-04T09:25:35.000Z</time>
      </trkpt>
      <trkpt lat="45.82173" lon="4.66889">
        <ele>303.41949</ele>
        <time>2023-10-04T09:25:36.000Z</time>
      </trkpt>
      <trkpt lat="45.82179" lon="4.66889">
        <ele>303.23434</ele>
        <time>2023-10-04T09:25:37.000Z</time>
      </trkpt>
      <trkpt lat="45.82183" lon="4.66889">
        <ele>303.09796</ele>
        <time>2023-10-04T09:25:38.000Z</time>
      </trkpt>
      <trkpt lat="45.82187" lon="4.66888">
        <ele>302.97357</ele>
        <time>2023-10-04T09:25:39.000Z</time>
      </trkpt>
      <trkpt lat="45.82192" lon="4.66887">
        <ele>302.84534</ele>
        <time>2023-10-04T09:25:40.000Z</time>
      </trkpt>
      <trkpt lat="45.82196" lon="4.66885">
        <ele>302.71603</ele>
        <time>2023-10-04T09:25:41.000Z</time>
      </trkpt>
      <trkpt lat="45.82201" lon="4.66884">
        <ele>302.59192</ele>
        <time>2023-10-04T09:25:42.000Z</time>
      </trkpt>
      <trkpt lat="45.82205" lon="4.66883">
        <ele>302.49164</ele>
        <time>2023-10-04T09:25:43.000Z</time>
      </trkpt>
      <trkpt lat="45.8221" lon="4.66882">
        <ele>302.41232</ele>
        <time>2023-10-04T09:25:44.000Z</time>
      </trkpt>
      <trkpt lat="45.82214" lon="4.66882">
        <ele>302.37265</ele>
        <time>2023-10-04T09:25:45.000Z</time>
      </trkpt>
      <trkpt lat="45.82218" lon="4.66881">
        <ele>302.36267</ele>
        <time>2023-10-04T09:25:46.000Z</time>
      </trkpt>
      <trkpt lat="45.82221" lon="4.66881">
        <ele>302.39774</ele>
        <time>2023-10-04T09:25:47.000Z</time>
      </trkpt>
      <trkpt lat="45.82225" lon="4.6688">
        <ele>302.35156</ele>
        <time>2023-10-04T09:25:48.000Z</time>
      </trkpt>
      <trkpt lat="45.82229" lon="4.66879">
        <ele>302.32758</ele>
        <time>2023-10-04T09:25:49.000Z</time>
      </trkpt>
      <trkpt lat="45.82233" lon="4.66878">
        <ele>302.33942</ele>
        <time>2023-10-04T09:25:50.000Z</time>
      </trkpt>
      <trkpt lat="45.82237" lon="4.66878">
        <ele>302.35468</ele>
        <time>2023-10-04T09:25:51.000Z</time>
      </trkpt>
      <trkpt lat="45.8224" lon="4.66876">
        <ele>302.38657</ele>
        <time>2023-10-04T09:25:52.000Z</time>
      </trkpt>
      <trkpt lat="45.82244" lon="4.66875">
        <ele>302.41589</ele>
        <time>2023-10-04T09:25:53.000Z</time>
      </trkpt>
      <trkpt lat="45.82248" lon="4.66875">
        <ele>302.44669</ele>
        <time>2023-10-04T09:25:54.000Z</time>
      </trkpt>
      <trkpt lat="45.82252" lon="4.66874">
        <ele>302.47345</ele>
        <time>2023-10-04T09:25:55.000Z</time>
      </trkpt>
      <trkpt lat="45.82256" lon="4.66873">
        <ele>302.51471</ele>
        <time>2023-10-04T09:25:56.000Z</time>
      </trkpt>
      <trkpt lat="45.8226" lon="4.66872">
        <ele>302.59131</ele>
        <time>2023-10-04T09:25:57.000Z</time>
      </trkpt>
      <trkpt lat="45.82264" lon="4.66871">
        <ele>302.62421</ele>
        <time>2023-10-04T09:25:58.000Z</time>
      </trkpt>
      <trkpt lat="45.82268" lon="4.6687">
        <ele>302.66336</ele>
        <time>2023-10-04T09:25:59.000Z</time>
      </trkpt>
      <trkpt lat="45.82272" lon="4.6687">
        <ele>302.70059</ele>
        <time>2023-10-04T09:26:00.000Z</time>
      </trkpt>
      <trkpt lat="45.82276" lon="4.66869">
        <ele>302.73956</ele>
        <time>2023-10-04T09:26:01.000Z</time>
      </trkpt>
      <trkpt lat="45.82279" lon="4.66868">
        <ele>302.8067</ele>
        <time>2023-10-04T09:26:02.000Z</time>
      </trkpt>
      <trkpt lat="45.82283" lon="4.66868">
        <ele>302.86353</ele>
        <time>2023-10-04T09:26:03.000Z</time>
      </trkpt>
      <trkpt lat="45.82286" lon="4.66867">
        <ele>302.90485</ele>
        <time>2023-10-04T09:26:04.000Z</time>
      </trkpt>
      <trkpt lat="45.8229" lon="4.66867">
        <ele>302.90414</ele>
        <time>2023-10-04T09:26:05.000Z</time>
      </trkpt>
      <trkpt lat="45.82293" lon="4.66867">
        <ele>302.92932</ele>
        <time>2023-10-04T09:26:06.000Z</time>
      </trkpt>
      <trkpt lat="45.82297" lon="4.66867">
        <ele>302.95804</ele>
        <time>2023-10-04T09:26:07.000Z</time>
      </trkpt>
      <trkpt lat="45.823" lon="4.66867">
        <ele>302.99161</ele>
        <time>2023-10-04T09:26:08.000Z</time>
      </trkpt>
      <trkpt lat="45.82304" lon="4.66868">
        <ele>302.99692</ele>
        <time>2023-10-04T09:26:09.000Z</time>
      </trkpt>
      <trkpt lat="45.82307" lon="4.66868">
        <ele>302.992</ele>
        <time>2023-10-04T09:26:10.000Z</time>
      </trkpt>
      <trkpt lat="45.82311" lon="4.66868">
        <ele>302.98285</ele>
        <time>2023-10-04T09:26:11.000Z</time>
      </trkpt>
      <trkpt lat="45.82315" lon="4.66869">
        <ele>302.95822</ele>
        <time>2023-10-04T09:26:12.000Z</time>
      </trkpt>
      <trkpt lat="45.82319" lon="4.6687">
        <ele>302.95435</ele>
        <time>2023-10-04T09:26:13.000Z</time>
      </trkpt>
      <trkpt lat="45.82322" lon="4.66872">
        <ele>302.95804</ele>
        <time>2023-10-04T09:26:14.000Z</time>
      </trkpt>
      <trkpt lat="45.82326" lon="4.66874">
        <ele>302.98444</ele>
        <time>2023-10-04T09:26:15.000Z</time>
      </trkpt>
      <trkpt lat="45.82329" lon="4.66876">
        <ele>302.97174</ele>
        <time>2023-10-04T09:26:16.000Z</time>
      </trkpt>
      <trkpt lat="45.82332" lon="4.66879">
        <ele>302.97772</ele>
        <time>2023-10-04T09:26:17.000Z</time>
      </trkpt>
      <trkpt lat="45.82335" lon="4.66881">
        <ele>303.06165</ele>
        <time>2023-10-04T09:26:18.000Z</time>
      </trkpt>
      <trkpt lat="45.82339" lon="4.66884">
        <ele>303.14731</ele>
        <time>2023-10-04T09:26:19.000Z</time>
      </trkpt>
      <trkpt lat="45.82342" lon="4.66886">
        <ele>303.28317</ele>
        <time>2023-10-04T09:26:20.000Z</time>
      </trkpt>
      <trkpt lat="45.82345" lon="4.66888">
        <ele>303.44171</ele>
        <time>2023-10-04T09:26:21.000Z</time>
      </trkpt>
      <trkpt lat="45.82348" lon="4.6689">
        <ele>303.55475</ele>
        <time>2023-10-04T09:26:22.000Z</time>
      </trkpt>
      <trkpt lat="45.82351" lon="4.66892">
        <ele>303.685</ele>
        <time>2023-10-04T09:26:23.000Z</time>
      </trkpt>
      <trkpt lat="45.82353" lon="4.66894">
        <ele>303.81821</ele>
        <time>2023-10-04T09:26:24.000Z</time>
      </trkpt>
      <trkpt lat="45.82356" lon="4.66897">
        <ele>303.96359</ele>
        <time>2023-10-04T09:26:25.000Z</time>
      </trkpt>
      <trkpt lat="45.82359" lon="4.66899">
        <ele>304.10663</ele>
        <time>2023-10-04T09:26:26.000Z</time>
      </trkpt>
      <trkpt lat="45.82361" lon="4.66901">
        <ele>304.21606</ele>
        <time>2023-10-04T09:26:27.000Z</time>
      </trkpt>
      <trkpt lat="45.82364" lon="4.66903">
        <ele>304.42706</ele>
        <time>2023-10-04T09:26:28.000Z</time>
      </trkpt>
      <trkpt lat="45.82367" lon="4.66906">
        <ele>304.646</ele>
        <time>2023-10-04T09:26:29.000Z</time>
      </trkpt>
      <trkpt lat="45.82369" lon="4.66908">
        <ele>304.77533</ele>
        <time>2023-10-04T09:26:30.000Z</time>
      </trkpt>
      <trkpt lat="45.82372" lon="4.6691">
        <ele>304.88861</ele>
        <time>2023-10-04T09:26:31.000Z</time>
      </trkpt>
      <trkpt lat="45.82374" lon="4.66913">
        <ele>304.98724</ele>
        <time>2023-10-04T09:26:32.000Z</time>
      </trkpt>
      <trkpt lat="45.82376" lon="4.66917">
        <ele>305.08008</ele>
        <time>2023-10-04T09:26:33.000Z</time>
      </trkpt>
      <trkpt lat="45.82377" lon="4.6692">
        <ele>305.1463</ele>
        <time>2023-10-04T09:26:34.000Z</time>
      </trkpt>
      <trkpt lat="45.82379" lon="4.66924">
        <ele>305.22601</ele>
        <time>2023-10-04T09:26:35.000Z</time>
      </trkpt>
      <trkpt lat="45.82381" lon="4.66927">
        <ele>305.36539</ele>
        <time>2023-10-04T09:26:36.000Z</time>
      </trkpt>
      <trkpt lat="45.82383" lon="4.66931">
        <ele>305.48691</ele>
        <time>2023-10-04T09:26:37.000Z</time>
      </trkpt>
      <trkpt lat="45.82385" lon="4.66934">
        <ele>305.54651</ele>
        <time>2023-10-04T09:26:38.000Z</time>
      </trkpt>
      <trkpt lat="45.82386" lon="4.66938">
        <ele>305.7027</ele>
        <time>2023-10-04T09:26:39.000Z</time>
      </trkpt>
      <trkpt lat="45.82388" lon="4.66941">
        <ele>305.78873</ele>
        <time>2023-10-04T09:26:40.000Z</time>
      </trkpt>
      <trkpt lat="45.8239" lon="4.66944">
        <ele>305.86188</ele>
        <time>2023-10-04T09:26:41.000Z</time>
      </trkpt>
      <trkpt lat="45.82392" lon="4.66948">
        <ele>305.9635</ele>
        <time>2023-10-04T09:26:42.000Z</time>
      </trkpt>
      <trkpt lat="45.82394" lon="4.66952">
        <ele>306.05249</ele>
        <time>2023-10-04T09:26:43.000Z</time>
      </trkpt>
      <trkpt lat="45.82396" lon="4.66955">
        <ele>306.11444</ele>
        <time>2023-10-04T09:26:44.000Z</time>
      </trkpt>
      <trkpt lat="45.82398" lon="4.66958">
        <ele>306.18686</ele>
        <time>2023-10-04T09:26:45.000Z</time>
      </trkpt>
      <trkpt lat="45.824" lon="4.66962">
        <ele>306.24323</ele>
        <time>2023-10-04T09:26:46.000Z</time>
      </trkpt>
      <trkpt lat="45.82402" lon="4.66966">
        <ele>306.30179</ele>
        <time>2023-10-04T09:26:47.000Z</time>
      </trkpt>
      <trkpt lat="45.82403" lon="4.66969">
        <ele>306.35059</ele>
        <time>2023-10-04T09:26:48.000Z</time>
      </trkpt>
      <trkpt lat="45.82404" lon="4.66973">
        <ele>306.39279</ele>
        <time>2023-10-04T09:26:49.000Z</time>
      </trkpt>
      <trkpt lat="45.82406" lon="4.66976">
        <ele>306.57187</ele>
        <time>2023-10-04T09:26:50.000Z</time>
      </trkpt>
      <trkpt lat="45.82408" lon="4.66979">
        <ele>306.76013</ele>
        <time>2023-10-04T09:26:51.000Z</time>
      </trkpt>
      <trkpt lat="45.82411" lon="4.66982">
        <ele>306.97363</ele>
        <time>2023-10-04T09:26:52.000Z</time>
      </trkpt>
      <trkpt lat="45.82413" lon="4.66985">
        <ele>307.17706</ele>
        <time>2023-10-04T09:26:53.000Z</time>
      </trkpt>
      <trkpt lat="45.82414" lon="4.66988">
        <ele>307.39966</ele>
        <time>2023-10-04T09:26:54.000Z</time>
      </trkpt>
      <trkpt lat="45.82416" lon="4.66992">
        <ele>307.61639</ele>
        <time>2023-10-04T09:26:55.000Z</time>
      </trkpt>
      <trkpt lat="45.82417" lon="4.66995">
        <ele>307.8093</ele>
        <time>2023-10-04T09:26:56.000Z</time>
      </trkpt>
      <trkpt lat="45.82419" lon="4.66998">
        <ele>307.97906</ele>
        <time>2023-10-04T09:26:57.000Z</time>
      </trkpt>
      <trkpt lat="45.8242" lon="4.67001">
        <ele>308.13208</ele>
        <time>2023-10-04T09:26:58.000Z</time>
      </trkpt>
      <trkpt lat="45.82421" lon="4.67004">
        <ele>308.20483</ele>
        <time>2023-10-04T09:26:59.000Z</time>
      </trkpt>
      <trkpt lat="45.82422" lon="4.67007">
        <ele>308.2807</ele>
        <time>2023-10-04T09:27:00.000Z</time>
      </trkpt>
      <trkpt lat="45.82423" lon="4.6701">
        <ele>308.34845</ele>
        <time>2023-10-04T09:27:01.000Z</time>
      </trkpt>
      <trkpt lat="45.82425" lon="4.67012">
        <ele>308.4364</ele>
        <time>2023-10-04T09:27:02.000Z</time>
      </trkpt>
      <trkpt lat="45.82426" lon="4.67014">
        <ele>308.53448</ele>
        <time>2023-10-04T09:27:03.000Z</time>
      </trkpt>
      <trkpt lat="45.82428" lon="4.67016">
        <ele>308.67532</ele>
        <time>2023-10-04T09:27:04.000Z</time>
      </trkpt>
      <trkpt lat="45.8243" lon="4.67018">
        <ele>308.80951</ele>
        <time>2023-10-04T09:27:05.000Z</time>
      </trkpt>
      <trkpt lat="45.82431" lon="4.6702">
        <ele>308.92517</ele>
        <time>2023-10-04T09:27:06.000Z</time>
      </trkpt>
      <trkpt lat="45.82433" lon="4.67023">
        <ele>309.0611</ele>
        <time>2023-10-04T09:27:07.000Z</time>
      </trkpt>
      <trkpt lat="45.82434" lon="4.67024">
        <ele>309.22369</ele>
        <time>2023-10-04T09:27:08.000Z</time>
      </trkpt>
      <trkpt lat="45.82436" lon="4.67026">
        <ele>309.39066</ele>
        <time>2023-10-04T09:27:09.000Z</time>
      </trkpt>
      <trkpt lat="45.82437" lon="4.67028">
        <ele>309.46985</ele>
        <time>2023-10-04T09:27:10.000Z</time>
      </trkpt>
      <trkpt lat="45.82439" lon="4.6703">
        <ele>309.54449</ele>
        <time>2023-10-04T09:27:11.000Z</time>
      </trkpt>
      <trkpt lat="45.82441" lon="4.67032">
        <ele>309.45102</ele>
        <time>2023-10-04T09:27:12.000Z</time>
      </trkpt>
      <trkpt lat="45.82442" lon="4.67035">
        <ele>309.36874</ele>
        <time>2023-10-04T09:27:13.000Z</time>
      </trkpt>
      <trkpt lat="45.82442" lon="4.67038">
        <ele>309.32196</ele>
        <time>2023-10-04T09:27:14.000Z</time>
      </trkpt>
      <trkpt lat="45.82441" lon="4.67041">
        <ele>309.26599</ele>
        <time>2023-10-04T09:27:15.000Z</time>
      </trkpt>
      <trkpt lat="45.82439" lon="4.67043">
        <ele>309.21713</ele>
        <time>2023-10-04T09:27:16.000Z</time>
      </trkpt>
      <trkpt lat="45.82438" lon="4.67044">
        <ele>309.1658</ele>
        <time>2023-10-04T09:27:17.000Z</time>
      </trkpt>
      <trkpt lat="45.82436" lon="4.67046">
        <ele>309.12625</ele>
        <time>2023-10-04T09:27:18.000Z</time>
      </trkpt>
      <trkpt lat="45.82434" lon="4.67048">
        <ele>309.07559</ele>
        <time>2023-10-04T09:27:19.000Z</time>
      </trkpt>
      <trkpt lat="45.82432" lon="4.67051">
        <ele>309.04614</ele>
        <time>2023-10-04T09:27:20.000Z</time>
      </trkpt>
      <trkpt lat="45.8243" lon="4.67055">
        <ele>309.01154</ele>
        <time>2023-10-04T09:27:21.000Z</time>
      </trkpt>
      <trkpt lat="45.82429" lon="4.67059">
        <ele>308.92813</ele>
        <time>2023-10-04T09:27:22.000Z</time>
      </trkpt>
      <trkpt lat="45.82429" lon="4.67063">
        <ele>308.992</ele>
        <time>2023-10-04T09:27:23.000Z</time>
      </trkpt>
      <trkpt lat="45.82428" lon="4.67066">
        <ele>309.01746</ele>
        <time>2023-10-04T09:27:24.000Z</time>
      </trkpt>
      <trkpt lat="45.82428" lon="4.6707">
        <ele>309.03729</ele>
        <time>2023-10-04T09:27:25.000Z</time>
      </trkpt>
      <trkpt lat="45.82427" lon="4.67074">
        <ele>309.07394</ele>
        <time>2023-10-04T09:27:26.000Z</time>
      </trkpt>
      <trkpt lat="45.82427" lon="4.67078">
        <ele>309.10001</ele>
        <time>2023-10-04T09:27:27.000Z</time>
      </trkpt>
      <trkpt lat="45.82427" lon="4.67082">
        <ele>309.10703</ele>
        <time>2023-10-04T09:27:28.000Z</time>
      </trkpt>
      <trkpt lat="45.82427" lon="4.67087">
        <ele>309.14603</ele>
        <time>2023-10-04T09:27:29.000Z</time>
      </trkpt>
      <trkpt lat="45.82428" lon="4.67092">
        <ele>309.24109</ele>
        <time>2023-10-04T09:27:30.000Z</time>
      </trkpt>
      <trkpt lat="45.8243" lon="4.67096">
        <ele>309.34793</ele>
        <time>2023-10-04T09:27:31.000Z</time>
      </trkpt>
      <trkpt lat="45.82433" lon="4.67098">
        <ele>309.62292</ele>
        <time>2023-10-04T09:27:32.000Z</time>
      </trkpt>
      <trkpt lat="45.82435" lon="4.671">
        <ele>309.86639</ele>
        <time>2023-10-04T09:27:33.000Z</time>
      </trkpt>
      <trkpt lat="45.82438" lon="4.671">
        <ele>310.13376</ele>
        <time>2023-10-04T09:27:34.000Z</time>
      </trkpt>
      <trkpt lat="45.82441" lon="4.67102">
        <ele>310.37009</ele>
        <time>2023-10-04T09:27:35.000Z</time>
      </trkpt>
      <trkpt lat="45.82444" lon="4.67103">
        <ele>310.58502</ele>
        <time>2023-10-04T09:27:36.000Z</time>
      </trkpt>
      <trkpt lat="45.82446" lon="4.67103">
        <ele>310.80322</ele>
        <time>2023-10-04T09:27:37.000Z</time>
      </trkpt>
      <trkpt lat="45.82449" lon="4.67104">
        <ele>311.05713</ele>
        <time>2023-10-04T09:27:39.000Z</time>
      </trkpt>
      <trkpt lat="45.82451" lon="4.67101">
        <ele>311.30457</ele>
        <time>2023-10-04T09:27:41.000Z</time>
      </trkpt>
      <trkpt lat="45.82453" lon="4.671">
        <ele>311.55096</ele>
        <time>2023-10-04T09:27:46.000Z</time>
      </trkpt>
      <trkpt lat="45.82454" lon="4.67099">
        <ele>311.77582</ele>
        <time>2023-10-04T09:28:14.000Z</time>
      </trkpt>
      <trkpt lat="45.82457" lon="4.671">
        <ele>312.04929</ele>
        <time>2023-10-04T09:28:16.000Z</time>
      </trkpt>
      <trkpt lat="45.82459" lon="4.671">
        <ele>312.14844</ele>
        <time>2023-10-04T09:28:18.000Z</time>
      </trkpt>
      <trkpt lat="45.82461" lon="4.671">
        <ele>312.25748</ele>
        <time>2023-10-04T09:28:21.000Z</time>
      </trkpt>
      <trkpt lat="45.82463" lon="4.67101">
        <ele>312.38321</ele>
        <time>2023-10-04T09:28:23.000Z</time>
      </trkpt>
      <trkpt lat="45.82465" lon="4.67101">
        <ele>312.48953</ele>
        <time>2023-10-04T09:28:25.000Z</time>
      </trkpt>
      <trkpt lat="45.82469" lon="4.67102">
        <ele>312.54816</ele>
        <time>2023-10-04T09:28:27.000Z</time>
      </trkpt>
      <trkpt lat="45.82471" lon="4.67103">
        <ele>312.59607</ele>
        <time>2023-10-04T09:28:28.000Z</time>
      </trkpt>
      <trkpt lat="45.82474" lon="4.67104">
        <ele>312.63361</ele>
        <time>2023-10-04T09:28:29.000Z</time>
      </trkpt>
      <trkpt lat="45.82476" lon="4.67106">
        <ele>312.65308</ele>
        <time>2023-10-04T09:28:30.000Z</time>
      </trkpt>
      <trkpt lat="45.82479" lon="4.67107">
        <ele>312.6774</ele>
        <time>2023-10-04T09:28:31.000Z</time>
      </trkpt>
      <trkpt lat="45.82482" lon="4.67108">
        <ele>312.70801</ele>
        <time>2023-10-04T09:28:32.000Z</time>
      </trkpt>
      <trkpt lat="45.82484" lon="4.6711">
        <ele>312.77643</ele>
        <time>2023-10-04T09:28:33.000Z</time>
      </trkpt>
      <trkpt lat="45.82487" lon="4.67111">
        <ele>312.77032</ele>
        <time>2023-10-04T09:28:34.000Z</time>
      </trkpt>
      <trkpt lat="45.82489" lon="4.67112">
        <ele>312.79504</ele>
        <time>2023-10-04T09:28:35.000Z</time>
      </trkpt>
      <trkpt lat="45.82492" lon="4.67114">
        <ele>312.80902</ele>
        <time>2023-10-04T09:28:36.000Z</time>
      </trkpt>
      <trkpt lat="45.82495" lon="4.67115">
        <ele>312.8396</ele>
        <time>2023-10-04T09:28:37.000Z</time>
      </trkpt>
      <trkpt lat="45.82497" lon="4.67116">
        <ele>312.83978</ele>
        <time>2023-10-04T09:28:38.000Z</time>
      </trkpt>
      <trkpt lat="45.825" lon="4.67117">
        <ele>312.84778</ele>
        <time>2023-10-04T09:28:39.000Z</time>
      </trkpt>
      <trkpt lat="45.82503" lon="4.67119">
        <ele>312.8457</ele>
        <time>2023-10-04T09:28:40.000Z</time>
      </trkpt>
      <trkpt lat="45.82506" lon="4.6712">
        <ele>312.8653</ele>
        <time>2023-10-04T09:28:41.000Z</time>
      </trkpt>
      <trkpt lat="45.82508" lon="4.67122">
        <ele>312.87823</ele>
        <time>2023-10-04T09:28:42.000Z</time>
      </trkpt>
      <trkpt lat="45.82511" lon="4.67123">
        <ele>312.8941</ele>
        <time>2023-10-04T09:28:43.000Z</time>
      </trkpt>
      <trkpt lat="45.82514" lon="4.67124">
        <ele>312.92114</ele>
        <time>2023-10-04T09:28:44.000Z</time>
      </trkpt>
      <trkpt lat="45.82517" lon="4.67125">
        <ele>312.9035</ele>
        <time>2023-10-04T09:28:45.000Z</time>
      </trkpt>
      <trkpt lat="45.8252" lon="4.67126">
        <ele>312.89771</ele>
        <time>2023-10-04T09:28:46.000Z</time>
      </trkpt>
      <trkpt lat="45.82524" lon="4.67128">
        <ele>312.9339</ele>
        <time>2023-10-04T09:28:47.000Z</time>
      </trkpt>
      <trkpt lat="45.82527" lon="4.67129">
        <ele>313.00082</ele>
        <time>2023-10-04T09:28:48.000Z</time>
      </trkpt>
      <trkpt lat="45.8253" lon="4.6713">
        <ele>313.04297</ele>
        <time>2023-10-04T09:28:49.000Z</time>
      </trkpt>
      <trkpt lat="45.82533" lon="4.67132">
        <ele>313.09967</ele>
        <time>2023-10-04T09:28:50.000Z</time>
      </trkpt>
      <trkpt lat="45.82537" lon="4.67134">
        <ele>313.11664</ele>
        <time>2023-10-04T09:28:51.000Z</time>
      </trkpt>
      <trkpt lat="45.8254" lon="4.67136">
        <ele>313.11841</ele>
        <time>2023-10-04T09:28:52.000Z</time>
      </trkpt>
      <trkpt lat="45.82544" lon="4.67137">
        <ele>313.09106</ele>
        <time>2023-10-04T09:28:53.000Z</time>
      </trkpt>
      <trkpt lat="45.82548" lon="4.67139">
        <ele>313.07214</ele>
        <time>2023-10-04T09:28:54.000Z</time>
      </trkpt>
      <trkpt lat="45.82552" lon="4.6714">
        <ele>312.9805</ele>
        <time>2023-10-04T09:28:55.000Z</time>
      </trkpt>
      <trkpt lat="45.82556" lon="4.67142">
        <ele>312.91745</ele>
        <time>2023-10-04T09:28:56.000Z</time>
      </trkpt>
      <trkpt lat="45.8256" lon="4.67144">
        <ele>312.84833</ele>
        <time>2023-10-04T09:28:57.000Z</time>
      </trkpt>
      <trkpt lat="45.82565" lon="4.67146">
        <ele>312.76633</ele>
        <time>2023-10-04T09:28:58.000Z</time>
      </trkpt>
      <trkpt lat="45.82569" lon="4.67147">
        <ele>312.65164</ele>
        <time>2023-10-04T09:28:59.000Z</time>
      </trkpt>
      <trkpt lat="45.82574" lon="4.67149">
        <ele>312.53571</ele>
        <time>2023-10-04T09:29:00.000Z</time>
      </trkpt>
      <trkpt lat="45.82579" lon="4.6715">
        <ele>312.40051</ele>
        <time>2023-10-04T09:29:01.000Z</time>
      </trkpt>
      <trkpt lat="45.82583" lon="4.6715">
        <ele>312.28381</ele>
        <time>2023-10-04T09:29:02.000Z</time>
      </trkpt>
      <trkpt lat="45.82588" lon="4.67152">
        <ele>312.17407</ele>
        <time>2023-10-04T09:29:03.000Z</time>
      </trkpt>
      <trkpt lat="45.82592" lon="4.67154">
        <ele>312.05048</ele>
        <time>2023-10-04T09:29:04.000Z</time>
      </trkpt>
      <trkpt lat="45.82597" lon="4.67157">
        <ele>311.94052</ele>
        <time>2023-10-04T09:29:05.000Z</time>
      </trkpt>
      <trkpt lat="45.82602" lon="4.6716">
        <ele>311.81247</ele>
        <time>2023-10-04T09:29:06.000Z</time>
      </trkpt>
      <trkpt lat="45.82607" lon="4.67163">
        <ele>311.6933</ele>
        <time>2023-10-04T09:29:07.000Z</time>
      </trkpt>
      <trkpt lat="45.82612" lon="4.67165">
        <ele>311.54962</ele>
        <time>2023-10-04T09:29:08.000Z</time>
      </trkpt>
      <trkpt lat="45.82616" lon="4.67168">
        <ele>311.44339</ele>
        <time>2023-10-04T09:29:09.000Z</time>
      </trkpt>
      <trkpt lat="45.8262" lon="4.67171">
        <ele>311.26331</ele>
        <time>2023-10-04T09:29:10.000Z</time>
      </trkpt>
      <trkpt lat="45.82624" lon="4.67175">
        <ele>311.13898</ele>
        <time>2023-10-04T09:29:11.000Z</time>
      </trkpt>
      <trkpt lat="45.82628" lon="4.67178">
        <ele>311.03351</ele>
        <time>2023-10-04T09:29:12.000Z</time>
      </trkpt>
      <trkpt lat="45.82631" lon="4.67184">
        <ele>310.92389</ele>
        <time>2023-10-04T09:29:13.000Z</time>
      </trkpt>
      <trkpt lat="45.82634" lon="4.67188">
        <ele>310.81415</ele>
        <time>2023-10-04T09:29:14.000Z</time>
      </trkpt>
      <trkpt lat="45.82637" lon="4.67192">
        <ele>310.77701</ele>
        <time>2023-10-04T09:29:15.000Z</time>
      </trkpt>
      <trkpt lat="45.82641" lon="4.67196">
        <ele>310.74225</ele>
        <time>2023-10-04T09:29:16.000Z</time>
      </trkpt>
      <trkpt lat="45.82645" lon="4.67201">
        <ele>310.71481</ele>
        <time>2023-10-04T09:29:17.000Z</time>
      </trkpt>
      <trkpt lat="45.82648" lon="4.67205">
        <ele>310.6662</ele>
        <time>2023-10-04T09:29:18.000Z</time>
      </trkpt>
      <trkpt lat="45.82651" lon="4.67209">
        <ele>310.53909</ele>
        <time>2023-10-04T09:29:19.000Z</time>
      </trkpt>
      <trkpt lat="45.82655" lon="4.67213">
        <ele>310.44058</ele>
        <time>2023-10-04T09:29:20.000Z</time>
      </trkpt>
      <trkpt lat="45.82658" lon="4.67217">
        <ele>310.34692</ele>
        <time>2023-10-04T09:29:21.000Z</time>
      </trkpt>
      <trkpt lat="45.82662" lon="4.67222">
        <ele>310.22391</ele>
        <time>2023-10-04T09:29:22.000Z</time>
      </trkpt>
      <trkpt lat="45.82666" lon="4.67227">
        <ele>310.07278</ele>
        <time>2023-10-04T09:29:23.000Z</time>
      </trkpt>
      <trkpt lat="45.8267" lon="4.67233">
        <ele>309.93579</ele>
        <time>2023-10-04T09:29:24.000Z</time>
      </trkpt>
      <trkpt lat="45.82674" lon="4.67238">
        <ele>309.78467</ele>
        <time>2023-10-04T09:29:25.000Z</time>
      </trkpt>
      <trkpt lat="45.82678" lon="4.67243">
        <ele>309.61444</ele>
        <time>2023-10-04T09:29:26.000Z</time>
      </trkpt>
      <trkpt lat="45.82681" lon="4.67247">
        <ele>309.4321</ele>
        <time>2023-10-04T09:29:27.000Z</time>
      </trkpt>
      <trkpt lat="45.82685" lon="4.67253">
        <ele>309.23514</ele>
        <time>2023-10-04T09:29:28.000Z</time>
      </trkpt>
      <trkpt lat="45.82689" lon="4.67257">
        <ele>308.99942</ele>
        <time>2023-10-04T09:29:29.000Z</time>
      </trkpt>
      <trkpt lat="45.82693" lon="4.67262">
        <ele>308.81738</ele>
        <time>2023-10-04T09:29:30.000Z</time>
      </trkpt>
      <trkpt lat="45.82698" lon="4.67267">
        <ele>308.6257</ele>
        <time>2023-10-04T09:29:31.000Z</time>
      </trkpt>
      <trkpt lat="45.82701" lon="4.67272">
        <ele>308.40515</ele>
        <time>2023-10-04T09:29:32.000Z</time>
      </trkpt>
      <trkpt lat="45.82706" lon="4.67277">
        <ele>308.19098</ele>
        <time>2023-10-04T09:29:33.000Z</time>
      </trkpt>
      <trkpt lat="45.82709" lon="4.67282">
        <ele>307.99115</ele>
        <time>2023-10-04T09:29:34.000Z</time>
      </trkpt>
      <trkpt lat="45.82712" lon="4.67287">
        <ele>307.84991</ele>
        <time>2023-10-04T09:29:35.000Z</time>
      </trkpt>
      <trkpt lat="45.82715" lon="4.67292">
        <ele>307.69098</ele>
        <time>2023-10-04T09:29:36.000Z</time>
      </trkpt>
      <trkpt lat="45.82717" lon="4.67296">
        <ele>307.53198</ele>
        <time>2023-10-04T09:29:37.000Z</time>
      </trkpt>
      <trkpt lat="45.8272" lon="4.67301">
        <ele>307.25931</ele>
        <time>2023-10-04T09:29:38.000Z</time>
      </trkpt>
      <trkpt lat="45.82723" lon="4.67304">
        <ele>307.09836</ele>
        <time>2023-10-04T09:29:39.000Z</time>
      </trkpt>
      <trkpt lat="45.82726" lon="4.67307">
        <ele>306.93942</ele>
        <time>2023-10-04T09:29:40.000Z</time>
      </trkpt>
      <trkpt lat="45.82729" lon="4.6731">
        <ele>306.79736</ele>
        <time>2023-10-04T09:29:41.000Z</time>
      </trkpt>
      <trkpt lat="45.82731" lon="4.67314">
        <ele>306.64972</ele>
        <time>2023-10-04T09:29:42.000Z</time>
      </trkpt>
      <trkpt lat="45.82734" lon="4.67317">
        <ele>306.5101</ele>
        <time>2023-10-04T09:29:43.000Z</time>
      </trkpt>
      <trkpt lat="45.82737" lon="4.67321">
        <ele>306.40143</ele>
        <time>2023-10-04T09:29:44.000Z</time>
      </trkpt>
      <trkpt lat="45.82739" lon="4.67323">
        <ele>306.30447</ele>
        <time>2023-10-04T09:29:45.000Z</time>
      </trkpt>
      <trkpt lat="45.82741" lon="4.67326">
        <ele>306.23407</ele>
        <time>2023-10-04T09:29:46.000Z</time>
      </trkpt>
      <trkpt lat="45.82743" lon="4.67329">
        <ele>306.1554</ele>
        <time>2023-10-04T09:29:47.000Z</time>
      </trkpt>
      <trkpt lat="45.82745" lon="4.67331">
        <ele>306.09634</ele>
        <time>2023-10-04T09:29:48.000Z</time>
      </trkpt>
      <trkpt lat="45.82747" lon="4.67334">
        <ele>306.04413</ele>
        <time>2023-10-04T09:29:49.000Z</time>
      </trkpt>
      <trkpt lat="45.82749" lon="4.67336">
        <ele>306.01337</ele>
        <time>2023-10-04T09:29:50.000Z</time>
      </trkpt>
      <trkpt lat="45.82751" lon="4.67338">
        <ele>305.97208</ele>
        <time>2023-10-04T09:29:51.000Z</time>
      </trkpt>
      <trkpt lat="45.82752" lon="4.6734">
        <ele>305.94635</ele>
        <time>2023-10-04T09:29:52.000Z</time>
      </trkpt>
      <trkpt lat="45.82754" lon="4.67342">
        <ele>305.91708</ele>
        <time>2023-10-04T09:29:53.000Z</time>
      </trkpt>
      <trkpt lat="45.82755" lon="4.67344">
        <ele>305.86884</ele>
        <time>2023-10-04T09:29:54.000Z</time>
      </trkpt>
      <trkpt lat="45.82757" lon="4.67346">
        <ele>305.76239</ele>
        <time>2023-10-04T09:29:55.000Z</time>
      </trkpt>
      <trkpt lat="45.82759" lon="4.67349">
        <ele>305.67239</ele>
        <time>2023-10-04T09:29:57.000Z</time>
      </trkpt>
      <trkpt lat="45.82761" lon="4.67351">
        <ele>305.56015</ele>
        <time>2023-10-04T09:29:58.000Z</time>
      </trkpt>
      <trkpt lat="45.82763" lon="4.67353">
        <ele>305.58426</ele>
        <time>2023-10-04T09:29:59.000Z</time>
      </trkpt>
      <trkpt lat="45.82766" lon="4.67356">
        <ele>305.61249</ele>
        <time>2023-10-04T09:30:00.000Z</time>
      </trkpt>
      <trkpt lat="45.82768" lon="4.67359">
        <ele>305.62231</ele>
        <time>2023-10-04T09:30:01.000Z</time>
      </trkpt>
      <trkpt lat="45.82771" lon="4.67362">
        <ele>305.6254</ele>
        <time>2023-10-04T09:30:02.000Z</time>
      </trkpt>
      <trkpt lat="45.82774" lon="4.67366">
        <ele>305.66495</ele>
        <time>2023-10-04T09:30:03.000Z</time>
      </trkpt>
      <trkpt lat="45.82777" lon="4.6737">
        <ele>305.72739</ele>
        <time>2023-10-04T09:30:04.000Z</time>
      </trkpt>
      <trkpt lat="45.82779" lon="4.67373">
        <ele>305.75375</ele>
        <time>2023-10-04T09:30:05.000Z</time>
      </trkpt>
      <trkpt lat="45.82782" lon="4.67377">
        <ele>305.78702</ele>
        <time>2023-10-04T09:30:06.000Z</time>
      </trkpt>
      <trkpt lat="45.82785" lon="4.6738">
        <ele>305.82544</ele>
        <time>2023-10-04T09:30:07.000Z</time>
      </trkpt>
      <trkpt lat="45.82788" lon="4.67385">
        <ele>305.86011</ele>
        <time>2023-10-04T09:30:08.000Z</time>
      </trkpt>
      <trkpt lat="45.82791" lon="4.67389">
        <ele>305.89447</ele>
        <time>2023-10-04T09:30:09.000Z</time>
      </trkpt>
      <trkpt lat="45.82794" lon="4.67393">
        <ele>305.90848</ele>
        <time>2023-10-04T09:30:10.000Z</time>
      </trkpt>
      <trkpt lat="45.82797" lon="4.67397">
        <ele>305.89441</ele>
        <time>2023-10-04T09:30:11.000Z</time>
      </trkpt>
      <trkpt lat="45.82801" lon="4.67401">
        <ele>305.85638</ele>
        <time>2023-10-04T09:30:12.000Z</time>
      </trkpt>
      <trkpt lat="45.82804" lon="4.67405">
        <ele>305.79364</ele>
        <time>2023-10-04T09:30:13.000Z</time>
      </trkpt>
      <trkpt lat="45.82808" lon="4.6741">
        <ele>305.74139</ele>
        <time>2023-10-04T09:30:14.000Z</time>
      </trkpt>
      <trkpt lat="45.82811" lon="4.67415">
        <ele>305.68979</ele>
        <time>2023-10-04T09:30:15.000Z</time>
      </trkpt>
      <trkpt lat="45.82815" lon="4.6742">
        <ele>305.62231</ele>
        <time>2023-10-04T09:30:16.000Z</time>
      </trkpt>
      <trkpt lat="45.82818" lon="4.67424">
        <ele>305.5271</ele>
        <time>2023-10-04T09:30:17.000Z</time>
      </trkpt>
      <trkpt lat="45.82821" lon="4.67429">
        <ele>305.42523</ele>
        <time>2023-10-04T09:30:18.000Z</time>
      </trkpt>
      <trkpt lat="45.82825" lon="4.67434">
        <ele>305.32153</ele>
        <time>2023-10-04T09:30:19.000Z</time>
      </trkpt>
      <trkpt lat="45.82828" lon="4.67438">
        <ele>305.19217</ele>
        <time>2023-10-04T09:30:20.000Z</time>
      </trkpt>
      <trkpt lat="45.82831" lon="4.67442">
        <ele>305.06851</ele>
        <time>2023-10-04T09:30:21.000Z</time>
      </trkpt>
      <trkpt lat="45.82834" lon="4.67447">
        <ele>304.96204</ele>
        <time>2023-10-04T09:30:22.000Z</time>
      </trkpt>
      <trkpt lat="45.82837" lon="4.67451">
        <ele>304.82858</ele>
        <time>2023-10-04T09:30:23.000Z</time>
      </trkpt>
      <trkpt lat="45.8284" lon="4.67455">
        <ele>304.70078</ele>
        <time>2023-10-04T09:30:24.000Z</time>
      </trkpt>
      <trkpt lat="45.82844" lon="4.67459">
        <ele>304.60318</ele>
        <time>2023-10-04T09:30:25.000Z</time>
      </trkpt>
      <trkpt lat="45.82847" lon="4.67463">
        <ele>304.49478</ele>
        <time>2023-10-04T09:30:26.000Z</time>
      </trkpt>
      <trkpt lat="45.82851" lon="4.67467">
        <ele>304.38638</ele>
        <time>2023-10-04T09:30:27.000Z</time>
      </trkpt>
      <trkpt lat="45.82855" lon="4.67471">
        <ele>304.29425</ele>
        <time>2023-10-04T09:30:28.000Z</time>
      </trkpt>
      <trkpt lat="45.82858" lon="4.67475">
        <ele>304.28998</ele>
        <time>2023-10-04T09:30:29.000Z</time>
      </trkpt>
      <trkpt lat="45.82863" lon="4.67481">
        <ele>304.29126</ele>
        <time>2023-10-04T09:30:30.000Z</time>
      </trkpt>
      <trkpt lat="45.82866" lon="4.67486">
        <ele>304.32318</ele>
        <time>2023-10-04T09:30:31.000Z</time>
      </trkpt>
      <trkpt lat="45.8287" lon="4.6749">
        <ele>304.37888</ele>
        <time>2023-10-04T09:30:32.000Z</time>
      </trkpt>
      <trkpt lat="45.82873" lon="4.67495">
        <ele>304.28302</ele>
        <time>2023-10-04T09:30:33.000Z</time>
      </trkpt>
      <trkpt lat="45.82877" lon="4.67499">
        <ele>304.20474</ele>
        <time>2023-10-04T09:30:34.000Z</time>
      </trkpt>
      <trkpt lat="45.82881" lon="4.67505">
        <ele>304.12149</ele>
        <time>2023-10-04T09:30:35.000Z</time>
      </trkpt>
      <trkpt lat="45.82885" lon="4.67507">
        <ele>304.0567</ele>
        <time>2023-10-04T09:30:36.000Z</time>
      </trkpt>
      <trkpt lat="45.82888" lon="4.67511">
        <ele>303.98685</ele>
        <time>2023-10-04T09:30:37.000Z</time>
      </trkpt>
      <trkpt lat="45.82892" lon="4.67516">
        <ele>303.92102</ele>
        <time>2023-10-04T09:30:38.000Z</time>
      </trkpt>
      <trkpt lat="45.82896" lon="4.67521">
        <ele>303.85513</ele>
        <time>2023-10-04T09:30:39.000Z</time>
      </trkpt>
      <trkpt lat="45.829" lon="4.67527">
        <ele>303.79266</ele>
        <time>2023-10-04T09:30:40.000Z</time>
      </trkpt>
      <trkpt lat="45.82904" lon="4.67531">
        <ele>303.71558</ele>
        <time>2023-10-04T09:30:41.000Z</time>
      </trkpt>
      <trkpt lat="45.82908" lon="4.67535">
        <ele>303.61392</ele>
        <time>2023-10-04T09:30:42.000Z</time>
      </trkpt>
      <trkpt lat="45.82912" lon="4.67539">
        <ele>303.5119</ele>
        <time>2023-10-04T09:30:43.000Z</time>
      </trkpt>
      <trkpt lat="45.82916" lon="4.67541">
        <ele>303.47168</ele>
        <time>2023-10-04T09:30:44.000Z</time>
      </trkpt>
      <trkpt lat="45.8292" lon="4.67545">
        <ele>303.43033</ele>
        <time>2023-10-04T09:30:45.000Z</time>
      </trkpt>
      <trkpt lat="45.82924" lon="4.67547">
        <ele>303.39685</ele>
        <time>2023-10-04T09:30:46.000Z</time>
      </trkpt>
      <trkpt lat="45.82928" lon="4.67549">
        <ele>303.41788</ele>
        <time>2023-10-04T09:30:47.000Z</time>
      </trkpt>
      <trkpt lat="45.82931" lon="4.67553">
        <ele>303.21588</ele>
        <time>2023-10-04T09:30:48.000Z</time>
      </trkpt>
      <trkpt lat="45.82936" lon="4.67555">
        <ele>302.91229</ele>
        <time>2023-10-04T09:30:49.000Z</time>
      </trkpt>
      <trkpt lat="45.82942" lon="4.67557">
        <ele>302.60443</ele>
        <time>2023-10-04T09:30:50.000Z</time>
      </trkpt>
      <trkpt lat="45.82947" lon="4.67559">
        <ele>302.26898</ele>
        <time>2023-10-04T09:30:51.000Z</time>
      </trkpt>
      <trkpt lat="45.82952" lon="4.6756">
        <ele>301.91547</ele>
        <time>2023-10-04T09:30:52.000Z</time>
      </trkpt>
      <trkpt lat="45.82958" lon="4.67562">
        <ele>301.71301</ele>
        <time>2023-10-04T09:30:53.000Z</time>
      </trkpt>
      <trkpt lat="45.82964" lon="4.67563">
        <ele>301.49509</ele>
        <time>2023-10-04T09:30:54.000Z</time>
      </trkpt>
      <trkpt lat="45.82969" lon="4.67565">
        <ele>301.41077</ele>
        <time>2023-10-04T09:30:55.000Z</time>
      </trkpt>
      <trkpt lat="45.82975" lon="4.67567">
        <ele>301.31876</ele>
        <time>2023-10-04T09:30:56.000Z</time>
      </trkpt>
      <trkpt lat="45.8298" lon="4.6757">
        <ele>301.25113</ele>
        <time>2023-10-04T09:30:57.000Z</time>
      </trkpt>
      <trkpt lat="45.82985" lon="4.67571">
        <ele>300.95358</ele>
        <time>2023-10-04T09:30:58.000Z</time>
      </trkpt>
      <trkpt lat="45.8299" lon="4.67573">
        <ele>300.70245</ele>
        <time>2023-10-04T09:30:59.000Z</time>
      </trkpt>
      <trkpt lat="45.82995" lon="4.67575">
        <ele>300.44315</ele>
        <time>2023-10-04T09:31:00.000Z</time>
      </trkpt>
      <trkpt lat="45.83" lon="4.67577">
        <ele>300.19345</ele>
        <time>2023-10-04T09:31:01.000Z</time>
      </trkpt>
      <trkpt lat="45.83004" lon="4.6758">
        <ele>299.96225</ele>
        <time>2023-10-04T09:31:02.000Z</time>
      </trkpt>
      <trkpt lat="45.83009" lon="4.67584">
        <ele>299.71121</ele>
        <time>2023-10-04T09:31:03.000Z</time>
      </trkpt>
      <trkpt lat="45.83011" lon="4.67591">
        <ele>299.38028</ele>
        <time>2023-10-04T09:31:04.000Z</time>
      </trkpt>
      <trkpt lat="45.83014" lon="4.67598">
        <ele>299.02948</ele>
        <time>2023-10-04T09:31:05.000Z</time>
      </trkpt>
      <trkpt lat="45.83015" lon="4.67606">
        <ele>298.67874</ele>
        <time>2023-10-04T09:31:06.000Z</time>
      </trkpt>
      <trkpt lat="45.83016" lon="4.67613">
        <ele>298.28265</ele>
        <time>2023-10-04T09:31:07.000Z</time>
      </trkpt>
      <trkpt lat="45.83017" lon="4.6762">
        <ele>298.10522</ele>
        <time>2023-10-04T09:31:08.000Z</time>
      </trkpt>
      <trkpt lat="45.83017" lon="4.67627">
        <ele>297.93542</ele>
        <time>2023-10-04T09:31:09.000Z</time>
      </trkpt>
      <trkpt lat="45.83017" lon="4.67632">
        <ele>297.92841</ele>
        <time>2023-10-04T09:31:10.000Z</time>
      </trkpt>
      <trkpt lat="45.83017" lon="4.67639">
        <ele>297.93771</ele>
        <time>2023-10-04T09:31:11.000Z</time>
      </trkpt>
      <trkpt lat="45.83016" lon="4.67645">
        <ele>297.95413</ele>
        <time>2023-10-04T09:31:12.000Z</time>
      </trkpt>
      <trkpt lat="45.83016" lon="4.67651">
        <ele>298.02441</ele>
        <time>2023-10-04T09:31:13.000Z</time>
      </trkpt>
      <trkpt lat="45.83016" lon="4.67658">
        <ele>297.88077</ele>
        <time>2023-10-04T09:31:14.000Z</time>
      </trkpt>
      <trkpt lat="45.83016" lon="4.67665">
        <ele>297.66339</ele>
        <time>2023-10-04T09:31:15.000Z</time>
      </trkpt>
      <trkpt lat="45.83016" lon="4.67671">
        <ele>297.44339</ele>
        <time>2023-10-04T09:31:16.000Z</time>
      </trkpt>
      <trkpt lat="45.83017" lon="4.67676">
        <ele>297.23502</ele>
        <time>2023-10-04T09:31:17.000Z</time>
      </trkpt>
      <trkpt lat="45.83017" lon="4.67682">
        <ele>297.2934</ele>
        <time>2023-10-04T09:31:18.000Z</time>
      </trkpt>
      <trkpt lat="45.83017" lon="4.67687">
        <ele>297.3342</ele>
        <time>2023-10-04T09:31:19.000Z</time>
      </trkpt>
      <trkpt lat="45.83018" lon="4.67694">
        <ele>297.38077</ele>
        <time>2023-10-04T09:31:20.000Z</time>
      </trkpt>
      <trkpt lat="45.83018" lon="4.677">
        <ele>297.42163</ele>
        <time>2023-10-04T09:31:21.000Z</time>
      </trkpt>
      <trkpt lat="45.83019" lon="4.67704">
        <ele>297.47055</ele>
        <time>2023-10-04T09:31:22.000Z</time>
      </trkpt>
      <trkpt lat="45.8302" lon="4.67709">
        <ele>297.52875</ele>
        <time>2023-10-04T09:31:23.000Z</time>
      </trkpt>
      <trkpt lat="45.83021" lon="4.67713">
        <ele>297.60114</ele>
        <time>2023-10-04T09:31:24.000Z</time>
      </trkpt>
      <trkpt lat="45.83022" lon="4.67717">
        <ele>297.66125</ele>
        <time>2023-10-04T09:31:25.000Z</time>
      </trkpt>
      <trkpt lat="45.83023" lon="4.6772">
        <ele>297.71393</ele>
        <time>2023-10-04T09:31:26.000Z</time>
      </trkpt>
      <trkpt lat="45.83023" lon="4.67723">
        <ele>297.75574</ele>
        <time>2023-10-04T09:31:27.000Z</time>
      </trkpt>
      <trkpt lat="45.83024" lon="4.67726">
        <ele>297.77954</ele>
        <time>2023-10-04T09:31:29.000Z</time>
      </trkpt>
      <trkpt lat="45.83026" lon="4.67728">
        <ele>297.82208</ele>
        <time>2023-10-04T09:31:48.000Z</time>
      </trkpt>
      <trkpt lat="45.8303" lon="4.67727">
        <ele>297.7114</ele>
        <time>2023-10-04T09:31:50.000Z</time>
      </trkpt>
      <trkpt lat="45.83032" lon="4.67727">
        <ele>297.61227</ele>
        <time>2023-10-04T09:31:51.000Z</time>
      </trkpt>
      <trkpt lat="45.83035" lon="4.67727">
        <ele>297.51773</ele>
        <time>2023-10-04T09:31:52.000Z</time>
      </trkpt>
      <trkpt lat="45.83038" lon="4.67729">
        <ele>297.36603</ele>
        <time>2023-10-04T09:31:53.000Z</time>
      </trkpt>
      <trkpt lat="45.83041" lon="4.6773">
        <ele>297.41931</ele>
        <time>2023-10-04T09:31:54.000Z</time>
      </trkpt>
      <trkpt lat="45.83044" lon="4.67732">
        <ele>297.42361</ele>
        <time>2023-10-04T09:31:55.000Z</time>
      </trkpt>
      <trkpt lat="45.83047" lon="4.67733">
        <ele>297.41107</ele>
        <time>2023-10-04T09:31:56.000Z</time>
      </trkpt>
      <trkpt lat="45.83049" lon="4.67735">
        <ele>297.47507</ele>
        <time>2023-10-04T09:31:57.000Z</time>
      </trkpt>
      <trkpt lat="45.83052" lon="4.67736">
        <ele>297.50351</ele>
        <time>2023-10-04T09:31:58.000Z</time>
      </trkpt>
      <trkpt lat="45.83055" lon="4.67737">
        <ele>297.5076</ele>
        <time>2023-10-04T09:31:59.000Z</time>
      </trkpt>
      <trkpt lat="45.83057" lon="4.67739">
        <ele>297.52484</ele>
        <time>2023-10-04T09:32:00.000Z</time>
      </trkpt>
      <trkpt lat="45.8306" lon="4.6774">
        <ele>297.5499</ele>
        <time>2023-10-04T09:32:01.000Z</time>
      </trkpt>
      <trkpt lat="45.83062" lon="4.67741">
        <ele>297.54913</ele>
        <time>2023-10-04T09:32:02.000Z</time>
      </trkpt>
      <trkpt lat="45.83064" lon="4.67742">
        <ele>297.56982</ele>
        <time>2023-10-04T09:32:03.000Z</time>
      </trkpt>
      <trkpt lat="45.83066" lon="4.67743">
        <ele>297.56299</ele>
        <time>2023-10-04T09:32:04.000Z</time>
      </trkpt>
      <trkpt lat="45.83069" lon="4.67744">
        <ele>297.55344</ele>
        <time>2023-10-04T09:32:05.000Z</time>
      </trkpt>
      <trkpt lat="45.83071" lon="4.67745">
        <ele>297.57111</ele>
        <time>2023-10-04T09:32:06.000Z</time>
      </trkpt>
      <trkpt lat="45.83073" lon="4.67745">
        <ele>297.58435</ele>
        <time>2023-10-04T09:32:07.000Z</time>
      </trkpt>
      <trkpt lat="45.83075" lon="4.67746">
        <ele>297.67944</ele>
        <time>2023-10-04T09:32:08.000Z</time>
      </trkpt>
      <trkpt lat="45.83078" lon="4.67746">
        <ele>297.74554</ele>
        <time>2023-10-04T09:32:09.000Z</time>
      </trkpt>
      <trkpt lat="45.8308" lon="4.67747">
        <ele>297.81085</ele>
        <time>2023-10-04T09:32:10.000Z</time>
      </trkpt>
      <trkpt lat="45.83082" lon="4.67748">
        <ele>297.8952</ele>
        <time>2023-10-04T09:32:11.000Z</time>
      </trkpt>
      <trkpt lat="45.83084" lon="4.67749">
        <ele>298.0351</ele>
        <time>2023-10-04T09:32:12.000Z</time>
      </trkpt>
      <trkpt lat="45.83085" lon="4.6775">
        <ele>298.23929</ele>
        <time>2023-10-04T09:32:13.000Z</time>
      </trkpt>
      <trkpt lat="45.83089" lon="4.67751">
        <ele>298.19894</ele>
        <time>2023-10-04T09:32:15.000Z</time>
      </trkpt>
      <trkpt lat="45.83091" lon="4.67752">
        <ele>298.17923</ele>
        <time>2023-10-04T09:32:16.000Z</time>
      </trkpt>
      <trkpt lat="45.83093" lon="4.67753">
        <ele>298.17218</ele>
        <time>2023-10-04T09:32:17.000Z</time>
      </trkpt>
      <trkpt lat="45.83095" lon="4.67754">
        <ele>298.08063</ele>
        <time>2023-10-04T09:32:18.000Z</time>
      </trkpt>
      <trkpt lat="45.83097" lon="4.67756">
        <ele>297.99533</ele>
        <time>2023-10-04T09:32:19.000Z</time>
      </trkpt>
      <trkpt lat="45.83099" lon="4.67758">
        <ele>297.92789</ele>
        <time>2023-10-04T09:32:20.000Z</time>
      </trkpt>
      <trkpt lat="45.83102" lon="4.6776">
        <ele>297.86743</ele>
        <time>2023-10-04T09:32:21.000Z</time>
      </trkpt>
      <trkpt lat="45.83104" lon="4.67762">
        <ele>297.78958</ele>
        <time>2023-10-04T09:32:22.000Z</time>
      </trkpt>
      <trkpt lat="45.83106" lon="4.67764">
        <ele>297.70624</ele>
        <time>2023-10-04T09:32:23.000Z</time>
      </trkpt>
      <trkpt lat="45.83109" lon="4.67766">
        <ele>297.612</ele>
        <time>2023-10-04T09:32:24.000Z</time>
      </trkpt>
      <trkpt lat="45.83111" lon="4.67769">
        <ele>297.48318</ele>
        <time>2023-10-04T09:32:25.000Z</time>
      </trkpt>
      <trkpt lat="45.83114" lon="4.67772">
        <ele>297.3681</ele>
        <time>2023-10-04T09:32:26.000Z</time>
      </trkpt>
      <trkpt lat="45.83116" lon="4.67775">
        <ele>297.255</ele>
        <time>2023-10-04T09:32:27.000Z</time>
      </trkpt>
      <trkpt lat="45.83119" lon="4.67778">
        <ele>297.13419</ele>
        <time>2023-10-04T09:32:28.000Z</time>
      </trkpt>
      <trkpt lat="45.83121" lon="4.67781">
        <ele>296.9234</ele>
        <time>2023-10-04T09:32:29.000Z</time>
      </trkpt>
      <trkpt lat="45.83123" lon="4.67784">
        <ele>296.75153</ele>
        <time>2023-10-04T09:32:30.000Z</time>
      </trkpt>
      <trkpt lat="45.83126" lon="4.67787">
        <ele>296.76868</ele>
        <time>2023-10-04T09:32:31.000Z</time>
      </trkpt>
      <trkpt lat="45.83129" lon="4.67791">
        <ele>296.79343</ele>
        <time>2023-10-04T09:32:32.000Z</time>
      </trkpt>
      <trkpt lat="45.83132" lon="4.67793">
        <ele>296.76892</ele>
        <time>2023-10-04T09:32:33.000Z</time>
      </trkpt>
      <trkpt lat="45.83134" lon="4.67796">
        <ele>296.46841</ele>
        <time>2023-10-04T09:32:34.000Z</time>
      </trkpt>
      <trkpt lat="45.83136" lon="4.67799">
        <ele>296.47144</ele>
        <time>2023-10-04T09:32:35.000Z</time>
      </trkpt>
      <trkpt lat="45.83139" lon="4.67802">
        <ele>296.45184</ele>
        <time>2023-10-04T09:32:36.000Z</time>
      </trkpt>
      <trkpt lat="45.83141" lon="4.67806">
        <ele>296.42026</ele>
        <time>2023-10-04T09:32:37.000Z</time>
      </trkpt>
      <trkpt lat="45.83143" lon="4.67809">
        <ele>296.38455</ele>
        <time>2023-10-04T09:32:38.000Z</time>
      </trkpt>
      <trkpt lat="45.83146" lon="4.67812">
        <ele>296.39941</ele>
        <time>2023-10-04T09:32:39.000Z</time>
      </trkpt>
      <trkpt lat="45.83148" lon="4.67815">
        <ele>296.43353</ele>
        <time>2023-10-04T09:32:40.000Z</time>
      </trkpt>
      <trkpt lat="45.83151" lon="4.67818">
        <ele>296.42859</ele>
        <time>2023-10-04T09:32:41.000Z</time>
      </trkpt>
      <trkpt lat="45.83153" lon="4.67821">
        <ele>296.41125</ele>
        <time>2023-10-04T09:32:42.000Z</time>
      </trkpt>
      <trkpt lat="45.83155" lon="4.67825">
        <ele>296.39929</ele>
        <time>2023-10-04T09:32:43.000Z</time>
      </trkpt>
      <trkpt lat="45.83157" lon="4.67828">
        <ele>296.38165</ele>
        <time>2023-10-04T09:32:44.000Z</time>
      </trkpt>
      <trkpt lat="45.8316" lon="4.67831">
        <ele>296.51141</ele>
        <time>2023-10-04T09:32:45.000Z</time>
      </trkpt>
      <trkpt lat="45.83162" lon="4.67836">
        <ele>296.71036</ele>
        <time>2023-10-04T09:32:46.000Z</time>
      </trkpt>
      <trkpt lat="45.83164" lon="4.6784">
        <ele>296.89572</ele>
        <time>2023-10-04T09:32:47.000Z</time>
      </trkpt>
      <trkpt lat="45.83166" lon="4.67844">
        <ele>297.08051</ele>
        <time>2023-10-04T09:32:48.000Z</time>
      </trkpt>
      <trkpt lat="45.83168" lon="4.67848">
        <ele>297.28033</ele>
        <time>2023-10-04T09:32:49.000Z</time>
      </trkpt>
      <trkpt lat="45.83171" lon="4.67851">
        <ele>297.46198</ele>
        <time>2023-10-04T09:32:50.000Z</time>
      </trkpt>
      <trkpt lat="45.83173" lon="4.67854">
        <ele>297.50702</ele>
        <time>2023-10-04T09:32:51.000Z</time>
      </trkpt>
      <trkpt lat="45.83175" lon="4.67858">
        <ele>297.51587</ele>
        <time>2023-10-04T09:32:52.000Z</time>
      </trkpt>
      <trkpt lat="45.83177" lon="4.67862">
        <ele>297.53827</ele>
        <time>2023-10-04T09:32:53.000Z</time>
      </trkpt>
      <trkpt lat="45.83178" lon="4.67865">
        <ele>297.52609</ele>
        <time>2023-10-04T09:32:54.000Z</time>
      </trkpt>
      <trkpt lat="45.8318" lon="4.67868">
        <ele>297.5069</ele>
        <time>2023-10-04T09:32:55.000Z</time>
      </trkpt>
      <trkpt lat="45.83182" lon="4.67871">
        <ele>297.51691</ele>
        <time>2023-10-04T09:32:56.000Z</time>
      </trkpt>
      <trkpt lat="45.83184" lon="4.67875">
        <ele>297.58713</ele>
        <time>2023-10-04T09:32:57.000Z</time>
      </trkpt>
      <trkpt lat="45.83186" lon="4.67878">
        <ele>297.70712</ele>
        <time>2023-10-04T09:32:58.000Z</time>
      </trkpt>
      <trkpt lat="45.83187" lon="4.67881">
        <ele>297.75214</ele>
        <time>2023-10-04T09:32:59.000Z</time>
      </trkpt>
      <trkpt lat="45.83189" lon="4.67884">
        <ele>297.76837</ele>
        <time>2023-10-04T09:33:00.000Z</time>
      </trkpt>
      <trkpt lat="45.83191" lon="4.67888">
        <ele>297.81943</ele>
        <time>2023-10-04T09:33:01.000Z</time>
      </trkpt>
      <trkpt lat="45.83193" lon="4.67892">
        <ele>297.92563</ele>
        <time>2023-10-04T09:33:02.000Z</time>
      </trkpt>
      <trkpt lat="45.83194" lon="4.67895">
        <ele>298.02249</ele>
        <time>2023-10-04T09:33:03.000Z</time>
      </trkpt>
      <trkpt lat="45.83196" lon="4.67899">
        <ele>298.1106</ele>
        <time>2023-10-04T09:33:04.000Z</time>
      </trkpt>
      <trkpt lat="45.83198" lon="4.67903">
        <ele>298.12408</ele>
        <time>2023-10-04T09:33:05.000Z</time>
      </trkpt>
      <trkpt lat="45.832" lon="4.67907">
        <ele>298.06396</ele>
        <time>2023-10-04T09:33:06.000Z</time>
      </trkpt>
      <trkpt lat="45.83202" lon="4.67911">
        <ele>297.97687</ele>
        <time>2023-10-04T09:33:07.000Z</time>
      </trkpt>
      <trkpt lat="45.83204" lon="4.67916">
        <ele>297.88354</ele>
        <time>2023-10-04T09:33:08.000Z</time>
      </trkpt>
      <trkpt lat="45.83206" lon="4.67921">
        <ele>297.82535</ele>
        <time>2023-10-04T09:33:09.000Z</time>
      </trkpt>
      <trkpt lat="45.83208" lon="4.67925">
        <ele>297.73706</ele>
        <time>2023-10-04T09:33:10.000Z</time>
      </trkpt>
      <trkpt lat="45.8321" lon="4.67929">
        <ele>297.59485</ele>
        <time>2023-10-04T09:33:11.000Z</time>
      </trkpt>
      <trkpt lat="45.83212" lon="4.67933">
        <ele>297.4278</ele>
        <time>2023-10-04T09:33:12.000Z</time>
      </trkpt>
      <trkpt lat="45.83214" lon="4.67936">
        <ele>297.24979</ele>
        <time>2023-10-04T09:33:13.000Z</time>
      </trkpt>
      <trkpt lat="45.83217" lon="4.67939">
        <ele>297.56451</ele>
        <time>2023-10-04T09:33:14.000Z</time>
      </trkpt>
      <trkpt lat="45.83219" lon="4.67943">
        <ele>297.80548</ele>
        <time>2023-10-04T09:33:15.000Z</time>
      </trkpt>
      <trkpt lat="45.83221" lon="4.67947">
        <ele>297.72281</ele>
        <time>2023-10-04T09:33:16.000Z</time>
      </trkpt>
      <trkpt lat="45.83223" lon="4.67951">
        <ele>297.64368</ele>
        <time>2023-10-04T09:33:17.000Z</time>
      </trkpt>
      <trkpt lat="45.83225" lon="4.67955">
        <ele>297.51996</ele>
        <time>2023-10-04T09:33:18.000Z</time>
      </trkpt>
      <trkpt lat="45.83227" lon="4.67959">
        <ele>297.41571</ele>
        <time>2023-10-04T09:33:19.000Z</time>
      </trkpt>
      <trkpt lat="45.83229" lon="4.67962">
        <ele>297.32648</ele>
        <time>2023-10-04T09:33:20.000Z</time>
      </trkpt>
      <trkpt lat="45.83231" lon="4.67966">
        <ele>297.23148</ele>
        <time>2023-10-04T09:33:21.000Z</time>
      </trkpt>
      <trkpt lat="45.83233" lon="4.6797">
        <ele>297.11139</ele>
        <time>2023-10-04T09:33:22.000Z</time>
      </trkpt>
      <trkpt lat="45.83234" lon="4.67974">
        <ele>296.99902</ele>
        <time>2023-10-04T09:33:23.000Z</time>
      </trkpt>
      <trkpt lat="45.83237" lon="4.67977">
        <ele>296.87903</ele>
        <time>2023-10-04T09:33:24.000Z</time>
      </trkpt>
      <trkpt lat="45.83239" lon="4.67982">
        <ele>296.7265</ele>
        <time>2023-10-04T09:33:25.000Z</time>
      </trkpt>
      <trkpt lat="45.83241" lon="4.67986">
        <ele>296.56525</ele>
        <time>2023-10-04T09:33:26.000Z</time>
      </trkpt>
      <trkpt lat="45.83243" lon="4.6799">
        <ele>296.44254</ele>
        <time>2023-10-04T09:33:27.000Z</time>
      </trkpt>
      <trkpt lat="45.83246" lon="4.67995">
        <ele>296.36664</ele>
        <time>2023-10-04T09:33:28.000Z</time>
      </trkpt>
      <trkpt lat="45.83248" lon="4.68">
        <ele>296.22778</ele>
        <time>2023-10-04T09:33:29.000Z</time>
      </trkpt>
      <trkpt lat="45.8325" lon="4.68004">
        <ele>296.09094</ele>
        <time>2023-10-04T09:33:30.000Z</time>
      </trkpt>
      <trkpt lat="45.83252" lon="4.68009">
        <ele>295.95367</ele>
        <time>2023-10-04T09:33:31.000Z</time>
      </trkpt>
      <trkpt lat="45.83254" lon="4.68013">
        <ele>295.85538</ele>
        <time>2023-10-04T09:33:32.000Z</time>
      </trkpt>
      <trkpt lat="45.83256" lon="4.68017">
        <ele>295.75684</ele>
        <time>2023-10-04T09:33:33.000Z</time>
      </trkpt>
      <trkpt lat="45.83258" lon="4.68021">
        <ele>295.42307</ele>
        <time>2023-10-04T09:33:34.000Z</time>
      </trkpt>
      <trkpt lat="45.83259" lon="4.68024">
        <ele>295.29672</ele>
        <time>2023-10-04T09:33:35.000Z</time>
      </trkpt>
      <trkpt lat="45.83261" lon="4.68028">
        <ele>295.47455</ele>
        <time>2023-10-04T09:33:36.000Z</time>
      </trkpt>
      <trkpt lat="45.83263" lon="4.68031">
        <ele>295.6456</ele>
        <time>2023-10-04T09:33:37.000Z</time>
      </trkpt>
      <trkpt lat="45.83265" lon="4.68034">
        <ele>295.80725</ele>
        <time>2023-10-04T09:33:38.000Z</time>
      </trkpt>
      <trkpt lat="45.83267" lon="4.68038">
        <ele>295.69498</ele>
        <time>2023-10-04T09:33:39.000Z</time>
      </trkpt>
      <trkpt lat="45.83268" lon="4.68041">
        <ele>295.60291</ele>
        <time>2023-10-04T09:33:40.000Z</time>
      </trkpt>
      <trkpt lat="45.83271" lon="4.68045">
        <ele>295.53214</ele>
        <time>2023-10-04T09:33:41.000Z</time>
      </trkpt>
      <trkpt lat="45.83273" lon="4.68049">
        <ele>295.49466</ele>
        <time>2023-10-04T09:33:42.000Z</time>
      </trkpt>
      <trkpt lat="45.83276" lon="4.68053">
        <ele>295.46747</ele>
        <time>2023-10-04T09:33:43.000Z</time>
      </trkpt>
      <trkpt lat="45.83279" lon="4.68056">
        <ele>295.45889</ele>
        <time>2023-10-04T09:33:44.000Z</time>
      </trkpt>
      <trkpt lat="45.83281" lon="4.68059">
        <ele>295.43185</ele>
        <time>2023-10-04T09:33:45.000Z</time>
      </trkpt>
      <trkpt lat="45.83282" lon="4.68062">
        <ele>295.39655</ele>
        <time>2023-10-04T09:33:46.000Z</time>
      </trkpt>
      <trkpt lat="45.83284" lon="4.68066">
        <ele>295.37476</ele>
        <time>2023-10-04T09:33:47.000Z</time>
      </trkpt>
      <trkpt lat="45.83286" lon="4.6807">
        <ele>295.30133</ele>
        <time>2023-10-04T09:33:48.000Z</time>
      </trkpt>
      <trkpt lat="45.83287" lon="4.68074">
        <ele>295.23715</ele>
        <time>2023-10-04T09:33:49.000Z</time>
      </trkpt>
      <trkpt lat="45.83289" lon="4.68078">
        <ele>295.20428</ele>
        <time>2023-10-04T09:33:50.000Z</time>
      </trkpt>
      <trkpt lat="45.83291" lon="4.68082">
        <ele>295.15094</ele>
        <time>2023-10-04T09:33:51.000Z</time>
      </trkpt>
      <trkpt lat="45.83293" lon="4.68086">
        <ele>295.13895</ele>
        <time>2023-10-04T09:33:52.000Z</time>
      </trkpt>
      <trkpt lat="45.83295" lon="4.68089">
        <ele>295.06985</ele>
        <time>2023-10-04T09:33:53.000Z</time>
      </trkpt>
      <trkpt lat="45.83297" lon="4.68093">
        <ele>295.02612</ele>
        <time>2023-10-04T09:33:54.000Z</time>
      </trkpt>
      <trkpt lat="45.833" lon="4.68097">
        <ele>294.78189</ele>
        <time>2023-10-04T09:33:55.000Z</time>
      </trkpt>
      <trkpt lat="45.83303" lon="4.68102">
        <ele>294.55661</ele>
        <time>2023-10-04T09:33:56.000Z</time>
      </trkpt>
      <trkpt lat="45.83306" lon="4.68106">
        <ele>294.25726</ele>
        <time>2023-10-04T09:33:57.000Z</time>
      </trkpt>
      <trkpt lat="45.83309" lon="4.6811">
        <ele>293.93311</ele>
        <time>2023-10-04T09:33:58.000Z</time>
      </trkpt>
      <trkpt lat="45.83313" lon="4.68114">
        <ele>293.89194</ele>
        <time>2023-10-04T09:33:59.000Z</time>
      </trkpt>
      <trkpt lat="45.83315" lon="4.68119">
        <ele>293.81326</ele>
        <time>2023-10-04T09:34:00.000Z</time>
      </trkpt>
      <trkpt lat="45.83319" lon="4.68122">
        <ele>293.71722</ele>
        <time>2023-10-04T09:34:01.000Z</time>
      </trkpt>
      <trkpt lat="45.83323" lon="4.68128">
        <ele>293.57123</ele>
        <time>2023-10-04T09:34:02.000Z</time>
      </trkpt>
      <trkpt lat="45.83325" lon="4.68132">
        <ele>293.42691</ele>
        <time>2023-10-04T09:34:03.000Z</time>
      </trkpt>
      <trkpt lat="45.83329" lon="4.68138">
        <ele>293.28473</ele>
        <time>2023-10-04T09:34:04.000Z</time>
      </trkpt>
      <trkpt lat="45.83332" lon="4.68144">
        <ele>293.26242</ele>
        <time>2023-10-04T09:34:05.000Z</time>
      </trkpt>
      <trkpt lat="45.83336" lon="4.68147">
        <ele>293.3255</ele>
        <time>2023-10-04T09:34:06.000Z</time>
      </trkpt>
      <trkpt lat="45.83339" lon="4.68151">
        <ele>293.35022</ele>
        <time>2023-10-04T09:34:07.000Z</time>
      </trkpt>
      <trkpt lat="45.83342" lon="4.68155">
        <ele>293.46173</ele>
        <time>2023-10-04T09:34:08.000Z</time>
      </trkpt>
      <trkpt lat="45.83346" lon="4.68158">
        <ele>293.625</ele>
        <time>2023-10-04T09:34:09.000Z</time>
      </trkpt>
      <trkpt lat="45.83349" lon="4.68162">
        <ele>293.50482</ele>
        <time>2023-10-04T09:34:10.000Z</time>
      </trkpt>
      <trkpt lat="45.83352" lon="4.68166">
        <ele>293.46472</ele>
        <time>2023-10-04T09:34:11.000Z</time>
      </trkpt>
      <trkpt lat="45.83355" lon="4.68169">
        <ele>293.37415</ele>
        <time>2023-10-04T09:34:12.000Z</time>
      </trkpt>
      <trkpt lat="45.83359" lon="4.68171">
        <ele>293.34467</ele>
        <time>2023-10-04T09:34:13.000Z</time>
      </trkpt>
      <trkpt lat="45.83361" lon="4.68174">
        <ele>293.31363</ele>
        <time>2023-10-04T09:34:14.000Z</time>
      </trkpt>
      <trkpt lat="45.83364" lon="4.68177">
        <ele>293.29755</ele>
        <time>2023-10-04T09:34:15.000Z</time>
      </trkpt>
      <trkpt lat="45.83367" lon="4.68179">
        <ele>293.45822</ele>
        <time>2023-10-04T09:34:16.000Z</time>
      </trkpt>
      <trkpt lat="45.83369" lon="4.68181">
        <ele>293.65482</ele>
        <time>2023-10-04T09:34:17.000Z</time>
      </trkpt>
      <trkpt lat="45.83372" lon="4.68183">
        <ele>293.89957</ele>
        <time>2023-10-04T09:34:18.000Z</time>
      </trkpt>
      <trkpt lat="45.83375" lon="4.68185">
        <ele>294.17279</ele>
        <time>2023-10-04T09:34:19.000Z</time>
      </trkpt>
      <trkpt lat="45.83378" lon="4.68188">
        <ele>294.43683</ele>
        <time>2023-10-04T09:34:20.000Z</time>
      </trkpt>
      <trkpt lat="45.83381" lon="4.68191">
        <ele>294.38849</ele>
        <time>2023-10-04T09:34:21.000Z</time>
      </trkpt>
      <trkpt lat="45.83384" lon="4.68195">
        <ele>294.38745</ele>
        <time>2023-10-04T09:34:22.000Z</time>
      </trkpt>
      <trkpt lat="45.83388" lon="4.68198">
        <ele>294.40753</ele>
        <time>2023-10-04T09:34:23.000Z</time>
      </trkpt>
      <trkpt lat="45.83392" lon="4.68203">
        <ele>294.3999</ele>
        <time>2023-10-04T09:34:24.000Z</time>
      </trkpt>
      <trkpt lat="45.83396" lon="4.68209">
        <ele>294.27097</ele>
        <time>2023-10-04T09:34:25.000Z</time>
      </trkpt>
      <trkpt lat="45.834" lon="4.68213">
        <ele>294.06665</ele>
        <time>2023-10-04T09:34:26.000Z</time>
      </trkpt>
      <trkpt lat="45.83404" lon="4.68218">
        <ele>293.85638</ele>
        <time>2023-10-04T09:34:27.000Z</time>
      </trkpt>
      <trkpt lat="45.83407" lon="4.68223">
        <ele>293.43884</ele>
        <time>2023-10-04T09:34:28.000Z</time>
      </trkpt>
      <trkpt lat="45.83412" lon="4.68227">
        <ele>293.01459</ele>
        <time>2023-10-04T09:34:29.000Z</time>
      </trkpt>
      <trkpt lat="45.83416" lon="4.68233">
        <ele>293.00616</ele>
        <time>2023-10-04T09:34:30.000Z</time>
      </trkpt>
      <trkpt lat="45.8342" lon="4.68238">
        <ele>293.26941</ele>
        <time>2023-10-04T09:34:31.000Z</time>
      </trkpt>
      <trkpt lat="45.83424" lon="4.68243">
        <ele>293.44211</ele>
        <time>2023-10-04T09:34:32.000Z</time>
      </trkpt>
      <trkpt lat="45.83428" lon="4.68248">
        <ele>293.59259</ele>
        <time>2023-10-04T09:34:33.000Z</time>
      </trkpt>
      <trkpt lat="45.83431" lon="4.68252">
        <ele>293.42108</ele>
        <time>2023-10-04T09:34:34.000Z</time>
      </trkpt>
      <trkpt lat="45.83435" lon="4.68256">
        <ele>293.3161</ele>
        <time>2023-10-04T09:34:35.000Z</time>
      </trkpt>
      <trkpt lat="45.83439" lon="4.68261">
        <ele>292.974</ele>
        <time>2023-10-04T09:34:36.000Z</time>
      </trkpt>
      <trkpt lat="45.83443" lon="4.68265">
        <ele>292.63437</ele>
        <time>2023-10-04T09:34:37.000Z</time>
      </trkpt>
      <trkpt lat="45.83447" lon="4.68269">
        <ele>292.28409</ele>
        <time>2023-10-04T09:34:38.000Z</time>
      </trkpt>
      <trkpt lat="45.8345" lon="4.68274">
        <ele>291.85202</ele>
        <time>2023-10-04T09:34:39.000Z</time>
      </trkpt>
      <trkpt lat="45.83454" lon="4.68278">
        <ele>291.40228</ele>
        <time>2023-10-04T09:34:40.000Z</time>
      </trkpt>
      <trkpt lat="45.83458" lon="4.68283">
        <ele>291.26614</ele>
        <time>2023-10-04T09:34:41.000Z</time>
      </trkpt>
      <trkpt lat="45.83461" lon="4.68288">
        <ele>291.31638</ele>
        <time>2023-10-04T09:34:42.000Z</time>
      </trkpt>
      <trkpt lat="45.83464" lon="4.68294">
        <ele>291.34995</ele>
        <time>2023-10-04T09:34:43.000Z</time>
      </trkpt>
      <trkpt lat="45.83468" lon="4.683">
        <ele>291.48627</ele>
        <time>2023-10-04T09:34:44.000Z</time>
      </trkpt>
      <trkpt lat="45.8347" lon="4.68307">
        <ele>291.26971</ele>
        <time>2023-10-04T09:34:45.000Z</time>
      </trkpt>
      <trkpt lat="45.83474" lon="4.68313">
        <ele>291.11554</ele>
        <time>2023-10-04T09:34:46.000Z</time>
      </trkpt>
      <trkpt lat="45.83477" lon="4.6832">
        <ele>290.97223</ele>
        <time>2023-10-04T09:34:47.000Z</time>
      </trkpt>
      <trkpt lat="45.83481" lon="4.68326">
        <ele>290.98416</ele>
        <time>2023-10-04T09:34:48.000Z</time>
      </trkpt>
      <trkpt lat="45.83484" lon="4.68333">
        <ele>290.98004</ele>
        <time>2023-10-04T09:34:49.000Z</time>
      </trkpt>
      <trkpt lat="45.83488" lon="4.6834">
        <ele>290.84244</ele>
        <time>2023-10-04T09:34:50.000Z</time>
      </trkpt>
      <trkpt lat="45.83492" lon="4.68346">
        <ele>290.51877</ele>
        <time>2023-10-04T09:34:51.000Z</time>
      </trkpt>
      <trkpt lat="45.83497" lon="4.68352">
        <ele>290.38153</ele>
        <time>2023-10-04T09:34:52.000Z</time>
      </trkpt>
      <trkpt lat="45.83501" lon="4.68359">
        <ele>289.89423</ele>
        <time>2023-10-04T09:34:53.000Z</time>
      </trkpt>
      <trkpt lat="45.83506" lon="4.68365">
        <ele>289.75995</ele>
        <time>2023-10-04T09:34:54.000Z</time>
      </trkpt>
      <trkpt lat="45.83512" lon="4.68373">
        <ele>289.54279</ele>
        <time>2023-10-04T09:34:55.000Z</time>
      </trkpt>
      <trkpt lat="45.83517" lon="4.6838">
        <ele>289.34613</ele>
        <time>2023-10-04T09:34:56.000Z</time>
      </trkpt>
      <trkpt lat="45.83522" lon="4.68388">
        <ele>289.25262</ele>
        <time>2023-10-04T09:34:57.000Z</time>
      </trkpt>
      <trkpt lat="45.83528" lon="4.68395">
        <ele>288.88696</ele>
        <time>2023-10-04T09:34:58.000Z</time>
      </trkpt>
      <trkpt lat="45.83534" lon="4.68402">
        <ele>288.55545</ele>
        <time>2023-10-04T09:34:59.000Z</time>
      </trkpt>
      <trkpt lat="45.83539" lon="4.68408">
        <ele>288.35825</ele>
        <time>2023-10-04T09:35:00.000Z</time>
      </trkpt>
      <trkpt lat="45.83543" lon="4.68413">
        <ele>288.16418</ele>
        <time>2023-10-04T09:35:01.000Z</time>
      </trkpt>
      <trkpt lat="45.83546" lon="4.68418">
        <ele>287.76154</ele>
        <time>2023-10-04T09:35:02.000Z</time>
      </trkpt>
      <trkpt lat="45.83547" lon="4.68422">
        <ele>287.36752</ele>
        <time>2023-10-04T09:35:03.000Z</time>
      </trkpt>
      <trkpt lat="45.83547" lon="4.68428">
        <ele>286.96698</ele>
        <time>2023-10-04T09:35:04.000Z</time>
      </trkpt>
      <trkpt lat="45.83546" lon="4.68432">
        <ele>286.96875</ele>
        <time>2023-10-04T09:35:05.000Z</time>
      </trkpt>
      <trkpt lat="45.83544" lon="4.68435">
        <ele>286.93674</ele>
        <time>2023-10-04T09:35:06.000Z</time>
      </trkpt>
      <trkpt lat="45.83542" lon="4.68438">
        <ele>286.93506</ele>
        <time>2023-10-04T09:35:07.000Z</time>
      </trkpt>
      <trkpt lat="45.83539" lon="4.68441">
        <ele>286.67117</ele>
        <time>2023-10-04T09:35:08.000Z</time>
      </trkpt>
      <trkpt lat="45.83537" lon="4.68444">
        <ele>286.46497</ele>
        <time>2023-10-04T09:35:09.000Z</time>
      </trkpt>
      <trkpt lat="45.83534" lon="4.68445">
        <ele>286.25815</ele>
        <time>2023-10-04T09:35:10.000Z</time>
      </trkpt>
      <trkpt lat="45.83532" lon="4.68447">
        <ele>285.93674</ele>
        <time>2023-10-04T09:35:11.000Z</time>
      </trkpt>
      <trkpt lat="45.8353" lon="4.6845">
        <ele>285.60892</ele>
        <time>2023-10-04T09:35:12.000Z</time>
      </trkpt>
      <trkpt lat="45.83527" lon="4.68452">
        <ele>285.65155</ele>
        <time>2023-10-04T09:35:13.000Z</time>
      </trkpt>
      <trkpt lat="45.83524" lon="4.68454">
        <ele>285.65375</ele>
        <time>2023-10-04T09:35:14.000Z</time>
      </trkpt>
      <trkpt lat="45.83521" lon="4.68455">
        <ele>285.95309</ele>
        <time>2023-10-04T09:35:15.000Z</time>
      </trkpt>
      <trkpt lat="45.83518" lon="4.68457">
        <ele>286.29471</ele>
        <time>2023-10-04T09:35:16.000Z</time>
      </trkpt>
      <trkpt lat="45.83515" lon="4.68459">
        <ele>286.54297</ele>
        <time>2023-10-04T09:35:17.000Z</time>
      </trkpt>
      <trkpt lat="45.83512" lon="4.68461">
        <ele>286.7381</ele>
        <time>2023-10-04T09:35:18.000Z</time>
      </trkpt>
      <trkpt lat="45.8351" lon="4.68462">
        <ele>287.05161</ele>
        <time>2023-10-04T09:35:19.000Z</time>
      </trkpt>
      <trkpt lat="45.83507" lon="4.68464">
        <ele>287.28491</ele>
        <time>2023-10-04T09:35:20.000Z</time>
      </trkpt>
      <trkpt lat="45.83504" lon="4.68466">
        <ele>287.49384</ele>
        <time>2023-10-04T09:35:21.000Z</time>
      </trkpt>
      <trkpt lat="45.83501" lon="4.68468">
        <ele>287.61932</ele>
        <time>2023-10-04T09:35:22.000Z</time>
      </trkpt>
      <trkpt lat="45.83498" lon="4.6847">
        <ele>287.74344</ele>
        <time>2023-10-04T09:35:23.000Z</time>
      </trkpt>
      <trkpt lat="45.83495" lon="4.68473">
        <ele>287.87817</ele>
        <time>2023-10-04T09:35:24.000Z</time>
      </trkpt>
      <trkpt lat="45.83492" lon="4.68475">
        <ele>287.77051</ele>
        <time>2023-10-04T09:35:25.000Z</time>
      </trkpt>
      <trkpt lat="45.8349" lon="4.68478">
        <ele>287.79996</ele>
        <time>2023-10-04T09:35:26.000Z</time>
      </trkpt>
      <trkpt lat="45.83486" lon="4.6848">
        <ele>287.80527</ele>
        <time>2023-10-04T09:35:27.000Z</time>
      </trkpt>
      <trkpt lat="45.83483" lon="4.68483">
        <ele>288.06464</ele>
        <time>2023-10-04T09:35:28.000Z</time>
      </trkpt>
      <trkpt lat="45.83481" lon="4.68485">
        <ele>288.27679</ele>
        <time>2023-10-04T09:35:29.000Z</time>
      </trkpt>
      <trkpt lat="45.83478" lon="4.68487">
        <ele>288.634</ele>
        <time>2023-10-04T09:35:30.000Z</time>
      </trkpt>
      <trkpt lat="45.83475" lon="4.68488">
        <ele>288.81232</ele>
        <time>2023-10-04T09:35:31.000Z</time>
      </trkpt>
      <trkpt lat="45.83473" lon="4.6849">
        <ele>288.89575</ele>
        <time>2023-10-04T09:35:32.000Z</time>
      </trkpt>
      <trkpt lat="45.8347" lon="4.68492">
        <ele>288.96918</ele>
        <time>2023-10-04T09:35:33.000Z</time>
      </trkpt>
      <trkpt lat="45.83468" lon="4.68493">
        <ele>289.0499</ele>
        <time>2023-10-04T09:35:34.000Z</time>
      </trkpt>
      <trkpt lat="45.83465" lon="4.68495">
        <ele>288.89609</ele>
        <time>2023-10-04T09:35:35.000Z</time>
      </trkpt>
      <trkpt lat="45.83462" lon="4.68496">
        <ele>288.72287</ele>
        <time>2023-10-04T09:35:36.000Z</time>
      </trkpt>
      <trkpt lat="45.8346" lon="4.68498">
        <ele>288.54095</ele>
        <time>2023-10-04T09:35:37.000Z</time>
      </trkpt>
      <trkpt lat="45.83457" lon="4.68499">
        <ele>288.69083</ele>
        <time>2023-10-04T09:35:38.000Z</time>
      </trkpt>
      <trkpt lat="45.83454" lon="4.68501">
        <ele>288.76459</ele>
        <time>2023-10-04T09:35:39.000Z</time>
      </trkpt>
      <trkpt lat="45.83452" lon="4.68502">
        <ele>288.7951</ele>
        <time>2023-10-04T09:35:40.000Z</time>
      </trkpt>
      <trkpt lat="45.83449" lon="4.68504">
        <ele>288.8436</ele>
        <time>2023-10-04T09:35:41.000Z</time>
      </trkpt>
      <trkpt lat="45.83447" lon="4.68505">
        <ele>288.96341</ele>
        <time>2023-10-04T09:35:42.000Z</time>
      </trkpt>
      <trkpt lat="45.83444" lon="4.68507">
        <ele>289.08612</ele>
        <time>2023-10-04T09:35:43.000Z</time>
      </trkpt>
      <trkpt lat="45.83441" lon="4.68508">
        <ele>289.18768</ele>
        <time>2023-10-04T09:35:44.000Z</time>
      </trkpt>
      <trkpt lat="45.83439" lon="4.68509">
        <ele>289.54291</ele>
        <time>2023-10-04T09:35:45.000Z</time>
      </trkpt>
      <trkpt lat="45.83436" lon="4.6851">
        <ele>289.53183</ele>
        <time>2023-10-04T09:35:46.000Z</time>
      </trkpt>
      <trkpt lat="45.83433" lon="4.68512">
        <ele>289.55304</ele>
        <time>2023-10-04T09:35:47.000Z</time>
      </trkpt>
      <trkpt lat="45.83431" lon="4.68514">
        <ele>289.5816</ele>
        <time>2023-10-04T09:35:48.000Z</time>
      </trkpt>
      <trkpt lat="45.83429" lon="4.68516">
        <ele>289.58981</ele>
        <time>2023-10-04T09:35:49.000Z</time>
      </trkpt>
      <trkpt lat="45.83427" lon="4.68517">
        <ele>289.47424</ele>
        <time>2023-10-04T09:35:50.000Z</time>
      </trkpt>
      <trkpt lat="45.83424" lon="4.68518">
        <ele>289.54062</ele>
        <time>2023-10-04T09:35:51.000Z</time>
      </trkpt>
      <trkpt lat="45.83422" lon="4.6852">
        <ele>289.59973</ele>
        <time>2023-10-04T09:35:52.000Z</time>
      </trkpt>
      <trkpt lat="45.8342" lon="4.68521">
        <ele>289.67105</ele>
        <time>2023-10-04T09:35:53.000Z</time>
      </trkpt>
      <trkpt lat="45.83417" lon="4.68523">
        <ele>289.73438</ele>
        <time>2023-10-04T09:35:54.000Z</time>
      </trkpt>
      <trkpt lat="45.83415" lon="4.68525">
        <ele>289.75873</ele>
        <time>2023-10-04T09:35:55.000Z</time>
      </trkpt>
      <trkpt lat="45.83412" lon="4.68526">
        <ele>289.77118</ele>
        <time>2023-10-04T09:35:56.000Z</time>
      </trkpt>
      <trkpt lat="45.8341" lon="4.68528">
        <ele>289.87946</ele>
        <time>2023-10-04T09:35:57.000Z</time>
      </trkpt>
      <trkpt lat="45.83407" lon="4.6853">
        <ele>290.03149</ele>
        <time>2023-10-04T09:35:58.000Z</time>
      </trkpt>
      <trkpt lat="45.83405" lon="4.68531">
        <ele>289.99216</ele>
        <time>2023-10-04T09:35:59.000Z</time>
      </trkpt>
      <trkpt lat="45.83402" lon="4.68532">
        <ele>290.01971</ele>
        <time>2023-10-04T09:36:00.000Z</time>
      </trkpt>
      <trkpt lat="45.834" lon="4.68532">
        <ele>289.98215</ele>
        <time>2023-10-04T09:36:01.000Z</time>
      </trkpt>
      <trkpt lat="45.83398" lon="4.68532">
        <ele>289.95139</ele>
        <time>2023-10-04T09:36:02.000Z</time>
      </trkpt>
      <trkpt lat="45.83396" lon="4.68533">
        <ele>289.89764</ele>
        <time>2023-10-04T09:36:03.000Z</time>
      </trkpt>
      <trkpt lat="45.83394" lon="4.68535">
        <ele>289.78809</ele>
        <time>2023-10-04T09:36:04.000Z</time>
      </trkpt>
      <trkpt lat="45.83392" lon="4.68537">
        <ele>289.6546</ele>
        <time>2023-10-04T09:36:05.000Z</time>
      </trkpt>
      <trkpt lat="45.8339" lon="4.68538">
        <ele>289.71979</ele>
        <time>2023-10-04T09:36:06.000Z</time>
      </trkpt>
      <trkpt lat="45.83388" lon="4.6854">
        <ele>289.74127</ele>
        <time>2023-10-04T09:36:07.000Z</time>
      </trkpt>
      <trkpt lat="45.83385" lon="4.68541">
        <ele>289.7533</ele>
        <time>2023-10-04T09:36:08.000Z</time>
      </trkpt>
      <trkpt lat="45.83383" lon="4.68542">
        <ele>289.77911</ele>
        <time>2023-10-04T09:36:09.000Z</time>
      </trkpt>
      <trkpt lat="45.83381" lon="4.68543">
        <ele>289.79285</ele>
        <time>2023-10-04T09:36:10.000Z</time>
      </trkpt>
      <trkpt lat="45.83379" lon="4.68543">
        <ele>289.78479</ele>
        <time>2023-10-04T09:36:11.000Z</time>
      </trkpt>
      <trkpt lat="45.83376" lon="4.68544">
        <ele>289.77545</ele>
        <time>2023-10-04T09:36:12.000Z</time>
      </trkpt>
      <trkpt lat="45.83374" lon="4.68545">
        <ele>289.76617</ele>
        <time>2023-10-04T09:36:13.000Z</time>
      </trkpt>
      <trkpt lat="45.83372" lon="4.68545">
        <ele>289.75751</ele>
        <time>2023-10-04T09:36:14.000Z</time>
      </trkpt>
      <trkpt lat="45.83369" lon="4.68546">
        <ele>289.75818</ele>
        <time>2023-10-04T09:36:15.000Z</time>
      </trkpt>
      <trkpt lat="45.83367" lon="4.68547">
        <ele>289.77386</ele>
        <time>2023-10-04T09:36:16.000Z</time>
      </trkpt>
      <trkpt lat="45.83365" lon="4.68548">
        <ele>289.73523</ele>
        <time>2023-10-04T09:36:17.000Z</time>
      </trkpt>
      <trkpt lat="45.83363" lon="4.68549">
        <ele>289.64395</ele>
        <time>2023-10-04T09:36:18.000Z</time>
      </trkpt>
      <trkpt lat="45.83361" lon="4.6855">
        <ele>289.7193</ele>
        <time>2023-10-04T09:36:19.000Z</time>
      </trkpt>
      <trkpt lat="45.83358" lon="4.6855">
        <ele>289.73209</ele>
        <time>2023-10-04T09:36:20.000Z</time>
      </trkpt>
      <trkpt lat="45.83355" lon="4.6855">
        <ele>289.80978</ele>
        <time>2023-10-04T09:36:21.000Z</time>
      </trkpt>
      <trkpt lat="45.83353" lon="4.6855">
        <ele>289.89752</ele>
        <time>2023-10-04T09:36:22.000Z</time>
      </trkpt>
      <trkpt lat="45.83351" lon="4.6855">
        <ele>290.01938</ele>
        <time>2023-10-04T09:36:23.000Z</time>
      </trkpt>
      <trkpt lat="45.83349" lon="4.68551">
        <ele>290.14438</ele>
        <time>2023-10-04T09:36:24.000Z</time>
      </trkpt>
      <trkpt lat="45.83346" lon="4.6855">
        <ele>290.25946</ele>
        <time>2023-10-04T09:36:25.000Z</time>
      </trkpt>
      <trkpt lat="45.83344" lon="4.68548">
        <ele>290.39609</ele>
        <time>2023-10-04T09:36:26.000Z</time>
      </trkpt>
      <trkpt lat="45.83342" lon="4.68544">
        <ele>290.76715</ele>
        <time>2023-10-04T09:36:27.000Z</time>
      </trkpt>
      <trkpt lat="45.8334" lon="4.68541">
        <ele>290.97968</ele>
        <time>2023-10-04T09:36:28.000Z</time>
      </trkpt>
      <trkpt lat="45.83339" lon="4.68538">
        <ele>291.18536</ele>
        <time>2023-10-04T09:36:29.000Z</time>
      </trkpt>
      <trkpt lat="45.83337" lon="4.68537">
        <ele>291.42368</ele>
        <time>2023-10-04T09:36:30.000Z</time>
      </trkpt>
      <trkpt lat="45.83335" lon="4.68535">
        <ele>291.47443</ele>
        <time>2023-10-04T09:36:31.000Z</time>
      </trkpt>
      <trkpt lat="45.83333" lon="4.68534">
        <ele>291.55261</ele>
        <time>2023-10-04T09:36:32.000Z</time>
      </trkpt>
      <trkpt lat="45.8333" lon="4.68534">
        <ele>291.60464</ele>
        <time>2023-10-04T09:36:33.000Z</time>
      </trkpt>
      <trkpt lat="45.83328" lon="4.68533">
        <ele>291.65265</ele>
        <time>2023-10-04T09:36:34.000Z</time>
      </trkpt>
      <trkpt lat="45.83326" lon="4.68532">
        <ele>291.68286</ele>
        <time>2023-10-04T09:36:35.000Z</time>
      </trkpt>
      <trkpt lat="45.83323" lon="4.68532">
        <ele>291.70685</ele>
        <time>2023-10-04T09:36:36.000Z</time>
      </trkpt>
      <trkpt lat="45.8332" lon="4.68531">
        <ele>291.67963</ele>
        <time>2023-10-04T09:36:37.000Z</time>
      </trkpt>
      <trkpt lat="45.83317" lon="4.68531">
        <ele>291.66507</ele>
        <time>2023-10-04T09:36:38.000Z</time>
      </trkpt>
      <trkpt lat="45.83315" lon="4.68533">
        <ele>291.63904</ele>
        <time>2023-10-04T09:36:39.000Z</time>
      </trkpt>
      <trkpt lat="45.83312" lon="4.68536">
        <ele>291.63135</ele>
        <time>2023-10-04T09:36:40.000Z</time>
      </trkpt>
      <trkpt lat="45.8331" lon="4.6854">
        <ele>291.67993</ele>
        <time>2023-10-04T09:36:41.000Z</time>
      </trkpt>
      <trkpt lat="45.83309" lon="4.68545">
        <ele>291.69977</ele>
        <time>2023-10-04T09:36:42.000Z</time>
      </trkpt>
      <trkpt lat="45.83309" lon="4.6855">
        <ele>291.75391</ele>
        <time>2023-10-04T09:36:43.000Z</time>
      </trkpt>
      <trkpt lat="45.83311" lon="4.68556">
        <ele>291.56927</ele>
        <time>2023-10-04T09:36:44.000Z</time>
      </trkpt>
      <trkpt lat="45.83313" lon="4.68561">
        <ele>291.56122</ele>
        <time>2023-10-04T09:36:45.000Z</time>
      </trkpt>
      <trkpt lat="45.83316" lon="4.68567">
        <ele>291.54251</ele>
        <time>2023-10-04T09:36:46.000Z</time>
      </trkpt>
      <trkpt lat="45.83318" lon="4.68572">
        <ele>291.30338</ele>
        <time>2023-10-04T09:36:47.000Z</time>
      </trkpt>
      <trkpt lat="45.8332" lon="4.68577">
        <ele>291.22043</ele>
        <time>2023-10-04T09:36:48.000Z</time>
      </trkpt>
      <trkpt lat="45.83322" lon="4.68583">
        <ele>291.10632</ele>
        <time>2023-10-04T09:36:49.000Z</time>
      </trkpt>
      <trkpt lat="45.83324" lon="4.68588">
        <ele>290.92426</ele>
        <time>2023-10-04T09:36:50.000Z</time>
      </trkpt>
      <trkpt lat="45.83325" lon="4.68594">
        <ele>290.90286</ele>
        <time>2023-10-04T09:36:51.000Z</time>
      </trkpt>
      <trkpt lat="45.83326" lon="4.686">
        <ele>290.84485</ele>
        <time>2023-10-04T09:36:52.000Z</time>
      </trkpt>
      <trkpt lat="45.83327" lon="4.68605">
        <ele>290.85565</ele>
        <time>2023-10-04T09:36:53.000Z</time>
      </trkpt>
      <trkpt lat="45.83328" lon="4.6861">
        <ele>290.78839</ele>
        <time>2023-10-04T09:36:54.000Z</time>
      </trkpt>
      <trkpt lat="45.83328" lon="4.68615">
        <ele>290.65143</ele>
        <time>2023-10-04T09:36:55.000Z</time>
      </trkpt>
      <trkpt lat="45.83329" lon="4.6862">
        <ele>290.54111</ele>
        <time>2023-10-04T09:36:56.000Z</time>
      </trkpt>
      <trkpt lat="45.8333" lon="4.68625">
        <ele>290.46289</ele>
        <time>2023-10-04T09:36:57.000Z</time>
      </trkpt>
      <trkpt lat="45.83331" lon="4.68629">
        <ele>290.42352</ele>
        <time>2023-10-04T09:36:58.000Z</time>
      </trkpt>
      <trkpt lat="45.83332" lon="4.68635">
        <ele>290.39957</ele>
        <time>2023-10-04T09:36:59.000Z</time>
      </trkpt>
      <trkpt lat="45.83333" lon="4.6864">
        <ele>290.41525</ele>
        <time>2023-10-04T09:37:00.000Z</time>
      </trkpt>
      <trkpt lat="45.83334" lon="4.68643">
        <ele>290.34473</ele>
        <time>2023-10-04T09:37:01.000Z</time>
      </trkpt>
      <trkpt lat="45.83335" lon="4.68647">
        <ele>290.11139</ele>
        <time>2023-10-04T09:37:02.000Z</time>
      </trkpt>
      <trkpt lat="45.83335" lon="4.6865">
        <ele>290.08804</ele>
        <time>2023-10-04T09:37:03.000Z</time>
      </trkpt>
      <trkpt lat="45.83336" lon="4.68653">
        <ele>290.28979</ele>
        <time>2023-10-04T09:37:04.000Z</time>
      </trkpt>
      <trkpt lat="45.83337" lon="4.68656">
        <ele>290.26028</ele>
        <time>2023-10-04T09:37:05.000Z</time>
      </trkpt>
      <trkpt lat="45.83338" lon="4.68658">
        <ele>290.13947</ele>
        <time>2023-10-04T09:37:06.000Z</time>
      </trkpt>
      <trkpt lat="45.83339" lon="4.6866">
        <ele>290.00729</ele>
        <time>2023-10-04T09:37:07.000Z</time>
      </trkpt>
      <trkpt lat="45.8334" lon="4.68663">
        <ele>289.91183</ele>
        <time>2023-10-04T09:37:13.000Z</time>
      </trkpt>
      <trkpt lat="45.8334" lon="4.68667">
        <ele>289.86212</ele>
        <time>2023-10-04T09:37:15.000Z</time>
      </trkpt>
      <trkpt lat="45.83341" lon="4.68671">
        <ele>290.03986</ele>
        <time>2023-10-04T09:37:22.000Z</time>
      </trkpt>
      <trkpt lat="45.83342" lon="4.68675">
        <ele>290.26898</ele>
        <time>2023-10-04T09:37:24.000Z</time>
      </trkpt>
      <trkpt lat="45.83344" lon="4.68678">
        <ele>290.20755</ele>
        <time>2023-10-04T09:37:25.000Z</time>
      </trkpt>
      <trkpt lat="45.83345" lon="4.68681">
        <ele>290.0882</ele>
        <time>2023-10-04T09:37:26.000Z</time>
      </trkpt>
      <trkpt lat="45.83346" lon="4.68685">
        <ele>290.05597</ele>
        <time>2023-10-04T09:37:27.000Z</time>
      </trkpt>
      <trkpt lat="45.83348" lon="4.68688">
        <ele>290.13336</ele>
        <time>2023-10-04T09:37:28.000Z</time>
      </trkpt>
      <trkpt lat="45.83349" lon="4.68691">
        <ele>290.17944</ele>
        <time>2023-10-04T09:37:29.000Z</time>
      </trkpt>
      <trkpt lat="45.83351" lon="4.68694">
        <ele>290.3338</ele>
        <time>2023-10-04T09:37:30.000Z</time>
      </trkpt>
      <trkpt lat="45.83352" lon="4.68696">
        <ele>290.58807</ele>
        <time>2023-10-04T09:37:31.000Z</time>
      </trkpt>
      <trkpt lat="45.83354" lon="4.68699">
        <ele>290.56958</ele>
        <time>2023-10-04T09:37:32.000Z</time>
      </trkpt>
      <trkpt lat="45.83356" lon="4.68702">
        <ele>290.56635</ele>
        <time>2023-10-04T09:37:33.000Z</time>
      </trkpt>
      <trkpt lat="45.83357" lon="4.68704">
        <ele>290.32257</ele>
        <time>2023-10-04T09:37:34.000Z</time>
      </trkpt>
      <trkpt lat="45.83358" lon="4.68708">
        <ele>290.28156</ele>
        <time>2023-10-04T09:37:36.000Z</time>
      </trkpt>
      <trkpt lat="45.83359" lon="4.68711">
        <ele>290.18039</ele>
        <time>2023-10-04T09:37:44.000Z</time>
      </trkpt>
      <trkpt lat="45.83361" lon="4.68714">
        <ele>289.78815</ele>
        <time>2023-10-04T09:37:45.000Z</time>
      </trkpt>
      <trkpt lat="45.83361" lon="4.68716">
        <ele>289.4848</ele>
        <time>2023-10-04T09:37:46.000Z</time>
      </trkpt>
      <trkpt lat="45.83362" lon="4.68719">
        <ele>289.25784</ele>
        <time>2023-10-04T09:37:47.000Z</time>
      </trkpt>
      <trkpt lat="45.83364" lon="4.68722">
        <ele>289.0451</ele>
        <time>2023-10-04T09:37:48.000Z</time>
      </trkpt>
      <trkpt lat="45.83365" lon="4.68725">
        <ele>288.80084</ele>
        <time>2023-10-04T09:37:49.000Z</time>
      </trkpt>
      <trkpt lat="45.83366" lon="4.68728">
        <ele>288.57019</ele>
        <time>2023-10-04T09:37:50.000Z</time>
      </trkpt>
      <trkpt lat="45.83367" lon="4.68731">
        <ele>288.10458</ele>
        <time>2023-10-04T09:37:51.000Z</time>
      </trkpt>
      <trkpt lat="45.83369" lon="4.68734">
        <ele>287.61346</ele>
        <time>2023-10-04T09:37:52.000Z</time>
      </trkpt>
      <trkpt lat="45.8337" lon="4.68737">
        <ele>287.42935</ele>
        <time>2023-10-04T09:37:53.000Z</time>
      </trkpt>
      <trkpt lat="45.83372" lon="4.6874">
        <ele>287.2626</ele>
        <time>2023-10-04T09:37:54.000Z</time>
      </trkpt>
      <trkpt lat="45.83373" lon="4.68743">
        <ele>287.09027</ele>
        <time>2023-10-04T09:37:55.000Z</time>
      </trkpt>
      <trkpt lat="45.83375" lon="4.68747">
        <ele>286.91183</ele>
        <time>2023-10-04T09:37:56.000Z</time>
      </trkpt>
      <trkpt lat="45.83377" lon="4.6875">
        <ele>286.6958</ele>
        <time>2023-10-04T09:37:57.000Z</time>
      </trkpt>
      <trkpt lat="45.83379" lon="4.68753">
        <ele>286.48535</ele>
        <time>2023-10-04T09:37:58.000Z</time>
      </trkpt>
      <trkpt lat="45.83381" lon="4.68756">
        <ele>286.15042</ele>
        <time>2023-10-04T09:37:59.000Z</time>
      </trkpt>
      <trkpt lat="45.83382" lon="4.6876">
        <ele>286.16043</ele>
        <time>2023-10-04T09:38:00.000Z</time>
      </trkpt>
      <trkpt lat="45.83384" lon="4.68764">
        <ele>285.82568</ele>
        <time>2023-10-04T09:38:01.000Z</time>
      </trkpt>
      <trkpt lat="45.83386" lon="4.68767">
        <ele>285.80499</ele>
        <time>2023-10-04T09:38:02.000Z</time>
      </trkpt>
      <trkpt lat="45.83388" lon="4.68771">
        <ele>285.72278</ele>
        <time>2023-10-04T09:38:03.000Z</time>
      </trkpt>
      <trkpt lat="45.83389" lon="4.68775">
        <ele>285.4053</ele>
        <time>2023-10-04T09:38:04.000Z</time>
      </trkpt>
      <trkpt lat="45.83391" lon="4.68779">
        <ele>285.58688</ele>
        <time>2023-10-04T09:38:05.000Z</time>
      </trkpt>
      <trkpt lat="45.83392" lon="4.68783">
        <ele>285.76889</ele>
        <time>2023-10-04T09:38:06.000Z</time>
      </trkpt>
      <trkpt lat="45.83394" lon="4.68787">
        <ele>285.99335</ele>
        <time>2023-10-04T09:38:07.000Z</time>
      </trkpt>
      <trkpt lat="45.83395" lon="4.68791">
        <ele>285.93289</ele>
        <time>2023-10-04T09:38:08.000Z</time>
      </trkpt>
      <trkpt lat="45.83397" lon="4.68795">
        <ele>286.39084</ele>
        <time>2023-10-04T09:38:09.000Z</time>
      </trkpt>
      <trkpt lat="45.83398" lon="4.68799">
        <ele>286.48477</ele>
        <time>2023-10-04T09:38:10.000Z</time>
      </trkpt>
      <trkpt lat="45.83399" lon="4.68803">
        <ele>286.63226</ele>
        <time>2023-10-04T09:38:11.000Z</time>
      </trkpt>
      <trkpt lat="45.83401" lon="4.68807">
        <ele>286.77026</ele>
        <time>2023-10-04T09:38:12.000Z</time>
      </trkpt>
      <trkpt lat="45.83402" lon="4.68811">
        <ele>287.11053</ele>
        <time>2023-10-04T09:38:13.000Z</time>
      </trkpt>
      <trkpt lat="45.83403" lon="4.68816">
        <ele>287.47449</ele>
        <time>2023-10-04T09:38:14.000Z</time>
      </trkpt>
      <trkpt lat="45.83403" lon="4.6882">
        <ele>287.90054</ele>
        <time>2023-10-04T09:38:15.000Z</time>
      </trkpt>
      <trkpt lat="45.83405" lon="4.68824">
        <ele>287.94467</ele>
        <time>2023-10-04T09:38:16.000Z</time>
      </trkpt>
      <trkpt lat="45.83406" lon="4.68828">
        <ele>288.07019</ele>
        <time>2023-10-04T09:38:17.000Z</time>
      </trkpt>
      <trkpt lat="45.83407" lon="4.68832">
        <ele>288.02686</ele>
        <time>2023-10-04T09:38:18.000Z</time>
      </trkpt>
      <trkpt lat="45.83408" lon="4.68836">
        <ele>287.97305</ele>
        <time>2023-10-04T09:38:19.000Z</time>
      </trkpt>
      <trkpt lat="45.83409" lon="4.6884">
        <ele>287.84402</ele>
        <time>2023-10-04T09:38:20.000Z</time>
      </trkpt>
      <trkpt lat="45.83411" lon="4.68844">
        <ele>287.94308</ele>
        <time>2023-10-04T09:38:21.000Z</time>
      </trkpt>
      <trkpt lat="45.83412" lon="4.68848">
        <ele>287.98093</ele>
        <time>2023-10-04T09:38:22.000Z</time>
      </trkpt>
      <trkpt lat="45.83413" lon="4.68852">
        <ele>288.04575</ele>
        <time>2023-10-04T09:38:23.000Z</time>
      </trkpt>
      <trkpt lat="45.83414" lon="4.68855">
        <ele>288.15677</ele>
        <time>2023-10-04T09:38:24.000Z</time>
      </trkpt>
      <trkpt lat="45.83415" lon="4.6886">
        <ele>288.06091</ele>
        <time>2023-10-04T09:38:25.000Z</time>
      </trkpt>
      <trkpt lat="45.83416" lon="4.68865">
        <ele>287.93997</ele>
        <time>2023-10-04T09:38:26.000Z</time>
      </trkpt>
      <trkpt lat="45.83416" lon="4.6887">
        <ele>287.80289</ele>
        <time>2023-10-04T09:38:27.000Z</time>
      </trkpt>
      <trkpt lat="45.83417" lon="4.68874">
        <ele>288.10236</ele>
        <time>2023-10-04T09:38:28.000Z</time>
      </trkpt>
      <trkpt lat="45.83418" lon="4.68879">
        <ele>288.01984</ele>
        <time>2023-10-04T09:38:29.000Z</time>
      </trkpt>
      <trkpt lat="45.83418" lon="4.68882">
        <ele>288.30096</ele>
        <time>2023-10-04T09:38:30.000Z</time>
      </trkpt>
      <trkpt lat="45.83419" lon="4.68886">
        <ele>288.25952</ele>
        <time>2023-10-04T09:38:31.000Z</time>
      </trkpt>
      <trkpt lat="45.8342" lon="4.68891">
        <ele>288.28812</ele>
        <time>2023-10-04T09:38:32.000Z</time>
      </trkpt>
      <trkpt lat="45.83421" lon="4.68896">
        <ele>288.13312</ele>
        <time>2023-10-04T09:38:33.000Z</time>
      </trkpt>
      <trkpt lat="45.83422" lon="4.689">
        <ele>287.97079</ele>
        <time>2023-10-04T09:38:34.000Z</time>
      </trkpt>
      <trkpt lat="45.83424" lon="4.68904">
        <ele>287.68329</ele>
        <time>2023-10-04T09:38:35.000Z</time>
      </trkpt>
      <trkpt lat="45.83425" lon="4.68908">
        <ele>287.80167</ele>
        <time>2023-10-04T09:38:36.000Z</time>
      </trkpt>
      <trkpt lat="45.83426" lon="4.68911">
        <ele>287.86942</ele>
        <time>2023-10-04T09:38:37.000Z</time>
      </trkpt>
      <trkpt lat="45.83427" lon="4.68915">
        <ele>287.94653</ele>
        <time>2023-10-04T09:38:38.000Z</time>
      </trkpt>
      <trkpt lat="45.83427" lon="4.68918">
        <ele>288.05649</ele>
        <time>2023-10-04T09:38:39.000Z</time>
      </trkpt>
      <trkpt lat="45.83427" lon="4.68922">
        <ele>288.16745</ele>
        <time>2023-10-04T09:38:40.000Z</time>
      </trkpt>
      <trkpt lat="45.83427" lon="4.68925">
        <ele>288.34723</ele>
        <time>2023-10-04T09:38:41.000Z</time>
      </trkpt>
      <trkpt lat="45.83426" lon="4.68929">
        <ele>288.53693</ele>
        <time>2023-10-04T09:38:42.000Z</time>
      </trkpt>
      <trkpt lat="45.83425" lon="4.68933">
        <ele>288.72641</ele>
        <time>2023-10-04T09:38:43.000Z</time>
      </trkpt>
      <trkpt lat="45.83423" lon="4.68938">
        <ele>288.85431</ele>
        <time>2023-10-04T09:38:44.000Z</time>
      </trkpt>
      <trkpt lat="45.83421" lon="4.68943">
        <ele>288.99469</ele>
        <time>2023-10-04T09:38:45.000Z</time>
      </trkpt>
      <trkpt lat="45.83419" lon="4.68947">
        <ele>289.26419</ele>
        <time>2023-10-04T09:38:46.000Z</time>
      </trkpt>
      <trkpt lat="45.83418" lon="4.6895">
        <ele>289.64594</ele>
        <time>2023-10-04T09:38:47.000Z</time>
      </trkpt>
      <trkpt lat="45.83416" lon="4.68954">
        <ele>289.94162</ele>
        <time>2023-10-04T09:38:48.000Z</time>
      </trkpt>
      <trkpt lat="45.83415" lon="4.68957">
        <ele>289.81534</ele>
        <time>2023-10-04T09:38:49.000Z</time>
      </trkpt>
      <trkpt lat="45.83414" lon="4.6896">
        <ele>289.73309</ele>
        <time>2023-10-04T09:38:50.000Z</time>
      </trkpt>
      <trkpt lat="45.83413" lon="4.68963">
        <ele>289.97937</ele>
        <time>2023-10-04T09:38:51.000Z</time>
      </trkpt>
      <trkpt lat="45.83412" lon="4.68967">
        <ele>290.13126</ele>
        <time>2023-10-04T09:38:52.000Z</time>
      </trkpt>
      <trkpt lat="45.8341" lon="4.68971">
        <ele>290.2583</ele>
        <time>2023-10-04T09:38:53.000Z</time>
      </trkpt>
      <trkpt lat="45.83409" lon="4.68975">
        <ele>290.36395</ele>
        <time>2023-10-04T09:38:54.000Z</time>
      </trkpt>
      <trkpt lat="45.83408" lon="4.68979">
        <ele>290.56006</ele>
        <time>2023-10-04T09:38:55.000Z</time>
      </trkpt>
      <trkpt lat="45.83407" lon="4.68982">
        <ele>290.93622</ele>
        <time>2023-10-04T09:38:56.000Z</time>
      </trkpt>
      <trkpt lat="45.83406" lon="4.68986">
        <ele>291.34366</ele>
        <time>2023-10-04T09:38:57.000Z</time>
      </trkpt>
      <trkpt lat="45.83405" lon="4.68988">
        <ele>291.78494</ele>
        <time>2023-10-04T09:38:58.000Z</time>
      </trkpt>
      <trkpt lat="45.83405" lon="4.68992">
        <ele>291.95844</ele>
        <time>2023-10-04T09:38:59.000Z</time>
      </trkpt>
      <trkpt lat="45.83404" lon="4.68995">
        <ele>292.2034</ele>
        <time>2023-10-04T09:39:00.000Z</time>
      </trkpt>
      <trkpt lat="45.83403" lon="4.68999">
        <ele>292.45065</ele>
        <time>2023-10-04T09:39:01.000Z</time>
      </trkpt>
      <trkpt lat="45.83402" lon="4.69002">
        <ele>292.7074</ele>
        <time>2023-10-04T09:39:02.000Z</time>
      </trkpt>
      <trkpt lat="45.83402" lon="4.69005">
        <ele>293.00754</ele>
        <time>2023-10-04T09:39:03.000Z</time>
      </trkpt>
      <trkpt lat="45.83401" lon="4.69008">
        <ele>293.32156</ele>
        <time>2023-10-04T09:39:04.000Z</time>
      </trkpt>
      <trkpt lat="45.83401" lon="4.69012">
        <ele>293.6507</ele>
        <time>2023-10-04T09:39:05.000Z</time>
      </trkpt>
      <trkpt lat="45.834" lon="4.69015">
        <ele>293.854</ele>
        <time>2023-10-04T09:39:06.000Z</time>
      </trkpt>
      <trkpt lat="45.83398" lon="4.69019">
        <ele>293.95239</ele>
        <time>2023-10-04T09:39:07.000Z</time>
      </trkpt>
      <trkpt lat="45.83396" lon="4.69023">
        <ele>293.99487</ele>
        <time>2023-10-04T09:39:08.000Z</time>
      </trkpt>
      <trkpt lat="45.83395" lon="4.69026">
        <ele>294.21844</ele>
        <time>2023-10-04T09:39:09.000Z</time>
      </trkpt>
      <trkpt lat="45.83394" lon="4.6903">
        <ele>294.51147</ele>
        <time>2023-10-04T09:39:10.000Z</time>
      </trkpt>
      <trkpt lat="45.83392" lon="4.69033">
        <ele>294.48114</ele>
        <time>2023-10-04T09:39:11.000Z</time>
      </trkpt>
      <trkpt lat="45.8339" lon="4.69036">
        <ele>294.50793</ele>
        <time>2023-10-04T09:39:12.000Z</time>
      </trkpt>
      <trkpt lat="45.83388" lon="4.69038">
        <ele>294.9743</ele>
        <time>2023-10-04T09:39:13.000Z</time>
      </trkpt>
      <trkpt lat="45.83385" lon="4.69041">
        <ele>295.46155</ele>
        <time>2023-10-04T09:39:14.000Z</time>
      </trkpt>
      <trkpt lat="45.83384" lon="4.69045">
        <ele>295.94501</ele>
        <time>2023-10-04T09:39:15.000Z</time>
      </trkpt>
      <trkpt lat="45.83383" lon="4.69048">
        <ele>296.21066</ele>
        <time>2023-10-04T09:39:16.000Z</time>
      </trkpt>
      <trkpt lat="45.83381" lon="4.69051">
        <ele>296.48196</ele>
        <time>2023-10-04T09:39:17.000Z</time>
      </trkpt>
      <trkpt lat="45.8338" lon="4.69054">
        <ele>296.79279</ele>
        <time>2023-10-04T09:39:18.000Z</time>
      </trkpt>
      <trkpt lat="45.83379" lon="4.69057">
        <ele>297.34894</ele>
        <time>2023-10-04T09:39:19.000Z</time>
      </trkpt>
      <trkpt lat="45.83378" lon="4.6906">
        <ele>297.83643</ele>
        <time>2023-10-04T09:39:20.000Z</time>
      </trkpt>
      <trkpt lat="45.83378" lon="4.69063">
        <ele>298.13058</ele>
        <time>2023-10-04T09:39:21.000Z</time>
      </trkpt>
      <trkpt lat="45.83379" lon="4.69066">
        <ele>298.44318</ele>
        <time>2023-10-04T09:39:23.000Z</time>
      </trkpt>
      <trkpt lat="45.8338" lon="4.69069">
        <ele>298.66168</ele>
        <time>2023-10-04T09:39:34.000Z</time>
      </trkpt>
      <trkpt lat="45.83381" lon="4.69066">
        <ele>299.00571</ele>
        <time>2023-10-04T09:39:42.000Z</time>
      </trkpt>
      <trkpt lat="45.83379" lon="4.69071">
        <ele>299.36728</ele>
        <time>2023-10-04T09:40:54.000Z</time>
      </trkpt>
      <trkpt lat="45.83378" lon="4.69074">
        <ele>299.70709</ele>
        <time>2023-10-04T09:40:55.000Z</time>
      </trkpt>
      <trkpt lat="45.83377" lon="4.69078">
        <ele>300.04193</ele>
        <time>2023-10-04T09:40:56.000Z</time>
      </trkpt>
      <trkpt lat="45.83376" lon="4.69082">
        <ele>300.3526</ele>
        <time>2023-10-04T09:40:57.000Z</time>
      </trkpt>
      <trkpt lat="45.83376" lon="4.69086">
        <ele>300.75507</ele>
        <time>2023-10-04T09:40:58.000Z</time>
      </trkpt>
      <trkpt lat="45.83376" lon="4.69091">
        <ele>301.04773</ele>
        <time>2023-10-04T09:40:59.000Z</time>
      </trkpt>
      <trkpt lat="45.83376" lon="4.69095">
        <ele>301.63663</ele>
        <time>2023-10-04T09:41:00.000Z</time>
      </trkpt>
      <trkpt lat="45.83375" lon="4.69099">
        <ele>302.21164</ele>
        <time>2023-10-04T09:41:01.000Z</time>
      </trkpt>
      <trkpt lat="45.83375" lon="4.69103">
        <ele>302.36359</ele>
        <time>2023-10-04T09:41:02.000Z</time>
      </trkpt>
      <trkpt lat="45.83375" lon="4.69106">
        <ele>302.48956</ele>
        <time>2023-10-04T09:41:03.000Z</time>
      </trkpt>
      <trkpt lat="45.83375" lon="4.6911">
        <ele>302.57623</ele>
        <time>2023-10-04T09:41:04.000Z</time>
      </trkpt>
      <trkpt lat="45.83374" lon="4.69114">
        <ele>302.76526</ele>
        <time>2023-10-04T09:41:05.000Z</time>
      </trkpt>
      <trkpt lat="45.83374" lon="4.69117">
        <ele>302.95529</ele>
        <time>2023-10-04T09:41:06.000Z</time>
      </trkpt>
      <trkpt lat="45.83374" lon="4.69121">
        <ele>303.06</ele>
        <time>2023-10-04T09:41:07.000Z</time>
      </trkpt>
      <trkpt lat="45.83373" lon="4.69124">
        <ele>303.12979</ele>
        <time>2023-10-04T09:41:08.000Z</time>
      </trkpt>
      <trkpt lat="45.83373" lon="4.69127">
        <ele>303.05679</ele>
        <time>2023-10-04T09:41:09.000Z</time>
      </trkpt>
      <trkpt lat="45.83373" lon="4.6913">
        <ele>303.1879</ele>
        <time>2023-10-04T09:41:10.000Z</time>
      </trkpt>
      <trkpt lat="45.83372" lon="4.69133">
        <ele>303.30994</ele>
        <time>2023-10-04T09:41:11.000Z</time>
      </trkpt>
      <trkpt lat="45.83372" lon="4.69138">
        <ele>303.45331</ele>
        <time>2023-10-04T09:41:13.000Z</time>
      </trkpt>
      <trkpt lat="45.83372" lon="4.69141">
        <ele>303.47461</ele>
        <time>2023-10-04T09:41:14.000Z</time>
      </trkpt>
      <trkpt lat="45.83372" lon="4.69144">
        <ele>303.47665</ele>
        <time>2023-10-04T09:41:15.000Z</time>
      </trkpt>
      <trkpt lat="45.83372" lon="4.69147">
        <ele>303.50266</ele>
        <time>2023-10-04T09:41:16.000Z</time>
      </trkpt>
      <trkpt lat="45.83371" lon="4.6915">
        <ele>303.52011</ele>
        <time>2023-10-04T09:41:17.000Z</time>
      </trkpt>
      <trkpt lat="45.8337" lon="4.69153">
        <ele>303.53543</ele>
        <time>2023-10-04T09:41:18.000Z</time>
      </trkpt>
      <trkpt lat="45.8337" lon="4.69156">
        <ele>303.58612</ele>
        <time>2023-10-04T09:41:19.000Z</time>
      </trkpt>
      <trkpt lat="45.8337" lon="4.69159">
        <ele>303.63715</ele>
        <time>2023-10-04T09:41:20.000Z</time>
      </trkpt>
      <trkpt lat="45.8337" lon="4.69162">
        <ele>303.67007</ele>
        <time>2023-10-04T09:41:21.000Z</time>
      </trkpt>
      <trkpt lat="45.83369" lon="4.69165">
        <ele>303.69193</ele>
        <time>2023-10-04T09:41:22.000Z</time>
      </trkpt>
      <trkpt lat="45.83369" lon="4.69168">
        <ele>303.69208</ele>
        <time>2023-10-04T09:41:23.000Z</time>
      </trkpt>
      <trkpt lat="45.83369" lon="4.69171">
        <ele>303.72235</ele>
        <time>2023-10-04T09:41:24.000Z</time>
      </trkpt>
      <trkpt lat="45.83368" lon="4.69175">
        <ele>303.75439</ele>
        <time>2023-10-04T09:41:37.000Z</time>
      </trkpt>
      <trkpt lat="45.83366" lon="4.69177">
        <ele>303.84818</ele>
        <time>2023-10-04T09:41:39.000Z</time>
      </trkpt>
      <trkpt lat="45.83366" lon="4.69181">
        <ele>303.74884</ele>
        <time>2023-10-04T09:41:42.000Z</time>
      </trkpt>
      <trkpt lat="45.83366" lon="4.69184">
        <ele>303.81686</ele>
        <time>2023-10-04T09:41:48.000Z</time>
      </trkpt>
      <trkpt lat="45.83366" lon="4.69187">
        <ele>303.7728</ele>
        <time>2023-10-04T09:41:50.000Z</time>
      </trkpt>
      <trkpt lat="45.83366" lon="4.69191">
        <ele>303.86938</ele>
        <time>2023-10-04T09:41:52.000Z</time>
      </trkpt>
      <trkpt lat="45.83366" lon="4.69195">
        <ele>303.93454</ele>
        <time>2023-10-04T09:41:54.000Z</time>
      </trkpt>
      <trkpt lat="45.83366" lon="4.69198">
        <ele>303.96652</ele>
        <time>2023-10-04T09:41:56.000Z</time>
      </trkpt>
      <trkpt lat="45.83365" lon="4.69201">
        <ele>304.06232</ele>
        <time>2023-10-04T09:41:59.000Z</time>
      </trkpt>
      <trkpt lat="45.83364" lon="4.69204">
        <ele>304.3244</ele>
        <time>2023-10-04T09:42:07.000Z</time>
      </trkpt>
      <trkpt lat="45.83364" lon="4.69207">
        <ele>304.45227</ele>
        <time>2023-10-04T09:42:09.000Z</time>
      </trkpt>
      <trkpt lat="45.83364" lon="4.69212">
        <ele>304.6196</ele>
        <time>2023-10-04T09:42:11.000Z</time>
      </trkpt>
      <trkpt lat="45.83364" lon="4.69214">
        <ele>304.76791</ele>
        <time>2023-10-04T09:42:12.000Z</time>
      </trkpt>
      <trkpt lat="45.83364" lon="4.69217">
        <ele>304.91754</ele>
        <time>2023-10-04T09:42:13.000Z</time>
      </trkpt>
      <trkpt lat="45.83363" lon="4.69222">
        <ele>305.05402</ele>
        <time>2023-10-04T09:42:15.000Z</time>
      </trkpt>
      <trkpt lat="45.83362" lon="4.69227">
        <ele>305.17422</ele>
        <time>2023-10-04T09:42:17.000Z</time>
      </trkpt>
      <trkpt lat="45.83362" lon="4.69232">
        <ele>305.33673</ele>
        <time>2023-10-04T09:42:19.000Z</time>
      </trkpt>
      <trkpt lat="45.83362" lon="4.69234">
        <ele>305.51105</ele>
        <time>2023-10-04T09:42:20.000Z</time>
      </trkpt>
      <trkpt lat="45.83361" lon="4.69239">
        <ele>305.69458</ele>
        <time>2023-10-04T09:42:22.000Z</time>
      </trkpt>
      <trkpt lat="45.83361" lon="4.69244">
        <ele>305.85104</ele>
        <time>2023-10-04T09:42:24.000Z</time>
      </trkpt>
      <trkpt lat="45.8336" lon="4.69249">
        <ele>306.03708</ele>
        <time>2023-10-04T09:42:26.000Z</time>
      </trkpt>
      <trkpt lat="45.83359" lon="4.69252">
        <ele>306.06122</ele>
        <time>2023-10-04T09:42:27.000Z</time>
      </trkpt>
      <trkpt lat="45.83358" lon="4.69255">
        <ele>306.23456</ele>
        <time>2023-10-04T09:42:28.000Z</time>
      </trkpt>
      <trkpt lat="45.83358" lon="4.69258">
        <ele>306.26263</ele>
        <time>2023-10-04T09:42:29.000Z</time>
      </trkpt>
      <trkpt lat="45.83357" lon="4.69262">
        <ele>306.40213</ele>
        <time>2023-10-04T09:42:30.000Z</time>
      </trkpt>
      <trkpt lat="45.83356" lon="4.69266">
        <ele>306.43188</ele>
        <time>2023-10-04T09:42:31.000Z</time>
      </trkpt>
      <trkpt lat="45.83356" lon="4.69269">
        <ele>306.4834</ele>
        <time>2023-10-04T09:42:32.000Z</time>
      </trkpt>
      <trkpt lat="45.83356" lon="4.69274">
        <ele>306.71658</ele>
        <time>2023-10-04T09:42:33.000Z</time>
      </trkpt>
      <trkpt lat="45.83355" lon="4.69278">
        <ele>306.92905</ele>
        <time>2023-10-04T09:42:34.000Z</time>
      </trkpt>
      <trkpt lat="45.83355" lon="4.69284">
        <ele>306.99823</ele>
        <time>2023-10-04T09:42:35.000Z</time>
      </trkpt>
      <trkpt lat="45.83354" lon="4.69286">
        <ele>307.18893</ele>
        <time>2023-10-04T09:42:36.000Z</time>
      </trkpt>
      <trkpt lat="45.83354" lon="4.6929">
        <ele>307.28485</ele>
        <time>2023-10-04T09:42:37.000Z</time>
      </trkpt>
      <trkpt lat="45.83355" lon="4.69296">
        <ele>307.40271</ele>
        <time>2023-10-04T09:42:39.000Z</time>
      </trkpt>
      <trkpt lat="45.83355" lon="4.693">
        <ele>307.45511</ele>
        <time>2023-10-04T09:42:40.000Z</time>
      </trkpt>
      <trkpt lat="45.83355" lon="4.69307">
        <ele>307.49176</ele>
        <time>2023-10-04T09:42:42.000Z</time>
      </trkpt>
      <trkpt lat="45.83354" lon="4.69312">
        <ele>307.52509</ele>
        <time>2023-10-04T09:42:43.000Z</time>
      </trkpt>
      <trkpt lat="45.83354" lon="4.69317">
        <ele>307.53372</ele>
        <time>2023-10-04T09:42:44.000Z</time>
      </trkpt>
      <trkpt lat="45.83353" lon="4.69322">
        <ele>307.52118</ele>
        <time>2023-10-04T09:42:45.000Z</time>
      </trkpt>
      <trkpt lat="45.83353" lon="4.69327">
        <ele>307.52652</ele>
        <time>2023-10-04T09:42:46.000Z</time>
      </trkpt>
      <trkpt lat="45.83353" lon="4.69333">
        <ele>307.53436</ele>
        <time>2023-10-04T09:42:47.000Z</time>
      </trkpt>
      <trkpt lat="45.83352" lon="4.69339">
        <ele>307.53748</ele>
        <time>2023-10-04T09:42:48.000Z</time>
      </trkpt>
      <trkpt lat="45.83352" lon="4.69345">
        <ele>307.53033</ele>
        <time>2023-10-04T09:42:49.000Z</time>
      </trkpt>
      <trkpt lat="45.83352" lon="4.69351">
        <ele>307.50848</ele>
        <time>2023-10-04T09:42:50.000Z</time>
      </trkpt>
      <trkpt lat="45.83351" lon="4.69356">
        <ele>307.49942</ele>
        <time>2023-10-04T09:42:51.000Z</time>
      </trkpt>
      <trkpt lat="45.83351" lon="4.69362">
        <ele>307.48825</ele>
        <time>2023-10-04T09:42:52.000Z</time>
      </trkpt>
      <trkpt lat="45.83351" lon="4.69368">
        <ele>307.59357</ele>
        <time>2023-10-04T09:42:53.000Z</time>
      </trkpt>
      <trkpt lat="45.83351" lon="4.69373">
        <ele>307.79138</ele>
        <time>2023-10-04T09:42:54.000Z</time>
      </trkpt>
      <trkpt lat="45.8335" lon="4.69378">
        <ele>307.5994</ele>
        <time>2023-10-04T09:42:55.000Z</time>
      </trkpt>
      <trkpt lat="45.8335" lon="4.69384">
        <ele>307.40179</ele>
        <time>2023-10-04T09:42:56.000Z</time>
      </trkpt>
      <trkpt lat="45.8335" lon="4.69389">
        <ele>307.2012</ele>
        <time>2023-10-04T09:42:57.000Z</time>
      </trkpt>
      <trkpt lat="45.83349" lon="4.69395">
        <ele>306.98615</ele>
        <time>2023-10-04T09:42:58.000Z</time>
      </trkpt>
      <trkpt lat="45.83348" lon="4.694">
        <ele>306.79715</ele>
        <time>2023-10-04T09:42:59.000Z</time>
      </trkpt>
      <trkpt lat="45.83347" lon="4.69405">
        <ele>306.59424</ele>
        <time>2023-10-04T09:43:00.000Z</time>
      </trkpt>
      <trkpt lat="45.83347" lon="4.69411">
        <ele>306.46689</ele>
        <time>2023-10-04T09:43:01.000Z</time>
      </trkpt>
      <trkpt lat="45.83346" lon="4.69417">
        <ele>306.33508</ele>
        <time>2023-10-04T09:43:02.000Z</time>
      </trkpt>
      <trkpt lat="45.83345" lon="4.69423">
        <ele>306.14651</ele>
        <time>2023-10-04T09:43:03.000Z</time>
      </trkpt>
      <trkpt lat="45.83345" lon="4.69429">
        <ele>305.95453</ele>
        <time>2023-10-04T09:43:04.000Z</time>
      </trkpt>
      <trkpt lat="45.83344" lon="4.69434">
        <ele>305.91644</ele>
        <time>2023-10-04T09:43:05.000Z</time>
      </trkpt>
      <trkpt lat="45.83344" lon="4.69439">
        <ele>305.85971</ele>
        <time>2023-10-04T09:43:06.000Z</time>
      </trkpt>
      <trkpt lat="45.83344" lon="4.69442">
        <ele>305.7991</ele>
        <time>2023-10-04T09:43:07.000Z</time>
      </trkpt>
      <trkpt lat="45.83343" lon="4.69445">
        <ele>305.7211</ele>
        <time>2023-10-04T09:43:09.000Z</time>
      </trkpt>
      <trkpt lat="45.83342" lon="4.69449">
        <ele>305.62839</ele>
        <time>2023-10-04T09:43:11.000Z</time>
      </trkpt>
      <trkpt lat="45.83341" lon="4.69453">
        <ele>305.56122</ele>
        <time>2023-10-04T09:43:12.000Z</time>
      </trkpt>
      <trkpt lat="45.83341" lon="4.69458">
        <ele>305.47101</ele>
        <time>2023-10-04T09:43:13.000Z</time>
      </trkpt>
      <trkpt lat="45.8334" lon="4.69464">
        <ele>305.39377</ele>
        <time>2023-10-04T09:43:14.000Z</time>
      </trkpt>
      <trkpt lat="45.8334" lon="4.6947">
        <ele>305.31726</ele>
        <time>2023-10-04T09:43:15.000Z</time>
      </trkpt>
      <trkpt lat="45.83339" lon="4.69476">
        <ele>305.13507</ele>
        <time>2023-10-04T09:43:16.000Z</time>
      </trkpt>
      <trkpt lat="45.83339" lon="4.69481">
        <ele>305.2113</ele>
        <time>2023-10-04T09:43:17.000Z</time>
      </trkpt>
      <trkpt lat="45.83339" lon="4.69487">
        <ele>305.26993</ele>
        <time>2023-10-04T09:43:18.000Z</time>
      </trkpt>
      <trkpt lat="45.83339" lon="4.69492">
        <ele>305.43747</ele>
        <time>2023-10-04T09:43:19.000Z</time>
      </trkpt>
      <trkpt lat="45.8334" lon="4.69496">
        <ele>305.37274</ele>
        <time>2023-10-04T09:43:20.000Z</time>
      </trkpt>
      <trkpt lat="45.8334" lon="4.69501">
        <ele>305.32892</ele>
        <time>2023-10-04T09:43:21.000Z</time>
      </trkpt>
      <trkpt lat="45.8334" lon="4.69506">
        <ele>305.30496</ele>
        <time>2023-10-04T09:43:22.000Z</time>
      </trkpt>
      <trkpt lat="45.83341" lon="4.6951">
        <ele>305.28595</ele>
        <time>2023-10-04T09:43:23.000Z</time>
      </trkpt>
      <trkpt lat="45.83341" lon="4.69514">
        <ele>305.27747</ele>
        <time>2023-10-04T09:43:24.000Z</time>
      </trkpt>
      <trkpt lat="45.83341" lon="4.69519">
        <ele>305.28574</ele>
        <time>2023-10-04T09:43:25.000Z</time>
      </trkpt>
      <trkpt lat="45.83342" lon="4.69523">
        <ele>305.28842</ele>
        <time>2023-10-04T09:43:26.000Z</time>
      </trkpt>
      <trkpt lat="45.83342" lon="4.69528">
        <ele>305.14673</ele>
        <time>2023-10-04T09:43:27.000Z</time>
      </trkpt>
      <trkpt lat="45.83342" lon="4.69532">
        <ele>305.00745</ele>
        <time>2023-10-04T09:43:28.000Z</time>
      </trkpt>
      <trkpt lat="45.83343" lon="4.69537">
        <ele>304.84534</ele>
        <time>2023-10-04T09:43:29.000Z</time>
      </trkpt>
      <trkpt lat="45.83343" lon="4.69542">
        <ele>304.69559</ele>
        <time>2023-10-04T09:43:30.000Z</time>
      </trkpt>
      <trkpt lat="45.83343" lon="4.69547">
        <ele>304.56528</ele>
        <time>2023-10-04T09:43:31.000Z</time>
      </trkpt>
      <trkpt lat="45.83344" lon="4.69552">
        <ele>304.4267</ele>
        <time>2023-10-04T09:43:32.000Z</time>
      </trkpt>
      <trkpt lat="45.83345" lon="4.69557">
        <ele>304.2933</ele>
        <time>2023-10-04T09:43:33.000Z</time>
      </trkpt>
      <trkpt lat="45.83346" lon="4.69561">
        <ele>304.15536</ele>
        <time>2023-10-04T09:43:34.000Z</time>
      </trkpt>
      <trkpt lat="45.83347" lon="4.69565">
        <ele>303.98788</ele>
        <time>2023-10-04T09:43:35.000Z</time>
      </trkpt>
      <trkpt lat="45.83348" lon="4.6957">
        <ele>303.83777</ele>
        <time>2023-10-04T09:43:36.000Z</time>
      </trkpt>
      <trkpt lat="45.83348" lon="4.69574">
        <ele>303.64789</ele>
        <time>2023-10-04T09:43:37.000Z</time>
      </trkpt>
      <trkpt lat="45.83349" lon="4.69579">
        <ele>303.47308</ele>
        <time>2023-10-04T09:43:38.000Z</time>
      </trkpt>
      <trkpt lat="45.83349" lon="4.69584">
        <ele>303.18558</ele>
        <time>2023-10-04T09:43:39.000Z</time>
      </trkpt>
      <trkpt lat="45.8335" lon="4.6959">
        <ele>303.12442</ele>
        <time>2023-10-04T09:43:40.000Z</time>
      </trkpt>
      <trkpt lat="45.83351" lon="4.69595">
        <ele>303.04752</ele>
        <time>2023-10-04T09:43:41.000Z</time>
      </trkpt>
      <trkpt lat="45.83351" lon="4.696">
        <ele>302.98486</ele>
        <time>2023-10-04T09:43:42.000Z</time>
      </trkpt>
      <trkpt lat="45.83352" lon="4.69605">
        <ele>302.92157</ele>
        <time>2023-10-04T09:43:43.000Z</time>
      </trkpt>
      <trkpt lat="45.83353" lon="4.6961">
        <ele>302.87119</ele>
        <time>2023-10-04T09:43:44.000Z</time>
      </trkpt>
      <trkpt lat="45.83354" lon="4.69615">
        <ele>302.84369</ele>
        <time>2023-10-04T09:43:45.000Z</time>
      </trkpt>
      <trkpt lat="45.83355" lon="4.6962">
        <ele>302.82855</ele>
        <time>2023-10-04T09:43:46.000Z</time>
      </trkpt>
      <trkpt lat="45.83356" lon="4.69626">
        <ele>302.80121</ele>
        <time>2023-10-04T09:43:47.000Z</time>
      </trkpt>
      <trkpt lat="45.83356" lon="4.6963">
        <ele>302.7652</ele>
        <time>2023-10-04T09:43:48.000Z</time>
      </trkpt>
      <trkpt lat="45.83357" lon="4.69635">
        <ele>302.74799</ele>
        <time>2023-10-04T09:43:49.000Z</time>
      </trkpt>
      <trkpt lat="45.83358" lon="4.6964">
        <ele>302.67426</ele>
        <time>2023-10-04T09:43:50.000Z</time>
      </trkpt>
      <trkpt lat="45.83358" lon="4.69645">
        <ele>302.60553</ele>
        <time>2023-10-04T09:43:51.000Z</time>
      </trkpt>
      <trkpt lat="45.83359" lon="4.6965">
        <ele>302.54559</ele>
        <time>2023-10-04T09:43:52.000Z</time>
      </trkpt>
      <trkpt lat="45.83359" lon="4.69654">
        <ele>302.49356</ele>
        <time>2023-10-04T09:43:53.000Z</time>
      </trkpt>
      <trkpt lat="45.8336" lon="4.69659">
        <ele>302.41632</ele>
        <time>2023-10-04T09:43:54.000Z</time>
      </trkpt>
      <trkpt lat="45.83361" lon="4.69664">
        <ele>302.37305</ele>
        <time>2023-10-04T09:43:55.000Z</time>
      </trkpt>
      <trkpt lat="45.83362" lon="4.69669">
        <ele>302.29071</ele>
        <time>2023-10-04T09:43:56.000Z</time>
      </trkpt>
      <trkpt lat="45.83362" lon="4.69674">
        <ele>302.18906</ele>
        <time>2023-10-04T09:43:57.000Z</time>
      </trkpt>
      <trkpt lat="45.83363" lon="4.69678">
        <ele>302.07504</ele>
        <time>2023-10-04T09:43:58.000Z</time>
      </trkpt>
      <trkpt lat="45.83364" lon="4.69683">
        <ele>302.01117</ele>
        <time>2023-10-04T09:43:59.000Z</time>
      </trkpt>
      <trkpt lat="45.83364" lon="4.69688">
        <ele>302.04007</ele>
        <time>2023-10-04T09:44:00.000Z</time>
      </trkpt>
      <trkpt lat="45.83365" lon="4.69693">
        <ele>302.08505</ele>
        <time>2023-10-04T09:44:01.000Z</time>
      </trkpt>
      <trkpt lat="45.83366" lon="4.69697">
        <ele>302.11066</ele>
        <time>2023-10-04T09:44:02.000Z</time>
      </trkpt>
      <trkpt lat="45.83367" lon="4.69701">
        <ele>302.11777</ele>
        <time>2023-10-04T09:44:03.000Z</time>
      </trkpt>
      <trkpt lat="45.83368" lon="4.69706">
        <ele>302.11374</ele>
        <time>2023-10-04T09:44:04.000Z</time>
      </trkpt>
      <trkpt lat="45.83369" lon="4.69709">
        <ele>302.13226</ele>
        <time>2023-10-04T09:44:05.000Z</time>
      </trkpt>
      <trkpt lat="45.83369" lon="4.69713">
        <ele>302.12579</ele>
        <time>2023-10-04T09:44:06.000Z</time>
      </trkpt>
      <trkpt lat="45.8337" lon="4.69717">
        <ele>302.112</ele>
        <time>2023-10-04T09:44:07.000Z</time>
      </trkpt>
      <trkpt lat="45.8337" lon="4.69721">
        <ele>302.06982</ele>
        <time>2023-10-04T09:44:08.000Z</time>
      </trkpt>
      <trkpt lat="45.83371" lon="4.69725">
        <ele>302.02322</ele>
        <time>2023-10-04T09:44:09.000Z</time>
      </trkpt>
      <trkpt lat="45.83372" lon="4.69729">
        <ele>302.03094</ele>
        <time>2023-10-04T09:44:10.000Z</time>
      </trkpt>
      <trkpt lat="45.83373" lon="4.69733">
        <ele>302.03491</ele>
        <time>2023-10-04T09:44:11.000Z</time>
      </trkpt>
      <trkpt lat="45.83373" lon="4.69737">
        <ele>301.9097</ele>
        <time>2023-10-04T09:44:12.000Z</time>
      </trkpt>
      <trkpt lat="45.83374" lon="4.6974">
        <ele>301.75946</ele>
        <time>2023-10-04T09:44:13.000Z</time>
      </trkpt>
      <trkpt lat="45.83375" lon="4.69743">
        <ele>301.61749</ele>
        <time>2023-10-04T09:44:14.000Z</time>
      </trkpt>
      <trkpt lat="45.83375" lon="4.69747">
        <ele>301.48041</ele>
        <time>2023-10-04T09:44:15.000Z</time>
      </trkpt>
      <trkpt lat="45.83376" lon="4.6975">
        <ele>301.40176</ele>
        <time>2023-10-04T09:44:16.000Z</time>
      </trkpt>
      <trkpt lat="45.83377" lon="4.69754">
        <ele>301.34467</ele>
        <time>2023-10-04T09:44:17.000Z</time>
      </trkpt>
      <trkpt lat="45.83378" lon="4.69758">
        <ele>301.32056</ele>
        <time>2023-10-04T09:44:18.000Z</time>
      </trkpt>
      <trkpt lat="45.83379" lon="4.69761">
        <ele>301.16852</ele>
        <time>2023-10-04T09:44:19.000Z</time>
      </trkpt>
      <trkpt lat="45.83379" lon="4.69765">
        <ele>300.93445</ele>
        <time>2023-10-04T09:44:20.000Z</time>
      </trkpt>
      <trkpt lat="45.8338" lon="4.69768">
        <ele>300.68839</ele>
        <time>2023-10-04T09:44:21.000Z</time>
      </trkpt>
      <trkpt lat="45.83381" lon="4.69772">
        <ele>300.40582</ele>
        <time>2023-10-04T09:44:22.000Z</time>
      </trkpt>
      <trkpt lat="45.83382" lon="4.69776">
        <ele>300.14902</ele>
        <time>2023-10-04T09:44:23.000Z</time>
      </trkpt>
      <trkpt lat="45.83382" lon="4.6978">
        <ele>299.96655</ele>
        <time>2023-10-04T09:44:24.000Z</time>
      </trkpt>
      <trkpt lat="45.83383" lon="4.69783">
        <ele>299.77451</ele>
        <time>2023-10-04T09:44:25.000Z</time>
      </trkpt>
      <trkpt lat="45.83384" lon="4.69787">
        <ele>299.49689</ele>
        <time>2023-10-04T09:44:26.000Z</time>
      </trkpt>
      <trkpt lat="45.83384" lon="4.69791">
        <ele>299.26273</ele>
        <time>2023-10-04T09:44:27.000Z</time>
      </trkpt>
      <trkpt lat="45.83385" lon="4.69794">
        <ele>299.06427</ele>
        <time>2023-10-04T09:44:28.000Z</time>
      </trkpt>
      <trkpt lat="45.83386" lon="4.69798">
        <ele>298.88165</ele>
        <time>2023-10-04T09:44:29.000Z</time>
      </trkpt>
      <trkpt lat="45.83386" lon="4.69801">
        <ele>298.71338</ele>
        <time>2023-10-04T09:44:30.000Z</time>
      </trkpt>
      <trkpt lat="45.83386" lon="4.69805">
        <ele>298.55795</ele>
        <time>2023-10-04T09:44:31.000Z</time>
      </trkpt>
      <trkpt lat="45.83387" lon="4.69808">
        <ele>298.53183</ele>
        <time>2023-10-04T09:44:32.000Z</time>
      </trkpt>
      <trkpt lat="45.83388" lon="4.69812">
        <ele>298.51984</ele>
        <time>2023-10-04T09:44:33.000Z</time>
      </trkpt>
      <trkpt lat="45.83389" lon="4.69815">
        <ele>298.53525</ele>
        <time>2023-10-04T09:44:34.000Z</time>
      </trkpt>
      <trkpt lat="45.8339" lon="4.69819">
        <ele>298.54108</ele>
        <time>2023-10-04T09:44:35.000Z</time>
      </trkpt>
      <trkpt lat="45.83391" lon="4.69822">
        <ele>298.51193</ele>
        <time>2023-10-04T09:44:36.000Z</time>
      </trkpt>
      <trkpt lat="45.83392" lon="4.69826">
        <ele>298.52951</ele>
        <time>2023-10-04T09:44:37.000Z</time>
      </trkpt>
      <trkpt lat="45.83392" lon="4.69829">
        <ele>298.54657</ele>
        <time>2023-10-04T09:44:38.000Z</time>
      </trkpt>
      <trkpt lat="45.83393" lon="4.69832">
        <ele>298.68674</ele>
        <time>2023-10-04T09:44:39.000Z</time>
      </trkpt>
      <trkpt lat="45.83394" lon="4.69835">
        <ele>298.84991</ele>
        <time>2023-10-04T09:44:40.000Z</time>
      </trkpt>
      <trkpt lat="45.83395" lon="4.69838">
        <ele>298.98431</ele>
        <time>2023-10-04T09:44:41.000Z</time>
      </trkpt>
      <trkpt lat="45.83395" lon="4.69841">
        <ele>299.15506</ele>
        <time>2023-10-04T09:44:42.000Z</time>
      </trkpt>
      <trkpt lat="45.83396" lon="4.69844">
        <ele>299.29877</ele>
        <time>2023-10-04T09:44:43.000Z</time>
      </trkpt>
      <trkpt lat="45.83397" lon="4.69846">
        <ele>299.39923</ele>
        <time>2023-10-04T09:44:44.000Z</time>
      </trkpt>
      <trkpt lat="45.83397" lon="4.69849">
        <ele>299.49036</ele>
        <time>2023-10-04T09:44:45.000Z</time>
      </trkpt>
      <trkpt lat="45.83397" lon="4.69853">
        <ele>299.70038</ele>
        <time>2023-10-04T09:44:47.000Z</time>
      </trkpt>
      <trkpt lat="45.83398" lon="4.69855">
        <ele>299.87946</ele>
        <time>2023-10-04T09:44:59.000Z</time>
      </trkpt>
      <trkpt lat="45.83398" lon="4.6986">
        <ele>299.98978</ele>
        <time>2023-10-04T09:45:01.000Z</time>
      </trkpt>
      <trkpt lat="45.83397" lon="4.69862">
        <ele>300.11493</ele>
        <time>2023-10-04T09:45:02.000Z</time>
      </trkpt>
      <trkpt lat="45.83396" lon="4.69865">
        <ele>300.216</ele>
        <time>2023-10-04T09:45:03.000Z</time>
      </trkpt>
      <trkpt lat="45.83394" lon="4.69868">
        <ele>300.29642</ele>
        <time>2023-10-04T09:45:04.000Z</time>
      </trkpt>
      <trkpt lat="45.83393" lon="4.69869">
        <ele>300.36935</ele>
        <time>2023-10-04T09:45:05.000Z</time>
      </trkpt>
      <trkpt lat="45.83391" lon="4.69871">
        <ele>300.45013</ele>
        <time>2023-10-04T09:45:06.000Z</time>
      </trkpt>
      <trkpt lat="45.83389" lon="4.69873">
        <ele>300.52252</ele>
        <time>2023-10-04T09:45:07.000Z</time>
      </trkpt>
      <trkpt lat="45.83388" lon="4.69876">
        <ele>300.58899</ele>
        <time>2023-10-04T09:45:08.000Z</time>
      </trkpt>
      <trkpt lat="45.83388" lon="4.69879">
        <ele>300.6416</ele>
        <time>2023-10-04T09:45:09.000Z</time>
      </trkpt>
      <trkpt lat="45.83388" lon="4.69883">
        <ele>300.65329</ele>
        <time>2023-10-04T09:45:11.000Z</time>
      </trkpt>
      <trkpt lat="45.83388" lon="4.69886">
        <ele>300.67487</ele>
        <time>2023-10-04T09:45:13.000Z</time>
      </trkpt>
      <trkpt lat="45.83388" lon="4.6989">
        <ele>300.67374</ele>
        <time>2023-10-04T09:45:15.000Z</time>
      </trkpt>
      <trkpt lat="45.83389" lon="4.69894">
        <ele>300.65887</ele>
        <time>2023-10-04T09:45:17.000Z</time>
      </trkpt>
      <trkpt lat="45.8339" lon="4.69899">
        <ele>300.68387</ele>
        <time>2023-10-04T09:45:19.000Z</time>
      </trkpt>
      <trkpt lat="45.83391" lon="4.69901">
        <ele>300.70044</ele>
        <time>2023-10-04T09:45:20.000Z</time>
      </trkpt>
      <trkpt lat="45.83392" lon="4.69904">
        <ele>300.72247</ele>
        <time>2023-10-04T09:45:21.000Z</time>
      </trkpt>
      <trkpt lat="45.83393" lon="4.69906">
        <ele>300.83734</ele>
        <time>2023-10-04T09:45:22.000Z</time>
      </trkpt>
      <trkpt lat="45.83395" lon="4.69909">
        <ele>300.96442</ele>
        <time>2023-10-04T09:45:23.000Z</time>
      </trkpt>
      <trkpt lat="45.83397" lon="4.69912">
        <ele>301.07745</ele>
        <time>2023-10-04T09:45:24.000Z</time>
      </trkpt>
      <trkpt lat="45.83399" lon="4.69914">
        <ele>301.17709</ele>
        <time>2023-10-04T09:45:25.000Z</time>
      </trkpt>
      <trkpt lat="45.83401" lon="4.69917">
        <ele>301.3504</ele>
        <time>2023-10-04T09:45:26.000Z</time>
      </trkpt>
      <trkpt lat="45.83403" lon="4.69921">
        <ele>301.49759</ele>
        <time>2023-10-04T09:45:27.000Z</time>
      </trkpt>
      <trkpt lat="45.83404" lon="4.69925">
        <ele>301.64551</ele>
        <time>2023-10-04T09:45:28.000Z</time>
      </trkpt>
      <trkpt lat="45.83406" lon="4.6993">
        <ele>301.77698</ele>
        <time>2023-10-04T09:45:29.000Z</time>
      </trkpt>
      <trkpt lat="45.83407" lon="4.69935">
        <ele>301.91074</ele>
        <time>2023-10-04T09:45:30.000Z</time>
      </trkpt>
      <trkpt lat="45.83406" lon="4.6994">
        <ele>302.03296</ele>
        <time>2023-10-04T09:45:31.000Z</time>
      </trkpt>
      <trkpt lat="45.83406" lon="4.69945">
        <ele>302.3089</ele>
        <time>2023-10-04T09:45:32.000Z</time>
      </trkpt>
      <trkpt lat="45.83405" lon="4.69949">
        <ele>302.31564</ele>
        <time>2023-10-04T09:45:33.000Z</time>
      </trkpt>
      <trkpt lat="45.83404" lon="4.69953">
        <ele>302.32431</ele>
        <time>2023-10-04T09:45:34.000Z</time>
      </trkpt>
      <trkpt lat="45.83403" lon="4.69957">
        <ele>302.32773</ele>
        <time>2023-10-04T09:45:35.000Z</time>
      </trkpt>
      <trkpt lat="45.83403" lon="4.69962">
        <ele>302.2861</ele>
        <time>2023-10-04T09:45:36.000Z</time>
      </trkpt>
      <trkpt lat="45.83402" lon="4.69966">
        <ele>302.22131</ele>
        <time>2023-10-04T09:45:37.000Z</time>
      </trkpt>
      <trkpt lat="45.83401" lon="4.6997">
        <ele>302.18903</ele>
        <time>2023-10-04T09:45:38.000Z</time>
      </trkpt>
      <trkpt lat="45.83401" lon="4.69974">
        <ele>302.15289</ele>
        <time>2023-10-04T09:45:39.000Z</time>
      </trkpt>
      <trkpt lat="45.834" lon="4.69977">
        <ele>302.12482</ele>
        <time>2023-10-04T09:45:40.000Z</time>
      </trkpt>
      <trkpt lat="45.834" lon="4.69981">
        <ele>302.1091</ele>
        <time>2023-10-04T09:45:41.000Z</time>
      </trkpt>
      <trkpt lat="45.83399" lon="4.69985">
        <ele>301.99329</ele>
        <time>2023-10-04T09:45:42.000Z</time>
      </trkpt>
      <trkpt lat="45.83399" lon="4.69988">
        <ele>301.89218</ele>
        <time>2023-10-04T09:45:43.000Z</time>
      </trkpt>
      <trkpt lat="45.83399" lon="4.69992">
        <ele>301.70419</ele>
        <time>2023-10-04T09:45:44.000Z</time>
      </trkpt>
      <trkpt lat="45.83399" lon="4.69996">
        <ele>301.55701</ele>
        <time>2023-10-04T09:45:45.000Z</time>
      </trkpt>
      <trkpt lat="45.83399" lon="4.7">
        <ele>301.40543</ele>
        <time>2023-10-04T09:45:46.000Z</time>
      </trkpt>
      <trkpt lat="45.83398" lon="4.70004">
        <ele>301.24567</ele>
        <time>2023-10-04T09:45:47.000Z</time>
      </trkpt>
      <trkpt lat="45.83398" lon="4.70007">
        <ele>301.11148</ele>
        <time>2023-10-04T09:45:48.000Z</time>
      </trkpt>
      <trkpt lat="45.83398" lon="4.70011">
        <ele>301.13837</ele>
        <time>2023-10-04T09:45:49.000Z</time>
      </trkpt>
      <trkpt lat="45.83398" lon="4.70015">
        <ele>301.18781</ele>
        <time>2023-10-04T09:45:50.000Z</time>
      </trkpt>
      <trkpt lat="45.83398" lon="4.70019">
        <ele>301.27707</ele>
        <time>2023-10-04T09:45:51.000Z</time>
      </trkpt>
      <trkpt lat="45.83397" lon="4.70023">
        <ele>301.21057</ele>
        <time>2023-10-04T09:45:52.000Z</time>
      </trkpt>
      <trkpt lat="45.83397" lon="4.70027">
        <ele>301.41165</ele>
        <time>2023-10-04T09:45:53.000Z</time>
      </trkpt>
      <trkpt lat="45.83397" lon="4.70031">
        <ele>301.61667</ele>
        <time>2023-10-04T09:45:54.000Z</time>
      </trkpt>
      <trkpt lat="45.83396" lon="4.70036">
        <ele>301.83734</ele>
        <time>2023-10-04T09:45:55.000Z</time>
      </trkpt>
      <trkpt lat="45.83396" lon="4.7004">
        <ele>302.09128</ele>
        <time>2023-10-04T09:45:56.000Z</time>
      </trkpt>
      <trkpt lat="45.83396" lon="4.70043">
        <ele>302.34988</ele>
        <time>2023-10-04T09:45:57.000Z</time>
      </trkpt>
      <trkpt lat="45.83396" lon="4.70047">
        <ele>302.59198</ele>
        <time>2023-10-04T09:45:58.000Z</time>
      </trkpt>
      <trkpt lat="45.83396" lon="4.7005">
        <ele>302.84515</ele>
        <time>2023-10-04T09:45:59.000Z</time>
      </trkpt>
      <trkpt lat="45.83396" lon="4.70053">
        <ele>303.08783</ele>
        <time>2023-10-04T09:46:00.000Z</time>
      </trkpt>
      <trkpt lat="45.83396" lon="4.70057">
        <ele>303.33578</ele>
        <time>2023-10-04T09:46:01.000Z</time>
      </trkpt>
      <trkpt lat="45.83394" lon="4.70061">
        <ele>303.56158</ele>
        <time>2023-10-04T09:46:02.000Z</time>
      </trkpt>
      <trkpt lat="45.83393" lon="4.70064">
        <ele>303.73999</ele>
        <time>2023-10-04T09:46:03.000Z</time>
      </trkpt>
      <trkpt lat="45.83393" lon="4.70067">
        <ele>304.02802</ele>
        <time>2023-10-04T09:46:04.000Z</time>
      </trkpt>
      <trkpt lat="45.83393" lon="4.70071">
        <ele>304.29529</ele>
        <time>2023-10-04T09:46:05.000Z</time>
      </trkpt>
      <trkpt lat="45.83393" lon="4.70074">
        <ele>304.57864</ele>
        <time>2023-10-04T09:46:06.000Z</time>
      </trkpt>
      <trkpt lat="45.83393" lon="4.70077">
        <ele>304.87808</ele>
        <time>2023-10-04T09:46:07.000Z</time>
      </trkpt>
      <trkpt lat="45.83393" lon="4.70081">
        <ele>305.14737</ele>
        <time>2023-10-04T09:46:08.000Z</time>
      </trkpt>
      <trkpt lat="45.83393" lon="4.70085">
        <ele>305.2829</ele>
        <time>2023-10-04T09:46:09.000Z</time>
      </trkpt>
      <trkpt lat="45.83392" lon="4.70088">
        <ele>305.40402</ele>
        <time>2023-10-04T09:46:10.000Z</time>
      </trkpt>
      <trkpt lat="45.83392" lon="4.70092">
        <ele>305.47897</ele>
        <time>2023-10-04T09:46:11.000Z</time>
      </trkpt>
      <trkpt lat="45.83392" lon="4.70095">
        <ele>305.54004</ele>
        <time>2023-10-04T09:46:12.000Z</time>
      </trkpt>
      <trkpt lat="45.83392" lon="4.70099">
        <ele>305.46524</ele>
        <time>2023-10-04T09:46:13.000Z</time>
      </trkpt>
      <trkpt lat="45.83392" lon="4.70102">
        <ele>305.39053</ele>
        <time>2023-10-04T09:46:14.000Z</time>
      </trkpt>
      <trkpt lat="45.83391" lon="4.70106">
        <ele>305.31064</ele>
        <time>2023-10-04T09:46:15.000Z</time>
      </trkpt>
      <trkpt lat="45.83391" lon="4.7011">
        <ele>305.20993</ele>
        <time>2023-10-04T09:46:16.000Z</time>
      </trkpt>
      <trkpt lat="45.8339" lon="4.70113">
        <ele>305.12991</ele>
        <time>2023-10-04T09:46:17.000Z</time>
      </trkpt>
      <trkpt lat="45.8339" lon="4.70117">
        <ele>305.02106</ele>
        <time>2023-10-04T09:46:18.000Z</time>
      </trkpt>
      <trkpt lat="45.8339" lon="4.70119">
        <ele>304.92517</ele>
        <time>2023-10-04T09:46:19.000Z</time>
      </trkpt>
      <trkpt lat="45.83389" lon="4.70123">
        <ele>304.82343</ele>
        <time>2023-10-04T09:46:20.000Z</time>
      </trkpt>
      <trkpt lat="45.83389" lon="4.70126">
        <ele>304.72141</ele>
        <time>2023-10-04T09:46:21.000Z</time>
      </trkpt>
      <trkpt lat="45.83388" lon="4.70129">
        <ele>304.60474</ele>
        <time>2023-10-04T09:46:22.000Z</time>
      </trkpt>
      <trkpt lat="45.83387" lon="4.70133">
        <ele>304.51093</ele>
        <time>2023-10-04T09:46:23.000Z</time>
      </trkpt>
      <trkpt lat="45.83386" lon="4.70136">
        <ele>304.4007</ele>
        <time>2023-10-04T09:46:24.000Z</time>
      </trkpt>
      <trkpt lat="45.83385" lon="4.70139">
        <ele>304.4715</ele>
        <time>2023-10-04T09:46:25.000Z</time>
      </trkpt>
      <trkpt lat="45.83384" lon="4.70142">
        <ele>304.52313</ele>
        <time>2023-10-04T09:46:26.000Z</time>
      </trkpt>
      <trkpt lat="45.83384" lon="4.70146">
        <ele>304.61288</ele>
        <time>2023-10-04T09:46:27.000Z</time>
      </trkpt>
      <trkpt lat="45.83383" lon="4.7015">
        <ele>303.51447</ele>
        <time>2023-10-04T09:46:28.000Z</time>
      </trkpt>
      <trkpt lat="45.83382" lon="4.70154">
        <ele>302.32758</ele>
        <time>2023-10-04T09:46:29.000Z</time>
      </trkpt>
      <trkpt lat="45.83381" lon="4.70158">
        <ele>301.09583</ele>
        <time>2023-10-04T09:46:30.000Z</time>
      </trkpt>
      <trkpt lat="45.83379" lon="4.70161">
        <ele>300.3493</ele>
        <time>2023-10-04T09:46:31.000Z</time>
      </trkpt>
      <trkpt lat="45.83378" lon="4.70164">
        <ele>299.5683</ele>
        <time>2023-10-04T09:46:32.000Z</time>
      </trkpt>
      <trkpt lat="45.83377" lon="4.70168">
        <ele>299.7691</ele>
        <time>2023-10-04T09:46:33.000Z</time>
      </trkpt>
      <trkpt lat="45.83376" lon="4.70171">
        <ele>299.96191</ele>
        <time>2023-10-04T09:46:34.000Z</time>
      </trkpt>
      <trkpt lat="45.83375" lon="4.70175">
        <ele>300.12616</ele>
        <time>2023-10-04T09:46:35.000Z</time>
      </trkpt>
      <trkpt lat="45.83373" lon="4.70178">
        <ele>300.28961</ele>
        <time>2023-10-04T09:46:36.000Z</time>
      </trkpt>
      <trkpt lat="45.83372" lon="4.7018">
        <ele>300.43942</ele>
        <time>2023-10-04T09:46:37.000Z</time>
      </trkpt>
      <trkpt lat="45.83372" lon="4.70183">
        <ele>300.60086</ele>
        <time>2023-10-04T09:46:38.000Z</time>
      </trkpt>
      <trkpt lat="45.83371" lon="4.70185">
        <ele>300.7356</ele>
        <time>2023-10-04T09:46:39.000Z</time>
      </trkpt>
      <trkpt lat="45.83371" lon="4.70188">
        <ele>300.86908</ele>
        <time>2023-10-04T09:46:40.000Z</time>
      </trkpt>
      <trkpt lat="45.8337" lon="4.70192">
        <ele>301.01791</ele>
        <time>2023-10-04T09:46:42.000Z</time>
      </trkpt>
      <trkpt lat="45.83369" lon="4.70196">
        <ele>301.17877</ele>
        <time>2023-10-04T09:46:44.000Z</time>
      </trkpt>
      <trkpt lat="45.83367" lon="4.702">
        <ele>301.3125</ele>
        <time>2023-10-04T09:46:48.000Z</time>
      </trkpt>
      <trkpt lat="45.83366" lon="4.70203">
        <ele>301.30853</ele>
        <time>2023-10-04T09:46:50.000Z</time>
      </trkpt>
      <trkpt lat="45.83365" lon="4.70205">
        <ele>301.11676</ele>
        <time>2023-10-04T09:46:51.000Z</time>
      </trkpt>
      <trkpt lat="45.83364" lon="4.7021">
        <ele>301.09192</ele>
        <time>2023-10-04T09:46:53.000Z</time>
      </trkpt>
      <trkpt lat="45.83363" lon="4.70214">
        <ele>301.03595</ele>
        <time>2023-10-04T09:46:54.000Z</time>
      </trkpt>
      <trkpt lat="45.83361" lon="4.70217">
        <ele>302.1777</ele>
        <time>2023-10-04T09:46:55.000Z</time>
      </trkpt>
      <trkpt lat="45.8336" lon="4.7022">
        <ele>303.38068</ele>
        <time>2023-10-04T09:46:56.000Z</time>
      </trkpt>
      <trkpt lat="45.83358" lon="4.70222">
        <ele>304.63632</ele>
        <time>2023-10-04T09:46:57.000Z</time>
      </trkpt>
      <trkpt lat="45.83357" lon="4.70225">
        <ele>305.4361</ele>
        <time>2023-10-04T09:46:58.000Z</time>
      </trkpt>
      <trkpt lat="45.83356" lon="4.70229">
        <ele>306.29358</ele>
        <time>2023-10-04T09:46:59.000Z</time>
      </trkpt>
      <trkpt lat="45.83354" lon="4.70232">
        <ele>306.30676</ele>
        <time>2023-10-04T09:47:00.000Z</time>
      </trkpt>
      <trkpt lat="45.83353" lon="4.70235">
        <ele>306.31958</ele>
        <time>2023-10-04T09:47:01.000Z</time>
      </trkpt>
      <trkpt lat="45.83352" lon="4.70238">
        <ele>306.37289</ele>
        <time>2023-10-04T09:47:02.000Z</time>
      </trkpt>
      <trkpt lat="45.83351" lon="4.70241">
        <ele>306.45813</ele>
        <time>2023-10-04T09:47:03.000Z</time>
      </trkpt>
      <trkpt lat="45.8335" lon="4.70245">
        <ele>306.5434</ele>
        <time>2023-10-04T09:47:04.000Z</time>
      </trkpt>
      <trkpt lat="45.83348" lon="4.70248">
        <ele>306.62207</ele>
        <time>2023-10-04T09:47:05.000Z</time>
      </trkpt>
      <trkpt lat="45.83347" lon="4.70251">
        <ele>306.70355</ele>
        <time>2023-10-04T09:47:06.000Z</time>
      </trkpt>
      <trkpt lat="45.83346" lon="4.70254">
        <ele>306.79282</ele>
        <time>2023-10-04T09:47:07.000Z</time>
      </trkpt>
      <trkpt lat="45.83345" lon="4.70258">
        <ele>306.86285</ele>
        <time>2023-10-04T09:47:08.000Z</time>
      </trkpt>
      <trkpt lat="45.83343" lon="4.70261">
        <ele>306.92255</ele>
        <time>2023-10-04T09:47:09.000Z</time>
      </trkpt>
      <trkpt lat="45.83342" lon="4.70265">
        <ele>307.01898</ele>
        <time>2023-10-04T09:47:10.000Z</time>
      </trkpt>
      <trkpt lat="45.8334" lon="4.70268">
        <ele>307.2605</ele>
        <time>2023-10-04T09:47:11.000Z</time>
      </trkpt>
      <trkpt lat="45.83339" lon="4.70271">
        <ele>307.49896</ele>
        <time>2023-10-04T09:47:12.000Z</time>
      </trkpt>
      <trkpt lat="45.83338" lon="4.70274">
        <ele>307.56125</ele>
        <time>2023-10-04T09:47:13.000Z</time>
      </trkpt>
      <trkpt lat="45.83337" lon="4.70278">
        <ele>307.61676</ele>
        <time>2023-10-04T09:47:14.000Z</time>
      </trkpt>
      <trkpt lat="45.83336" lon="4.70282">
        <ele>307.67917</ele>
        <time>2023-10-04T09:47:15.000Z</time>
      </trkpt>
      <trkpt lat="45.83335" lon="4.70286">
        <ele>307.7681</ele>
        <time>2023-10-04T09:47:16.000Z</time>
      </trkpt>
      <trkpt lat="45.83334" lon="4.7029">
        <ele>307.84381</ele>
        <time>2023-10-04T09:47:17.000Z</time>
      </trkpt>
      <trkpt lat="45.83333" lon="4.70294">
        <ele>307.88849</ele>
        <time>2023-10-04T09:47:18.000Z</time>
      </trkpt>
      <trkpt lat="45.83332" lon="4.70297">
        <ele>307.92618</ele>
        <time>2023-10-04T09:47:19.000Z</time>
      </trkpt>
      <trkpt lat="45.83331" lon="4.703">
        <ele>307.95047</ele>
        <time>2023-10-04T09:47:20.000Z</time>
      </trkpt>
      <trkpt lat="45.8333" lon="4.70304">
        <ele>308.00064</ele>
        <time>2023-10-04T09:47:21.000Z</time>
      </trkpt>
      <trkpt lat="45.83329" lon="4.70307">
        <ele>308.03839</ele>
        <time>2023-10-04T09:47:22.000Z</time>
      </trkpt>
      <trkpt lat="45.83328" lon="4.70311">
        <ele>308.05304</ele>
        <time>2023-10-04T09:47:23.000Z</time>
      </trkpt>
      <trkpt lat="45.83327" lon="4.70315">
        <ele>308.0556</ele>
        <time>2023-10-04T09:47:24.000Z</time>
      </trkpt>
      <trkpt lat="45.83326" lon="4.70318">
        <ele>308.05627</ele>
        <time>2023-10-04T09:47:25.000Z</time>
      </trkpt>
      <trkpt lat="45.83325" lon="4.70322">
        <ele>308.05536</ele>
        <time>2023-10-04T09:47:26.000Z</time>
      </trkpt>
      <trkpt lat="45.83325" lon="4.70326">
        <ele>308.05743</ele>
        <time>2023-10-04T09:47:27.000Z</time>
      </trkpt>
      <trkpt lat="45.83325" lon="4.70329">
        <ele>308.06696</ele>
        <time>2023-10-04T09:47:28.000Z</time>
      </trkpt>
      <trkpt lat="45.83325" lon="4.70333">
        <ele>308.07123</ele>
        <time>2023-10-04T09:47:29.000Z</time>
      </trkpt>
      <trkpt lat="45.83326" lon="4.70336">
        <ele>308.0603</ele>
        <time>2023-10-04T09:47:30.000Z</time>
      </trkpt>
      <trkpt lat="45.83327" lon="4.7034">
        <ele>308.04187</ele>
        <time>2023-10-04T09:47:31.000Z</time>
      </trkpt>
      <trkpt lat="45.83328" lon="4.70344">
        <ele>308.03278</ele>
        <time>2023-10-04T09:47:32.000Z</time>
      </trkpt>
      <trkpt lat="45.83329" lon="4.70349">
        <ele>308.00189</ele>
        <time>2023-10-04T09:47:33.000Z</time>
      </trkpt>
      <trkpt lat="45.83329" lon="4.70353">
        <ele>307.95547</ele>
        <time>2023-10-04T09:47:34.000Z</time>
      </trkpt>
      <trkpt lat="45.83329" lon="4.70357">
        <ele>307.76199</ele>
        <time>2023-10-04T09:47:35.000Z</time>
      </trkpt>
      <trkpt lat="45.8333" lon="4.70361">
        <ele>307.55942</ele>
        <time>2023-10-04T09:47:36.000Z</time>
      </trkpt>
      <trkpt lat="45.8333" lon="4.70365">
        <ele>307.36829</ele>
        <time>2023-10-04T09:47:37.000Z</time>
      </trkpt>
      <trkpt lat="45.83331" lon="4.70368">
        <ele>307.20065</ele>
        <time>2023-10-04T09:47:38.000Z</time>
      </trkpt>
      <trkpt lat="45.83331" lon="4.70372">
        <ele>307.02679</ele>
        <time>2023-10-04T09:47:39.000Z</time>
      </trkpt>
      <trkpt lat="45.83331" lon="4.70376">
        <ele>306.8808</ele>
        <time>2023-10-04T09:47:40.000Z</time>
      </trkpt>
      <trkpt lat="45.83332" lon="4.70381">
        <ele>306.70993</ele>
        <time>2023-10-04T09:47:41.000Z</time>
      </trkpt>
      <trkpt lat="45.83333" lon="4.70387">
        <ele>306.5611</ele>
        <time>2023-10-04T09:47:42.000Z</time>
      </trkpt>
      <trkpt lat="45.83334" lon="4.70393">
        <ele>306.40552</ele>
        <time>2023-10-04T09:47:43.000Z</time>
      </trkpt>
      <trkpt lat="45.83335" lon="4.70398">
        <ele>306.2742</ele>
        <time>2023-10-04T09:47:44.000Z</time>
      </trkpt>
      <trkpt lat="45.83336" lon="4.70403">
        <ele>306.34021</ele>
        <time>2023-10-04T09:47:45.000Z</time>
      </trkpt>
      <trkpt lat="45.83336" lon="4.70409">
        <ele>306.4064</ele>
        <time>2023-10-04T09:47:46.000Z</time>
      </trkpt>
      <trkpt lat="45.83337" lon="4.70415">
        <ele>306.47803</ele>
        <time>2023-10-04T09:47:47.000Z</time>
      </trkpt>
      <trkpt lat="45.83337" lon="4.7042">
        <ele>306.5697</ele>
        <time>2023-10-04T09:47:48.000Z</time>
      </trkpt>
      <trkpt lat="45.83338" lon="4.70424">
        <ele>306.60065</ele>
        <time>2023-10-04T09:47:49.000Z</time>
      </trkpt>
      <trkpt lat="45.83338" lon="4.70429">
        <ele>306.64951</ele>
        <time>2023-10-04T09:47:50.000Z</time>
      </trkpt>
      <trkpt lat="45.83338" lon="4.70435">
        <ele>306.68942</ele>
        <time>2023-10-04T09:47:51.000Z</time>
      </trkpt>
      <trkpt lat="45.83338" lon="4.7044">
        <ele>306.73071</ele>
        <time>2023-10-04T09:47:52.000Z</time>
      </trkpt>
      <trkpt lat="45.83338" lon="4.70444">
        <ele>306.82776</ele>
        <time>2023-10-04T09:47:53.000Z</time>
      </trkpt>
      <trkpt lat="45.83339" lon="4.70449">
        <ele>306.96472</ele>
        <time>2023-10-04T09:47:54.000Z</time>
      </trkpt>
      <trkpt lat="45.83339" lon="4.70454">
        <ele>307.26471</ele>
        <time>2023-10-04T09:47:55.000Z</time>
      </trkpt>
      <trkpt lat="45.8334" lon="4.70458">
        <ele>307.59558</ele>
        <time>2023-10-04T09:47:56.000Z</time>
      </trkpt>
      <trkpt lat="45.83341" lon="4.70463">
        <ele>307.92191</ele>
        <time>2023-10-04T09:47:57.000Z</time>
      </trkpt>
      <trkpt lat="45.83341" lon="4.70468">
        <ele>308.21149</ele>
        <time>2023-10-04T09:47:58.000Z</time>
      </trkpt>
      <trkpt lat="45.83342" lon="4.70473">
        <ele>308.54126</ele>
        <time>2023-10-04T09:47:59.000Z</time>
      </trkpt>
      <trkpt lat="45.83342" lon="4.70478">
        <ele>308.86752</ele>
        <time>2023-10-04T09:48:00.000Z</time>
      </trkpt>
      <trkpt lat="45.83343" lon="4.70483">
        <ele>309.18744</ele>
        <time>2023-10-04T09:48:01.000Z</time>
      </trkpt>
      <trkpt lat="45.83343" lon="4.70487">
        <ele>309.47101</ele>
        <time>2023-10-04T09:48:02.000Z</time>
      </trkpt>
      <trkpt lat="45.83344" lon="4.70493">
        <ele>309.74652</ele>
        <time>2023-10-04T09:48:03.000Z</time>
      </trkpt>
      <trkpt lat="45.83344" lon="4.70498">
        <ele>310.02295</ele>
        <time>2023-10-04T09:48:04.000Z</time>
      </trkpt>
      <trkpt lat="45.83345" lon="4.70503">
        <ele>310.08081</ele>
        <time>2023-10-04T09:48:05.000Z</time>
      </trkpt>
      <trkpt lat="45.83346" lon="4.70507">
        <ele>310.11902</ele>
        <time>2023-10-04T09:48:06.000Z</time>
      </trkpt>
      <trkpt lat="45.83346" lon="4.70512">
        <ele>310.20496</ele>
        <time>2023-10-04T09:48:07.000Z</time>
      </trkpt>
      <trkpt lat="45.83346" lon="4.70517">
        <ele>310.30475</ele>
        <time>2023-10-04T09:48:08.000Z</time>
      </trkpt>
      <trkpt lat="45.83346" lon="4.70522">
        <ele>310.46918</ele>
        <time>2023-10-04T09:48:09.000Z</time>
      </trkpt>
      <trkpt lat="45.83346" lon="4.70527">
        <ele>310.62567</ele>
        <time>2023-10-04T09:48:10.000Z</time>
      </trkpt>
      <trkpt lat="45.83347" lon="4.70533">
        <ele>310.76123</ele>
        <time>2023-10-04T09:48:11.000Z</time>
      </trkpt>
      <trkpt lat="45.83347" lon="4.70538">
        <ele>310.88382</ele>
        <time>2023-10-04T09:48:12.000Z</time>
      </trkpt>
      <trkpt lat="45.83348" lon="4.70543">
        <ele>310.96698</ele>
        <time>2023-10-04T09:48:13.000Z</time>
      </trkpt>
      <trkpt lat="45.83348" lon="4.70548">
        <ele>311.00949</ele>
        <time>2023-10-04T09:48:14.000Z</time>
      </trkpt>
      <trkpt lat="45.83348" lon="4.70553">
        <ele>311.07086</ele>
        <time>2023-10-04T09:48:15.000Z</time>
      </trkpt>
      <trkpt lat="45.83349" lon="4.70558">
        <ele>311.10556</ele>
        <time>2023-10-04T09:48:16.000Z</time>
      </trkpt>
      <trkpt lat="45.83349" lon="4.70563">
        <ele>311.15979</ele>
        <time>2023-10-04T09:48:17.000Z</time>
      </trkpt>
      <trkpt lat="45.83349" lon="4.70567">
        <ele>311.29147</ele>
        <time>2023-10-04T09:48:18.000Z</time>
      </trkpt>
      <trkpt lat="45.8335" lon="4.70572">
        <ele>311.35962</ele>
        <time>2023-10-04T09:48:19.000Z</time>
      </trkpt>
      <trkpt lat="45.8335" lon="4.70577">
        <ele>311.38086</ele>
        <time>2023-10-04T09:48:20.000Z</time>
      </trkpt>
      <trkpt lat="45.8335" lon="4.70582">
        <ele>311.38809</ele>
        <time>2023-10-04T09:48:21.000Z</time>
      </trkpt>
      <trkpt lat="45.83351" lon="4.70587">
        <ele>311.38242</ele>
        <time>2023-10-04T09:48:22.000Z</time>
      </trkpt>
      <trkpt lat="45.83351" lon="4.70592">
        <ele>311.39166</ele>
        <time>2023-10-04T09:48:23.000Z</time>
      </trkpt>
      <trkpt lat="45.83352" lon="4.70597">
        <ele>311.3829</ele>
        <time>2023-10-04T09:48:24.000Z</time>
      </trkpt>
      <trkpt lat="45.83352" lon="4.70603">
        <ele>311.39847</ele>
        <time>2023-10-04T09:48:25.000Z</time>
      </trkpt>
      <trkpt lat="45.83352" lon="4.70608">
        <ele>311.68341</ele>
        <time>2023-10-04T09:48:26.000Z</time>
      </trkpt>
      <trkpt lat="45.83353" lon="4.70614">
        <ele>311.92548</ele>
        <time>2023-10-04T09:48:27.000Z</time>
      </trkpt>
      <trkpt lat="45.83353" lon="4.70619">
        <ele>312.09256</ele>
        <time>2023-10-04T09:48:28.000Z</time>
      </trkpt>
      <trkpt lat="45.83353" lon="4.70625">
        <ele>312.28119</ele>
        <time>2023-10-04T09:48:29.000Z</time>
      </trkpt>
      <trkpt lat="45.83353" lon="4.70631">
        <ele>312.49207</ele>
        <time>2023-10-04T09:48:30.000Z</time>
      </trkpt>
      <trkpt lat="45.83352" lon="4.70638">
        <ele>312.66376</ele>
        <time>2023-10-04T09:48:31.000Z</time>
      </trkpt>
      <trkpt lat="45.83352" lon="4.70644">
        <ele>312.85535</ele>
        <time>2023-10-04T09:48:32.000Z</time>
      </trkpt>
      <trkpt lat="45.83351" lon="4.70651">
        <ele>313.06848</ele>
        <time>2023-10-04T09:48:33.000Z</time>
      </trkpt>
      <trkpt lat="45.83351" lon="4.70657">
        <ele>313.3067</ele>
        <time>2023-10-04T09:48:34.000Z</time>
      </trkpt>
      <trkpt lat="45.8335" lon="4.70663">
        <ele>313.50732</ele>
        <time>2023-10-04T09:48:35.000Z</time>
      </trkpt>
      <trkpt lat="45.8335" lon="4.7067">
        <ele>313.70715</ele>
        <time>2023-10-04T09:48:36.000Z</time>
      </trkpt>
      <trkpt lat="45.83349" lon="4.70676">
        <ele>313.88745</ele>
        <time>2023-10-04T09:48:37.000Z</time>
      </trkpt>
      <trkpt lat="45.83349" lon="4.70682">
        <ele>314.03625</ele>
        <time>2023-10-04T09:48:38.000Z</time>
      </trkpt>
      <trkpt lat="45.83348" lon="4.70688">
        <ele>314.21527</ele>
        <time>2023-10-04T09:48:39.000Z</time>
      </trkpt>
      <trkpt lat="45.83348" lon="4.70693">
        <ele>314.44284</ele>
        <time>2023-10-04T09:48:40.000Z</time>
      </trkpt>
      <trkpt lat="45.83347" lon="4.70699">
        <ele>314.72406</ele>
        <time>2023-10-04T09:48:41.000Z</time>
      </trkpt>
      <trkpt lat="45.83346" lon="4.70705">
        <ele>315.03326</ele>
        <time>2023-10-04T09:48:42.000Z</time>
      </trkpt>
      <trkpt lat="45.83346" lon="4.7071">
        <ele>315.32587</ele>
        <time>2023-10-04T09:48:43.000Z</time>
      </trkpt>
      <trkpt lat="45.83346" lon="4.70716">
        <ele>315.62723</ele>
        <time>2023-10-04T09:48:44.000Z</time>
      </trkpt>
      <trkpt lat="45.83345" lon="4.70721">
        <ele>315.92661</ele>
        <time>2023-10-04T09:48:45.000Z</time>
      </trkpt>
      <trkpt lat="45.83345" lon="4.70727">
        <ele>315.99051</ele>
        <time>2023-10-04T09:48:46.000Z</time>
      </trkpt>
      <trkpt lat="45.83344" lon="4.70733">
        <ele>316.04074</ele>
        <time>2023-10-04T09:48:47.000Z</time>
      </trkpt>
      <trkpt lat="45.83344" lon="4.70739">
        <ele>316.10876</ele>
        <time>2023-10-04T09:48:48.000Z</time>
      </trkpt>
      <trkpt lat="45.83344" lon="4.70745">
        <ele>316.15903</ele>
        <time>2023-10-04T09:48:49.000Z</time>
      </trkpt>
      <trkpt lat="45.83344" lon="4.70752">
        <ele>316.18298</ele>
        <time>2023-10-04T09:48:50.000Z</time>
      </trkpt>
      <trkpt lat="45.83344" lon="4.70758">
        <ele>316.25433</ele>
        <time>2023-10-04T09:48:51.000Z</time>
      </trkpt>
      <trkpt lat="45.83343" lon="4.70764">
        <ele>316.37372</ele>
        <time>2023-10-04T09:48:52.000Z</time>
      </trkpt>
      <trkpt lat="45.83343" lon="4.7077">
        <ele>316.50061</ele>
        <time>2023-10-04T09:48:53.000Z</time>
      </trkpt>
      <trkpt lat="45.83343" lon="4.70777">
        <ele>316.60333</ele>
        <time>2023-10-04T09:48:54.000Z</time>
      </trkpt>
      <trkpt lat="45.83343" lon="4.70783">
        <ele>316.69266</ele>
        <time>2023-10-04T09:48:55.000Z</time>
      </trkpt>
      <trkpt lat="45.83343" lon="4.70789">
        <ele>316.78693</ele>
        <time>2023-10-04T09:48:56.000Z</time>
      </trkpt>
      <trkpt lat="45.83343" lon="4.70794">
        <ele>316.86603</ele>
        <time>2023-10-04T09:48:57.000Z</time>
      </trkpt>
      <trkpt lat="45.83342" lon="4.70799">
        <ele>316.93369</ele>
        <time>2023-10-04T09:48:58.000Z</time>
      </trkpt>
      <trkpt lat="45.83342" lon="4.70804">
        <ele>317.01288</ele>
        <time>2023-10-04T09:48:59.000Z</time>
      </trkpt>
      <trkpt lat="45.83342" lon="4.70809">
        <ele>317.07086</ele>
        <time>2023-10-04T09:49:00.000Z</time>
      </trkpt>
      <trkpt lat="45.83341" lon="4.70814">
        <ele>317.10635</ele>
        <time>2023-10-04T09:49:01.000Z</time>
      </trkpt>
      <trkpt lat="45.83341" lon="4.70819">
        <ele>317.11218</ele>
        <time>2023-10-04T09:49:02.000Z</time>
      </trkpt>
      <trkpt lat="45.83341" lon="4.70824">
        <ele>317.10742</ele>
        <time>2023-10-04T09:49:03.000Z</time>
      </trkpt>
      <trkpt lat="45.8334" lon="4.70828">
        <ele>317.09705</ele>
        <time>2023-10-04T09:49:04.000Z</time>
      </trkpt>
      <trkpt lat="45.8334" lon="4.70833">
        <ele>317.0899</ele>
        <time>2023-10-04T09:49:05.000Z</time>
      </trkpt>
      <trkpt lat="45.83339" lon="4.70838">
        <ele>317.0777</ele>
        <time>2023-10-04T09:49:06.000Z</time>
      </trkpt>
      <trkpt lat="45.83339" lon="4.70842">
        <ele>317.06799</ele>
        <time>2023-10-04T09:49:07.000Z</time>
      </trkpt>
      <trkpt lat="45.83338" lon="4.70847">
        <ele>317.07303</ele>
        <time>2023-10-04T09:49:08.000Z</time>
      </trkpt>
      <trkpt lat="45.83338" lon="4.70852">
        <ele>317.05072</ele>
        <time>2023-10-04T09:49:09.000Z</time>
      </trkpt>
    </trkseg>
  </trk>
</gpx>